<?xml version="1.0" encoding="UTF-8" standalone="no" ?>
<gpx xmlns="http://www.topografix.com/GPX/1/1" xmlns:xsi="http://www.w3.org/2001/XMLSchema-instance" xsi:schemaLocation="http://www.topografix.com/GPX/1/1 http://www.topografix.com/GPX/1/1/gpx.xsd" version="1.1" creator="VisuGPX - https://www.visugpx.com">
  <metadata>
    <name>SE-N-Pont St Martin Le Bignon St Fiacre Vertou</name>
    <desc><![CDATA[SE-N-Pont St Martin Le Bignon St Fiacre Vertou]]></desc>
  </metadata>
  <trk>
    <name><![CDATA[2020-05-14 17:19]]></name>
    <desc><![CDATA[<p>Heure de départ: 05/14/2020 17:19<br/>Heure d'arrivée: 05/14/2020 19:33<br/>Distance: 54,5 km (02:14)<br/>Temps déplacement: 02:12<br/>Vitesse moyenne: 24,21 km/h<br/>Vitesse moyenne mouv.: 24,7 km/h<br/>Vitesse Max.: 40,89 km/h<br/>Altitude minimale: -10 m<br/>Altitude maximale: 58 m<br/>Vitesse de montée: 382,1 m/h<br/>Vitesse de descente: -449,4 m/h<br/>Gain d'altitude: 291 m<br/>Perte d'altitude: -301 m<br/>Temps de montée: 00:45<br/>Temps de descente: 00:40<br/></p><hr align="center" width="480" style="height: 2px; width: 517px"/>]]></desc>
    <trkseg>
      <trkpt lat="47.16771" lon="-1.62652">
        <ele>28.17</ele>
        <time>2020-05-14T15:19:00Z</time>
      </trkpt>
      <trkpt lat="47.16774" lon="-1.62666">
        <ele>22.4</ele>
        <time>2020-05-14T15:19:54Z</time>
      </trkpt>
      <trkpt lat="47.16771" lon="-1.62679">
        <ele>19.98</ele>
        <time>2020-05-14T15:19:57Z</time>
      </trkpt>
      <trkpt lat="47.16759" lon="-1.62682">
        <ele>15.38</ele>
        <time>2020-05-14T15:20:00Z</time>
      </trkpt>
      <trkpt lat="47.1675" lon="-1.62677">
        <ele>14.53</ele>
        <time>2020-05-14T15:20:02Z</time>
      </trkpt>
      <trkpt lat="47.1674" lon="-1.62681">
        <ele>14.14</ele>
        <time>2020-05-14T15:20:04Z</time>
      </trkpt>
      <trkpt lat="47.16731" lon="-1.62688">
        <ele>13.38</ele>
        <time>2020-05-14T15:20:06Z</time>
      </trkpt>
      <trkpt lat="47.16722" lon="-1.62694">
        <ele>12.86</ele>
        <time>2020-05-14T15:20:08Z</time>
      </trkpt>
      <trkpt lat="47.16713" lon="-1.627">
        <ele>12.8</ele>
        <time>2020-05-14T15:20:11Z</time>
      </trkpt>
      <trkpt lat="47.16703" lon="-1.6269">
        <ele>14</ele>
        <time>2020-05-14T15:20:14Z</time>
      </trkpt>
      <trkpt lat="47.16697" lon="-1.62673">
        <ele>14.69</ele>
        <time>2020-05-14T15:20:16Z</time>
      </trkpt>
      <trkpt lat="47.16694" lon="-1.62654">
        <ele>15.87</ele>
        <time>2020-05-14T15:20:18Z</time>
      </trkpt>
      <trkpt lat="47.16691" lon="-1.62633">
        <ele>17.61</ele>
        <time>2020-05-14T15:20:20Z</time>
      </trkpt>
      <trkpt lat="47.1669" lon="-1.62611">
        <ele>19.17</ele>
        <time>2020-05-14T15:20:22Z</time>
      </trkpt>
      <trkpt lat="47.1669" lon="-1.6259">
        <ele>20.29</ele>
        <time>2020-05-14T15:20:24Z</time>
      </trkpt>
      <trkpt lat="47.16689" lon="-1.62577">
        <ele>21.9</ele>
        <time>2020-05-14T15:20:25Z</time>
      </trkpt>
      <trkpt lat="47.1669" lon="-1.62555">
        <ele>26</ele>
        <time>2020-05-14T15:20:27Z</time>
      </trkpt>
      <trkpt lat="47.16692" lon="-1.62537">
        <ele>29.45</ele>
        <time>2020-05-14T15:20:29Z</time>
      </trkpt>
      <trkpt lat="47.16694" lon="-1.62519">
        <ele>32.13</ele>
        <time>2020-05-14T15:20:31Z</time>
      </trkpt>
      <trkpt lat="47.16697" lon="-1.62502">
        <ele>33.95</ele>
        <time>2020-05-14T15:20:33Z</time>
      </trkpt>
      <trkpt lat="47.167" lon="-1.62481">
        <ele>35.09</ele>
        <time>2020-05-14T15:20:35Z</time>
      </trkpt>
      <trkpt lat="47.16704" lon="-1.62465">
        <ele>34.84</ele>
        <time>2020-05-14T15:20:37Z</time>
      </trkpt>
      <trkpt lat="47.16707" lon="-1.62449">
        <ele>31.85</ele>
        <time>2020-05-14T15:20:39Z</time>
      </trkpt>
      <trkpt lat="47.1671" lon="-1.62433">
        <ele>28.37</ele>
        <time>2020-05-14T15:20:41Z</time>
      </trkpt>
      <trkpt lat="47.16713" lon="-1.62413">
        <ele>25.97</ele>
        <time>2020-05-14T15:20:44Z</time>
      </trkpt>
      <trkpt lat="47.16715" lon="-1.62394">
        <ele>24.87</ele>
        <time>2020-05-14T15:20:46Z</time>
      </trkpt>
      <trkpt lat="47.16708" lon="-1.62385">
        <ele>24.84</ele>
        <time>2020-05-14T15:20:48Z</time>
      </trkpt>
      <trkpt lat="47.16699" lon="-1.62372">
        <ele>25.39</ele>
        <time>2020-05-14T15:20:50Z</time>
      </trkpt>
      <trkpt lat="47.1669" lon="-1.6236">
        <ele>25.77</ele>
        <time>2020-05-14T15:20:52Z</time>
      </trkpt>
      <trkpt lat="47.16679" lon="-1.62351">
        <ele>26.48</ele>
        <time>2020-05-14T15:20:54Z</time>
      </trkpt>
      <trkpt lat="47.16665" lon="-1.62348">
        <ele>28.1</ele>
        <time>2020-05-14T15:20:56Z</time>
      </trkpt>
      <trkpt lat="47.16651" lon="-1.6235">
        <ele>29.55</ele>
        <time>2020-05-14T15:20:58Z</time>
      </trkpt>
      <trkpt lat="47.1664" lon="-1.62356">
        <ele>30.22</ele>
        <time>2020-05-14T15:21:00Z</time>
      </trkpt>
      <trkpt lat="47.16629" lon="-1.62367">
        <ele>30.66</ele>
        <time>2020-05-14T15:21:02Z</time>
      </trkpt>
      <trkpt lat="47.1662" lon="-1.6238">
        <ele>30.87</ele>
        <time>2020-05-14T15:21:04Z</time>
      </trkpt>
      <trkpt lat="47.16611" lon="-1.62391">
        <ele>32.08</ele>
        <time>2020-05-14T15:21:06Z</time>
      </trkpt>
      <trkpt lat="47.16602" lon="-1.62408">
        <ele>32.19</ele>
        <time>2020-05-14T15:21:08Z</time>
      </trkpt>
      <trkpt lat="47.16596" lon="-1.62423">
        <ele>32.26</ele>
        <time>2020-05-14T15:21:10Z</time>
      </trkpt>
      <trkpt lat="47.16591" lon="-1.6244">
        <ele>31.37</ele>
        <time>2020-05-14T15:21:12Z</time>
      </trkpt>
      <trkpt lat="47.16585" lon="-1.62459">
        <ele>29.46</ele>
        <time>2020-05-14T15:21:14Z</time>
      </trkpt>
      <trkpt lat="47.16579" lon="-1.62479">
        <ele>26.98</ele>
        <time>2020-05-14T15:21:16Z</time>
      </trkpt>
      <trkpt lat="47.16574" lon="-1.62496">
        <ele>24.5</ele>
        <time>2020-05-14T15:21:18Z</time>
      </trkpt>
      <trkpt lat="47.16567" lon="-1.62514">
        <ele>22.67</ele>
        <time>2020-05-14T15:21:20Z</time>
      </trkpt>
      <trkpt lat="47.16561" lon="-1.62529">
        <ele>22.59</ele>
        <time>2020-05-14T15:21:22Z</time>
      </trkpt>
      <trkpt lat="47.16554" lon="-1.62546">
        <ele>21.74</ele>
        <time>2020-05-14T15:21:24Z</time>
      </trkpt>
      <trkpt lat="47.16545" lon="-1.62557">
        <ele>21.64</ele>
        <time>2020-05-14T15:21:26Z</time>
      </trkpt>
      <trkpt lat="47.16534" lon="-1.62566">
        <ele>22.47</ele>
        <time>2020-05-14T15:21:28Z</time>
      </trkpt>
      <trkpt lat="47.16521" lon="-1.62566">
        <ele>23.12</ele>
        <time>2020-05-14T15:21:30Z</time>
      </trkpt>
      <trkpt lat="47.16506" lon="-1.62563">
        <ele>23.48</ele>
        <time>2020-05-14T15:21:32Z</time>
      </trkpt>
      <trkpt lat="47.16494" lon="-1.6256">
        <ele>23.76</ele>
        <time>2020-05-14T15:21:34Z</time>
      </trkpt>
      <trkpt lat="47.1648" lon="-1.62555">
        <ele>24.46</ele>
        <time>2020-05-14T15:21:36Z</time>
      </trkpt>
      <trkpt lat="47.16467" lon="-1.62551">
        <ele>25.63</ele>
        <time>2020-05-14T15:21:38Z</time>
      </trkpt>
      <trkpt lat="47.16454" lon="-1.62546">
        <ele>26.25</ele>
        <time>2020-05-14T15:21:40Z</time>
      </trkpt>
      <trkpt lat="47.16441" lon="-1.62541">
        <ele>26.42</ele>
        <time>2020-05-14T15:21:42Z</time>
      </trkpt>
      <trkpt lat="47.16429" lon="-1.62544">
        <ele>26.03</ele>
        <time>2020-05-14T15:21:44Z</time>
      </trkpt>
      <trkpt lat="47.16416" lon="-1.62554">
        <ele>25.01</ele>
        <time>2020-05-14T15:21:46Z</time>
      </trkpt>
      <trkpt lat="47.16404" lon="-1.62565">
        <ele>24.8</ele>
        <time>2020-05-14T15:21:48Z</time>
      </trkpt>
      <trkpt lat="47.16391" lon="-1.62578">
        <ele>24.68</ele>
        <time>2020-05-14T15:21:50Z</time>
      </trkpt>
      <trkpt lat="47.16376" lon="-1.62585">
        <ele>23.26</ele>
        <time>2020-05-14T15:21:52Z</time>
      </trkpt>
      <trkpt lat="47.16362" lon="-1.62587">
        <ele>22.66</ele>
        <time>2020-05-14T15:21:54Z</time>
      </trkpt>
      <trkpt lat="47.16346" lon="-1.62584">
        <ele>22.7</ele>
        <time>2020-05-14T15:21:56Z</time>
      </trkpt>
      <trkpt lat="47.16331" lon="-1.62579">
        <ele>22.41</ele>
        <time>2020-05-14T15:21:58Z</time>
      </trkpt>
      <trkpt lat="47.16317" lon="-1.62573">
        <ele>22.72</ele>
        <time>2020-05-14T15:22:00Z</time>
      </trkpt>
      <trkpt lat="47.16304" lon="-1.62575">
        <ele>23.33</ele>
        <time>2020-05-14T15:22:02Z</time>
      </trkpt>
      <trkpt lat="47.16294" lon="-1.62584">
        <ele>23.53</ele>
        <time>2020-05-14T15:22:04Z</time>
      </trkpt>
      <trkpt lat="47.16287" lon="-1.62599">
        <ele>23.83</ele>
        <time>2020-05-14T15:22:06Z</time>
      </trkpt>
      <trkpt lat="47.16281" lon="-1.62616">
        <ele>24.24</ele>
        <time>2020-05-14T15:22:08Z</time>
      </trkpt>
      <trkpt lat="47.16276" lon="-1.62635">
        <ele>24.14</ele>
        <time>2020-05-14T15:22:10Z</time>
      </trkpt>
      <trkpt lat="47.16273" lon="-1.62654">
        <ele>24.69</ele>
        <time>2020-05-14T15:22:12Z</time>
      </trkpt>
      <trkpt lat="47.16272" lon="-1.62672">
        <ele>24.57</ele>
        <time>2020-05-14T15:22:14Z</time>
      </trkpt>
      <trkpt lat="47.16271" lon="-1.62693">
        <ele>24.3</ele>
        <time>2020-05-14T15:22:16Z</time>
      </trkpt>
      <trkpt lat="47.16272" lon="-1.62709">
        <ele>24.4</ele>
        <time>2020-05-14T15:22:18Z</time>
      </trkpt>
      <trkpt lat="47.16275" lon="-1.62722">
        <ele>24.54</ele>
        <time>2020-05-14T15:22:21Z</time>
      </trkpt>
      <trkpt lat="47.16276" lon="-1.62738">
        <ele>24.56</ele>
        <time>2020-05-14T15:22:25Z</time>
      </trkpt>
      <trkpt lat="47.16262" lon="-1.62739">
        <ele>23.01</ele>
        <time>2020-05-14T15:22:28Z</time>
      </trkpt>
      <trkpt lat="47.1625" lon="-1.62745">
        <ele>22.76</ele>
        <time>2020-05-14T15:22:30Z</time>
      </trkpt>
      <trkpt lat="47.16236" lon="-1.62754">
        <ele>21.92</ele>
        <time>2020-05-14T15:22:32Z</time>
      </trkpt>
      <trkpt lat="47.1622" lon="-1.62762">
        <ele>20.41</ele>
        <time>2020-05-14T15:22:34Z</time>
      </trkpt>
      <trkpt lat="47.16204" lon="-1.6277">
        <ele>19.07</ele>
        <time>2020-05-14T15:22:36Z</time>
      </trkpt>
      <trkpt lat="47.1619" lon="-1.62779">
        <ele>18.45</ele>
        <time>2020-05-14T15:22:38Z</time>
      </trkpt>
      <trkpt lat="47.16174" lon="-1.62793">
        <ele>18.11</ele>
        <time>2020-05-14T15:22:40Z</time>
      </trkpt>
      <trkpt lat="47.16165" lon="-1.62801">
        <ele>18.01</ele>
        <time>2020-05-14T15:22:41Z</time>
      </trkpt>
      <trkpt lat="47.16157" lon="-1.62809">
        <ele>17.63</ele>
        <time>2020-05-14T15:22:42Z</time>
      </trkpt>
      <trkpt lat="47.16148" lon="-1.62817">
        <ele>17.11</ele>
        <time>2020-05-14T15:22:43Z</time>
      </trkpt>
      <trkpt lat="47.16132" lon="-1.62831">
        <ele>16.25</ele>
        <time>2020-05-14T15:22:45Z</time>
      </trkpt>
      <trkpt lat="47.16124" lon="-1.62838">
        <ele>16.08</ele>
        <time>2020-05-14T15:22:46Z</time>
      </trkpt>
      <trkpt lat="47.16115" lon="-1.62846">
        <ele>16.01</ele>
        <time>2020-05-14T15:22:47Z</time>
      </trkpt>
      <trkpt lat="47.16105" lon="-1.62854">
        <ele>16.21</ele>
        <time>2020-05-14T15:22:48Z</time>
      </trkpt>
      <trkpt lat="47.16097" lon="-1.62861">
        <ele>15.88</ele>
        <time>2020-05-14T15:22:49Z</time>
      </trkpt>
      <trkpt lat="47.16089" lon="-1.62868">
        <ele>15.21</ele>
        <time>2020-05-14T15:22:50Z</time>
      </trkpt>
      <trkpt lat="47.16081" lon="-1.62876">
        <ele>14.47</ele>
        <time>2020-05-14T15:22:51Z</time>
      </trkpt>
      <trkpt lat="47.16071" lon="-1.62885">
        <ele>14.47</ele>
        <time>2020-05-14T15:22:52Z</time>
      </trkpt>
      <trkpt lat="47.16063" lon="-1.62892">
        <ele>14.53</ele>
        <time>2020-05-14T15:22:53Z</time>
      </trkpt>
      <trkpt lat="47.16054" lon="-1.629">
        <ele>14.39</ele>
        <time>2020-05-14T15:22:54Z</time>
      </trkpt>
      <trkpt lat="47.16046" lon="-1.62907">
        <ele>14.51</ele>
        <time>2020-05-14T15:22:55Z</time>
      </trkpt>
      <trkpt lat="47.16038" lon="-1.62914">
        <ele>14.62</ele>
        <time>2020-05-14T15:22:56Z</time>
      </trkpt>
      <trkpt lat="47.16029" lon="-1.62922">
        <ele>15.14</ele>
        <time>2020-05-14T15:22:57Z</time>
      </trkpt>
      <trkpt lat="47.1602" lon="-1.62931">
        <ele>15.24</ele>
        <time>2020-05-14T15:22:57Z</time>
      </trkpt>
      <trkpt lat="47.16011" lon="-1.62938">
        <ele>15.07</ele>
        <time>2020-05-14T15:22:58Z</time>
      </trkpt>
      <trkpt lat="47.16002" lon="-1.62947">
        <ele>14.46</ele>
        <time>2020-05-14T15:22:59Z</time>
      </trkpt>
      <trkpt lat="47.15993" lon="-1.62954">
        <ele>14.24</ele>
        <time>2020-05-14T15:23:00Z</time>
      </trkpt>
      <trkpt lat="47.15985" lon="-1.62962">
        <ele>13.94</ele>
        <time>2020-05-14T15:23:01Z</time>
      </trkpt>
      <trkpt lat="47.15975" lon="-1.6297">
        <ele>13.53</ele>
        <time>2020-05-14T15:23:02Z</time>
      </trkpt>
      <trkpt lat="47.15966" lon="-1.62979">
        <ele>13.02</ele>
        <time>2020-05-14T15:23:03Z</time>
      </trkpt>
      <trkpt lat="47.15958" lon="-1.62986">
        <ele>12.91</ele>
        <time>2020-05-14T15:23:04Z</time>
      </trkpt>
      <trkpt lat="47.15948" lon="-1.62994">
        <ele>12.92</ele>
        <time>2020-05-14T15:23:05Z</time>
      </trkpt>
      <trkpt lat="47.1594" lon="-1.63001">
        <ele>13.03</ele>
        <time>2020-05-14T15:23:06Z</time>
      </trkpt>
      <trkpt lat="47.15931" lon="-1.63009">
        <ele>13.26</ele>
        <time>2020-05-14T15:23:07Z</time>
      </trkpt>
      <trkpt lat="47.15923" lon="-1.63015">
        <ele>13.41</ele>
        <time>2020-05-14T15:23:08Z</time>
      </trkpt>
      <trkpt lat="47.15914" lon="-1.63023">
        <ele>13.44</ele>
        <time>2020-05-14T15:23:09Z</time>
      </trkpt>
      <trkpt lat="47.15906" lon="-1.63031">
        <ele>13.45</ele>
        <time>2020-05-14T15:23:10Z</time>
      </trkpt>
      <trkpt lat="47.15897" lon="-1.63039">
        <ele>13.39</ele>
        <time>2020-05-14T15:23:11Z</time>
      </trkpt>
      <trkpt lat="47.15888" lon="-1.63046">
        <ele>13.34</ele>
        <time>2020-05-14T15:23:12Z</time>
      </trkpt>
      <trkpt lat="47.15881" lon="-1.63053">
        <ele>13.7</ele>
        <time>2020-05-14T15:23:13Z</time>
      </trkpt>
      <trkpt lat="47.15865" lon="-1.63067">
        <ele>13.65</ele>
        <time>2020-05-14T15:23:15Z</time>
      </trkpt>
      <trkpt lat="47.15851" lon="-1.6308">
        <ele>11.86</ele>
        <time>2020-05-14T15:23:17Z</time>
      </trkpt>
      <trkpt lat="47.15837" lon="-1.63093">
        <ele>10.35</ele>
        <time>2020-05-14T15:23:19Z</time>
      </trkpt>
      <trkpt lat="47.15821" lon="-1.63107">
        <ele>9.91</ele>
        <time>2020-05-14T15:23:21Z</time>
      </trkpt>
      <trkpt lat="47.15809" lon="-1.63118">
        <ele>9.87</ele>
        <time>2020-05-14T15:23:23Z</time>
      </trkpt>
      <trkpt lat="47.15797" lon="-1.63129">
        <ele>10.63</ele>
        <time>2020-05-14T15:23:25Z</time>
      </trkpt>
      <trkpt lat="47.15783" lon="-1.63142">
        <ele>11.16</ele>
        <time>2020-05-14T15:23:27Z</time>
      </trkpt>
      <trkpt lat="47.15769" lon="-1.63153">
        <ele>12.34</ele>
        <time>2020-05-14T15:23:29Z</time>
      </trkpt>
      <trkpt lat="47.15757" lon="-1.63165">
        <ele>14.33</ele>
        <time>2020-05-14T15:23:31Z</time>
      </trkpt>
      <trkpt lat="47.15743" lon="-1.63177">
        <ele>15.42</ele>
        <time>2020-05-14T15:23:33Z</time>
      </trkpt>
      <trkpt lat="47.15728" lon="-1.6319">
        <ele>15.43</ele>
        <time>2020-05-14T15:23:35Z</time>
      </trkpt>
      <trkpt lat="47.15715" lon="-1.63202">
        <ele>15.01</ele>
        <time>2020-05-14T15:23:37Z</time>
      </trkpt>
      <trkpt lat="47.157" lon="-1.63214">
        <ele>14.14</ele>
        <time>2020-05-14T15:23:39Z</time>
      </trkpt>
      <trkpt lat="47.15685" lon="-1.63228">
        <ele>14.23</ele>
        <time>2020-05-14T15:23:41Z</time>
      </trkpt>
      <trkpt lat="47.1567" lon="-1.63241">
        <ele>14.36</ele>
        <time>2020-05-14T15:23:43Z</time>
      </trkpt>
      <trkpt lat="47.15656" lon="-1.63254">
        <ele>13.95</ele>
        <time>2020-05-14T15:23:45Z</time>
      </trkpt>
      <trkpt lat="47.1564" lon="-1.63267">
        <ele>13.65</ele>
        <time>2020-05-14T15:23:47Z</time>
      </trkpt>
      <trkpt lat="47.15625" lon="-1.63279">
        <ele>13.63</ele>
        <time>2020-05-14T15:23:49Z</time>
      </trkpt>
      <trkpt lat="47.1561" lon="-1.63293">
        <ele>14.29</ele>
        <time>2020-05-14T15:23:51Z</time>
      </trkpt>
      <trkpt lat="47.15595" lon="-1.63306">
        <ele>14.95</ele>
        <time>2020-05-14T15:23:53Z</time>
      </trkpt>
      <trkpt lat="47.15582" lon="-1.63319">
        <ele>15.63</ele>
        <time>2020-05-14T15:23:55Z</time>
      </trkpt>
      <trkpt lat="47.15568" lon="-1.63331">
        <ele>16.17</ele>
        <time>2020-05-14T15:23:57Z</time>
      </trkpt>
      <trkpt lat="47.15555" lon="-1.63343">
        <ele>16.72</ele>
        <time>2020-05-14T15:23:59Z</time>
      </trkpt>
      <trkpt lat="47.15542" lon="-1.63354">
        <ele>17.48</ele>
        <time>2020-05-14T15:24:01Z</time>
      </trkpt>
      <trkpt lat="47.15528" lon="-1.63367">
        <ele>17.67</ele>
        <time>2020-05-14T15:24:03Z</time>
      </trkpt>
      <trkpt lat="47.15515" lon="-1.63378">
        <ele>17.78</ele>
        <time>2020-05-14T15:24:05Z</time>
      </trkpt>
      <trkpt lat="47.15501" lon="-1.63391">
        <ele>18.81</ele>
        <time>2020-05-14T15:24:07Z</time>
      </trkpt>
      <trkpt lat="47.15487" lon="-1.63403">
        <ele>18.72</ele>
        <time>2020-05-14T15:24:09Z</time>
      </trkpt>
      <trkpt lat="47.15474" lon="-1.63415">
        <ele>18.59</ele>
        <time>2020-05-14T15:24:11Z</time>
      </trkpt>
      <trkpt lat="47.15461" lon="-1.63428">
        <ele>18.49</ele>
        <time>2020-05-14T15:24:13Z</time>
      </trkpt>
      <trkpt lat="47.1545" lon="-1.63438">
        <ele>18.9</ele>
        <time>2020-05-14T15:24:15Z</time>
      </trkpt>
      <trkpt lat="47.15437" lon="-1.6345">
        <ele>19.5</ele>
        <time>2020-05-14T15:24:17Z</time>
      </trkpt>
      <trkpt lat="47.15424" lon="-1.63463">
        <ele>20.58</ele>
        <time>2020-05-14T15:24:19Z</time>
      </trkpt>
      <trkpt lat="47.15411" lon="-1.63475">
        <ele>21.49</ele>
        <time>2020-05-14T15:24:21Z</time>
      </trkpt>
      <trkpt lat="47.15399" lon="-1.63491">
        <ele>21.76</ele>
        <time>2020-05-14T15:24:23Z</time>
      </trkpt>
      <trkpt lat="47.15389" lon="-1.63505">
        <ele>21.8</ele>
        <time>2020-05-14T15:24:25Z</time>
      </trkpt>
      <trkpt lat="47.15376" lon="-1.63514">
        <ele>20.97</ele>
        <time>2020-05-14T15:24:27Z</time>
      </trkpt>
      <trkpt lat="47.15363" lon="-1.6352">
        <ele>20.99</ele>
        <time>2020-05-14T15:24:29Z</time>
      </trkpt>
      <trkpt lat="47.1535" lon="-1.63531">
        <ele>21.47</ele>
        <time>2020-05-14T15:24:31Z</time>
      </trkpt>
      <trkpt lat="47.15335" lon="-1.63545">
        <ele>21.83</ele>
        <time>2020-05-14T15:24:33Z</time>
      </trkpt>
      <trkpt lat="47.1532" lon="-1.63558">
        <ele>21.05</ele>
        <time>2020-05-14T15:24:35Z</time>
      </trkpt>
      <trkpt lat="47.15307" lon="-1.63567">
        <ele>20.94</ele>
        <time>2020-05-14T15:24:37Z</time>
      </trkpt>
      <trkpt lat="47.15292" lon="-1.63578">
        <ele>21.79</ele>
        <time>2020-05-14T15:24:39Z</time>
      </trkpt>
      <trkpt lat="47.15278" lon="-1.6359">
        <ele>22.9</ele>
        <time>2020-05-14T15:24:41Z</time>
      </trkpt>
      <trkpt lat="47.15265" lon="-1.63602">
        <ele>22.91</ele>
        <time>2020-05-14T15:24:43Z</time>
      </trkpt>
      <trkpt lat="47.15252" lon="-1.63613">
        <ele>22.15</ele>
        <time>2020-05-14T15:24:45Z</time>
      </trkpt>
      <trkpt lat="47.15237" lon="-1.63626">
        <ele>21.47</ele>
        <time>2020-05-14T15:24:47Z</time>
      </trkpt>
      <trkpt lat="47.15223" lon="-1.63637">
        <ele>21.35</ele>
        <time>2020-05-14T15:24:49Z</time>
      </trkpt>
      <trkpt lat="47.15209" lon="-1.63649">
        <ele>22.32</ele>
        <time>2020-05-14T15:24:51Z</time>
      </trkpt>
      <trkpt lat="47.15194" lon="-1.63662">
        <ele>21.76</ele>
        <time>2020-05-14T15:24:53Z</time>
      </trkpt>
      <trkpt lat="47.15186" lon="-1.63669">
        <ele>21.17</ele>
        <time>2020-05-14T15:24:54Z</time>
      </trkpt>
      <trkpt lat="47.15172" lon="-1.63681">
        <ele>20.67</ele>
        <time>2020-05-14T15:24:56Z</time>
      </trkpt>
      <trkpt lat="47.15157" lon="-1.63694">
        <ele>20.27</ele>
        <time>2020-05-14T15:24:58Z</time>
      </trkpt>
      <trkpt lat="47.15143" lon="-1.63707">
        <ele>20.68</ele>
        <time>2020-05-14T15:25:00Z</time>
      </trkpt>
      <trkpt lat="47.15129" lon="-1.63721">
        <ele>20.28</ele>
        <time>2020-05-14T15:25:02Z</time>
      </trkpt>
      <trkpt lat="47.15116" lon="-1.63734">
        <ele>19.27</ele>
        <time>2020-05-14T15:25:04Z</time>
      </trkpt>
      <trkpt lat="47.15103" lon="-1.63748">
        <ele>18.87</ele>
        <time>2020-05-14T15:25:06Z</time>
      </trkpt>
      <trkpt lat="47.15089" lon="-1.63764">
        <ele>18.6</ele>
        <time>2020-05-14T15:25:08Z</time>
      </trkpt>
      <trkpt lat="47.15076" lon="-1.6378">
        <ele>19.01</ele>
        <time>2020-05-14T15:25:10Z</time>
      </trkpt>
      <trkpt lat="47.15063" lon="-1.63796">
        <ele>19.3</ele>
        <time>2020-05-14T15:25:12Z</time>
      </trkpt>
      <trkpt lat="47.15053" lon="-1.63809">
        <ele>20.16</ele>
        <time>2020-05-14T15:25:14Z</time>
      </trkpt>
      <trkpt lat="47.15041" lon="-1.63825">
        <ele>19.92</ele>
        <time>2020-05-14T15:25:16Z</time>
      </trkpt>
      <trkpt lat="47.15029" lon="-1.63842">
        <ele>19.53</ele>
        <time>2020-05-14T15:25:18Z</time>
      </trkpt>
      <trkpt lat="47.15018" lon="-1.63857">
        <ele>18.87</ele>
        <time>2020-05-14T15:25:20Z</time>
      </trkpt>
      <trkpt lat="47.15007" lon="-1.63874">
        <ele>17.92</ele>
        <time>2020-05-14T15:25:22Z</time>
      </trkpt>
      <trkpt lat="47.14996" lon="-1.63891">
        <ele>16.49</ele>
        <time>2020-05-14T15:25:24Z</time>
      </trkpt>
      <trkpt lat="47.14986" lon="-1.63907">
        <ele>15.69</ele>
        <time>2020-05-14T15:25:26Z</time>
      </trkpt>
      <trkpt lat="47.14976" lon="-1.63923">
        <ele>15.37</ele>
        <time>2020-05-14T15:25:28Z</time>
      </trkpt>
      <trkpt lat="47.14964" lon="-1.63939">
        <ele>16.06</ele>
        <time>2020-05-14T15:25:30Z</time>
      </trkpt>
      <trkpt lat="47.14953" lon="-1.63955">
        <ele>16.26</ele>
        <time>2020-05-14T15:25:32Z</time>
      </trkpt>
      <trkpt lat="47.14942" lon="-1.63973">
        <ele>16.95</ele>
        <time>2020-05-14T15:25:34Z</time>
      </trkpt>
      <trkpt lat="47.14931" lon="-1.63991">
        <ele>17.93</ele>
        <time>2020-05-14T15:25:36Z</time>
      </trkpt>
      <trkpt lat="47.1492" lon="-1.64011">
        <ele>19.51</ele>
        <time>2020-05-14T15:25:38Z</time>
      </trkpt>
      <trkpt lat="47.1491" lon="-1.64031">
        <ele>19.64</ele>
        <time>2020-05-14T15:25:40Z</time>
      </trkpt>
      <trkpt lat="47.14903" lon="-1.64044">
        <ele>20.15</ele>
        <time>2020-05-14T15:25:42Z</time>
      </trkpt>
      <trkpt lat="47.14897" lon="-1.64057">
        <ele>21.46</ele>
        <time>2020-05-14T15:25:44Z</time>
      </trkpt>
      <trkpt lat="47.14887" lon="-1.64059">
        <ele>22.61</ele>
        <time>2020-05-14T15:25:46Z</time>
      </trkpt>
      <trkpt lat="47.14879" lon="-1.64039">
        <ele>23.67</ele>
        <time>2020-05-14T15:25:48Z</time>
      </trkpt>
      <trkpt lat="47.14871" lon="-1.64018">
        <ele>23.9</ele>
        <time>2020-05-14T15:25:50Z</time>
      </trkpt>
      <trkpt lat="47.14864" lon="-1.64003">
        <ele>24.35</ele>
        <time>2020-05-14T15:25:52Z</time>
      </trkpt>
      <trkpt lat="47.14853" lon="-1.6399">
        <ele>24.65</ele>
        <time>2020-05-14T15:25:54Z</time>
      </trkpt>
      <trkpt lat="47.14838" lon="-1.63983">
        <ele>24.6</ele>
        <time>2020-05-14T15:25:56Z</time>
      </trkpt>
      <trkpt lat="47.14824" lon="-1.63987">
        <ele>24.44</ele>
        <time>2020-05-14T15:25:58Z</time>
      </trkpt>
      <trkpt lat="47.14809" lon="-1.63998">
        <ele>23.59</ele>
        <time>2020-05-14T15:26:00Z</time>
      </trkpt>
      <trkpt lat="47.14796" lon="-1.64013">
        <ele>23.17</ele>
        <time>2020-05-14T15:26:02Z</time>
      </trkpt>
      <trkpt lat="47.14783" lon="-1.64027">
        <ele>23.19</ele>
        <time>2020-05-14T15:26:04Z</time>
      </trkpt>
      <trkpt lat="47.14769" lon="-1.64041">
        <ele>23.57</ele>
        <time>2020-05-14T15:26:06Z</time>
      </trkpt>
      <trkpt lat="47.14755" lon="-1.64051">
        <ele>24.12</ele>
        <time>2020-05-14T15:26:08Z</time>
      </trkpt>
      <trkpt lat="47.14739" lon="-1.64059">
        <ele>24.32</ele>
        <time>2020-05-14T15:26:10Z</time>
      </trkpt>
      <trkpt lat="47.14723" lon="-1.64066">
        <ele>24.47</ele>
        <time>2020-05-14T15:26:12Z</time>
      </trkpt>
      <trkpt lat="47.14707" lon="-1.64072">
        <ele>23.61</ele>
        <time>2020-05-14T15:26:14Z</time>
      </trkpt>
      <trkpt lat="47.14692" lon="-1.64077">
        <ele>22.4</ele>
        <time>2020-05-14T15:26:16Z</time>
      </trkpt>
      <trkpt lat="47.14676" lon="-1.64084">
        <ele>21.59</ele>
        <time>2020-05-14T15:26:18Z</time>
      </trkpt>
      <trkpt lat="47.14661" lon="-1.64091">
        <ele>20.61</ele>
        <time>2020-05-14T15:26:20Z</time>
      </trkpt>
      <trkpt lat="47.14644" lon="-1.641">
        <ele>19.44</ele>
        <time>2020-05-14T15:26:22Z</time>
      </trkpt>
      <trkpt lat="47.14635" lon="-1.64104">
        <ele>18.88</ele>
        <time>2020-05-14T15:26:23Z</time>
      </trkpt>
      <trkpt lat="47.14627" lon="-1.64109">
        <ele>18.62</ele>
        <time>2020-05-14T15:26:24Z</time>
      </trkpt>
      <trkpt lat="47.14618" lon="-1.64113">
        <ele>18.24</ele>
        <time>2020-05-14T15:26:25Z</time>
      </trkpt>
      <trkpt lat="47.14609" lon="-1.64118">
        <ele>18.48</ele>
        <time>2020-05-14T15:26:26Z</time>
      </trkpt>
      <trkpt lat="47.146" lon="-1.64123">
        <ele>18.48</ele>
        <time>2020-05-14T15:26:27Z</time>
      </trkpt>
      <trkpt lat="47.14583" lon="-1.64132">
        <ele>18.29</ele>
        <time>2020-05-14T15:26:29Z</time>
      </trkpt>
      <trkpt lat="47.14568" lon="-1.6414">
        <ele>18.97</ele>
        <time>2020-05-14T15:26:31Z</time>
      </trkpt>
      <trkpt lat="47.14558" lon="-1.64146">
        <ele>19.39</ele>
        <time>2020-05-14T15:26:32Z</time>
      </trkpt>
      <trkpt lat="47.14543" lon="-1.64156">
        <ele>19.44</ele>
        <time>2020-05-14T15:26:34Z</time>
      </trkpt>
      <trkpt lat="47.14527" lon="-1.64166">
        <ele>19.1</ele>
        <time>2020-05-14T15:26:36Z</time>
      </trkpt>
      <trkpt lat="47.14512" lon="-1.64176">
        <ele>18.96</ele>
        <time>2020-05-14T15:26:38Z</time>
      </trkpt>
      <trkpt lat="47.14497" lon="-1.64186">
        <ele>19.1</ele>
        <time>2020-05-14T15:26:40Z</time>
      </trkpt>
      <trkpt lat="47.1448" lon="-1.64198">
        <ele>18.67</ele>
        <time>2020-05-14T15:26:42Z</time>
      </trkpt>
      <trkpt lat="47.14464" lon="-1.64208">
        <ele>18.63</ele>
        <time>2020-05-14T15:26:44Z</time>
      </trkpt>
      <trkpt lat="47.14449" lon="-1.64216">
        <ele>17.64</ele>
        <time>2020-05-14T15:26:46Z</time>
      </trkpt>
      <trkpt lat="47.14431" lon="-1.64221">
        <ele>15.67</ele>
        <time>2020-05-14T15:26:48Z</time>
      </trkpt>
      <trkpt lat="47.14422" lon="-1.64223">
        <ele>14.39</ele>
        <time>2020-05-14T15:26:49Z</time>
      </trkpt>
      <trkpt lat="47.14405" lon="-1.64225">
        <ele>12.79</ele>
        <time>2020-05-14T15:26:51Z</time>
      </trkpt>
      <trkpt lat="47.1439" lon="-1.64227">
        <ele>11.39</ele>
        <time>2020-05-14T15:26:53Z</time>
      </trkpt>
      <trkpt lat="47.14375" lon="-1.6423">
        <ele>11.27</ele>
        <time>2020-05-14T15:26:55Z</time>
      </trkpt>
      <trkpt lat="47.1436" lon="-1.64231">
        <ele>11.88</ele>
        <time>2020-05-14T15:26:57Z</time>
      </trkpt>
      <trkpt lat="47.14342" lon="-1.64233">
        <ele>12.39</ele>
        <time>2020-05-14T15:26:59Z</time>
      </trkpt>
      <trkpt lat="47.14325" lon="-1.64235">
        <ele>11.14</ele>
        <time>2020-05-14T15:27:01Z</time>
      </trkpt>
      <trkpt lat="47.14309" lon="-1.64238">
        <ele>9.65</ele>
        <time>2020-05-14T15:27:03Z</time>
      </trkpt>
      <trkpt lat="47.14293" lon="-1.64242">
        <ele>8.77</ele>
        <time>2020-05-14T15:27:05Z</time>
      </trkpt>
      <trkpt lat="47.14278" lon="-1.64248">
        <ele>8.63</ele>
        <time>2020-05-14T15:27:07Z</time>
      </trkpt>
      <trkpt lat="47.14261" lon="-1.64257">
        <ele>7.6</ele>
        <time>2020-05-14T15:27:09Z</time>
      </trkpt>
      <trkpt lat="47.14247" lon="-1.64272">
        <ele>7.29</ele>
        <time>2020-05-14T15:27:11Z</time>
      </trkpt>
      <trkpt lat="47.14234" lon="-1.64284">
        <ele>8.45</ele>
        <time>2020-05-14T15:27:13Z</time>
      </trkpt>
      <trkpt lat="47.14222" lon="-1.64295">
        <ele>8.67</ele>
        <time>2020-05-14T15:27:15Z</time>
      </trkpt>
      <trkpt lat="47.14209" lon="-1.64308">
        <ele>9.58</ele>
        <time>2020-05-14T15:27:17Z</time>
      </trkpt>
      <trkpt lat="47.14196" lon="-1.64323">
        <ele>10.53</ele>
        <time>2020-05-14T15:27:19Z</time>
      </trkpt>
      <trkpt lat="47.14188" lon="-1.64332">
        <ele>11.01</ele>
        <time>2020-05-14T15:27:20Z</time>
      </trkpt>
      <trkpt lat="47.14174" lon="-1.64349">
        <ele>11.47</ele>
        <time>2020-05-14T15:27:22Z</time>
      </trkpt>
      <trkpt lat="47.14161" lon="-1.64363">
        <ele>10.36</ele>
        <time>2020-05-14T15:27:24Z</time>
      </trkpt>
      <trkpt lat="47.14149" lon="-1.64374">
        <ele>9.63</ele>
        <time>2020-05-14T15:27:26Z</time>
      </trkpt>
      <trkpt lat="47.14141" lon="-1.64381">
        <ele>9.46</ele>
        <time>2020-05-14T15:27:27Z</time>
      </trkpt>
      <trkpt lat="47.14125" lon="-1.64392">
        <ele>8.77</ele>
        <time>2020-05-14T15:27:29Z</time>
      </trkpt>
      <trkpt lat="47.14111" lon="-1.64402">
        <ele>7.94</ele>
        <time>2020-05-14T15:27:31Z</time>
      </trkpt>
      <trkpt lat="47.14096" lon="-1.64414">
        <ele>7.81</ele>
        <time>2020-05-14T15:27:33Z</time>
      </trkpt>
      <trkpt lat="47.14082" lon="-1.64424">
        <ele>9.13</ele>
        <time>2020-05-14T15:27:35Z</time>
      </trkpt>
      <trkpt lat="47.14066" lon="-1.64435">
        <ele>10.31</ele>
        <time>2020-05-14T15:27:37Z</time>
      </trkpt>
      <trkpt lat="47.14053" lon="-1.64446">
        <ele>10.76</ele>
        <time>2020-05-14T15:27:39Z</time>
      </trkpt>
      <trkpt lat="47.14039" lon="-1.64455">
        <ele>10.79</ele>
        <time>2020-05-14T15:27:41Z</time>
      </trkpt>
      <trkpt lat="47.14025" lon="-1.64467">
        <ele>11.39</ele>
        <time>2020-05-14T15:27:43Z</time>
      </trkpt>
      <trkpt lat="47.14011" lon="-1.64478">
        <ele>11.91</ele>
        <time>2020-05-14T15:27:45Z</time>
      </trkpt>
      <trkpt lat="47.13998" lon="-1.6449">
        <ele>12.93</ele>
        <time>2020-05-14T15:27:47Z</time>
      </trkpt>
      <trkpt lat="47.13984" lon="-1.645">
        <ele>12.69</ele>
        <time>2020-05-14T15:27:49Z</time>
      </trkpt>
      <trkpt lat="47.13971" lon="-1.64512">
        <ele>12.07</ele>
        <time>2020-05-14T15:27:51Z</time>
      </trkpt>
      <trkpt lat="47.13956" lon="-1.64526">
        <ele>11.07</ele>
        <time>2020-05-14T15:27:53Z</time>
      </trkpt>
      <trkpt lat="47.13943" lon="-1.6454">
        <ele>10.04</ele>
        <time>2020-05-14T15:27:55Z</time>
      </trkpt>
      <trkpt lat="47.1393" lon="-1.64553">
        <ele>9.32</ele>
        <time>2020-05-14T15:27:57Z</time>
      </trkpt>
      <trkpt lat="47.13917" lon="-1.64566">
        <ele>8.59</ele>
        <time>2020-05-14T15:27:59Z</time>
      </trkpt>
      <trkpt lat="47.13906" lon="-1.64576">
        <ele>7.83</ele>
        <time>2020-05-14T15:28:01Z</time>
      </trkpt>
      <trkpt lat="47.13893" lon="-1.64587">
        <ele>7.75</ele>
        <time>2020-05-14T15:28:03Z</time>
      </trkpt>
      <trkpt lat="47.13877" lon="-1.64592">
        <ele>7.57</ele>
        <time>2020-05-14T15:28:05Z</time>
      </trkpt>
      <trkpt lat="47.13863" lon="-1.64597">
        <ele>7.3</ele>
        <time>2020-05-14T15:28:07Z</time>
      </trkpt>
      <trkpt lat="47.13848" lon="-1.64601">
        <ele>7.05</ele>
        <time>2020-05-14T15:28:09Z</time>
      </trkpt>
      <trkpt lat="47.13834" lon="-1.64604">
        <ele>6.63</ele>
        <time>2020-05-14T15:28:11Z</time>
      </trkpt>
      <trkpt lat="47.1382" lon="-1.64605">
        <ele>7.17</ele>
        <time>2020-05-14T15:28:13Z</time>
      </trkpt>
      <trkpt lat="47.13807" lon="-1.64604">
        <ele>8.82</ele>
        <time>2020-05-14T15:28:15Z</time>
      </trkpt>
      <trkpt lat="47.13793" lon="-1.64602">
        <ele>11.01</ele>
        <time>2020-05-14T15:28:17Z</time>
      </trkpt>
      <trkpt lat="47.13778" lon="-1.64599">
        <ele>12.86</ele>
        <time>2020-05-14T15:28:19Z</time>
      </trkpt>
      <trkpt lat="47.13765" lon="-1.64596">
        <ele>13.69</ele>
        <time>2020-05-14T15:28:21Z</time>
      </trkpt>
      <trkpt lat="47.1375" lon="-1.64594">
        <ele>14.36</ele>
        <time>2020-05-14T15:28:23Z</time>
      </trkpt>
      <trkpt lat="47.13736" lon="-1.64592">
        <ele>14.44</ele>
        <time>2020-05-14T15:28:25Z</time>
      </trkpt>
      <trkpt lat="47.13721" lon="-1.64588">
        <ele>13.88</ele>
        <time>2020-05-14T15:28:27Z</time>
      </trkpt>
      <trkpt lat="47.13709" lon="-1.64584">
        <ele>12.81</ele>
        <time>2020-05-14T15:28:29Z</time>
      </trkpt>
      <trkpt lat="47.13696" lon="-1.6458">
        <ele>12.63</ele>
        <time>2020-05-14T15:28:31Z</time>
      </trkpt>
      <trkpt lat="47.13682" lon="-1.64576">
        <ele>13.4</ele>
        <time>2020-05-14T15:28:33Z</time>
      </trkpt>
      <trkpt lat="47.13669" lon="-1.64574">
        <ele>14.19</ele>
        <time>2020-05-14T15:28:35Z</time>
      </trkpt>
      <trkpt lat="47.13659" lon="-1.6457">
        <ele>14.48</ele>
        <time>2020-05-14T15:28:37Z</time>
      </trkpt>
      <trkpt lat="47.13646" lon="-1.64567">
        <ele>14.88</ele>
        <time>2020-05-14T15:28:39Z</time>
      </trkpt>
      <trkpt lat="47.13633" lon="-1.64563">
        <ele>14.21</ele>
        <time>2020-05-14T15:28:41Z</time>
      </trkpt>
      <trkpt lat="47.13622" lon="-1.64562">
        <ele>13.97</ele>
        <time>2020-05-14T15:28:43Z</time>
      </trkpt>
      <trkpt lat="47.13609" lon="-1.64559">
        <ele>14.16</ele>
        <time>2020-05-14T15:28:45Z</time>
      </trkpt>
      <trkpt lat="47.13596" lon="-1.64558">
        <ele>14.77</ele>
        <time>2020-05-14T15:28:47Z</time>
      </trkpt>
      <trkpt lat="47.13583" lon="-1.64559">
        <ele>15.05</ele>
        <time>2020-05-14T15:28:49Z</time>
      </trkpt>
      <trkpt lat="47.13571" lon="-1.64565">
        <ele>15.24</ele>
        <time>2020-05-14T15:28:51Z</time>
      </trkpt>
      <trkpt lat="47.13557" lon="-1.64573">
        <ele>15.94</ele>
        <time>2020-05-14T15:28:53Z</time>
      </trkpt>
      <trkpt lat="47.13546" lon="-1.64582">
        <ele>16.22</ele>
        <time>2020-05-14T15:28:55Z</time>
      </trkpt>
      <trkpt lat="47.13536" lon="-1.64592">
        <ele>15.4</ele>
        <time>2020-05-14T15:28:57Z</time>
      </trkpt>
      <trkpt lat="47.13526" lon="-1.64603">
        <ele>14.16</ele>
        <time>2020-05-14T15:28:59Z</time>
      </trkpt>
      <trkpt lat="47.13514" lon="-1.64616">
        <ele>13.66</ele>
        <time>2020-05-14T15:29:01Z</time>
      </trkpt>
      <trkpt lat="47.13505" lon="-1.64627">
        <ele>14.56</ele>
        <time>2020-05-14T15:29:03Z</time>
      </trkpt>
      <trkpt lat="47.13494" lon="-1.64636">
        <ele>15.55</ele>
        <time>2020-05-14T15:29:05Z</time>
      </trkpt>
      <trkpt lat="47.13483" lon="-1.64642">
        <ele>16.95</ele>
        <time>2020-05-14T15:29:07Z</time>
      </trkpt>
      <trkpt lat="47.13472" lon="-1.64646">
        <ele>18.44</ele>
        <time>2020-05-14T15:29:09Z</time>
      </trkpt>
      <trkpt lat="47.13458" lon="-1.64648">
        <ele>18.91</ele>
        <time>2020-05-14T15:29:11Z</time>
      </trkpt>
      <trkpt lat="47.13444" lon="-1.64648">
        <ele>18.18</ele>
        <time>2020-05-14T15:29:13Z</time>
      </trkpt>
      <trkpt lat="47.13433" lon="-1.64648">
        <ele>17.46</ele>
        <time>2020-05-14T15:29:15Z</time>
      </trkpt>
      <trkpt lat="47.13421" lon="-1.64646">
        <ele>16.22</ele>
        <time>2020-05-14T15:29:17Z</time>
      </trkpt>
      <trkpt lat="47.13411" lon="-1.64644">
        <ele>15.29</ele>
        <time>2020-05-14T15:29:19Z</time>
      </trkpt>
      <trkpt lat="47.13399" lon="-1.6464">
        <ele>15.2</ele>
        <time>2020-05-14T15:29:35Z</time>
      </trkpt>
      <trkpt lat="47.13395" lon="-1.64622">
        <ele>19.91</ele>
        <time>2020-05-14T15:29:38Z</time>
      </trkpt>
      <trkpt lat="47.13393" lon="-1.64603">
        <ele>21.59</ele>
        <time>2020-05-14T15:29:40Z</time>
      </trkpt>
      <trkpt lat="47.13391" lon="-1.6459">
        <ele>21.44</ele>
        <time>2020-05-14T15:29:41Z</time>
      </trkpt>
      <trkpt lat="47.13387" lon="-1.64572">
        <ele>21.75</ele>
        <time>2020-05-14T15:29:43Z</time>
      </trkpt>
      <trkpt lat="47.13383" lon="-1.64553">
        <ele>22.3</ele>
        <time>2020-05-14T15:29:45Z</time>
      </trkpt>
      <trkpt lat="47.1338" lon="-1.64537">
        <ele>21.57</ele>
        <time>2020-05-14T15:29:47Z</time>
      </trkpt>
      <trkpt lat="47.13374" lon="-1.64516">
        <ele>20.31</ele>
        <time>2020-05-14T15:29:49Z</time>
      </trkpt>
      <trkpt lat="47.13367" lon="-1.64499">
        <ele>18.05</ele>
        <time>2020-05-14T15:29:51Z</time>
      </trkpt>
      <trkpt lat="47.13358" lon="-1.64479">
        <ele>16.26</ele>
        <time>2020-05-14T15:29:53Z</time>
      </trkpt>
      <trkpt lat="47.13351" lon="-1.64463">
        <ele>15.54</ele>
        <time>2020-05-14T15:29:55Z</time>
      </trkpt>
      <trkpt lat="47.13342" lon="-1.64443">
        <ele>15.33</ele>
        <time>2020-05-14T15:29:57Z</time>
      </trkpt>
      <trkpt lat="47.13332" lon="-1.64422">
        <ele>14.63</ele>
        <time>2020-05-14T15:29:59Z</time>
      </trkpt>
      <trkpt lat="47.13324" lon="-1.64405">
        <ele>14.88</ele>
        <time>2020-05-14T15:30:01Z</time>
      </trkpt>
      <trkpt lat="47.13315" lon="-1.64387">
        <ele>14.92</ele>
        <time>2020-05-14T15:30:03Z</time>
      </trkpt>
      <trkpt lat="47.1331" lon="-1.64376">
        <ele>14.71</ele>
        <time>2020-05-14T15:30:04Z</time>
      </trkpt>
      <trkpt lat="47.13301" lon="-1.64357">
        <ele>13.52</ele>
        <time>2020-05-14T15:30:06Z</time>
      </trkpt>
      <trkpt lat="47.13291" lon="-1.64336">
        <ele>12.34</ele>
        <time>2020-05-14T15:30:08Z</time>
      </trkpt>
      <trkpt lat="47.13285" lon="-1.64325">
        <ele>12.02</ele>
        <time>2020-05-14T15:30:09Z</time>
      </trkpt>
      <trkpt lat="47.13276" lon="-1.64305">
        <ele>11.32</ele>
        <time>2020-05-14T15:30:11Z</time>
      </trkpt>
      <trkpt lat="47.13265" lon="-1.64284">
        <ele>10.8</ele>
        <time>2020-05-14T15:30:13Z</time>
      </trkpt>
      <trkpt lat="47.1326" lon="-1.64273">
        <ele>10.63</ele>
        <time>2020-05-14T15:30:14Z</time>
      </trkpt>
      <trkpt lat="47.13254" lon="-1.64261">
        <ele>10.64</ele>
        <time>2020-05-14T15:30:15Z</time>
      </trkpt>
      <trkpt lat="47.13249" lon="-1.6425">
        <ele>10.49</ele>
        <time>2020-05-14T15:30:16Z</time>
      </trkpt>
      <trkpt lat="47.13243" lon="-1.64239">
        <ele>10.2</ele>
        <time>2020-05-14T15:30:17Z</time>
      </trkpt>
      <trkpt lat="47.13238" lon="-1.64227">
        <ele>9.65</ele>
        <time>2020-05-14T15:30:18Z</time>
      </trkpt>
      <trkpt lat="47.13229" lon="-1.64205">
        <ele>9.39</ele>
        <time>2020-05-14T15:30:20Z</time>
      </trkpt>
      <trkpt lat="47.1322" lon="-1.64185">
        <ele>9.47</ele>
        <time>2020-05-14T15:30:22Z</time>
      </trkpt>
      <trkpt lat="47.1321" lon="-1.64164">
        <ele>9.65</ele>
        <time>2020-05-14T15:30:24Z</time>
      </trkpt>
      <trkpt lat="47.132" lon="-1.64144">
        <ele>10.21</ele>
        <time>2020-05-14T15:30:26Z</time>
      </trkpt>
      <trkpt lat="47.13195" lon="-1.64132">
        <ele>10.15</ele>
        <time>2020-05-14T15:30:27Z</time>
      </trkpt>
      <trkpt lat="47.1319" lon="-1.64121">
        <ele>9.94</ele>
        <time>2020-05-14T15:30:28Z</time>
      </trkpt>
      <trkpt lat="47.1318" lon="-1.641">
        <ele>9.61</ele>
        <time>2020-05-14T15:30:30Z</time>
      </trkpt>
      <trkpt lat="47.13171" lon="-1.64079">
        <ele>8.91</ele>
        <time>2020-05-14T15:30:32Z</time>
      </trkpt>
      <trkpt lat="47.13162" lon="-1.64059">
        <ele>7.49</ele>
        <time>2020-05-14T15:30:34Z</time>
      </trkpt>
      <trkpt lat="47.13157" lon="-1.64047">
        <ele>7.6</ele>
        <time>2020-05-14T15:30:35Z</time>
      </trkpt>
      <trkpt lat="47.13148" lon="-1.64026">
        <ele>7.5</ele>
        <time>2020-05-14T15:30:37Z</time>
      </trkpt>
      <trkpt lat="47.13144" lon="-1.64015">
        <ele>7.18</ele>
        <time>2020-05-14T15:30:38Z</time>
      </trkpt>
      <trkpt lat="47.13136" lon="-1.63995">
        <ele>7.33</ele>
        <time>2020-05-14T15:30:40Z</time>
      </trkpt>
      <trkpt lat="47.13128" lon="-1.63975">
        <ele>8.32</ele>
        <time>2020-05-14T15:30:42Z</time>
      </trkpt>
      <trkpt lat="47.13123" lon="-1.63963">
        <ele>8.14</ele>
        <time>2020-05-14T15:30:43Z</time>
      </trkpt>
      <trkpt lat="47.13115" lon="-1.63942">
        <ele>6.91</ele>
        <time>2020-05-14T15:30:45Z</time>
      </trkpt>
      <trkpt lat="47.13108" lon="-1.63923">
        <ele>5.71</ele>
        <time>2020-05-14T15:30:47Z</time>
      </trkpt>
      <trkpt lat="47.13101" lon="-1.63901">
        <ele>4.96</ele>
        <time>2020-05-14T15:30:49Z</time>
      </trkpt>
      <trkpt lat="47.13094" lon="-1.63881">
        <ele>4.71</ele>
        <time>2020-05-14T15:30:51Z</time>
      </trkpt>
      <trkpt lat="47.13086" lon="-1.6386">
        <ele>3.83</ele>
        <time>2020-05-14T15:30:53Z</time>
      </trkpt>
      <trkpt lat="47.13079" lon="-1.63841">
        <ele>3.92</ele>
        <time>2020-05-14T15:30:55Z</time>
      </trkpt>
      <trkpt lat="47.1307" lon="-1.63822">
        <ele>4.22</ele>
        <time>2020-05-14T15:30:57Z</time>
      </trkpt>
      <trkpt lat="47.13063" lon="-1.63805">
        <ele>4.55</ele>
        <time>2020-05-14T15:30:59Z</time>
      </trkpt>
      <trkpt lat="47.13055" lon="-1.63788">
        <ele>4.87</ele>
        <time>2020-05-14T15:31:01Z</time>
      </trkpt>
      <trkpt lat="47.13047" lon="-1.6377">
        <ele>4.5</ele>
        <time>2020-05-14T15:31:03Z</time>
      </trkpt>
      <trkpt lat="47.13038" lon="-1.63752">
        <ele>4.13</ele>
        <time>2020-05-14T15:31:05Z</time>
      </trkpt>
      <trkpt lat="47.1303" lon="-1.63735">
        <ele>4.02</ele>
        <time>2020-05-14T15:31:07Z</time>
      </trkpt>
      <trkpt lat="47.13023" lon="-1.6372">
        <ele>4.25</ele>
        <time>2020-05-14T15:31:09Z</time>
      </trkpt>
      <trkpt lat="47.13016" lon="-1.63703">
        <ele>5.08</ele>
        <time>2020-05-14T15:31:11Z</time>
      </trkpt>
      <trkpt lat="47.13007" lon="-1.63684">
        <ele>5.52</ele>
        <time>2020-05-14T15:31:13Z</time>
      </trkpt>
      <trkpt lat="47.12998" lon="-1.63666">
        <ele>4.84</ele>
        <time>2020-05-14T15:31:15Z</time>
      </trkpt>
      <trkpt lat="47.12989" lon="-1.63649">
        <ele>4.05</ele>
        <time>2020-05-14T15:31:17Z</time>
      </trkpt>
      <trkpt lat="47.12983" lon="-1.6363">
        <ele>3.5</ele>
        <time>2020-05-14T15:31:19Z</time>
      </trkpt>
      <trkpt lat="47.12977" lon="-1.63611">
        <ele>3.02</ele>
        <time>2020-05-14T15:31:21Z</time>
      </trkpt>
      <trkpt lat="47.12969" lon="-1.6359">
        <ele>3.16</ele>
        <time>2020-05-14T15:31:23Z</time>
      </trkpt>
      <trkpt lat="47.12963" lon="-1.63574">
        <ele>3.1</ele>
        <time>2020-05-14T15:31:25Z</time>
      </trkpt>
      <trkpt lat="47.12954" lon="-1.63555">
        <ele>2.93</ele>
        <time>2020-05-14T15:31:27Z</time>
      </trkpt>
      <trkpt lat="47.12946" lon="-1.63536">
        <ele>2.34</ele>
        <time>2020-05-14T15:31:29Z</time>
      </trkpt>
      <trkpt lat="47.12938" lon="-1.63517">
        <ele>1.55</ele>
        <time>2020-05-14T15:31:31Z</time>
      </trkpt>
      <trkpt lat="47.12931" lon="-1.63499">
        <ele>1.53</ele>
        <time>2020-05-14T15:31:33Z</time>
      </trkpt>
      <trkpt lat="47.12924" lon="-1.63478">
        <ele>1.19</ele>
        <time>2020-05-14T15:31:35Z</time>
      </trkpt>
      <trkpt lat="47.12917" lon="-1.6346">
        <ele>0.26</ele>
        <time>2020-05-14T15:31:37Z</time>
      </trkpt>
      <trkpt lat="47.1291" lon="-1.63441">
        <ele>0.35</ele>
        <time>2020-05-14T15:31:39Z</time>
      </trkpt>
      <trkpt lat="47.12903" lon="-1.63422">
        <ele>0.2</ele>
        <time>2020-05-14T15:31:41Z</time>
      </trkpt>
      <trkpt lat="47.12896" lon="-1.63402">
        <ele>0.75</ele>
        <time>2020-05-14T15:31:43Z</time>
      </trkpt>
      <trkpt lat="47.12888" lon="-1.63382">
        <ele>1.82</ele>
        <time>2020-05-14T15:31:45Z</time>
      </trkpt>
      <trkpt lat="47.12881" lon="-1.63361">
        <ele>0.88</ele>
        <time>2020-05-14T15:31:47Z</time>
      </trkpt>
      <trkpt lat="47.12874" lon="-1.63341">
        <ele>1.98</ele>
        <time>2020-05-14T15:31:49Z</time>
      </trkpt>
      <trkpt lat="47.12866" lon="-1.63322">
        <ele>2.97</ele>
        <time>2020-05-14T15:31:51Z</time>
      </trkpt>
      <trkpt lat="47.12858" lon="-1.63303">
        <ele>3.15</ele>
        <time>2020-05-14T15:31:53Z</time>
      </trkpt>
      <trkpt lat="47.1285" lon="-1.63283">
        <ele>3.43</ele>
        <time>2020-05-14T15:31:55Z</time>
      </trkpt>
      <trkpt lat="47.12843" lon="-1.63263">
        <ele>3.68</ele>
        <time>2020-05-14T15:31:57Z</time>
      </trkpt>
      <trkpt lat="47.12836" lon="-1.63244">
        <ele>3.41</ele>
        <time>2020-05-14T15:32:00Z</time>
      </trkpt>
      <trkpt lat="47.12828" lon="-1.63226">
        <ele>3.57</ele>
        <time>2020-05-14T15:32:01Z</time>
      </trkpt>
      <trkpt lat="47.12821" lon="-1.63207">
        <ele>2.73</ele>
        <time>2020-05-14T15:32:03Z</time>
      </trkpt>
      <trkpt lat="47.12814" lon="-1.63188">
        <ele>1.91</ele>
        <time>2020-05-14T15:32:06Z</time>
      </trkpt>
      <trkpt lat="47.12805" lon="-1.63167">
        <ele>1</ele>
        <time>2020-05-14T15:32:08Z</time>
      </trkpt>
      <trkpt lat="47.12797" lon="-1.63149">
        <ele>1.36</ele>
        <time>2020-05-14T15:32:10Z</time>
      </trkpt>
      <trkpt lat="47.1279" lon="-1.63131">
        <ele>1.5</ele>
        <time>2020-05-14T15:32:12Z</time>
      </trkpt>
      <trkpt lat="47.12783" lon="-1.63114">
        <ele>1.4</ele>
        <time>2020-05-14T15:32:14Z</time>
      </trkpt>
      <trkpt lat="47.12775" lon="-1.63095">
        <ele>0.78</ele>
        <time>2020-05-14T15:32:16Z</time>
      </trkpt>
      <trkpt lat="47.12768" lon="-1.63077">
        <ele>1.44</ele>
        <time>2020-05-14T15:32:18Z</time>
      </trkpt>
      <trkpt lat="47.1276" lon="-1.63059">
        <ele>2.69</ele>
        <time>2020-05-14T15:32:20Z</time>
      </trkpt>
      <trkpt lat="47.12752" lon="-1.63039">
        <ele>3.81</ele>
        <time>2020-05-14T15:32:22Z</time>
      </trkpt>
      <trkpt lat="47.12746" lon="-1.63023">
        <ele>4.09</ele>
        <time>2020-05-14T15:32:24Z</time>
      </trkpt>
      <trkpt lat="47.12739" lon="-1.63005">
        <ele>3.78</ele>
        <time>2020-05-14T15:32:26Z</time>
      </trkpt>
      <trkpt lat="47.12733" lon="-1.62988">
        <ele>3.22</ele>
        <time>2020-05-14T15:32:28Z</time>
      </trkpt>
      <trkpt lat="47.12726" lon="-1.62968">
        <ele>2.81</ele>
        <time>2020-05-14T15:32:30Z</time>
      </trkpt>
      <trkpt lat="47.1272" lon="-1.62951">
        <ele>2.86</ele>
        <time>2020-05-14T15:32:32Z</time>
      </trkpt>
      <trkpt lat="47.12713" lon="-1.62932">
        <ele>2.82</ele>
        <time>2020-05-14T15:32:34Z</time>
      </trkpt>
      <trkpt lat="47.12707" lon="-1.62913">
        <ele>3.01</ele>
        <time>2020-05-14T15:32:36Z</time>
      </trkpt>
      <trkpt lat="47.12699" lon="-1.62895">
        <ele>3.06</ele>
        <time>2020-05-14T15:32:38Z</time>
      </trkpt>
      <trkpt lat="47.12693" lon="-1.62877">
        <ele>3.36</ele>
        <time>2020-05-14T15:32:40Z</time>
      </trkpt>
      <trkpt lat="47.12686" lon="-1.62861">
        <ele>3</ele>
        <time>2020-05-14T15:32:42Z</time>
      </trkpt>
      <trkpt lat="47.12678" lon="-1.62844">
        <ele>2.43</ele>
        <time>2020-05-14T15:32:44Z</time>
      </trkpt>
      <trkpt lat="47.12669" lon="-1.62827">
        <ele>3.06</ele>
        <time>2020-05-14T15:32:46Z</time>
      </trkpt>
      <trkpt lat="47.12662" lon="-1.62814">
        <ele>3.04</ele>
        <time>2020-05-14T15:32:48Z</time>
      </trkpt>
      <trkpt lat="47.12656" lon="-1.62799">
        <ele>3.18</ele>
        <time>2020-05-14T15:32:50Z</time>
      </trkpt>
      <trkpt lat="47.1265" lon="-1.62783">
        <ele>2.42</ele>
        <time>2020-05-14T15:32:52Z</time>
      </trkpt>
      <trkpt lat="47.12644" lon="-1.62767">
        <ele>2.65</ele>
        <time>2020-05-14T15:32:54Z</time>
      </trkpt>
      <trkpt lat="47.12637" lon="-1.62749">
        <ele>2.96</ele>
        <time>2020-05-14T15:32:56Z</time>
      </trkpt>
      <trkpt lat="47.12628" lon="-1.62732">
        <ele>3.64</ele>
        <time>2020-05-14T15:32:58Z</time>
      </trkpt>
      <trkpt lat="47.12619" lon="-1.62713">
        <ele>4.6</ele>
        <time>2020-05-14T15:33:00Z</time>
      </trkpt>
      <trkpt lat="47.1261" lon="-1.62695">
        <ele>5.57</ele>
        <time>2020-05-14T15:33:02Z</time>
      </trkpt>
      <trkpt lat="47.12602" lon="-1.62678">
        <ele>5.72</ele>
        <time>2020-05-14T15:33:04Z</time>
      </trkpt>
      <trkpt lat="47.12594" lon="-1.6266">
        <ele>4.75</ele>
        <time>2020-05-14T15:33:06Z</time>
      </trkpt>
      <trkpt lat="47.12585" lon="-1.62643">
        <ele>3.92</ele>
        <time>2020-05-14T15:33:08Z</time>
      </trkpt>
      <trkpt lat="47.12578" lon="-1.62626">
        <ele>3.21</ele>
        <time>2020-05-14T15:33:10Z</time>
      </trkpt>
      <trkpt lat="47.12572" lon="-1.62609">
        <ele>3.48</ele>
        <time>2020-05-14T15:33:12Z</time>
      </trkpt>
      <trkpt lat="47.12567" lon="-1.6259">
        <ele>4.42</ele>
        <time>2020-05-14T15:33:14Z</time>
      </trkpt>
      <trkpt lat="47.12562" lon="-1.6257">
        <ele>5.47</ele>
        <time>2020-05-14T15:33:16Z</time>
      </trkpt>
      <trkpt lat="47.12559" lon="-1.62552">
        <ele>5.98</ele>
        <time>2020-05-14T15:33:18Z</time>
      </trkpt>
      <trkpt lat="47.12556" lon="-1.62534">
        <ele>5.53</ele>
        <time>2020-05-14T15:33:20Z</time>
      </trkpt>
      <trkpt lat="47.12552" lon="-1.62511">
        <ele>4.72</ele>
        <time>2020-05-14T15:33:22Z</time>
      </trkpt>
      <trkpt lat="47.12548" lon="-1.62491">
        <ele>4.68</ele>
        <time>2020-05-14T15:33:24Z</time>
      </trkpt>
      <trkpt lat="47.12544" lon="-1.62468">
        <ele>4.34</ele>
        <time>2020-05-14T15:33:26Z</time>
      </trkpt>
      <trkpt lat="47.12539" lon="-1.62447">
        <ele>4.61</ele>
        <time>2020-05-14T15:33:28Z</time>
      </trkpt>
      <trkpt lat="47.12534" lon="-1.62429">
        <ele>5.02</ele>
        <time>2020-05-14T15:33:30Z</time>
      </trkpt>
      <trkpt lat="47.12529" lon="-1.6241">
        <ele>4.66</ele>
        <time>2020-05-14T15:33:32Z</time>
      </trkpt>
      <trkpt lat="47.12522" lon="-1.62389">
        <ele>3.67</ele>
        <time>2020-05-14T15:33:34Z</time>
      </trkpt>
      <trkpt lat="47.12516" lon="-1.62371">
        <ele>3.46</ele>
        <time>2020-05-14T15:33:36Z</time>
      </trkpt>
      <trkpt lat="47.12509" lon="-1.62353">
        <ele>3</ele>
        <time>2020-05-14T15:33:38Z</time>
      </trkpt>
      <trkpt lat="47.12502" lon="-1.62339">
        <ele>2.58</ele>
        <time>2020-05-14T15:33:40Z</time>
      </trkpt>
      <trkpt lat="47.12493" lon="-1.62323">
        <ele>2.71</ele>
        <time>2020-05-14T15:33:42Z</time>
      </trkpt>
      <trkpt lat="47.12483" lon="-1.62307">
        <ele>2.4</ele>
        <time>2020-05-14T15:33:44Z</time>
      </trkpt>
      <trkpt lat="47.12474" lon="-1.62293">
        <ele>2.67</ele>
        <time>2020-05-14T15:33:46Z</time>
      </trkpt>
      <trkpt lat="47.12463" lon="-1.62277">
        <ele>2.86</ele>
        <time>2020-05-14T15:33:48Z</time>
      </trkpt>
      <trkpt lat="47.12454" lon="-1.62263">
        <ele>2.82</ele>
        <time>2020-05-14T15:33:50Z</time>
      </trkpt>
      <trkpt lat="47.12444" lon="-1.62249">
        <ele>3.45</ele>
        <time>2020-05-14T15:33:52Z</time>
      </trkpt>
      <trkpt lat="47.12434" lon="-1.62234">
        <ele>4.33</ele>
        <time>2020-05-14T15:33:54Z</time>
      </trkpt>
      <trkpt lat="47.12423" lon="-1.62218">
        <ele>5.37</ele>
        <time>2020-05-14T15:33:56Z</time>
      </trkpt>
      <trkpt lat="47.12414" lon="-1.62204">
        <ele>5.21</ele>
        <time>2020-05-14T15:33:58Z</time>
      </trkpt>
      <trkpt lat="47.12405" lon="-1.62189">
        <ele>4.17</ele>
        <time>2020-05-14T15:34:00Z</time>
      </trkpt>
      <trkpt lat="47.12398" lon="-1.62173">
        <ele>3.52</ele>
        <time>2020-05-14T15:34:02Z</time>
      </trkpt>
      <trkpt lat="47.12391" lon="-1.62155">
        <ele>3.42</ele>
        <time>2020-05-14T15:34:04Z</time>
      </trkpt>
      <trkpt lat="47.12386" lon="-1.62134">
        <ele>3.46</ele>
        <time>2020-05-14T15:34:06Z</time>
      </trkpt>
      <trkpt lat="47.12382" lon="-1.62115">
        <ele>2.44</ele>
        <time>2020-05-14T15:34:08Z</time>
      </trkpt>
      <trkpt lat="47.12379" lon="-1.62096">
        <ele>2.1</ele>
        <time>2020-05-14T15:34:10Z</time>
      </trkpt>
      <trkpt lat="47.12378" lon="-1.62077">
        <ele>2.2</ele>
        <time>2020-05-14T15:34:12Z</time>
      </trkpt>
      <trkpt lat="47.12377" lon="-1.62057">
        <ele>1.99</ele>
        <time>2020-05-14T15:34:14Z</time>
      </trkpt>
      <trkpt lat="47.1238" lon="-1.62038">
        <ele>2.07</ele>
        <time>2020-05-14T15:34:16Z</time>
      </trkpt>
      <trkpt lat="47.12383" lon="-1.62022">
        <ele>2.77</ele>
        <time>2020-05-14T15:34:18Z</time>
      </trkpt>
      <trkpt lat="47.12386" lon="-1.62004">
        <ele>3.49</ele>
        <time>2020-05-14T15:34:20Z</time>
      </trkpt>
      <trkpt lat="47.1239" lon="-1.61988">
        <ele>4.13</ele>
        <time>2020-05-14T15:34:22Z</time>
      </trkpt>
      <trkpt lat="47.12394" lon="-1.61972">
        <ele>4.3</ele>
        <time>2020-05-14T15:34:24Z</time>
      </trkpt>
      <trkpt lat="47.12399" lon="-1.61954">
        <ele>3.92</ele>
        <time>2020-05-14T15:34:26Z</time>
      </trkpt>
      <trkpt lat="47.12404" lon="-1.61939">
        <ele>3.64</ele>
        <time>2020-05-14T15:34:28Z</time>
      </trkpt>
      <trkpt lat="47.12409" lon="-1.61922">
        <ele>3.5</ele>
        <time>2020-05-14T15:34:30Z</time>
      </trkpt>
      <trkpt lat="47.12413" lon="-1.61906">
        <ele>3.23</ele>
        <time>2020-05-14T15:34:32Z</time>
      </trkpt>
      <trkpt lat="47.12417" lon="-1.61889">
        <ele>3.72</ele>
        <time>2020-05-14T15:34:34Z</time>
      </trkpt>
      <trkpt lat="47.12421" lon="-1.61874">
        <ele>4.58</ele>
        <time>2020-05-14T15:34:36Z</time>
      </trkpt>
      <trkpt lat="47.12427" lon="-1.6186">
        <ele>5.47</ele>
        <time>2020-05-14T15:34:38Z</time>
      </trkpt>
      <trkpt lat="47.12432" lon="-1.61843">
        <ele>5.45</ele>
        <time>2020-05-14T15:34:40Z</time>
      </trkpt>
      <trkpt lat="47.12436" lon="-1.61828">
        <ele>5.57</ele>
        <time>2020-05-14T15:34:42Z</time>
      </trkpt>
      <trkpt lat="47.12439" lon="-1.61811">
        <ele>5.67</ele>
        <time>2020-05-14T15:34:44Z</time>
      </trkpt>
      <trkpt lat="47.12443" lon="-1.61794">
        <ele>4.85</ele>
        <time>2020-05-14T15:34:46Z</time>
      </trkpt>
      <trkpt lat="47.12447" lon="-1.6178">
        <ele>3.09</ele>
        <time>2020-05-14T15:34:48Z</time>
      </trkpt>
      <trkpt lat="47.12451" lon="-1.61763">
        <ele>2.17</ele>
        <time>2020-05-14T15:34:50Z</time>
      </trkpt>
      <trkpt lat="47.12455" lon="-1.61747">
        <ele>2.21</ele>
        <time>2020-05-14T15:34:52Z</time>
      </trkpt>
      <trkpt lat="47.12458" lon="-1.61734">
        <ele>2.51</ele>
        <time>2020-05-14T15:34:54Z</time>
      </trkpt>
      <trkpt lat="47.12462" lon="-1.61719">
        <ele>3.24</ele>
        <time>2020-05-14T15:34:56Z</time>
      </trkpt>
      <trkpt lat="47.12465" lon="-1.61706">
        <ele>5.24</ele>
        <time>2020-05-14T15:34:58Z</time>
      </trkpt>
      <trkpt lat="47.12469" lon="-1.61691">
        <ele>5.91</ele>
        <time>2020-05-14T15:35:00Z</time>
      </trkpt>
      <trkpt lat="47.12472" lon="-1.61675">
        <ele>6.33</ele>
        <time>2020-05-14T15:35:02Z</time>
      </trkpt>
      <trkpt lat="47.12475" lon="-1.61658">
        <ele>6.66</ele>
        <time>2020-05-14T15:35:04Z</time>
      </trkpt>
      <trkpt lat="47.12478" lon="-1.61645">
        <ele>6.59</ele>
        <time>2020-05-14T15:35:06Z</time>
      </trkpt>
      <trkpt lat="47.12479" lon="-1.61627">
        <ele>6.71</ele>
        <time>2020-05-14T15:35:08Z</time>
      </trkpt>
      <trkpt lat="47.12479" lon="-1.6161">
        <ele>7.16</ele>
        <time>2020-05-14T15:35:10Z</time>
      </trkpt>
      <trkpt lat="47.12478" lon="-1.61594">
        <ele>6.38</ele>
        <time>2020-05-14T15:35:12Z</time>
      </trkpt>
      <trkpt lat="47.12477" lon="-1.61579">
        <ele>5.24</ele>
        <time>2020-05-14T15:35:14Z</time>
      </trkpt>
      <trkpt lat="47.12475" lon="-1.61564">
        <ele>5.73</ele>
        <time>2020-05-14T15:35:16Z</time>
      </trkpt>
      <trkpt lat="47.12472" lon="-1.61547">
        <ele>6.69</ele>
        <time>2020-05-14T15:35:18Z</time>
      </trkpt>
      <trkpt lat="47.1247" lon="-1.6153">
        <ele>6.92</ele>
        <time>2020-05-14T15:35:20Z</time>
      </trkpt>
      <trkpt lat="47.12468" lon="-1.61514">
        <ele>6.58</ele>
        <time>2020-05-14T15:35:22Z</time>
      </trkpt>
      <trkpt lat="47.12466" lon="-1.61499">
        <ele>7.15</ele>
        <time>2020-05-14T15:35:24Z</time>
      </trkpt>
      <trkpt lat="47.12464" lon="-1.61482">
        <ele>7.64</ele>
        <time>2020-05-14T15:35:26Z</time>
      </trkpt>
      <trkpt lat="47.12461" lon="-1.61465">
        <ele>7.93</ele>
        <time>2020-05-14T15:35:28Z</time>
      </trkpt>
      <trkpt lat="47.1246" lon="-1.61451">
        <ele>8.57</ele>
        <time>2020-05-14T15:35:30Z</time>
      </trkpt>
      <trkpt lat="47.12458" lon="-1.61436">
        <ele>8.58</ele>
        <time>2020-05-14T15:35:32Z</time>
      </trkpt>
      <trkpt lat="47.12456" lon="-1.61418">
        <ele>7.6</ele>
        <time>2020-05-14T15:35:34Z</time>
      </trkpt>
      <trkpt lat="47.12454" lon="-1.61402">
        <ele>7.57</ele>
        <time>2020-05-14T15:35:36Z</time>
      </trkpt>
      <trkpt lat="47.12453" lon="-1.61387">
        <ele>7.67</ele>
        <time>2020-05-14T15:35:38Z</time>
      </trkpt>
      <trkpt lat="47.12452" lon="-1.6137">
        <ele>7.34</ele>
        <time>2020-05-14T15:35:40Z</time>
      </trkpt>
      <trkpt lat="47.12454" lon="-1.61355">
        <ele>6.66</ele>
        <time>2020-05-14T15:35:42Z</time>
      </trkpt>
      <trkpt lat="47.12457" lon="-1.6134">
        <ele>6.18</ele>
        <time>2020-05-14T15:35:44Z</time>
      </trkpt>
      <trkpt lat="47.1246" lon="-1.61327">
        <ele>5.98</ele>
        <time>2020-05-14T15:35:46Z</time>
      </trkpt>
      <trkpt lat="47.12464" lon="-1.6131">
        <ele>6.68</ele>
        <time>2020-05-14T15:35:48Z</time>
      </trkpt>
      <trkpt lat="47.12469" lon="-1.61296">
        <ele>6.69</ele>
        <time>2020-05-14T15:35:50Z</time>
      </trkpt>
      <trkpt lat="47.12474" lon="-1.6128">
        <ele>6.52</ele>
        <time>2020-05-14T15:35:52Z</time>
      </trkpt>
      <trkpt lat="47.1248" lon="-1.61265">
        <ele>5.78</ele>
        <time>2020-05-14T15:35:54Z</time>
      </trkpt>
      <trkpt lat="47.12486" lon="-1.6125">
        <ele>6.02</ele>
        <time>2020-05-14T15:35:56Z</time>
      </trkpt>
      <trkpt lat="47.1249" lon="-1.61235">
        <ele>6.44</ele>
        <time>2020-05-14T15:35:58Z</time>
      </trkpt>
      <trkpt lat="47.12493" lon="-1.61222">
        <ele>6.78</ele>
        <time>2020-05-14T15:36:00Z</time>
      </trkpt>
      <trkpt lat="47.12496" lon="-1.61209">
        <ele>7.89</ele>
        <time>2020-05-14T15:36:02Z</time>
      </trkpt>
      <trkpt lat="47.12499" lon="-1.61189">
        <ele>8.51</ele>
        <time>2020-05-14T15:36:04Z</time>
      </trkpt>
      <trkpt lat="47.12501" lon="-1.61174">
        <ele>7.9</ele>
        <time>2020-05-14T15:36:06Z</time>
      </trkpt>
      <trkpt lat="47.12503" lon="-1.61158">
        <ele>7.66</ele>
        <time>2020-05-14T15:36:08Z</time>
      </trkpt>
      <trkpt lat="47.12504" lon="-1.6114">
        <ele>8.13</ele>
        <time>2020-05-14T15:36:10Z</time>
      </trkpt>
      <trkpt lat="47.12505" lon="-1.61122">
        <ele>7.77</ele>
        <time>2020-05-14T15:36:12Z</time>
      </trkpt>
      <trkpt lat="47.12507" lon="-1.61105">
        <ele>7.6</ele>
        <time>2020-05-14T15:36:14Z</time>
      </trkpt>
      <trkpt lat="47.12508" lon="-1.61088">
        <ele>6.91</ele>
        <time>2020-05-14T15:36:16Z</time>
      </trkpt>
      <trkpt lat="47.12509" lon="-1.61071">
        <ele>6.6</ele>
        <time>2020-05-14T15:36:18Z</time>
      </trkpt>
      <trkpt lat="47.12511" lon="-1.61051">
        <ele>6.48</ele>
        <time>2020-05-14T15:36:20Z</time>
      </trkpt>
      <trkpt lat="47.12513" lon="-1.61035">
        <ele>6.45</ele>
        <time>2020-05-14T15:36:22Z</time>
      </trkpt>
      <trkpt lat="47.12515" lon="-1.61019">
        <ele>7.58</ele>
        <time>2020-05-14T15:36:24Z</time>
      </trkpt>
      <trkpt lat="47.12516" lon="-1.61001">
        <ele>7.47</ele>
        <time>2020-05-14T15:36:26Z</time>
      </trkpt>
      <trkpt lat="47.12518" lon="-1.60981">
        <ele>7.4</ele>
        <time>2020-05-14T15:36:29Z</time>
      </trkpt>
      <trkpt lat="47.1252" lon="-1.60966">
        <ele>7.28</ele>
        <time>2020-05-14T15:36:31Z</time>
      </trkpt>
      <trkpt lat="47.1252" lon="-1.60951">
        <ele>7.72</ele>
        <time>2020-05-14T15:36:33Z</time>
      </trkpt>
      <trkpt lat="47.12522" lon="-1.60933">
        <ele>7.29</ele>
        <time>2020-05-14T15:36:35Z</time>
      </trkpt>
      <trkpt lat="47.12523" lon="-1.60918">
        <ele>6.92</ele>
        <time>2020-05-14T15:36:37Z</time>
      </trkpt>
      <trkpt lat="47.12524" lon="-1.60903">
        <ele>6.2</ele>
        <time>2020-05-14T15:36:39Z</time>
      </trkpt>
      <trkpt lat="47.12526" lon="-1.60889">
        <ele>5.85</ele>
        <time>2020-05-14T15:36:41Z</time>
      </trkpt>
      <trkpt lat="47.12528" lon="-1.60874">
        <ele>6.91</ele>
        <time>2020-05-14T15:36:43Z</time>
      </trkpt>
      <trkpt lat="47.12529" lon="-1.60858">
        <ele>7.29</ele>
        <time>2020-05-14T15:36:45Z</time>
      </trkpt>
      <trkpt lat="47.1253" lon="-1.60844">
        <ele>7.32</ele>
        <time>2020-05-14T15:36:47Z</time>
      </trkpt>
      <trkpt lat="47.12532" lon="-1.60828">
        <ele>7.92</ele>
        <time>2020-05-14T15:36:49Z</time>
      </trkpt>
      <trkpt lat="47.12534" lon="-1.60815">
        <ele>8.43</ele>
        <time>2020-05-14T15:36:51Z</time>
      </trkpt>
      <trkpt lat="47.12535" lon="-1.60799">
        <ele>7.77</ele>
        <time>2020-05-14T15:36:53Z</time>
      </trkpt>
      <trkpt lat="47.12537" lon="-1.60784">
        <ele>7.72</ele>
        <time>2020-05-14T15:36:55Z</time>
      </trkpt>
      <trkpt lat="47.12538" lon="-1.60771">
        <ele>7.56</ele>
        <time>2020-05-14T15:36:57Z</time>
      </trkpt>
      <trkpt lat="47.1254" lon="-1.60753">
        <ele>7.67</ele>
        <time>2020-05-14T15:36:59Z</time>
      </trkpt>
      <trkpt lat="47.12541" lon="-1.60736">
        <ele>7.26</ele>
        <time>2020-05-14T15:37:01Z</time>
      </trkpt>
      <trkpt lat="47.12541" lon="-1.60719">
        <ele>7.28</ele>
        <time>2020-05-14T15:37:03Z</time>
      </trkpt>
      <trkpt lat="47.12541" lon="-1.60703">
        <ele>6.62</ele>
        <time>2020-05-14T15:37:05Z</time>
      </trkpt>
      <trkpt lat="47.12541" lon="-1.60687">
        <ele>6.29</ele>
        <time>2020-05-14T15:37:07Z</time>
      </trkpt>
      <trkpt lat="47.12541" lon="-1.60668">
        <ele>5.61</ele>
        <time>2020-05-14T15:37:09Z</time>
      </trkpt>
      <trkpt lat="47.1254" lon="-1.60653">
        <ele>4.98</ele>
        <time>2020-05-14T15:37:11Z</time>
      </trkpt>
      <trkpt lat="47.12539" lon="-1.60632">
        <ele>4.53</ele>
        <time>2020-05-14T15:37:13Z</time>
      </trkpt>
      <trkpt lat="47.12539" lon="-1.60617">
        <ele>4.43</ele>
        <time>2020-05-14T15:37:15Z</time>
      </trkpt>
      <trkpt lat="47.12539" lon="-1.60598">
        <ele>4.32</ele>
        <time>2020-05-14T15:37:17Z</time>
      </trkpt>
      <trkpt lat="47.12539" lon="-1.60583">
        <ele>5.27</ele>
        <time>2020-05-14T15:37:19Z</time>
      </trkpt>
      <trkpt lat="47.12539" lon="-1.60564">
        <ele>4.83</ele>
        <time>2020-05-14T15:37:21Z</time>
      </trkpt>
      <trkpt lat="47.12539" lon="-1.60549">
        <ele>5.25</ele>
        <time>2020-05-14T15:37:23Z</time>
      </trkpt>
      <trkpt lat="47.12538" lon="-1.60531">
        <ele>5.16</ele>
        <time>2020-05-14T15:37:25Z</time>
      </trkpt>
      <trkpt lat="47.12536" lon="-1.60518">
        <ele>5.07</ele>
        <time>2020-05-14T15:37:27Z</time>
      </trkpt>
      <trkpt lat="47.12535" lon="-1.605">
        <ele>5.36</ele>
        <time>2020-05-14T15:37:29Z</time>
      </trkpt>
      <trkpt lat="47.12533" lon="-1.60483">
        <ele>5.17</ele>
        <time>2020-05-14T15:37:31Z</time>
      </trkpt>
      <trkpt lat="47.1253" lon="-1.60468">
        <ele>5.27</ele>
        <time>2020-05-14T15:37:33Z</time>
      </trkpt>
      <trkpt lat="47.12527" lon="-1.60449">
        <ele>5.16</ele>
        <time>2020-05-14T15:37:36Z</time>
      </trkpt>
      <trkpt lat="47.12523" lon="-1.60431">
        <ele>4.41</ele>
        <time>2020-05-14T15:37:38Z</time>
      </trkpt>
      <trkpt lat="47.12519" lon="-1.60414">
        <ele>3.42</ele>
        <time>2020-05-14T15:37:40Z</time>
      </trkpt>
      <trkpt lat="47.12516" lon="-1.60397">
        <ele>2.19</ele>
        <time>2020-05-14T15:37:42Z</time>
      </trkpt>
      <trkpt lat="47.12512" lon="-1.60377">
        <ele>2.06</ele>
        <time>2020-05-14T15:37:45Z</time>
      </trkpt>
      <trkpt lat="47.1251" lon="-1.60361">
        <ele>2.14</ele>
        <time>2020-05-14T15:37:47Z</time>
      </trkpt>
      <trkpt lat="47.12507" lon="-1.60344">
        <ele>1.89</ele>
        <time>2020-05-14T15:37:49Z</time>
      </trkpt>
      <trkpt lat="47.12503" lon="-1.60327">
        <ele>1.79</ele>
        <time>2020-05-14T15:37:51Z</time>
      </trkpt>
      <trkpt lat="47.12499" lon="-1.60309">
        <ele>1.13</ele>
        <time>2020-05-14T15:37:53Z</time>
      </trkpt>
      <trkpt lat="47.12496" lon="-1.60292">
        <ele>0.24</ele>
        <time>2020-05-14T15:37:55Z</time>
      </trkpt>
      <trkpt lat="47.12492" lon="-1.60276">
        <ele>0.23</ele>
        <time>2020-05-14T15:37:57Z</time>
      </trkpt>
      <trkpt lat="47.12488" lon="-1.60257">
        <ele>0.71</ele>
        <time>2020-05-14T15:37:59Z</time>
      </trkpt>
      <trkpt lat="47.12485" lon="-1.6024">
        <ele>0.66</ele>
        <time>2020-05-14T15:38:01Z</time>
      </trkpt>
      <trkpt lat="47.12481" lon="-1.60222">
        <ele>0.54</ele>
        <time>2020-05-14T15:38:03Z</time>
      </trkpt>
      <trkpt lat="47.12478" lon="-1.60203">
        <ele>0.68</ele>
        <time>2020-05-14T15:38:05Z</time>
      </trkpt>
      <trkpt lat="47.12476" lon="-1.60186">
        <ele>1.24</ele>
        <time>2020-05-14T15:38:07Z</time>
      </trkpt>
      <trkpt lat="47.12475" lon="-1.60169">
        <ele>1.12</ele>
        <time>2020-05-14T15:38:09Z</time>
      </trkpt>
      <trkpt lat="47.12474" lon="-1.60151">
        <ele>1.07</ele>
        <time>2020-05-14T15:38:11Z</time>
      </trkpt>
      <trkpt lat="47.12473" lon="-1.60135">
        <ele>1.84</ele>
        <time>2020-05-14T15:38:13Z</time>
      </trkpt>
      <trkpt lat="47.12473" lon="-1.60117">
        <ele>2.64</ele>
        <time>2020-05-14T15:38:15Z</time>
      </trkpt>
      <trkpt lat="47.12472" lon="-1.60099">
        <ele>2.89</ele>
        <time>2020-05-14T15:38:17Z</time>
      </trkpt>
      <trkpt lat="47.12472" lon="-1.6008">
        <ele>3.8</ele>
        <time>2020-05-14T15:38:19Z</time>
      </trkpt>
      <trkpt lat="47.12471" lon="-1.60063">
        <ele>4.51</ele>
        <time>2020-05-14T15:38:21Z</time>
      </trkpt>
      <trkpt lat="47.1247" lon="-1.60043">
        <ele>5.15</ele>
        <time>2020-05-14T15:38:23Z</time>
      </trkpt>
      <trkpt lat="47.12469" lon="-1.60025">
        <ele>5.97</ele>
        <time>2020-05-14T15:38:25Z</time>
      </trkpt>
      <trkpt lat="47.12468" lon="-1.60003">
        <ele>5.65</ele>
        <time>2020-05-14T15:38:27Z</time>
      </trkpt>
      <trkpt lat="47.12467" lon="-1.59984">
        <ele>5.91</ele>
        <time>2020-05-14T15:38:29Z</time>
      </trkpt>
      <trkpt lat="47.12466" lon="-1.59968">
        <ele>5.91</ele>
        <time>2020-05-14T15:38:31Z</time>
      </trkpt>
      <trkpt lat="47.12465" lon="-1.59948">
        <ele>6.55</ele>
        <time>2020-05-14T15:38:33Z</time>
      </trkpt>
      <trkpt lat="47.12465" lon="-1.59933">
        <ele>6.19</ele>
        <time>2020-05-14T15:38:35Z</time>
      </trkpt>
      <trkpt lat="47.12464" lon="-1.59915">
        <ele>5.78</ele>
        <time>2020-05-14T15:38:37Z</time>
      </trkpt>
      <trkpt lat="47.12463" lon="-1.599">
        <ele>5.61</ele>
        <time>2020-05-14T15:38:39Z</time>
      </trkpt>
      <trkpt lat="47.12463" lon="-1.59883">
        <ele>5.76</ele>
        <time>2020-05-14T15:38:41Z</time>
      </trkpt>
      <trkpt lat="47.12461" lon="-1.59859">
        <ele>5.85</ele>
        <time>2020-05-14T15:38:43Z</time>
      </trkpt>
      <trkpt lat="47.1246" lon="-1.59842">
        <ele>5.49</ele>
        <time>2020-05-14T15:38:45Z</time>
      </trkpt>
      <trkpt lat="47.12459" lon="-1.59823">
        <ele>5.29</ele>
        <time>2020-05-14T15:38:47Z</time>
      </trkpt>
      <trkpt lat="47.12458" lon="-1.59804">
        <ele>4.67</ele>
        <time>2020-05-14T15:38:49Z</time>
      </trkpt>
      <trkpt lat="47.12458" lon="-1.59788">
        <ele>4.98</ele>
        <time>2020-05-14T15:38:51Z</time>
      </trkpt>
      <trkpt lat="47.12457" lon="-1.59771">
        <ele>5.06</ele>
        <time>2020-05-14T15:38:53Z</time>
      </trkpt>
      <trkpt lat="47.12457" lon="-1.59754">
        <ele>6.4</ele>
        <time>2020-05-14T15:38:55Z</time>
      </trkpt>
      <trkpt lat="47.12457" lon="-1.59738">
        <ele>6.43</ele>
        <time>2020-05-14T15:38:57Z</time>
      </trkpt>
      <trkpt lat="47.12456" lon="-1.59722">
        <ele>6.14</ele>
        <time>2020-05-14T15:38:59Z</time>
      </trkpt>
      <trkpt lat="47.12454" lon="-1.59702">
        <ele>5.6</ele>
        <time>2020-05-14T15:39:01Z</time>
      </trkpt>
      <trkpt lat="47.12453" lon="-1.59687">
        <ele>5.57</ele>
        <time>2020-05-14T15:39:03Z</time>
      </trkpt>
      <trkpt lat="47.12452" lon="-1.59672">
        <ele>5.57</ele>
        <time>2020-05-14T15:39:05Z</time>
      </trkpt>
      <trkpt lat="47.12452" lon="-1.59652">
        <ele>5.73</ele>
        <time>2020-05-14T15:39:07Z</time>
      </trkpt>
      <trkpt lat="47.12451" lon="-1.59634">
        <ele>5.3</ele>
        <time>2020-05-14T15:39:09Z</time>
      </trkpt>
      <trkpt lat="47.12451" lon="-1.59619">
        <ele>4.83</ele>
        <time>2020-05-14T15:39:11Z</time>
      </trkpt>
      <trkpt lat="47.1245" lon="-1.59601">
        <ele>3.85</ele>
        <time>2020-05-14T15:39:13Z</time>
      </trkpt>
      <trkpt lat="47.12449" lon="-1.5958">
        <ele>3.32</ele>
        <time>2020-05-14T15:39:15Z</time>
      </trkpt>
      <trkpt lat="47.12448" lon="-1.59564">
        <ele>3.51</ele>
        <time>2020-05-14T15:39:17Z</time>
      </trkpt>
      <trkpt lat="47.12447" lon="-1.59548">
        <ele>3.82</ele>
        <time>2020-05-14T15:39:19Z</time>
      </trkpt>
      <trkpt lat="47.12445" lon="-1.59531">
        <ele>3.61</ele>
        <time>2020-05-14T15:39:21Z</time>
      </trkpt>
      <trkpt lat="47.12444" lon="-1.59515">
        <ele>3.46</ele>
        <time>2020-05-14T15:39:23Z</time>
      </trkpt>
      <trkpt lat="47.12443" lon="-1.59495">
        <ele>4.1</ele>
        <time>2020-05-14T15:39:25Z</time>
      </trkpt>
      <trkpt lat="47.12442" lon="-1.59479">
        <ele>3.99</ele>
        <time>2020-05-14T15:39:27Z</time>
      </trkpt>
      <trkpt lat="47.12441" lon="-1.59461">
        <ele>3.89</ele>
        <time>2020-05-14T15:39:29Z</time>
      </trkpt>
      <trkpt lat="47.12441" lon="-1.5944">
        <ele>3.56</ele>
        <time>2020-05-14T15:39:31Z</time>
      </trkpt>
      <trkpt lat="47.1244" lon="-1.59423">
        <ele>4.29</ele>
        <time>2020-05-14T15:39:33Z</time>
      </trkpt>
      <trkpt lat="47.12439" lon="-1.59402">
        <ele>4.31</ele>
        <time>2020-05-14T15:39:35Z</time>
      </trkpt>
      <trkpt lat="47.12438" lon="-1.59381">
        <ele>4.27</ele>
        <time>2020-05-14T15:39:37Z</time>
      </trkpt>
      <trkpt lat="47.12438" lon="-1.59362">
        <ele>4.07</ele>
        <time>2020-05-14T15:39:39Z</time>
      </trkpt>
      <trkpt lat="47.12437" lon="-1.59343">
        <ele>4.07</ele>
        <time>2020-05-14T15:39:41Z</time>
      </trkpt>
      <trkpt lat="47.12436" lon="-1.59325">
        <ele>4.04</ele>
        <time>2020-05-14T15:39:43Z</time>
      </trkpt>
      <trkpt lat="47.12435" lon="-1.59306">
        <ele>2.69</ele>
        <time>2020-05-14T15:39:45Z</time>
      </trkpt>
      <trkpt lat="47.12434" lon="-1.59286">
        <ele>1.95</ele>
        <time>2020-05-14T15:39:47Z</time>
      </trkpt>
      <trkpt lat="47.12433" lon="-1.59269">
        <ele>1.32</ele>
        <time>2020-05-14T15:39:49Z</time>
      </trkpt>
      <trkpt lat="47.12432" lon="-1.59249">
        <ele>1.34</ele>
        <time>2020-05-14T15:39:51Z</time>
      </trkpt>
      <trkpt lat="47.12431" lon="-1.5923">
        <ele>1.85</ele>
        <time>2020-05-14T15:39:53Z</time>
      </trkpt>
      <trkpt lat="47.12428" lon="-1.59211">
        <ele>2.17</ele>
        <time>2020-05-14T15:39:55Z</time>
      </trkpt>
      <trkpt lat="47.12425" lon="-1.59191">
        <ele>2.03</ele>
        <time>2020-05-14T15:39:57Z</time>
      </trkpt>
      <trkpt lat="47.12425" lon="-1.59172">
        <ele>1.77</ele>
        <time>2020-05-14T15:39:59Z</time>
      </trkpt>
      <trkpt lat="47.12427" lon="-1.59155">
        <ele>1.14</ele>
        <time>2020-05-14T15:40:01Z</time>
      </trkpt>
      <trkpt lat="47.12427" lon="-1.59137">
        <ele>0.76</ele>
        <time>2020-05-14T15:40:03Z</time>
      </trkpt>
      <trkpt lat="47.12427" lon="-1.5912">
        <ele>0.39</ele>
        <time>2020-05-14T15:40:05Z</time>
      </trkpt>
      <trkpt lat="47.12427" lon="-1.59101">
        <ele>0.57</ele>
        <time>2020-05-14T15:40:07Z</time>
      </trkpt>
      <trkpt lat="47.12427" lon="-1.59085">
        <ele>0.89</ele>
        <time>2020-05-14T15:40:09Z</time>
      </trkpt>
      <trkpt lat="47.12426" lon="-1.59067">
        <ele>1.32</ele>
        <time>2020-05-14T15:40:11Z</time>
      </trkpt>
      <trkpt lat="47.12424" lon="-1.5905">
        <ele>1.3</ele>
        <time>2020-05-14T15:40:13Z</time>
      </trkpt>
      <trkpt lat="47.12422" lon="-1.59036">
        <ele>1.6</ele>
        <time>2020-05-14T15:40:15Z</time>
      </trkpt>
      <trkpt lat="47.12419" lon="-1.59021">
        <ele>2.1</ele>
        <time>2020-05-14T15:40:17Z</time>
      </trkpt>
      <trkpt lat="47.12418" lon="-1.59001">
        <ele>1.05</ele>
        <time>2020-05-14T15:40:19Z</time>
      </trkpt>
      <trkpt lat="47.12417" lon="-1.58985">
        <ele>0.89</ele>
        <time>2020-05-14T15:40:21Z</time>
      </trkpt>
      <trkpt lat="47.12417" lon="-1.58968">
        <ele>0.75</ele>
        <time>2020-05-14T15:40:23Z</time>
      </trkpt>
      <trkpt lat="47.12417" lon="-1.58945">
        <ele>1.08</ele>
        <time>2020-05-14T15:40:25Z</time>
      </trkpt>
      <trkpt lat="47.12417" lon="-1.5893">
        <ele>1.72</ele>
        <time>2020-05-14T15:40:27Z</time>
      </trkpt>
      <trkpt lat="47.12416" lon="-1.58916">
        <ele>2.53</ele>
        <time>2020-05-14T15:40:29Z</time>
      </trkpt>
      <trkpt lat="47.12414" lon="-1.58897">
        <ele>3.13</ele>
        <time>2020-05-14T15:40:31Z</time>
      </trkpt>
      <trkpt lat="47.12413" lon="-1.5888">
        <ele>3.27</ele>
        <time>2020-05-14T15:40:33Z</time>
      </trkpt>
      <trkpt lat="47.12411" lon="-1.58862">
        <ele>3.66</ele>
        <time>2020-05-14T15:40:35Z</time>
      </trkpt>
      <trkpt lat="47.12409" lon="-1.58844">
        <ele>4.73</ele>
        <time>2020-05-14T15:40:37Z</time>
      </trkpt>
      <trkpt lat="47.12407" lon="-1.58829">
        <ele>5.24</ele>
        <time>2020-05-14T15:40:39Z</time>
      </trkpt>
      <trkpt lat="47.12405" lon="-1.58814">
        <ele>5.85</ele>
        <time>2020-05-14T15:40:41Z</time>
      </trkpt>
      <trkpt lat="47.12403" lon="-1.58795">
        <ele>6.3</ele>
        <time>2020-05-14T15:40:43Z</time>
      </trkpt>
      <trkpt lat="47.124" lon="-1.58779">
        <ele>6.05</ele>
        <time>2020-05-14T15:40:45Z</time>
      </trkpt>
      <trkpt lat="47.12397" lon="-1.58762">
        <ele>6.38</ele>
        <time>2020-05-14T15:40:47Z</time>
      </trkpt>
      <trkpt lat="47.12394" lon="-1.58744">
        <ele>6.66</ele>
        <time>2020-05-14T15:40:49Z</time>
      </trkpt>
      <trkpt lat="47.12391" lon="-1.58729">
        <ele>6.43</ele>
        <time>2020-05-14T15:40:51Z</time>
      </trkpt>
      <trkpt lat="47.12387" lon="-1.58712">
        <ele>5.93</ele>
        <time>2020-05-14T15:40:53Z</time>
      </trkpt>
      <trkpt lat="47.12383" lon="-1.58695">
        <ele>6.21</ele>
        <time>2020-05-14T15:40:55Z</time>
      </trkpt>
      <trkpt lat="47.12379" lon="-1.58676">
        <ele>6.65</ele>
        <time>2020-05-14T15:40:57Z</time>
      </trkpt>
      <trkpt lat="47.12374" lon="-1.58658">
        <ele>4.99</ele>
        <time>2020-05-14T15:40:59Z</time>
      </trkpt>
      <trkpt lat="47.1237" lon="-1.58639">
        <ele>4.95</ele>
        <time>2020-05-14T15:41:01Z</time>
      </trkpt>
      <trkpt lat="47.12366" lon="-1.58622">
        <ele>5.05</ele>
        <time>2020-05-14T15:41:03Z</time>
      </trkpt>
      <trkpt lat="47.12362" lon="-1.58603">
        <ele>4.96</ele>
        <time>2020-05-14T15:41:05Z</time>
      </trkpt>
      <trkpt lat="47.12358" lon="-1.58585">
        <ele>4.7</ele>
        <time>2020-05-14T15:41:07Z</time>
      </trkpt>
      <trkpt lat="47.12355" lon="-1.58567">
        <ele>3.89</ele>
        <time>2020-05-14T15:41:09Z</time>
      </trkpt>
      <trkpt lat="47.1235" lon="-1.58547">
        <ele>3.31</ele>
        <time>2020-05-14T15:41:11Z</time>
      </trkpt>
      <trkpt lat="47.12346" lon="-1.5853">
        <ele>2.8</ele>
        <time>2020-05-14T15:41:13Z</time>
      </trkpt>
      <trkpt lat="47.12342" lon="-1.58512">
        <ele>2.03</ele>
        <time>2020-05-14T15:41:15Z</time>
      </trkpt>
      <trkpt lat="47.12338" lon="-1.58493">
        <ele>1.97</ele>
        <time>2020-05-14T15:41:17Z</time>
      </trkpt>
      <trkpt lat="47.12334" lon="-1.58475">
        <ele>1.84</ele>
        <time>2020-05-14T15:41:19Z</time>
      </trkpt>
      <trkpt lat="47.12329" lon="-1.58458">
        <ele>1.76</ele>
        <time>2020-05-14T15:41:21Z</time>
      </trkpt>
      <trkpt lat="47.12322" lon="-1.58446">
        <ele>1.33</ele>
        <time>2020-05-14T15:41:22Z</time>
      </trkpt>
      <trkpt lat="47.12313" lon="-1.58429">
        <ele>1.94</ele>
        <time>2020-05-14T15:41:24Z</time>
      </trkpt>
      <trkpt lat="47.12304" lon="-1.58411">
        <ele>2.81</ele>
        <time>2020-05-14T15:41:26Z</time>
      </trkpt>
      <trkpt lat="47.12296" lon="-1.58393">
        <ele>3.61</ele>
        <time>2020-05-14T15:41:28Z</time>
      </trkpt>
      <trkpt lat="47.12295" lon="-1.58373">
        <ele>3.84</ele>
        <time>2020-05-14T15:41:30Z</time>
      </trkpt>
      <trkpt lat="47.12291" lon="-1.58351">
        <ele>5.37</ele>
        <time>2020-05-14T15:41:32Z</time>
      </trkpt>
      <trkpt lat="47.12281" lon="-1.58334">
        <ele>6.6</ele>
        <time>2020-05-14T15:41:34Z</time>
      </trkpt>
      <trkpt lat="47.12268" lon="-1.58321">
        <ele>5.02</ele>
        <time>2020-05-14T15:41:36Z</time>
      </trkpt>
      <trkpt lat="47.12256" lon="-1.5831">
        <ele>4.55</ele>
        <time>2020-05-14T15:41:38Z</time>
      </trkpt>
      <trkpt lat="47.12243" lon="-1.58298">
        <ele>4.48</ele>
        <time>2020-05-14T15:41:40Z</time>
      </trkpt>
      <trkpt lat="47.1223" lon="-1.58285">
        <ele>4.08</ele>
        <time>2020-05-14T15:41:42Z</time>
      </trkpt>
      <trkpt lat="47.12216" lon="-1.5827">
        <ele>3.38</ele>
        <time>2020-05-14T15:41:44Z</time>
      </trkpt>
      <trkpt lat="47.12205" lon="-1.58259">
        <ele>2.7</ele>
        <time>2020-05-14T15:41:46Z</time>
      </trkpt>
      <trkpt lat="47.12198" lon="-1.58248">
        <ele>2.02</ele>
        <time>2020-05-14T15:41:48Z</time>
      </trkpt>
      <trkpt lat="47.12196" lon="-1.58232">
        <ele>2.06</ele>
        <time>2020-05-14T15:41:50Z</time>
      </trkpt>
      <trkpt lat="47.12198" lon="-1.58213">
        <ele>2.2</ele>
        <time>2020-05-14T15:41:52Z</time>
      </trkpt>
      <trkpt lat="47.122" lon="-1.58192">
        <ele>2.88</ele>
        <time>2020-05-14T15:41:54Z</time>
      </trkpt>
      <trkpt lat="47.12202" lon="-1.58172">
        <ele>4.19</ele>
        <time>2020-05-14T15:41:56Z</time>
      </trkpt>
      <trkpt lat="47.12207" lon="-1.58153">
        <ele>3.85</ele>
        <time>2020-05-14T15:41:58Z</time>
      </trkpt>
      <trkpt lat="47.12212" lon="-1.58139">
        <ele>2.76</ele>
        <time>2020-05-14T15:42:00Z</time>
      </trkpt>
      <trkpt lat="47.12217" lon="-1.58125">
        <ele>2.15</ele>
        <time>2020-05-14T15:42:02Z</time>
      </trkpt>
      <trkpt lat="47.12222" lon="-1.58112">
        <ele>2.7</ele>
        <time>2020-05-14T15:42:04Z</time>
      </trkpt>
      <trkpt lat="47.1223" lon="-1.58095">
        <ele>3.29</ele>
        <time>2020-05-14T15:42:06Z</time>
      </trkpt>
      <trkpt lat="47.12237" lon="-1.58077">
        <ele>4.39</ele>
        <time>2020-05-14T15:42:08Z</time>
      </trkpt>
      <trkpt lat="47.12241" lon="-1.58062">
        <ele>5.12</ele>
        <time>2020-05-14T15:42:10Z</time>
      </trkpt>
      <trkpt lat="47.12244" lon="-1.58045">
        <ele>4.43</ele>
        <time>2020-05-14T15:42:12Z</time>
      </trkpt>
      <trkpt lat="47.12241" lon="-1.58027">
        <ele>3.7</ele>
        <time>2020-05-14T15:42:14Z</time>
      </trkpt>
      <trkpt lat="47.12235" lon="-1.58015">
        <ele>3.21</ele>
        <time>2020-05-14T15:42:16Z</time>
      </trkpt>
      <trkpt lat="47.12225" lon="-1.57998">
        <ele>3.08</ele>
        <time>2020-05-14T15:42:18Z</time>
      </trkpt>
      <trkpt lat="47.12217" lon="-1.57986">
        <ele>2.49</ele>
        <time>2020-05-14T15:42:20Z</time>
      </trkpt>
      <trkpt lat="47.12209" lon="-1.57972">
        <ele>2.91</ele>
        <time>2020-05-14T15:42:22Z</time>
      </trkpt>
      <trkpt lat="47.12201" lon="-1.57959">
        <ele>3.74</ele>
        <time>2020-05-14T15:42:24Z</time>
      </trkpt>
      <trkpt lat="47.12194" lon="-1.57946">
        <ele>4.7</ele>
        <time>2020-05-14T15:42:26Z</time>
      </trkpt>
      <trkpt lat="47.12187" lon="-1.57931">
        <ele>5.44</ele>
        <time>2020-05-14T15:42:28Z</time>
      </trkpt>
      <trkpt lat="47.12181" lon="-1.57917">
        <ele>5.41</ele>
        <time>2020-05-14T15:42:30Z</time>
      </trkpt>
      <trkpt lat="47.12178" lon="-1.57905">
        <ele>4.58</ele>
        <time>2020-05-14T15:42:32Z</time>
      </trkpt>
      <trkpt lat="47.12177" lon="-1.57888">
        <ele>5.1</ele>
        <time>2020-05-14T15:42:34Z</time>
      </trkpt>
      <trkpt lat="47.12175" lon="-1.5787">
        <ele>5.61</ele>
        <time>2020-05-14T15:42:36Z</time>
      </trkpt>
      <trkpt lat="47.12174" lon="-1.57851">
        <ele>5.69</ele>
        <time>2020-05-14T15:42:38Z</time>
      </trkpt>
      <trkpt lat="47.12174" lon="-1.57832">
        <ele>5.59</ele>
        <time>2020-05-14T15:42:40Z</time>
      </trkpt>
      <trkpt lat="47.12175" lon="-1.57817">
        <ele>5.99</ele>
        <time>2020-05-14T15:42:42Z</time>
      </trkpt>
      <trkpt lat="47.12176" lon="-1.57802">
        <ele>6.79</ele>
        <time>2020-05-14T15:42:44Z</time>
      </trkpt>
      <trkpt lat="47.12177" lon="-1.57785">
        <ele>8.5</ele>
        <time>2020-05-14T15:42:46Z</time>
      </trkpt>
      <trkpt lat="47.12177" lon="-1.57767">
        <ele>10.26</ele>
        <time>2020-05-14T15:42:48Z</time>
      </trkpt>
      <trkpt lat="47.12178" lon="-1.57751">
        <ele>10.15</ele>
        <time>2020-05-14T15:42:50Z</time>
      </trkpt>
      <trkpt lat="47.12178" lon="-1.57735">
        <ele>9.01</ele>
        <time>2020-05-14T15:42:52Z</time>
      </trkpt>
      <trkpt lat="47.12178" lon="-1.5772">
        <ele>8.75</ele>
        <time>2020-05-14T15:42:54Z</time>
      </trkpt>
      <trkpt lat="47.12178" lon="-1.57705">
        <ele>8.64</ele>
        <time>2020-05-14T15:42:56Z</time>
      </trkpt>
      <trkpt lat="47.12177" lon="-1.57686">
        <ele>8.96</ele>
        <time>2020-05-14T15:42:58Z</time>
      </trkpt>
      <trkpt lat="47.12177" lon="-1.57672">
        <ele>9.07</ele>
        <time>2020-05-14T15:43:00Z</time>
      </trkpt>
      <trkpt lat="47.12177" lon="-1.57652">
        <ele>8.63</ele>
        <time>2020-05-14T15:43:02Z</time>
      </trkpt>
      <trkpt lat="47.12177" lon="-1.57633">
        <ele>7.63</ele>
        <time>2020-05-14T15:43:04Z</time>
      </trkpt>
      <trkpt lat="47.12177" lon="-1.57617">
        <ele>7.22</ele>
        <time>2020-05-14T15:43:06Z</time>
      </trkpt>
      <trkpt lat="47.12177" lon="-1.57599">
        <ele>7.78</ele>
        <time>2020-05-14T15:43:08Z</time>
      </trkpt>
      <trkpt lat="47.12176" lon="-1.57579">
        <ele>9.44</ele>
        <time>2020-05-14T15:43:10Z</time>
      </trkpt>
      <trkpt lat="47.12176" lon="-1.57563">
        <ele>10.59</ele>
        <time>2020-05-14T15:43:12Z</time>
      </trkpt>
      <trkpt lat="47.12175" lon="-1.57544">
        <ele>9.91</ele>
        <time>2020-05-14T15:43:14Z</time>
      </trkpt>
      <trkpt lat="47.12174" lon="-1.57526">
        <ele>9.06</ele>
        <time>2020-05-14T15:43:16Z</time>
      </trkpt>
      <trkpt lat="47.12172" lon="-1.57507">
        <ele>8.32</ele>
        <time>2020-05-14T15:43:18Z</time>
      </trkpt>
      <trkpt lat="47.12169" lon="-1.57488">
        <ele>8.2</ele>
        <time>2020-05-14T15:43:20Z</time>
      </trkpt>
      <trkpt lat="47.12166" lon="-1.57471">
        <ele>7.95</ele>
        <time>2020-05-14T15:43:22Z</time>
      </trkpt>
      <trkpt lat="47.12162" lon="-1.57453">
        <ele>7.36</ele>
        <time>2020-05-14T15:43:24Z</time>
      </trkpt>
      <trkpt lat="47.12158" lon="-1.57436">
        <ele>6.5</ele>
        <time>2020-05-14T15:43:26Z</time>
      </trkpt>
      <trkpt lat="47.12154" lon="-1.57417">
        <ele>5.91</ele>
        <time>2020-05-14T15:43:28Z</time>
      </trkpt>
      <trkpt lat="47.1215" lon="-1.57396">
        <ele>5.27</ele>
        <time>2020-05-14T15:43:30Z</time>
      </trkpt>
      <trkpt lat="47.12147" lon="-1.57379">
        <ele>4.96</ele>
        <time>2020-05-14T15:43:32Z</time>
      </trkpt>
      <trkpt lat="47.12143" lon="-1.57358">
        <ele>5.3</ele>
        <time>2020-05-14T15:43:34Z</time>
      </trkpt>
      <trkpt lat="47.12141" lon="-1.57341">
        <ele>6.33</ele>
        <time>2020-05-14T15:43:36Z</time>
      </trkpt>
      <trkpt lat="47.12138" lon="-1.57321">
        <ele>7.24</ele>
        <time>2020-05-14T15:43:38Z</time>
      </trkpt>
      <trkpt lat="47.12134" lon="-1.57299">
        <ele>7.66</ele>
        <time>2020-05-14T15:43:40Z</time>
      </trkpt>
      <trkpt lat="47.1213" lon="-1.57281">
        <ele>7.35</ele>
        <time>2020-05-14T15:43:42Z</time>
      </trkpt>
      <trkpt lat="47.12125" lon="-1.5726">
        <ele>6.77</ele>
        <time>2020-05-14T15:43:44Z</time>
      </trkpt>
      <trkpt lat="47.12121" lon="-1.57241">
        <ele>6</ele>
        <time>2020-05-14T15:43:46Z</time>
      </trkpt>
      <trkpt lat="47.12117" lon="-1.57222">
        <ele>5.17</ele>
        <time>2020-05-14T15:43:48Z</time>
      </trkpt>
      <trkpt lat="47.12114" lon="-1.57203">
        <ele>3.73</ele>
        <time>2020-05-14T15:43:50Z</time>
      </trkpt>
      <trkpt lat="47.1211" lon="-1.57183">
        <ele>2.65</ele>
        <time>2020-05-14T15:43:52Z</time>
      </trkpt>
      <trkpt lat="47.12106" lon="-1.57163">
        <ele>1.78</ele>
        <time>2020-05-14T15:43:54Z</time>
      </trkpt>
      <trkpt lat="47.12102" lon="-1.57145">
        <ele>1.36</ele>
        <time>2020-05-14T15:43:56Z</time>
      </trkpt>
      <trkpt lat="47.12098" lon="-1.57124">
        <ele>2.05</ele>
        <time>2020-05-14T15:43:58Z</time>
      </trkpt>
      <trkpt lat="47.12095" lon="-1.57102">
        <ele>3.19</ele>
        <time>2020-05-14T15:44:00Z</time>
      </trkpt>
      <trkpt lat="47.12091" lon="-1.57081">
        <ele>3.74</ele>
        <time>2020-05-14T15:44:02Z</time>
      </trkpt>
      <trkpt lat="47.12086" lon="-1.5706">
        <ele>3.31</ele>
        <time>2020-05-14T15:44:04Z</time>
      </trkpt>
      <trkpt lat="47.12083" lon="-1.5704">
        <ele>2.31</ele>
        <time>2020-05-14T15:44:06Z</time>
      </trkpt>
      <trkpt lat="47.12079" lon="-1.57022">
        <ele>1.71</ele>
        <time>2020-05-14T15:44:08Z</time>
      </trkpt>
      <trkpt lat="47.12075" lon="-1.57004">
        <ele>1.38</ele>
        <time>2020-05-14T15:44:10Z</time>
      </trkpt>
      <trkpt lat="47.12071" lon="-1.56984">
        <ele>1.89</ele>
        <time>2020-05-14T15:44:12Z</time>
      </trkpt>
      <trkpt lat="47.12067" lon="-1.56964">
        <ele>2.19</ele>
        <time>2020-05-14T15:44:14Z</time>
      </trkpt>
      <trkpt lat="47.12064" lon="-1.56947">
        <ele>2.5</ele>
        <time>2020-05-14T15:44:16Z</time>
      </trkpt>
      <trkpt lat="47.12061" lon="-1.56932">
        <ele>2.84</ele>
        <time>2020-05-14T15:44:18Z</time>
      </trkpt>
      <trkpt lat="47.12058" lon="-1.56916">
        <ele>3.29</ele>
        <time>2020-05-14T15:44:20Z</time>
      </trkpt>
      <trkpt lat="47.12055" lon="-1.569">
        <ele>3.68</ele>
        <time>2020-05-14T15:44:22Z</time>
      </trkpt>
      <trkpt lat="47.12052" lon="-1.56887">
        <ele>4.79</ele>
        <time>2020-05-14T15:44:24Z</time>
      </trkpt>
      <trkpt lat="47.12049" lon="-1.5687">
        <ele>5.68</ele>
        <time>2020-05-14T15:44:26Z</time>
      </trkpt>
      <trkpt lat="47.12046" lon="-1.56852">
        <ele>6.02</ele>
        <time>2020-05-14T15:44:28Z</time>
      </trkpt>
      <trkpt lat="47.12042" lon="-1.56835">
        <ele>7.11</ele>
        <time>2020-05-14T15:44:30Z</time>
      </trkpt>
      <trkpt lat="47.12039" lon="-1.56819">
        <ele>7.69</ele>
        <time>2020-05-14T15:44:32Z</time>
      </trkpt>
      <trkpt lat="47.12036" lon="-1.56801">
        <ele>7.78</ele>
        <time>2020-05-14T15:44:34Z</time>
      </trkpt>
      <trkpt lat="47.12033" lon="-1.56784">
        <ele>7.5</ele>
        <time>2020-05-14T15:44:36Z</time>
      </trkpt>
      <trkpt lat="47.1203" lon="-1.56769">
        <ele>7.27</ele>
        <time>2020-05-14T15:44:38Z</time>
      </trkpt>
      <trkpt lat="47.12027" lon="-1.56754">
        <ele>6.76</ele>
        <time>2020-05-14T15:44:40Z</time>
      </trkpt>
      <trkpt lat="47.12024" lon="-1.56737">
        <ele>6.6</ele>
        <time>2020-05-14T15:44:42Z</time>
      </trkpt>
      <trkpt lat="47.12021" lon="-1.56723">
        <ele>6.92</ele>
        <time>2020-05-14T15:44:44Z</time>
      </trkpt>
      <trkpt lat="47.12019" lon="-1.5671">
        <ele>6.71</ele>
        <time>2020-05-14T15:44:46Z</time>
      </trkpt>
      <trkpt lat="47.12016" lon="-1.56695">
        <ele>6.89</ele>
        <time>2020-05-14T15:44:48Z</time>
      </trkpt>
      <trkpt lat="47.12014" lon="-1.56678">
        <ele>7.22</ele>
        <time>2020-05-14T15:44:50Z</time>
      </trkpt>
      <trkpt lat="47.12012" lon="-1.56665">
        <ele>7.02</ele>
        <time>2020-05-14T15:44:52Z</time>
      </trkpt>
      <trkpt lat="47.1201" lon="-1.5665">
        <ele>7.2</ele>
        <time>2020-05-14T15:44:54Z</time>
      </trkpt>
      <trkpt lat="47.12007" lon="-1.56637">
        <ele>7.04</ele>
        <time>2020-05-14T15:44:56Z</time>
      </trkpt>
      <trkpt lat="47.12004" lon="-1.56623">
        <ele>7.61</ele>
        <time>2020-05-14T15:44:58Z</time>
      </trkpt>
      <trkpt lat="47.12001" lon="-1.56606">
        <ele>7.05</ele>
        <time>2020-05-14T15:45:00Z</time>
      </trkpt>
      <trkpt lat="47.11998" lon="-1.56591">
        <ele>7.61</ele>
        <time>2020-05-14T15:45:02Z</time>
      </trkpt>
      <trkpt lat="47.11995" lon="-1.56576">
        <ele>7.97</ele>
        <time>2020-05-14T15:45:04Z</time>
      </trkpt>
      <trkpt lat="47.11992" lon="-1.56559">
        <ele>8.29</ele>
        <time>2020-05-14T15:45:06Z</time>
      </trkpt>
      <trkpt lat="47.11989" lon="-1.56546">
        <ele>9.24</ele>
        <time>2020-05-14T15:45:08Z</time>
      </trkpt>
      <trkpt lat="47.11986" lon="-1.56532">
        <ele>10.5</ele>
        <time>2020-05-14T15:45:10Z</time>
      </trkpt>
      <trkpt lat="47.11983" lon="-1.56517">
        <ele>11.01</ele>
        <time>2020-05-14T15:45:12Z</time>
      </trkpt>
      <trkpt lat="47.11978" lon="-1.56501">
        <ele>10.75</ele>
        <time>2020-05-14T15:45:14Z</time>
      </trkpt>
      <trkpt lat="47.11974" lon="-1.56485">
        <ele>11.56</ele>
        <time>2020-05-14T15:45:16Z</time>
      </trkpt>
      <trkpt lat="47.1197" lon="-1.56469">
        <ele>11.42</ele>
        <time>2020-05-14T15:45:18Z</time>
      </trkpt>
      <trkpt lat="47.11966" lon="-1.56455">
        <ele>11.46</ele>
        <time>2020-05-14T15:45:20Z</time>
      </trkpt>
      <trkpt lat="47.11962" lon="-1.56438">
        <ele>11.2</ele>
        <time>2020-05-14T15:45:22Z</time>
      </trkpt>
      <trkpt lat="47.11958" lon="-1.56421">
        <ele>10.43</ele>
        <time>2020-05-14T15:45:24Z</time>
      </trkpt>
      <trkpt lat="47.11953" lon="-1.56403">
        <ele>9.26</ele>
        <time>2020-05-14T15:45:26Z</time>
      </trkpt>
      <trkpt lat="47.11948" lon="-1.56385">
        <ele>8.45</ele>
        <time>2020-05-14T15:45:28Z</time>
      </trkpt>
      <trkpt lat="47.11944" lon="-1.56369">
        <ele>8</ele>
        <time>2020-05-14T15:45:30Z</time>
      </trkpt>
      <trkpt lat="47.11939" lon="-1.56352">
        <ele>8.08</ele>
        <time>2020-05-14T15:45:32Z</time>
      </trkpt>
      <trkpt lat="47.11935" lon="-1.56335">
        <ele>8.13</ele>
        <time>2020-05-14T15:45:34Z</time>
      </trkpt>
      <trkpt lat="47.11931" lon="-1.56318">
        <ele>7.58</ele>
        <time>2020-05-14T15:45:36Z</time>
      </trkpt>
      <trkpt lat="47.11926" lon="-1.563">
        <ele>7.27</ele>
        <time>2020-05-14T15:45:38Z</time>
      </trkpt>
      <trkpt lat="47.11921" lon="-1.56282">
        <ele>7.01</ele>
        <time>2020-05-14T15:45:40Z</time>
      </trkpt>
      <trkpt lat="47.11916" lon="-1.56267">
        <ele>5.84</ele>
        <time>2020-05-14T15:45:42Z</time>
      </trkpt>
      <trkpt lat="47.11911" lon="-1.56249">
        <ele>5.37</ele>
        <time>2020-05-14T15:45:44Z</time>
      </trkpt>
      <trkpt lat="47.11906" lon="-1.56233">
        <ele>5.78</ele>
        <time>2020-05-14T15:45:46Z</time>
      </trkpt>
      <trkpt lat="47.11902" lon="-1.56214">
        <ele>6.1</ele>
        <time>2020-05-14T15:45:48Z</time>
      </trkpt>
      <trkpt lat="47.11898" lon="-1.56197">
        <ele>6.71</ele>
        <time>2020-05-14T15:45:50Z</time>
      </trkpt>
      <trkpt lat="47.11894" lon="-1.56179">
        <ele>7.49</ele>
        <time>2020-05-14T15:45:52Z</time>
      </trkpt>
      <trkpt lat="47.11891" lon="-1.56165">
        <ele>7.78</ele>
        <time>2020-05-14T15:45:54Z</time>
      </trkpt>
      <trkpt lat="47.11887" lon="-1.56148">
        <ele>7.77</ele>
        <time>2020-05-14T15:45:56Z</time>
      </trkpt>
      <trkpt lat="47.11882" lon="-1.56131">
        <ele>8.25</ele>
        <time>2020-05-14T15:45:58Z</time>
      </trkpt>
      <trkpt lat="47.11879" lon="-1.56117">
        <ele>8.28</ele>
        <time>2020-05-14T15:46:00Z</time>
      </trkpt>
      <trkpt lat="47.11875" lon="-1.56102">
        <ele>9.04</ele>
        <time>2020-05-14T15:46:02Z</time>
      </trkpt>
      <trkpt lat="47.11872" lon="-1.56089">
        <ele>10.48</ele>
        <time>2020-05-14T15:46:04Z</time>
      </trkpt>
      <trkpt lat="47.11869" lon="-1.56071">
        <ele>10.58</ele>
        <time>2020-05-14T15:46:06Z</time>
      </trkpt>
      <trkpt lat="47.11866" lon="-1.56057">
        <ele>9.69</ele>
        <time>2020-05-14T15:46:08Z</time>
      </trkpt>
      <trkpt lat="47.11864" lon="-1.56043">
        <ele>9.85</ele>
        <time>2020-05-14T15:46:10Z</time>
      </trkpt>
      <trkpt lat="47.11861" lon="-1.56026">
        <ele>10.47</ele>
        <time>2020-05-14T15:46:12Z</time>
      </trkpt>
      <trkpt lat="47.11858" lon="-1.56008">
        <ele>10.61</ele>
        <time>2020-05-14T15:46:14Z</time>
      </trkpt>
      <trkpt lat="47.11856" lon="-1.55994">
        <ele>10.7</ele>
        <time>2020-05-14T15:46:16Z</time>
      </trkpt>
      <trkpt lat="47.11855" lon="-1.55975">
        <ele>10.64</ele>
        <time>2020-05-14T15:46:18Z</time>
      </trkpt>
      <trkpt lat="47.11853" lon="-1.55959">
        <ele>10.36</ele>
        <time>2020-05-14T15:46:20Z</time>
      </trkpt>
      <trkpt lat="47.11852" lon="-1.55943">
        <ele>10.33</ele>
        <time>2020-05-14T15:46:22Z</time>
      </trkpt>
      <trkpt lat="47.11852" lon="-1.55928">
        <ele>9.56</ele>
        <time>2020-05-14T15:46:24Z</time>
      </trkpt>
      <trkpt lat="47.11851" lon="-1.55912">
        <ele>9.86</ele>
        <time>2020-05-14T15:46:26Z</time>
      </trkpt>
      <trkpt lat="47.1185" lon="-1.55896">
        <ele>9.5</ele>
        <time>2020-05-14T15:46:28Z</time>
      </trkpt>
      <trkpt lat="47.11849" lon="-1.55882">
        <ele>8.9</ele>
        <time>2020-05-14T15:46:30Z</time>
      </trkpt>
      <trkpt lat="47.11848" lon="-1.55868">
        <ele>8.9</ele>
        <time>2020-05-14T15:46:32Z</time>
      </trkpt>
      <trkpt lat="47.11846" lon="-1.55851">
        <ele>8.94</ele>
        <time>2020-05-14T15:46:34Z</time>
      </trkpt>
      <trkpt lat="47.11845" lon="-1.55834">
        <ele>8.55</ele>
        <time>2020-05-14T15:46:36Z</time>
      </trkpt>
      <trkpt lat="47.11844" lon="-1.55821">
        <ele>9.26</ele>
        <time>2020-05-14T15:46:38Z</time>
      </trkpt>
      <trkpt lat="47.11843" lon="-1.55804">
        <ele>9.55</ele>
        <time>2020-05-14T15:46:40Z</time>
      </trkpt>
      <trkpt lat="47.11842" lon="-1.55788">
        <ele>9.42</ele>
        <time>2020-05-14T15:46:42Z</time>
      </trkpt>
      <trkpt lat="47.11841" lon="-1.55771">
        <ele>10.03</ele>
        <time>2020-05-14T15:46:45Z</time>
      </trkpt>
      <trkpt lat="47.1184" lon="-1.55755">
        <ele>10.88</ele>
        <time>2020-05-14T15:46:47Z</time>
      </trkpt>
      <trkpt lat="47.11839" lon="-1.55739">
        <ele>11.55</ele>
        <time>2020-05-14T15:46:49Z</time>
      </trkpt>
      <trkpt lat="47.11838" lon="-1.55723">
        <ele>11.07</ele>
        <time>2020-05-14T15:46:51Z</time>
      </trkpt>
      <trkpt lat="47.11837" lon="-1.55707">
        <ele>10.23</ele>
        <time>2020-05-14T15:46:53Z</time>
      </trkpt>
      <trkpt lat="47.11836" lon="-1.55693">
        <ele>10.95</ele>
        <time>2020-05-14T15:46:55Z</time>
      </trkpt>
      <trkpt lat="47.11835" lon="-1.55676">
        <ele>11.5</ele>
        <time>2020-05-14T15:46:57Z</time>
      </trkpt>
      <trkpt lat="47.11834" lon="-1.5566">
        <ele>10.74</ele>
        <time>2020-05-14T15:46:59Z</time>
      </trkpt>
      <trkpt lat="47.11832" lon="-1.55643">
        <ele>10.47</ele>
        <time>2020-05-14T15:47:01Z</time>
      </trkpt>
      <trkpt lat="47.11831" lon="-1.55625">
        <ele>10.21</ele>
        <time>2020-05-14T15:47:03Z</time>
      </trkpt>
      <trkpt lat="47.1183" lon="-1.5561">
        <ele>10.36</ele>
        <time>2020-05-14T15:47:05Z</time>
      </trkpt>
      <trkpt lat="47.11829" lon="-1.55591">
        <ele>10.24</ele>
        <time>2020-05-14T15:47:07Z</time>
      </trkpt>
      <trkpt lat="47.11828" lon="-1.55576">
        <ele>10</ele>
        <time>2020-05-14T15:47:09Z</time>
      </trkpt>
      <trkpt lat="47.11827" lon="-1.55558">
        <ele>9.87</ele>
        <time>2020-05-14T15:47:11Z</time>
      </trkpt>
      <trkpt lat="47.11825" lon="-1.55543">
        <ele>9.78</ele>
        <time>2020-05-14T15:47:13Z</time>
      </trkpt>
      <trkpt lat="47.11824" lon="-1.55527">
        <ele>10.21</ele>
        <time>2020-05-14T15:47:15Z</time>
      </trkpt>
      <trkpt lat="47.11823" lon="-1.55514">
        <ele>10.92</ele>
        <time>2020-05-14T15:47:17Z</time>
      </trkpt>
      <trkpt lat="47.11822" lon="-1.55499">
        <ele>11.7</ele>
        <time>2020-05-14T15:47:19Z</time>
      </trkpt>
      <trkpt lat="47.11821" lon="-1.55482">
        <ele>11.62</ele>
        <time>2020-05-14T15:47:21Z</time>
      </trkpt>
      <trkpt lat="47.1182" lon="-1.55465">
        <ele>11.49</ele>
        <time>2020-05-14T15:47:23Z</time>
      </trkpt>
      <trkpt lat="47.11819" lon="-1.55448">
        <ele>11</ele>
        <time>2020-05-14T15:47:25Z</time>
      </trkpt>
      <trkpt lat="47.11817" lon="-1.55431">
        <ele>9.83</ele>
        <time>2020-05-14T15:47:27Z</time>
      </trkpt>
      <trkpt lat="47.11816" lon="-1.55416">
        <ele>9.08</ele>
        <time>2020-05-14T15:47:29Z</time>
      </trkpt>
      <trkpt lat="47.11816" lon="-1.554">
        <ele>8.68</ele>
        <time>2020-05-14T15:47:31Z</time>
      </trkpt>
      <trkpt lat="47.11816" lon="-1.55383">
        <ele>8.64</ele>
        <time>2020-05-14T15:47:33Z</time>
      </trkpt>
      <trkpt lat="47.11816" lon="-1.55367">
        <ele>9.24</ele>
        <time>2020-05-14T15:47:35Z</time>
      </trkpt>
      <trkpt lat="47.11816" lon="-1.55351">
        <ele>9.66</ele>
        <time>2020-05-14T15:47:37Z</time>
      </trkpt>
      <trkpt lat="47.11816" lon="-1.55329">
        <ele>10.99</ele>
        <time>2020-05-14T15:47:40Z</time>
      </trkpt>
      <trkpt lat="47.11816" lon="-1.55314">
        <ele>10.79</ele>
        <time>2020-05-14T15:47:42Z</time>
      </trkpt>
      <trkpt lat="47.11816" lon="-1.55299">
        <ele>10.85</ele>
        <time>2020-05-14T15:47:44Z</time>
      </trkpt>
      <trkpt lat="47.11816" lon="-1.55285">
        <ele>10.87</ele>
        <time>2020-05-14T15:47:46Z</time>
      </trkpt>
      <trkpt lat="47.11815" lon="-1.55269">
        <ele>10.34</ele>
        <time>2020-05-14T15:47:48Z</time>
      </trkpt>
      <trkpt lat="47.11815" lon="-1.55253">
        <ele>10.25</ele>
        <time>2020-05-14T15:47:50Z</time>
      </trkpt>
      <trkpt lat="47.11815" lon="-1.55238">
        <ele>10</ele>
        <time>2020-05-14T15:47:52Z</time>
      </trkpt>
      <trkpt lat="47.11814" lon="-1.55224">
        <ele>10.37</ele>
        <time>2020-05-14T15:47:54Z</time>
      </trkpt>
      <trkpt lat="47.11813" lon="-1.5521">
        <ele>11.02</ele>
        <time>2020-05-14T15:47:56Z</time>
      </trkpt>
      <trkpt lat="47.11813" lon="-1.55197">
        <ele>11.81</ele>
        <time>2020-05-14T15:47:58Z</time>
      </trkpt>
      <trkpt lat="47.11812" lon="-1.5518">
        <ele>12.52</ele>
        <time>2020-05-14T15:48:00Z</time>
      </trkpt>
      <trkpt lat="47.11812" lon="-1.55164">
        <ele>12.74</ele>
        <time>2020-05-14T15:48:02Z</time>
      </trkpt>
      <trkpt lat="47.11811" lon="-1.55148">
        <ele>12.74</ele>
        <time>2020-05-14T15:48:04Z</time>
      </trkpt>
      <trkpt lat="47.1181" lon="-1.55134">
        <ele>13.38</ele>
        <time>2020-05-14T15:48:06Z</time>
      </trkpt>
      <trkpt lat="47.11808" lon="-1.5512">
        <ele>13.85</ele>
        <time>2020-05-14T15:48:08Z</time>
      </trkpt>
      <trkpt lat="47.11806" lon="-1.55103">
        <ele>13.48</ele>
        <time>2020-05-14T15:48:10Z</time>
      </trkpt>
      <trkpt lat="47.11805" lon="-1.55088">
        <ele>13.27</ele>
        <time>2020-05-14T15:48:12Z</time>
      </trkpt>
      <trkpt lat="47.11803" lon="-1.55074">
        <ele>13.81</ele>
        <time>2020-05-14T15:48:14Z</time>
      </trkpt>
      <trkpt lat="47.11801" lon="-1.55058">
        <ele>13.15</ele>
        <time>2020-05-14T15:48:16Z</time>
      </trkpt>
      <trkpt lat="47.11798" lon="-1.55043">
        <ele>12.62</ele>
        <time>2020-05-14T15:48:18Z</time>
      </trkpt>
      <trkpt lat="47.11796" lon="-1.5503">
        <ele>13.54</ele>
        <time>2020-05-14T15:48:20Z</time>
      </trkpt>
      <trkpt lat="47.11793" lon="-1.55014">
        <ele>14.31</ele>
        <time>2020-05-14T15:48:22Z</time>
      </trkpt>
      <trkpt lat="47.11789" lon="-1.55">
        <ele>14.13</ele>
        <time>2020-05-14T15:48:24Z</time>
      </trkpt>
      <trkpt lat="47.11786" lon="-1.54984">
        <ele>14.59</ele>
        <time>2020-05-14T15:48:26Z</time>
      </trkpt>
      <trkpt lat="47.11782" lon="-1.54968">
        <ele>15.13</ele>
        <time>2020-05-14T15:48:28Z</time>
      </trkpt>
      <trkpt lat="47.11778" lon="-1.54951">
        <ele>15.12</ele>
        <time>2020-05-14T15:48:30Z</time>
      </trkpt>
      <trkpt lat="47.11774" lon="-1.54934">
        <ele>14.91</ele>
        <time>2020-05-14T15:48:32Z</time>
      </trkpt>
      <trkpt lat="47.1177" lon="-1.54921">
        <ele>15.54</ele>
        <time>2020-05-14T15:48:34Z</time>
      </trkpt>
      <trkpt lat="47.11766" lon="-1.54904">
        <ele>15.62</ele>
        <time>2020-05-14T15:48:36Z</time>
      </trkpt>
      <trkpt lat="47.11762" lon="-1.5489">
        <ele>15.71</ele>
        <time>2020-05-14T15:48:38Z</time>
      </trkpt>
      <trkpt lat="47.11757" lon="-1.54875">
        <ele>15.58</ele>
        <time>2020-05-14T15:48:40Z</time>
      </trkpt>
      <trkpt lat="47.11752" lon="-1.54858">
        <ele>15.39</ele>
        <time>2020-05-14T15:48:42Z</time>
      </trkpt>
      <trkpt lat="47.11748" lon="-1.54844">
        <ele>15.93</ele>
        <time>2020-05-14T15:48:44Z</time>
      </trkpt>
      <trkpt lat="47.11744" lon="-1.54827">
        <ele>17</ele>
        <time>2020-05-14T15:48:46Z</time>
      </trkpt>
      <trkpt lat="47.11738" lon="-1.54809">
        <ele>17.46</ele>
        <time>2020-05-14T15:48:48Z</time>
      </trkpt>
      <trkpt lat="47.11732" lon="-1.54793">
        <ele>17.15</ele>
        <time>2020-05-14T15:48:50Z</time>
      </trkpt>
      <trkpt lat="47.11727" lon="-1.54777">
        <ele>16.9</ele>
        <time>2020-05-14T15:48:52Z</time>
      </trkpt>
      <trkpt lat="47.11722" lon="-1.54759">
        <ele>16.27</ele>
        <time>2020-05-14T15:48:54Z</time>
      </trkpt>
      <trkpt lat="47.11717" lon="-1.54741">
        <ele>15.34</ele>
        <time>2020-05-14T15:48:56Z</time>
      </trkpt>
      <trkpt lat="47.11712" lon="-1.54725">
        <ele>15.84</ele>
        <time>2020-05-14T15:48:58Z</time>
      </trkpt>
      <trkpt lat="47.11707" lon="-1.54708">
        <ele>15.95</ele>
        <time>2020-05-14T15:49:00Z</time>
      </trkpt>
      <trkpt lat="47.11701" lon="-1.5469">
        <ele>15.54</ele>
        <time>2020-05-14T15:49:02Z</time>
      </trkpt>
      <trkpt lat="47.11695" lon="-1.54674">
        <ele>15.81</ele>
        <time>2020-05-14T15:49:04Z</time>
      </trkpt>
      <trkpt lat="47.1169" lon="-1.54658">
        <ele>16.21</ele>
        <time>2020-05-14T15:49:06Z</time>
      </trkpt>
      <trkpt lat="47.11686" lon="-1.54642">
        <ele>16.79</ele>
        <time>2020-05-14T15:49:08Z</time>
      </trkpt>
      <trkpt lat="47.1168" lon="-1.54624">
        <ele>16.92</ele>
        <time>2020-05-14T15:49:10Z</time>
      </trkpt>
      <trkpt lat="47.11674" lon="-1.54606">
        <ele>16.94</ele>
        <time>2020-05-14T15:49:12Z</time>
      </trkpt>
      <trkpt lat="47.11669" lon="-1.54587">
        <ele>16.81</ele>
        <time>2020-05-14T15:49:14Z</time>
      </trkpt>
      <trkpt lat="47.11664" lon="-1.54572">
        <ele>16.76</ele>
        <time>2020-05-14T15:49:16Z</time>
      </trkpt>
      <trkpt lat="47.11659" lon="-1.54558">
        <ele>16.88</ele>
        <time>2020-05-14T15:49:18Z</time>
      </trkpt>
      <trkpt lat="47.11654" lon="-1.54543">
        <ele>17.57</ele>
        <time>2020-05-14T15:49:20Z</time>
      </trkpt>
      <trkpt lat="47.1165" lon="-1.54529">
        <ele>17.51</ele>
        <time>2020-05-14T15:49:22Z</time>
      </trkpt>
      <trkpt lat="47.11645" lon="-1.54514">
        <ele>17.2</ele>
        <time>2020-05-14T15:49:24Z</time>
      </trkpt>
      <trkpt lat="47.11638" lon="-1.54493">
        <ele>16.09</ele>
        <time>2020-05-14T15:49:26Z</time>
      </trkpt>
      <trkpt lat="47.11631" lon="-1.54472">
        <ele>15.77</ele>
        <time>2020-05-14T15:49:28Z</time>
      </trkpt>
      <trkpt lat="47.11625" lon="-1.54456">
        <ele>15.99</ele>
        <time>2020-05-14T15:49:30Z</time>
      </trkpt>
      <trkpt lat="47.11619" lon="-1.54437">
        <ele>16.35</ele>
        <time>2020-05-14T15:49:32Z</time>
      </trkpt>
      <trkpt lat="47.11613" lon="-1.54417">
        <ele>16.62</ele>
        <time>2020-05-14T15:49:34Z</time>
      </trkpt>
      <trkpt lat="47.11606" lon="-1.54398">
        <ele>16.78</ele>
        <time>2020-05-14T15:49:36Z</time>
      </trkpt>
      <trkpt lat="47.11599" lon="-1.54379">
        <ele>16.76</ele>
        <time>2020-05-14T15:49:38Z</time>
      </trkpt>
      <trkpt lat="47.11594" lon="-1.54364">
        <ele>17.19</ele>
        <time>2020-05-14T15:49:40Z</time>
      </trkpt>
      <trkpt lat="47.11588" lon="-1.54346">
        <ele>17.91</ele>
        <time>2020-05-14T15:49:42Z</time>
      </trkpt>
      <trkpt lat="47.11582" lon="-1.54329">
        <ele>18.1</ele>
        <time>2020-05-14T15:49:44Z</time>
      </trkpt>
      <trkpt lat="47.11577" lon="-1.54313">
        <ele>18.38</ele>
        <time>2020-05-14T15:49:46Z</time>
      </trkpt>
      <trkpt lat="47.1157" lon="-1.54296">
        <ele>17.86</ele>
        <time>2020-05-14T15:49:48Z</time>
      </trkpt>
      <trkpt lat="47.11563" lon="-1.54279">
        <ele>16.62</ele>
        <time>2020-05-14T15:49:50Z</time>
      </trkpt>
      <trkpt lat="47.1156" lon="-1.54263">
        <ele>17.39</ele>
        <time>2020-05-14T15:49:53Z</time>
      </trkpt>
      <trkpt lat="47.11569" lon="-1.5425">
        <ele>17.52</ele>
        <time>2020-05-14T15:49:55Z</time>
      </trkpt>
      <trkpt lat="47.1158" lon="-1.54243">
        <ele>17.77</ele>
        <time>2020-05-14T15:49:57Z</time>
      </trkpt>
      <trkpt lat="47.11591" lon="-1.54236">
        <ele>19.19</ele>
        <time>2020-05-14T15:49:59Z</time>
      </trkpt>
      <trkpt lat="47.11603" lon="-1.54228">
        <ele>20.86</ele>
        <time>2020-05-14T15:50:01Z</time>
      </trkpt>
      <trkpt lat="47.11612" lon="-1.54221">
        <ele>21.49</ele>
        <time>2020-05-14T15:50:03Z</time>
      </trkpt>
      <trkpt lat="47.11622" lon="-1.54214">
        <ele>21.17</ele>
        <time>2020-05-14T15:50:05Z</time>
      </trkpt>
      <trkpt lat="47.11633" lon="-1.54205">
        <ele>19.92</ele>
        <time>2020-05-14T15:50:07Z</time>
      </trkpt>
      <trkpt lat="47.11639" lon="-1.54195">
        <ele>19.54</ele>
        <time>2020-05-14T15:50:09Z</time>
      </trkpt>
      <trkpt lat="47.11643" lon="-1.5418">
        <ele>19.95</ele>
        <time>2020-05-14T15:50:11Z</time>
      </trkpt>
      <trkpt lat="47.11647" lon="-1.54163">
        <ele>19.75</ele>
        <time>2020-05-14T15:50:13Z</time>
      </trkpt>
      <trkpt lat="47.11652" lon="-1.54149">
        <ele>19.88</ele>
        <time>2020-05-14T15:50:15Z</time>
      </trkpt>
      <trkpt lat="47.11664" lon="-1.54145">
        <ele>18.65</ele>
        <time>2020-05-14T15:50:17Z</time>
      </trkpt>
      <trkpt lat="47.11673" lon="-1.5414">
        <ele>18.57</ele>
        <time>2020-05-14T15:50:19Z</time>
      </trkpt>
      <trkpt lat="47.11685" lon="-1.54132">
        <ele>19.1</ele>
        <time>2020-05-14T15:50:21Z</time>
      </trkpt>
      <trkpt lat="47.11694" lon="-1.54123">
        <ele>20.19</ele>
        <time>2020-05-14T15:50:23Z</time>
      </trkpt>
      <trkpt lat="47.11701" lon="-1.54111">
        <ele>20.44</ele>
        <time>2020-05-14T15:50:25Z</time>
      </trkpt>
      <trkpt lat="47.11706" lon="-1.54097">
        <ele>20.74</ele>
        <time>2020-05-14T15:50:27Z</time>
      </trkpt>
      <trkpt lat="47.11711" lon="-1.54083">
        <ele>21.4</ele>
        <time>2020-05-14T15:50:29Z</time>
      </trkpt>
      <trkpt lat="47.11717" lon="-1.54067">
        <ele>22.16</ele>
        <time>2020-05-14T15:50:31Z</time>
      </trkpt>
      <trkpt lat="47.11723" lon="-1.54053">
        <ele>22.2</ele>
        <time>2020-05-14T15:50:33Z</time>
      </trkpt>
      <trkpt lat="47.11728" lon="-1.54038">
        <ele>22.96</ele>
        <time>2020-05-14T15:50:35Z</time>
      </trkpt>
      <trkpt lat="47.11736" lon="-1.54022">
        <ele>22.99</ele>
        <time>2020-05-14T15:50:38Z</time>
      </trkpt>
      <trkpt lat="47.11743" lon="-1.54007">
        <ele>23.73</ele>
        <time>2020-05-14T15:50:40Z</time>
      </trkpt>
      <trkpt lat="47.11747" lon="-1.53994">
        <ele>24.31</ele>
        <time>2020-05-14T15:50:42Z</time>
      </trkpt>
      <trkpt lat="47.11753" lon="-1.5398">
        <ele>23.65</ele>
        <time>2020-05-14T15:50:45Z</time>
      </trkpt>
      <trkpt lat="47.11759" lon="-1.53962">
        <ele>23.05</ele>
        <time>2020-05-14T15:50:47Z</time>
      </trkpt>
      <trkpt lat="47.11765" lon="-1.53948">
        <ele>22.48</ele>
        <time>2020-05-14T15:50:49Z</time>
      </trkpt>
      <trkpt lat="47.11771" lon="-1.53933">
        <ele>22.21</ele>
        <time>2020-05-14T15:50:51Z</time>
      </trkpt>
      <trkpt lat="47.11777" lon="-1.53919">
        <ele>21.25</ele>
        <time>2020-05-14T15:50:53Z</time>
      </trkpt>
      <trkpt lat="47.11783" lon="-1.53903">
        <ele>21.14</ele>
        <time>2020-05-14T15:50:55Z</time>
      </trkpt>
      <trkpt lat="47.1179" lon="-1.53889">
        <ele>21.42</ele>
        <time>2020-05-14T15:50:57Z</time>
      </trkpt>
      <trkpt lat="47.11795" lon="-1.53878">
        <ele>20.92</ele>
        <time>2020-05-14T15:50:58Z</time>
      </trkpt>
      <trkpt lat="47.11803" lon="-1.53865">
        <ele>20.28</ele>
        <time>2020-05-14T15:51:00Z</time>
      </trkpt>
      <trkpt lat="47.11812" lon="-1.53851">
        <ele>20.17</ele>
        <time>2020-05-14T15:51:02Z</time>
      </trkpt>
      <trkpt lat="47.11821" lon="-1.53836">
        <ele>19.07</ele>
        <time>2020-05-14T15:51:04Z</time>
      </trkpt>
      <trkpt lat="47.11829" lon="-1.53822">
        <ele>18.04</ele>
        <time>2020-05-14T15:51:06Z</time>
      </trkpt>
      <trkpt lat="47.11837" lon="-1.53807">
        <ele>17.04</ele>
        <time>2020-05-14T15:51:08Z</time>
      </trkpt>
      <trkpt lat="47.11845" lon="-1.5379">
        <ele>16.9</ele>
        <time>2020-05-14T15:51:10Z</time>
      </trkpt>
      <trkpt lat="47.11852" lon="-1.53773">
        <ele>17.04</ele>
        <time>2020-05-14T15:51:12Z</time>
      </trkpt>
      <trkpt lat="47.11859" lon="-1.53758">
        <ele>16.66</ele>
        <time>2020-05-14T15:51:14Z</time>
      </trkpt>
      <trkpt lat="47.11865" lon="-1.53741">
        <ele>16.48</ele>
        <time>2020-05-14T15:51:16Z</time>
      </trkpt>
      <trkpt lat="47.11871" lon="-1.53724">
        <ele>16.59</ele>
        <time>2020-05-14T15:51:18Z</time>
      </trkpt>
      <trkpt lat="47.11878" lon="-1.53705">
        <ele>16.65</ele>
        <time>2020-05-14T15:51:20Z</time>
      </trkpt>
      <trkpt lat="47.11885" lon="-1.53689">
        <ele>16.57</ele>
        <time>2020-05-14T15:51:22Z</time>
      </trkpt>
      <trkpt lat="47.11893" lon="-1.53675">
        <ele>16.29</ele>
        <time>2020-05-14T15:51:24Z</time>
      </trkpt>
      <trkpt lat="47.11902" lon="-1.53659">
        <ele>15.98</ele>
        <time>2020-05-14T15:51:26Z</time>
      </trkpt>
      <trkpt lat="47.11909" lon="-1.53644">
        <ele>15.19</ele>
        <time>2020-05-14T15:51:28Z</time>
      </trkpt>
      <trkpt lat="47.11917" lon="-1.5363">
        <ele>14.35</ele>
        <time>2020-05-14T15:51:30Z</time>
      </trkpt>
      <trkpt lat="47.11925" lon="-1.53614">
        <ele>13.67</ele>
        <time>2020-05-14T15:51:32Z</time>
      </trkpt>
      <trkpt lat="47.11933" lon="-1.53598">
        <ele>13.25</ele>
        <time>2020-05-14T15:51:34Z</time>
      </trkpt>
      <trkpt lat="47.11942" lon="-1.53583">
        <ele>12.78</ele>
        <time>2020-05-14T15:51:36Z</time>
      </trkpt>
      <trkpt lat="47.11949" lon="-1.53569">
        <ele>12.97</ele>
        <time>2020-05-14T15:51:38Z</time>
      </trkpt>
      <trkpt lat="47.11956" lon="-1.53556">
        <ele>12.34</ele>
        <time>2020-05-14T15:51:40Z</time>
      </trkpt>
      <trkpt lat="47.11965" lon="-1.53539">
        <ele>11.78</ele>
        <time>2020-05-14T15:51:42Z</time>
      </trkpt>
      <trkpt lat="47.11973" lon="-1.53525">
        <ele>10.96</ele>
        <time>2020-05-14T15:51:44Z</time>
      </trkpt>
      <trkpt lat="47.11981" lon="-1.5351">
        <ele>10.4</ele>
        <time>2020-05-14T15:51:46Z</time>
      </trkpt>
      <trkpt lat="47.11989" lon="-1.53494">
        <ele>9.59</ele>
        <time>2020-05-14T15:51:48Z</time>
      </trkpt>
      <trkpt lat="47.11998" lon="-1.53478">
        <ele>8.65</ele>
        <time>2020-05-14T15:51:50Z</time>
      </trkpt>
      <trkpt lat="47.12005" lon="-1.53463">
        <ele>8.91</ele>
        <time>2020-05-14T15:51:52Z</time>
      </trkpt>
      <trkpt lat="47.12013" lon="-1.53448">
        <ele>9.02</ele>
        <time>2020-05-14T15:51:54Z</time>
      </trkpt>
      <trkpt lat="47.12021" lon="-1.53434">
        <ele>9.11</ele>
        <time>2020-05-14T15:51:56Z</time>
      </trkpt>
      <trkpt lat="47.12031" lon="-1.53417">
        <ele>8.58</ele>
        <time>2020-05-14T15:51:58Z</time>
      </trkpt>
      <trkpt lat="47.12039" lon="-1.534">
        <ele>8.03</ele>
        <time>2020-05-14T15:52:00Z</time>
      </trkpt>
      <trkpt lat="47.12047" lon="-1.53386">
        <ele>7.98</ele>
        <time>2020-05-14T15:52:02Z</time>
      </trkpt>
      <trkpt lat="47.12055" lon="-1.53372">
        <ele>8.12</ele>
        <time>2020-05-14T15:52:04Z</time>
      </trkpt>
      <trkpt lat="47.12063" lon="-1.53357">
        <ele>7.94</ele>
        <time>2020-05-14T15:52:06Z</time>
      </trkpt>
      <trkpt lat="47.12072" lon="-1.53342">
        <ele>7.68</ele>
        <time>2020-05-14T15:52:08Z</time>
      </trkpt>
      <trkpt lat="47.12081" lon="-1.53326">
        <ele>7.84</ele>
        <time>2020-05-14T15:52:10Z</time>
      </trkpt>
      <trkpt lat="47.12089" lon="-1.53311">
        <ele>7.8</ele>
        <time>2020-05-14T15:52:12Z</time>
      </trkpt>
      <trkpt lat="47.12097" lon="-1.53294">
        <ele>6.97</ele>
        <time>2020-05-14T15:52:14Z</time>
      </trkpt>
      <trkpt lat="47.12104" lon="-1.53279">
        <ele>6.97</ele>
        <time>2020-05-14T15:52:16Z</time>
      </trkpt>
      <trkpt lat="47.12113" lon="-1.53261">
        <ele>7.08</ele>
        <time>2020-05-14T15:52:18Z</time>
      </trkpt>
      <trkpt lat="47.12121" lon="-1.53246">
        <ele>6.95</ele>
        <time>2020-05-14T15:52:20Z</time>
      </trkpt>
      <trkpt lat="47.12129" lon="-1.53231">
        <ele>7.15</ele>
        <time>2020-05-14T15:52:22Z</time>
      </trkpt>
      <trkpt lat="47.12138" lon="-1.53213">
        <ele>7.65</ele>
        <time>2020-05-14T15:52:24Z</time>
      </trkpt>
      <trkpt lat="47.12148" lon="-1.53197">
        <ele>7.39</ele>
        <time>2020-05-14T15:52:26Z</time>
      </trkpt>
      <trkpt lat="47.12155" lon="-1.53184">
        <ele>7.34</ele>
        <time>2020-05-14T15:52:28Z</time>
      </trkpt>
      <trkpt lat="47.12164" lon="-1.53169">
        <ele>6.69</ele>
        <time>2020-05-14T15:52:30Z</time>
      </trkpt>
      <trkpt lat="47.1217" lon="-1.53156">
        <ele>6.92</ele>
        <time>2020-05-14T15:52:32Z</time>
      </trkpt>
      <trkpt lat="47.12176" lon="-1.53144">
        <ele>7.42</ele>
        <time>2020-05-14T15:52:34Z</time>
      </trkpt>
      <trkpt lat="47.12184" lon="-1.53129">
        <ele>7.5</ele>
        <time>2020-05-14T15:52:36Z</time>
      </trkpt>
      <trkpt lat="47.12191" lon="-1.53116">
        <ele>7.73</ele>
        <time>2020-05-14T15:52:38Z</time>
      </trkpt>
      <trkpt lat="47.12198" lon="-1.53103">
        <ele>7.75</ele>
        <time>2020-05-14T15:52:40Z</time>
      </trkpt>
      <trkpt lat="47.12206" lon="-1.53089">
        <ele>7.42</ele>
        <time>2020-05-14T15:52:42Z</time>
      </trkpt>
      <trkpt lat="47.12213" lon="-1.53074">
        <ele>6.79</ele>
        <time>2020-05-14T15:52:44Z</time>
      </trkpt>
      <trkpt lat="47.12219" lon="-1.53061">
        <ele>5.5</ele>
        <time>2020-05-14T15:52:46Z</time>
      </trkpt>
      <trkpt lat="47.12226" lon="-1.5305">
        <ele>4.72</ele>
        <time>2020-05-14T15:52:48Z</time>
      </trkpt>
      <trkpt lat="47.12233" lon="-1.53036">
        <ele>4.61</ele>
        <time>2020-05-14T15:52:50Z</time>
      </trkpt>
      <trkpt lat="47.1224" lon="-1.53024">
        <ele>5.21</ele>
        <time>2020-05-14T15:52:52Z</time>
      </trkpt>
      <trkpt lat="47.12246" lon="-1.53013">
        <ele>5.68</ele>
        <time>2020-05-14T15:52:54Z</time>
      </trkpt>
      <trkpt lat="47.12253" lon="-1.52999">
        <ele>5.94</ele>
        <time>2020-05-14T15:52:56Z</time>
      </trkpt>
      <trkpt lat="47.12261" lon="-1.52985">
        <ele>5.7</ele>
        <time>2020-05-14T15:52:58Z</time>
      </trkpt>
      <trkpt lat="47.12268" lon="-1.52973">
        <ele>6.23</ele>
        <time>2020-05-14T15:53:00Z</time>
      </trkpt>
      <trkpt lat="47.12275" lon="-1.52961">
        <ele>6.83</ele>
        <time>2020-05-14T15:53:02Z</time>
      </trkpt>
      <trkpt lat="47.12282" lon="-1.52945">
        <ele>8.13</ele>
        <time>2020-05-14T15:53:05Z</time>
      </trkpt>
      <trkpt lat="47.12288" lon="-1.52934">
        <ele>7.81</ele>
        <time>2020-05-14T15:53:07Z</time>
      </trkpt>
      <trkpt lat="47.12294" lon="-1.52922">
        <ele>7.71</ele>
        <time>2020-05-14T15:53:09Z</time>
      </trkpt>
      <trkpt lat="47.12303" lon="-1.52905">
        <ele>9.63</ele>
        <time>2020-05-14T15:53:12Z</time>
      </trkpt>
      <trkpt lat="47.1231" lon="-1.52892">
        <ele>8.91</ele>
        <time>2020-05-14T15:53:14Z</time>
      </trkpt>
      <trkpt lat="47.12317" lon="-1.52881">
        <ele>8.54</ele>
        <time>2020-05-14T15:53:16Z</time>
      </trkpt>
      <trkpt lat="47.12323" lon="-1.5287">
        <ele>8.62</ele>
        <time>2020-05-14T15:53:18Z</time>
      </trkpt>
      <trkpt lat="47.1233" lon="-1.5286">
        <ele>8.26</ele>
        <time>2020-05-14T15:53:20Z</time>
      </trkpt>
      <trkpt lat="47.12337" lon="-1.52851">
        <ele>9</ele>
        <time>2020-05-14T15:53:22Z</time>
      </trkpt>
      <trkpt lat="47.12345" lon="-1.52841">
        <ele>9.34</ele>
        <time>2020-05-14T15:53:24Z</time>
      </trkpt>
      <trkpt lat="47.12356" lon="-1.52828">
        <ele>9.46</ele>
        <time>2020-05-14T15:53:27Z</time>
      </trkpt>
      <trkpt lat="47.12367" lon="-1.52818">
        <ele>10.39</ele>
        <time>2020-05-14T15:53:30Z</time>
      </trkpt>
      <trkpt lat="47.12375" lon="-1.5281">
        <ele>10.58</ele>
        <time>2020-05-14T15:53:32Z</time>
      </trkpt>
      <trkpt lat="47.12385" lon="-1.52801">
        <ele>11.2</ele>
        <time>2020-05-14T15:53:35Z</time>
      </trkpt>
      <trkpt lat="47.12396" lon="-1.52791">
        <ele>13.1</ele>
        <time>2020-05-14T15:53:38Z</time>
      </trkpt>
      <trkpt lat="47.12407" lon="-1.5278">
        <ele>13.77</ele>
        <time>2020-05-14T15:53:41Z</time>
      </trkpt>
      <trkpt lat="47.12418" lon="-1.52769">
        <ele>15.93</ele>
        <time>2020-05-14T15:53:44Z</time>
      </trkpt>
      <trkpt lat="47.12425" lon="-1.5276">
        <ele>16.22</ele>
        <time>2020-05-14T15:53:46Z</time>
      </trkpt>
      <trkpt lat="47.12434" lon="-1.52751">
        <ele>16.15</ele>
        <time>2020-05-14T15:53:48Z</time>
      </trkpt>
      <trkpt lat="47.12443" lon="-1.52744">
        <ele>16.11</ele>
        <time>2020-05-14T15:53:50Z</time>
      </trkpt>
      <trkpt lat="47.12455" lon="-1.52738">
        <ele>16.45</ele>
        <time>2020-05-14T15:53:53Z</time>
      </trkpt>
      <trkpt lat="47.12464" lon="-1.52734">
        <ele>16.84</ele>
        <time>2020-05-14T15:53:55Z</time>
      </trkpt>
      <trkpt lat="47.12475" lon="-1.52731">
        <ele>17.95</ele>
        <time>2020-05-14T15:53:58Z</time>
      </trkpt>
      <trkpt lat="47.12489" lon="-1.52729">
        <ele>19.55</ele>
        <time>2020-05-14T15:54:01Z</time>
      </trkpt>
      <trkpt lat="47.12501" lon="-1.52727">
        <ele>20.11</ele>
        <time>2020-05-14T15:54:04Z</time>
      </trkpt>
      <trkpt lat="47.12508" lon="-1.52715">
        <ele>19.7</ele>
        <time>2020-05-14T15:54:07Z</time>
      </trkpt>
      <trkpt lat="47.12504" lon="-1.52703">
        <ele>19.85</ele>
        <time>2020-05-14T15:54:11Z</time>
      </trkpt>
      <trkpt lat="47.12492" lon="-1.52699">
        <ele>20.44</ele>
        <time>2020-05-14T15:54:14Z</time>
      </trkpt>
      <trkpt lat="47.12482" lon="-1.52699">
        <ele>21.1</ele>
        <time>2020-05-14T15:54:16Z</time>
      </trkpt>
      <trkpt lat="47.1247" lon="-1.52698">
        <ele>20.64</ele>
        <time>2020-05-14T15:54:18Z</time>
      </trkpt>
      <trkpt lat="47.12461" lon="-1.52695">
        <ele>19.95</ele>
        <time>2020-05-14T15:54:20Z</time>
      </trkpt>
      <trkpt lat="47.1245" lon="-1.52692">
        <ele>20.63</ele>
        <time>2020-05-14T15:54:22Z</time>
      </trkpt>
      <trkpt lat="47.12438" lon="-1.52689">
        <ele>21.75</ele>
        <time>2020-05-14T15:54:24Z</time>
      </trkpt>
      <trkpt lat="47.12425" lon="-1.52686">
        <ele>22.21</ele>
        <time>2020-05-14T15:54:27Z</time>
      </trkpt>
      <trkpt lat="47.12412" lon="-1.52683">
        <ele>21.58</ele>
        <time>2020-05-14T15:54:29Z</time>
      </trkpt>
      <trkpt lat="47.12399" lon="-1.52681">
        <ele>20.44</ele>
        <time>2020-05-14T15:54:31Z</time>
      </trkpt>
      <trkpt lat="47.12384" lon="-1.52678">
        <ele>19.32</ele>
        <time>2020-05-14T15:54:33Z</time>
      </trkpt>
      <trkpt lat="47.12367" lon="-1.52675">
        <ele>18.1</ele>
        <time>2020-05-14T15:54:35Z</time>
      </trkpt>
      <trkpt lat="47.1235" lon="-1.52671">
        <ele>17.59</ele>
        <time>2020-05-14T15:54:37Z</time>
      </trkpt>
      <trkpt lat="47.12341" lon="-1.52668">
        <ele>17.67</ele>
        <time>2020-05-14T15:54:38Z</time>
      </trkpt>
      <trkpt lat="47.12331" lon="-1.52665">
        <ele>17.49</ele>
        <time>2020-05-14T15:54:39Z</time>
      </trkpt>
      <trkpt lat="47.12322" lon="-1.52663">
        <ele>17.19</ele>
        <time>2020-05-14T15:54:40Z</time>
      </trkpt>
      <trkpt lat="47.12306" lon="-1.52657">
        <ele>15.84</ele>
        <time>2020-05-14T15:54:42Z</time>
      </trkpt>
      <trkpt lat="47.12296" lon="-1.52653">
        <ele>15.24</ele>
        <time>2020-05-14T15:54:43Z</time>
      </trkpt>
      <trkpt lat="47.12287" lon="-1.52649">
        <ele>14.83</ele>
        <time>2020-05-14T15:54:44Z</time>
      </trkpt>
      <trkpt lat="47.12277" lon="-1.52643">
        <ele>14.1</ele>
        <time>2020-05-14T15:54:45Z</time>
      </trkpt>
      <trkpt lat="47.12267" lon="-1.52638">
        <ele>13.63</ele>
        <time>2020-05-14T15:54:46Z</time>
      </trkpt>
      <trkpt lat="47.12258" lon="-1.52633">
        <ele>13.6</ele>
        <time>2020-05-14T15:54:47Z</time>
      </trkpt>
      <trkpt lat="47.12242" lon="-1.52624">
        <ele>13.48</ele>
        <time>2020-05-14T15:54:49Z</time>
      </trkpt>
      <trkpt lat="47.12233" lon="-1.52618">
        <ele>13.27</ele>
        <time>2020-05-14T15:54:50Z</time>
      </trkpt>
      <trkpt lat="47.12224" lon="-1.52613">
        <ele>13.15</ele>
        <time>2020-05-14T15:54:51Z</time>
      </trkpt>
      <trkpt lat="47.12215" lon="-1.52608">
        <ele>12.89</ele>
        <time>2020-05-14T15:54:52Z</time>
      </trkpt>
      <trkpt lat="47.12199" lon="-1.52601">
        <ele>12.42</ele>
        <time>2020-05-14T15:54:54Z</time>
      </trkpt>
      <trkpt lat="47.12181" lon="-1.52596">
        <ele>12.44</ele>
        <time>2020-05-14T15:54:56Z</time>
      </trkpt>
      <trkpt lat="47.12172" lon="-1.52594">
        <ele>12.07</ele>
        <time>2020-05-14T15:54:57Z</time>
      </trkpt>
      <trkpt lat="47.12162" lon="-1.52592">
        <ele>11.08</ele>
        <time>2020-05-14T15:54:58Z</time>
      </trkpt>
      <trkpt lat="47.12145" lon="-1.52591">
        <ele>10.49</ele>
        <time>2020-05-14T15:55:00Z</time>
      </trkpt>
      <trkpt lat="47.12136" lon="-1.5259">
        <ele>10.54</ele>
        <time>2020-05-14T15:55:01Z</time>
      </trkpt>
      <trkpt lat="47.12126" lon="-1.5259">
        <ele>10.59</ele>
        <time>2020-05-14T15:55:02Z</time>
      </trkpt>
      <trkpt lat="47.12116" lon="-1.5259">
        <ele>10.44</ele>
        <time>2020-05-14T15:55:03Z</time>
      </trkpt>
      <trkpt lat="47.121" lon="-1.52591">
        <ele>9.2</ele>
        <time>2020-05-14T15:55:05Z</time>
      </trkpt>
      <trkpt lat="47.12091" lon="-1.52592">
        <ele>8.58</ele>
        <time>2020-05-14T15:55:06Z</time>
      </trkpt>
      <trkpt lat="47.12082" lon="-1.52592">
        <ele>8.49</ele>
        <time>2020-05-14T15:55:07Z</time>
      </trkpt>
      <trkpt lat="47.12064" lon="-1.52593">
        <ele>8.23</ele>
        <time>2020-05-14T15:55:09Z</time>
      </trkpt>
      <trkpt lat="47.12055" lon="-1.52594">
        <ele>8.03</ele>
        <time>2020-05-14T15:55:10Z</time>
      </trkpt>
      <trkpt lat="47.12045" lon="-1.52594">
        <ele>7.68</ele>
        <time>2020-05-14T15:55:11Z</time>
      </trkpt>
      <trkpt lat="47.12036" lon="-1.52595">
        <ele>7.54</ele>
        <time>2020-05-14T15:55:12Z</time>
      </trkpt>
      <trkpt lat="47.12027" lon="-1.52594">
        <ele>7.78</ele>
        <time>2020-05-14T15:55:13Z</time>
      </trkpt>
      <trkpt lat="47.12018" lon="-1.52594">
        <ele>7.98</ele>
        <time>2020-05-14T15:55:14Z</time>
      </trkpt>
      <trkpt lat="47.12008" lon="-1.52593">
        <ele>7.94</ele>
        <time>2020-05-14T15:55:15Z</time>
      </trkpt>
      <trkpt lat="47.11992" lon="-1.52588">
        <ele>7.58</ele>
        <time>2020-05-14T15:55:17Z</time>
      </trkpt>
      <trkpt lat="47.11975" lon="-1.52582">
        <ele>7.22</ele>
        <time>2020-05-14T15:55:19Z</time>
      </trkpt>
      <trkpt lat="47.11966" lon="-1.52579">
        <ele>7.15</ele>
        <time>2020-05-14T15:55:20Z</time>
      </trkpt>
      <trkpt lat="47.11956" lon="-1.52574">
        <ele>7.42</ele>
        <time>2020-05-14T15:55:21Z</time>
      </trkpt>
      <trkpt lat="47.11939" lon="-1.52565">
        <ele>7.95</ele>
        <time>2020-05-14T15:55:23Z</time>
      </trkpt>
      <trkpt lat="47.11924" lon="-1.52554">
        <ele>7.98</ele>
        <time>2020-05-14T15:55:25Z</time>
      </trkpt>
      <trkpt lat="47.11908" lon="-1.52541">
        <ele>7.76</ele>
        <time>2020-05-14T15:55:27Z</time>
      </trkpt>
      <trkpt lat="47.119" lon="-1.52534">
        <ele>7.12</ele>
        <time>2020-05-14T15:55:28Z</time>
      </trkpt>
      <trkpt lat="47.11892" lon="-1.52526">
        <ele>6.5</ele>
        <time>2020-05-14T15:55:29Z</time>
      </trkpt>
      <trkpt lat="47.11885" lon="-1.52518">
        <ele>6.19</ele>
        <time>2020-05-14T15:55:30Z</time>
      </trkpt>
      <trkpt lat="47.11877" lon="-1.52509">
        <ele>5.77</ele>
        <time>2020-05-14T15:55:31Z</time>
      </trkpt>
      <trkpt lat="47.11865" lon="-1.52494">
        <ele>4.97</ele>
        <time>2020-05-14T15:55:33Z</time>
      </trkpt>
      <trkpt lat="47.11855" lon="-1.52479">
        <ele>4.95</ele>
        <time>2020-05-14T15:55:35Z</time>
      </trkpt>
      <trkpt lat="47.11846" lon="-1.52466">
        <ele>5.91</ele>
        <time>2020-05-14T15:55:37Z</time>
      </trkpt>
      <trkpt lat="47.11839" lon="-1.52454">
        <ele>7.02</ele>
        <time>2020-05-14T15:55:39Z</time>
      </trkpt>
      <trkpt lat="47.11831" lon="-1.52443">
        <ele>7.68</ele>
        <time>2020-05-14T15:55:41Z</time>
      </trkpt>
      <trkpt lat="47.11823" lon="-1.52432">
        <ele>7.5</ele>
        <time>2020-05-14T15:55:43Z</time>
      </trkpt>
      <trkpt lat="47.11814" lon="-1.5242">
        <ele>6.8</ele>
        <time>2020-05-14T15:55:45Z</time>
      </trkpt>
      <trkpt lat="47.11806" lon="-1.52409">
        <ele>6.66</ele>
        <time>2020-05-14T15:55:47Z</time>
      </trkpt>
      <trkpt lat="47.11798" lon="-1.52399">
        <ele>6.96</ele>
        <time>2020-05-14T15:55:49Z</time>
      </trkpt>
      <trkpt lat="47.1179" lon="-1.52388">
        <ele>6.86</ele>
        <time>2020-05-14T15:55:51Z</time>
      </trkpt>
      <trkpt lat="47.11782" lon="-1.52377">
        <ele>7.5</ele>
        <time>2020-05-14T15:55:53Z</time>
      </trkpt>
      <trkpt lat="47.11773" lon="-1.52364">
        <ele>8.21</ele>
        <time>2020-05-14T15:55:55Z</time>
      </trkpt>
      <trkpt lat="47.11764" lon="-1.52352">
        <ele>8.91</ele>
        <time>2020-05-14T15:55:57Z</time>
      </trkpt>
      <trkpt lat="47.11756" lon="-1.52343">
        <ele>9.2</ele>
        <time>2020-05-14T15:55:59Z</time>
      </trkpt>
      <trkpt lat="47.11749" lon="-1.52333">
        <ele>8.7</ele>
        <time>2020-05-14T15:56:01Z</time>
      </trkpt>
      <trkpt lat="47.11741" lon="-1.52322">
        <ele>9.06</ele>
        <time>2020-05-14T15:56:03Z</time>
      </trkpt>
      <trkpt lat="47.11733" lon="-1.52312">
        <ele>9.77</ele>
        <time>2020-05-14T15:56:05Z</time>
      </trkpt>
      <trkpt lat="47.11724" lon="-1.52302">
        <ele>9.59</ele>
        <time>2020-05-14T15:56:07Z</time>
      </trkpt>
      <trkpt lat="47.11715" lon="-1.52293">
        <ele>9.06</ele>
        <time>2020-05-14T15:56:09Z</time>
      </trkpt>
      <trkpt lat="47.11706" lon="-1.52286">
        <ele>9.74</ele>
        <time>2020-05-14T15:56:11Z</time>
      </trkpt>
      <trkpt lat="47.11696" lon="-1.5228">
        <ele>10.24</ele>
        <time>2020-05-14T15:56:13Z</time>
      </trkpt>
      <trkpt lat="47.11683" lon="-1.52272">
        <ele>10.12</ele>
        <time>2020-05-14T15:56:15Z</time>
      </trkpt>
      <trkpt lat="47.1167" lon="-1.52264">
        <ele>9.74</ele>
        <time>2020-05-14T15:56:17Z</time>
      </trkpt>
      <trkpt lat="47.11655" lon="-1.52257">
        <ele>8.98</ele>
        <time>2020-05-14T15:56:19Z</time>
      </trkpt>
      <trkpt lat="47.1164" lon="-1.52248">
        <ele>8.7</ele>
        <time>2020-05-14T15:56:21Z</time>
      </trkpt>
      <trkpt lat="47.11625" lon="-1.5224">
        <ele>8.6</ele>
        <time>2020-05-14T15:56:23Z</time>
      </trkpt>
      <trkpt lat="47.11617" lon="-1.52235">
        <ele>8.41</ele>
        <time>2020-05-14T15:56:24Z</time>
      </trkpt>
      <trkpt lat="47.11607" lon="-1.5223">
        <ele>8.54</ele>
        <time>2020-05-14T15:56:25Z</time>
      </trkpt>
      <trkpt lat="47.11592" lon="-1.52219">
        <ele>8.29</ele>
        <time>2020-05-14T15:56:27Z</time>
      </trkpt>
      <trkpt lat="47.11584" lon="-1.52212">
        <ele>8.23</ele>
        <time>2020-05-14T15:56:28Z</time>
      </trkpt>
      <trkpt lat="47.1157" lon="-1.52196">
        <ele>8.2</ele>
        <time>2020-05-14T15:56:30Z</time>
      </trkpt>
      <trkpt lat="47.11564" lon="-1.52186">
        <ele>8.01</ele>
        <time>2020-05-14T15:56:31Z</time>
      </trkpt>
      <trkpt lat="47.11554" lon="-1.52166">
        <ele>7.55</ele>
        <time>2020-05-14T15:56:33Z</time>
      </trkpt>
      <trkpt lat="47.11543" lon="-1.52146">
        <ele>7.12</ele>
        <time>2020-05-14T15:56:35Z</time>
      </trkpt>
      <trkpt lat="47.11537" lon="-1.52135">
        <ele>6.91</ele>
        <time>2020-05-14T15:56:36Z</time>
      </trkpt>
      <trkpt lat="47.11526" lon="-1.52116">
        <ele>6.72</ele>
        <time>2020-05-14T15:56:38Z</time>
      </trkpt>
      <trkpt lat="47.11515" lon="-1.52097">
        <ele>6.38</ele>
        <time>2020-05-14T15:56:40Z</time>
      </trkpt>
      <trkpt lat="47.11506" lon="-1.52078">
        <ele>6.47</ele>
        <time>2020-05-14T15:56:42Z</time>
      </trkpt>
      <trkpt lat="47.11494" lon="-1.52056">
        <ele>6.96</ele>
        <time>2020-05-14T15:56:44Z</time>
      </trkpt>
      <trkpt lat="47.11489" lon="-1.52045">
        <ele>6.88</ele>
        <time>2020-05-14T15:56:45Z</time>
      </trkpt>
      <trkpt lat="47.11479" lon="-1.52027">
        <ele>6.46</ele>
        <time>2020-05-14T15:56:47Z</time>
      </trkpt>
      <trkpt lat="47.11473" lon="-1.52017">
        <ele>6.29</ele>
        <time>2020-05-14T15:56:48Z</time>
      </trkpt>
      <trkpt lat="47.11463" lon="-1.51999">
        <ele>6.18</ele>
        <time>2020-05-14T15:56:50Z</time>
      </trkpt>
      <trkpt lat="47.11454" lon="-1.51983">
        <ele>5.76</ele>
        <time>2020-05-14T15:56:52Z</time>
      </trkpt>
      <trkpt lat="47.11444" lon="-1.51965">
        <ele>4.96</ele>
        <time>2020-05-14T15:56:54Z</time>
      </trkpt>
      <trkpt lat="47.11436" lon="-1.51949">
        <ele>5.16</ele>
        <time>2020-05-14T15:56:56Z</time>
      </trkpt>
      <trkpt lat="47.11427" lon="-1.51933">
        <ele>5.35</ele>
        <time>2020-05-14T15:56:58Z</time>
      </trkpt>
      <trkpt lat="47.11417" lon="-1.51915">
        <ele>5.56</ele>
        <time>2020-05-14T15:57:00Z</time>
      </trkpt>
      <trkpt lat="47.11406" lon="-1.51896">
        <ele>5.72</ele>
        <time>2020-05-14T15:57:02Z</time>
      </trkpt>
      <trkpt lat="47.11397" lon="-1.5188">
        <ele>6.21</ele>
        <time>2020-05-14T15:57:04Z</time>
      </trkpt>
      <trkpt lat="47.11388" lon="-1.51864">
        <ele>6.93</ele>
        <time>2020-05-14T15:57:06Z</time>
      </trkpt>
      <trkpt lat="47.11378" lon="-1.51847">
        <ele>6.55</ele>
        <time>2020-05-14T15:57:08Z</time>
      </trkpt>
      <trkpt lat="47.11368" lon="-1.5183">
        <ele>5.85</ele>
        <time>2020-05-14T15:57:10Z</time>
      </trkpt>
      <trkpt lat="47.11358" lon="-1.51813">
        <ele>5.36</ele>
        <time>2020-05-14T15:57:12Z</time>
      </trkpt>
      <trkpt lat="47.11347" lon="-1.51797">
        <ele>5.45</ele>
        <time>2020-05-14T15:57:14Z</time>
      </trkpt>
      <trkpt lat="47.11336" lon="-1.51784">
        <ele>5.21</ele>
        <time>2020-05-14T15:57:16Z</time>
      </trkpt>
      <trkpt lat="47.11324" lon="-1.51772">
        <ele>4.62</ele>
        <time>2020-05-14T15:57:18Z</time>
      </trkpt>
      <trkpt lat="47.11312" lon="-1.51762">
        <ele>4.31</ele>
        <time>2020-05-14T15:57:20Z</time>
      </trkpt>
      <trkpt lat="47.113" lon="-1.51751">
        <ele>4.72</ele>
        <time>2020-05-14T15:57:22Z</time>
      </trkpt>
      <trkpt lat="47.11287" lon="-1.5174">
        <ele>5.18</ele>
        <time>2020-05-14T15:57:24Z</time>
      </trkpt>
      <trkpt lat="47.11276" lon="-1.51731">
        <ele>5.74</ele>
        <time>2020-05-14T15:57:26Z</time>
      </trkpt>
      <trkpt lat="47.11265" lon="-1.51722">
        <ele>7</ele>
        <time>2020-05-14T15:57:28Z</time>
      </trkpt>
      <trkpt lat="47.11254" lon="-1.51713">
        <ele>8.2</ele>
        <time>2020-05-14T15:57:30Z</time>
      </trkpt>
      <trkpt lat="47.11241" lon="-1.51704">
        <ele>8.13</ele>
        <time>2020-05-14T15:57:32Z</time>
      </trkpt>
      <trkpt lat="47.1123" lon="-1.51694">
        <ele>8.02</ele>
        <time>2020-05-14T15:57:34Z</time>
      </trkpt>
      <trkpt lat="47.1122" lon="-1.51685">
        <ele>6.97</ele>
        <time>2020-05-14T15:57:36Z</time>
      </trkpt>
      <trkpt lat="47.11209" lon="-1.51676">
        <ele>7.17</ele>
        <time>2020-05-14T15:57:38Z</time>
      </trkpt>
      <trkpt lat="47.11198" lon="-1.51665">
        <ele>8.39</ele>
        <time>2020-05-14T15:57:40Z</time>
      </trkpt>
      <trkpt lat="47.11187" lon="-1.51654">
        <ele>8.79</ele>
        <time>2020-05-14T15:57:42Z</time>
      </trkpt>
      <trkpt lat="47.11177" lon="-1.5164">
        <ele>8.69</ele>
        <time>2020-05-14T15:57:44Z</time>
      </trkpt>
      <trkpt lat="47.11168" lon="-1.51627">
        <ele>9.56</ele>
        <time>2020-05-14T15:57:46Z</time>
      </trkpt>
      <trkpt lat="47.11159" lon="-1.51613">
        <ele>9.91</ele>
        <time>2020-05-14T15:57:48Z</time>
      </trkpt>
      <trkpt lat="47.11151" lon="-1.51599">
        <ele>10.38</ele>
        <time>2020-05-14T15:57:50Z</time>
      </trkpt>
      <trkpt lat="47.11142" lon="-1.51586">
        <ele>11.31</ele>
        <time>2020-05-14T15:57:52Z</time>
      </trkpt>
      <trkpt lat="47.11132" lon="-1.5157">
        <ele>12.26</ele>
        <time>2020-05-14T15:57:54Z</time>
      </trkpt>
      <trkpt lat="47.11124" lon="-1.51557">
        <ele>12.99</ele>
        <time>2020-05-14T15:57:56Z</time>
      </trkpt>
      <trkpt lat="47.11114" lon="-1.51543">
        <ele>13.66</ele>
        <time>2020-05-14T15:57:58Z</time>
      </trkpt>
      <trkpt lat="47.11105" lon="-1.51528">
        <ele>13.73</ele>
        <time>2020-05-14T15:58:00Z</time>
      </trkpt>
      <trkpt lat="47.11097" lon="-1.51515">
        <ele>13.88</ele>
        <time>2020-05-14T15:58:02Z</time>
      </trkpt>
      <trkpt lat="47.11089" lon="-1.51503">
        <ele>14.44</ele>
        <time>2020-05-14T15:58:04Z</time>
      </trkpt>
      <trkpt lat="47.11081" lon="-1.51493">
        <ele>14.16</ele>
        <time>2020-05-14T15:58:06Z</time>
      </trkpt>
      <trkpt lat="47.11073" lon="-1.51482">
        <ele>14.03</ele>
        <time>2020-05-14T15:58:08Z</time>
      </trkpt>
      <trkpt lat="47.11065" lon="-1.51474">
        <ele>15.44</ele>
        <time>2020-05-14T15:58:10Z</time>
      </trkpt>
      <trkpt lat="47.11053" lon="-1.51462">
        <ele>14.94</ele>
        <time>2020-05-14T15:58:12Z</time>
      </trkpt>
      <trkpt lat="47.11044" lon="-1.51452">
        <ele>13.81</ele>
        <time>2020-05-14T15:58:14Z</time>
      </trkpt>
      <trkpt lat="47.11034" lon="-1.51443">
        <ele>13.53</ele>
        <time>2020-05-14T15:58:16Z</time>
      </trkpt>
      <trkpt lat="47.11024" lon="-1.51434">
        <ele>14.17</ele>
        <time>2020-05-14T15:58:18Z</time>
      </trkpt>
      <trkpt lat="47.11016" lon="-1.51426">
        <ele>14.26</ele>
        <time>2020-05-14T15:58:20Z</time>
      </trkpt>
      <trkpt lat="47.11004" lon="-1.51415">
        <ele>14.88</ele>
        <time>2020-05-14T15:58:22Z</time>
      </trkpt>
      <trkpt lat="47.10993" lon="-1.51406">
        <ele>15.57</ele>
        <time>2020-05-14T15:58:24Z</time>
      </trkpt>
      <trkpt lat="47.10982" lon="-1.51396">
        <ele>15.39</ele>
        <time>2020-05-14T15:58:26Z</time>
      </trkpt>
      <trkpt lat="47.10973" lon="-1.51387">
        <ele>15.95</ele>
        <time>2020-05-14T15:58:28Z</time>
      </trkpt>
      <trkpt lat="47.10962" lon="-1.51377">
        <ele>15.87</ele>
        <time>2020-05-14T15:58:30Z</time>
      </trkpt>
      <trkpt lat="47.10953" lon="-1.51367">
        <ele>16.39</ele>
        <time>2020-05-14T15:58:32Z</time>
      </trkpt>
      <trkpt lat="47.10943" lon="-1.51358">
        <ele>16.83</ele>
        <time>2020-05-14T15:58:34Z</time>
      </trkpt>
      <trkpt lat="47.10932" lon="-1.51348">
        <ele>16.33</ele>
        <time>2020-05-14T15:58:36Z</time>
      </trkpt>
      <trkpt lat="47.10922" lon="-1.51338">
        <ele>16.62</ele>
        <time>2020-05-14T15:58:38Z</time>
      </trkpt>
      <trkpt lat="47.1091" lon="-1.51327">
        <ele>16.38</ele>
        <time>2020-05-14T15:58:40Z</time>
      </trkpt>
      <trkpt lat="47.109" lon="-1.51317">
        <ele>16.85</ele>
        <time>2020-05-14T15:58:42Z</time>
      </trkpt>
      <trkpt lat="47.1089" lon="-1.51308">
        <ele>17.47</ele>
        <time>2020-05-14T15:58:44Z</time>
      </trkpt>
      <trkpt lat="47.1088" lon="-1.51298">
        <ele>17.16</ele>
        <time>2020-05-14T15:58:46Z</time>
      </trkpt>
      <trkpt lat="47.10869" lon="-1.51289">
        <ele>16.22</ele>
        <time>2020-05-14T15:58:48Z</time>
      </trkpt>
      <trkpt lat="47.10859" lon="-1.51279">
        <ele>15.3</ele>
        <time>2020-05-14T15:58:50Z</time>
      </trkpt>
      <trkpt lat="47.10847" lon="-1.51267">
        <ele>15.8</ele>
        <time>2020-05-14T15:58:52Z</time>
      </trkpt>
      <trkpt lat="47.10838" lon="-1.51258">
        <ele>16.1</ele>
        <time>2020-05-14T15:58:54Z</time>
      </trkpt>
      <trkpt lat="47.10828" lon="-1.51249">
        <ele>15.12</ele>
        <time>2020-05-14T15:58:56Z</time>
      </trkpt>
      <trkpt lat="47.10817" lon="-1.51238">
        <ele>15.02</ele>
        <time>2020-05-14T15:58:58Z</time>
      </trkpt>
      <trkpt lat="47.10807" lon="-1.51228">
        <ele>15.54</ele>
        <time>2020-05-14T15:59:00Z</time>
      </trkpt>
      <trkpt lat="47.10797" lon="-1.51217">
        <ele>15.05</ele>
        <time>2020-05-14T15:59:02Z</time>
      </trkpt>
      <trkpt lat="47.10787" lon="-1.51207">
        <ele>14.24</ele>
        <time>2020-05-14T15:59:04Z</time>
      </trkpt>
      <trkpt lat="47.10776" lon="-1.51197">
        <ele>13.69</ele>
        <time>2020-05-14T15:59:06Z</time>
      </trkpt>
      <trkpt lat="47.10766" lon="-1.51188">
        <ele>13.83</ele>
        <time>2020-05-14T15:59:08Z</time>
      </trkpt>
      <trkpt lat="47.10755" lon="-1.51178">
        <ele>13.74</ele>
        <time>2020-05-14T15:59:10Z</time>
      </trkpt>
      <trkpt lat="47.10744" lon="-1.51168">
        <ele>13.8</ele>
        <time>2020-05-14T15:59:12Z</time>
      </trkpt>
      <trkpt lat="47.10734" lon="-1.51158">
        <ele>14.28</ele>
        <time>2020-05-14T15:59:14Z</time>
      </trkpt>
      <trkpt lat="47.10724" lon="-1.51149">
        <ele>15.27</ele>
        <time>2020-05-14T15:59:16Z</time>
      </trkpt>
      <trkpt lat="47.10713" lon="-1.51139">
        <ele>15.56</ele>
        <time>2020-05-14T15:59:18Z</time>
      </trkpt>
      <trkpt lat="47.10701" lon="-1.51128">
        <ele>14.64</ele>
        <time>2020-05-14T15:59:20Z</time>
      </trkpt>
      <trkpt lat="47.10692" lon="-1.51115">
        <ele>14.26</ele>
        <time>2020-05-14T15:59:22Z</time>
      </trkpt>
      <trkpt lat="47.10682" lon="-1.51099">
        <ele>14.26</ele>
        <time>2020-05-14T15:59:24Z</time>
      </trkpt>
      <trkpt lat="47.10674" lon="-1.51082">
        <ele>14.47</ele>
        <time>2020-05-14T15:59:26Z</time>
      </trkpt>
      <trkpt lat="47.10667" lon="-1.51063">
        <ele>14.03</ele>
        <time>2020-05-14T15:59:28Z</time>
      </trkpt>
      <trkpt lat="47.10661" lon="-1.51044">
        <ele>13.66</ele>
        <time>2020-05-14T15:59:30Z</time>
      </trkpt>
      <trkpt lat="47.10654" lon="-1.51022">
        <ele>13.15</ele>
        <time>2020-05-14T15:59:32Z</time>
      </trkpt>
      <trkpt lat="47.10647" lon="-1.51004">
        <ele>12.36</ele>
        <time>2020-05-14T15:59:34Z</time>
      </trkpt>
      <trkpt lat="47.10637" lon="-1.50987">
        <ele>12.27</ele>
        <time>2020-05-14T15:59:36Z</time>
      </trkpt>
      <trkpt lat="47.10625" lon="-1.50973">
        <ele>12.02</ele>
        <time>2020-05-14T15:59:38Z</time>
      </trkpt>
      <trkpt lat="47.10612" lon="-1.50959">
        <ele>11.22</ele>
        <time>2020-05-14T15:59:40Z</time>
      </trkpt>
      <trkpt lat="47.10599" lon="-1.50946">
        <ele>10.19</ele>
        <time>2020-05-14T15:59:42Z</time>
      </trkpt>
      <trkpt lat="47.10585" lon="-1.50931">
        <ele>9.15</ele>
        <time>2020-05-14T15:59:44Z</time>
      </trkpt>
      <trkpt lat="47.10571" lon="-1.50917">
        <ele>7.99</ele>
        <time>2020-05-14T15:59:46Z</time>
      </trkpt>
      <trkpt lat="47.10563" lon="-1.50908">
        <ele>7.91</ele>
        <time>2020-05-14T15:59:47Z</time>
      </trkpt>
      <trkpt lat="47.10549" lon="-1.50893">
        <ele>7.91</ele>
        <time>2020-05-14T15:59:49Z</time>
      </trkpt>
      <trkpt lat="47.10537" lon="-1.50879">
        <ele>7.14</ele>
        <time>2020-05-14T15:59:51Z</time>
      </trkpt>
      <trkpt lat="47.10525" lon="-1.50865">
        <ele>7.14</ele>
        <time>2020-05-14T15:59:53Z</time>
      </trkpt>
      <trkpt lat="47.10515" lon="-1.50848">
        <ele>8.33</ele>
        <time>2020-05-14T15:59:55Z</time>
      </trkpt>
      <trkpt lat="47.10504" lon="-1.50829">
        <ele>9.96</ele>
        <time>2020-05-14T15:59:57Z</time>
      </trkpt>
      <trkpt lat="47.10494" lon="-1.50811">
        <ele>10.03</ele>
        <time>2020-05-14T15:59:59Z</time>
      </trkpt>
      <trkpt lat="47.10485" lon="-1.50792">
        <ele>9.76</ele>
        <time>2020-05-14T16:00:01Z</time>
      </trkpt>
      <trkpt lat="47.10475" lon="-1.50774">
        <ele>8.78</ele>
        <time>2020-05-14T16:00:03Z</time>
      </trkpt>
      <trkpt lat="47.10466" lon="-1.50754">
        <ele>8.47</ele>
        <time>2020-05-14T16:00:05Z</time>
      </trkpt>
      <trkpt lat="47.10459" lon="-1.50733">
        <ele>8.08</ele>
        <time>2020-05-14T16:00:07Z</time>
      </trkpt>
      <trkpt lat="47.10454" lon="-1.50711">
        <ele>7.12</ele>
        <time>2020-05-14T16:00:09Z</time>
      </trkpt>
      <trkpt lat="47.10449" lon="-1.5069">
        <ele>7.27</ele>
        <time>2020-05-14T16:00:11Z</time>
      </trkpt>
      <trkpt lat="47.10444" lon="-1.50672">
        <ele>7.03</ele>
        <time>2020-05-14T16:00:12Z</time>
      </trkpt>
      <trkpt lat="47.10437" lon="-1.50652">
        <ele>6.23</ele>
        <time>2020-05-14T16:00:14Z</time>
      </trkpt>
      <trkpt lat="47.10428" lon="-1.50636">
        <ele>6.19</ele>
        <time>2020-05-14T16:00:16Z</time>
      </trkpt>
      <trkpt lat="47.10416" lon="-1.50626">
        <ele>5.62</ele>
        <time>2020-05-14T16:00:18Z</time>
      </trkpt>
      <trkpt lat="47.10403" lon="-1.50615">
        <ele>5.49</ele>
        <time>2020-05-14T16:00:20Z</time>
      </trkpt>
      <trkpt lat="47.10391" lon="-1.50606">
        <ele>6.39</ele>
        <time>2020-05-14T16:00:22Z</time>
      </trkpt>
      <trkpt lat="47.10381" lon="-1.50598">
        <ele>7.82</ele>
        <time>2020-05-14T16:00:24Z</time>
      </trkpt>
      <trkpt lat="47.10371" lon="-1.50586">
        <ele>8.14</ele>
        <time>2020-05-14T16:00:26Z</time>
      </trkpt>
      <trkpt lat="47.10363" lon="-1.50574">
        <ele>7.64</ele>
        <time>2020-05-14T16:00:28Z</time>
      </trkpt>
      <trkpt lat="47.10353" lon="-1.50558">
        <ele>7.25</ele>
        <time>2020-05-14T16:00:30Z</time>
      </trkpt>
      <trkpt lat="47.10344" lon="-1.50543">
        <ele>7.79</ele>
        <time>2020-05-14T16:00:32Z</time>
      </trkpt>
      <trkpt lat="47.10336" lon="-1.50529">
        <ele>8.17</ele>
        <time>2020-05-14T16:00:34Z</time>
      </trkpt>
      <trkpt lat="47.10327" lon="-1.50513">
        <ele>8.28</ele>
        <time>2020-05-14T16:00:36Z</time>
      </trkpt>
      <trkpt lat="47.10318" lon="-1.50499">
        <ele>7.73</ele>
        <time>2020-05-14T16:00:38Z</time>
      </trkpt>
      <trkpt lat="47.10309" lon="-1.50484">
        <ele>7.43</ele>
        <time>2020-05-14T16:00:40Z</time>
      </trkpt>
      <trkpt lat="47.10301" lon="-1.50471">
        <ele>6.69</ele>
        <time>2020-05-14T16:00:42Z</time>
      </trkpt>
      <trkpt lat="47.10293" lon="-1.50457">
        <ele>6.99</ele>
        <time>2020-05-14T16:00:44Z</time>
      </trkpt>
      <trkpt lat="47.10284" lon="-1.50442">
        <ele>7.5</ele>
        <time>2020-05-14T16:00:46Z</time>
      </trkpt>
      <trkpt lat="47.10276" lon="-1.5043">
        <ele>7.97</ele>
        <time>2020-05-14T16:00:48Z</time>
      </trkpt>
      <trkpt lat="47.10267" lon="-1.50413">
        <ele>8.47</ele>
        <time>2020-05-14T16:00:50Z</time>
      </trkpt>
      <trkpt lat="47.10259" lon="-1.504">
        <ele>8.45</ele>
        <time>2020-05-14T16:00:52Z</time>
      </trkpt>
      <trkpt lat="47.1025" lon="-1.50384">
        <ele>8.33</ele>
        <time>2020-05-14T16:00:54Z</time>
      </trkpt>
      <trkpt lat="47.10242" lon="-1.5037">
        <ele>9.45</ele>
        <time>2020-05-14T16:00:56Z</time>
      </trkpt>
      <trkpt lat="47.10234" lon="-1.50356">
        <ele>10.24</ele>
        <time>2020-05-14T16:00:58Z</time>
      </trkpt>
      <trkpt lat="47.10226" lon="-1.50343">
        <ele>10.49</ele>
        <time>2020-05-14T16:01:00Z</time>
      </trkpt>
      <trkpt lat="47.10219" lon="-1.50332">
        <ele>10.57</ele>
        <time>2020-05-14T16:01:02Z</time>
      </trkpt>
      <trkpt lat="47.10211" lon="-1.50319">
        <ele>10.61</ele>
        <time>2020-05-14T16:01:04Z</time>
      </trkpt>
      <trkpt lat="47.10202" lon="-1.50305">
        <ele>12.05</ele>
        <time>2020-05-14T16:01:06Z</time>
      </trkpt>
      <trkpt lat="47.10192" lon="-1.50293">
        <ele>12.4</ele>
        <time>2020-05-14T16:01:08Z</time>
      </trkpt>
      <trkpt lat="47.10183" lon="-1.50285">
        <ele>13.09</ele>
        <time>2020-05-14T16:01:10Z</time>
      </trkpt>
      <trkpt lat="47.10173" lon="-1.50278">
        <ele>13.57</ele>
        <time>2020-05-14T16:01:12Z</time>
      </trkpt>
      <trkpt lat="47.10163" lon="-1.5027">
        <ele>13.94</ele>
        <time>2020-05-14T16:01:14Z</time>
      </trkpt>
      <trkpt lat="47.10152" lon="-1.50263">
        <ele>13.98</ele>
        <time>2020-05-14T16:01:16Z</time>
      </trkpt>
      <trkpt lat="47.1014" lon="-1.50255">
        <ele>14.45</ele>
        <time>2020-05-14T16:01:18Z</time>
      </trkpt>
      <trkpt lat="47.10128" lon="-1.50248">
        <ele>14.42</ele>
        <time>2020-05-14T16:01:20Z</time>
      </trkpt>
      <trkpt lat="47.10119" lon="-1.50242">
        <ele>14.73</ele>
        <time>2020-05-14T16:01:22Z</time>
      </trkpt>
      <trkpt lat="47.10108" lon="-1.50234">
        <ele>14.67</ele>
        <time>2020-05-14T16:01:24Z</time>
      </trkpt>
      <trkpt lat="47.10098" lon="-1.50224">
        <ele>15.04</ele>
        <time>2020-05-14T16:01:26Z</time>
      </trkpt>
      <trkpt lat="47.10089" lon="-1.50214">
        <ele>14.6</ele>
        <time>2020-05-14T16:01:28Z</time>
      </trkpt>
      <trkpt lat="47.10082" lon="-1.50197">
        <ele>13.94</ele>
        <time>2020-05-14T16:01:31Z</time>
      </trkpt>
      <trkpt lat="47.10078" lon="-1.5018">
        <ele>14.21</ele>
        <time>2020-05-14T16:01:33Z</time>
      </trkpt>
      <trkpt lat="47.10076" lon="-1.50163">
        <ele>14.71</ele>
        <time>2020-05-14T16:01:35Z</time>
      </trkpt>
      <trkpt lat="47.10076" lon="-1.50146">
        <ele>15.57</ele>
        <time>2020-05-14T16:01:37Z</time>
      </trkpt>
      <trkpt lat="47.10076" lon="-1.50131">
        <ele>16.13</ele>
        <time>2020-05-14T16:01:39Z</time>
      </trkpt>
      <trkpt lat="47.10075" lon="-1.50115">
        <ele>16.54</ele>
        <time>2020-05-14T16:01:41Z</time>
      </trkpt>
      <trkpt lat="47.10075" lon="-1.50099">
        <ele>16.74</ele>
        <time>2020-05-14T16:01:43Z</time>
      </trkpt>
      <trkpt lat="47.10076" lon="-1.50085">
        <ele>18.04</ele>
        <time>2020-05-14T16:01:45Z</time>
      </trkpt>
      <trkpt lat="47.10075" lon="-1.5007">
        <ele>17.99</ele>
        <time>2020-05-14T16:01:47Z</time>
      </trkpt>
      <trkpt lat="47.10075" lon="-1.50055">
        <ele>17.74</ele>
        <time>2020-05-14T16:01:49Z</time>
      </trkpt>
      <trkpt lat="47.10074" lon="-1.50039">
        <ele>18.63</ele>
        <time>2020-05-14T16:01:51Z</time>
      </trkpt>
      <trkpt lat="47.10074" lon="-1.50023">
        <ele>19.52</ele>
        <time>2020-05-14T16:01:53Z</time>
      </trkpt>
      <trkpt lat="47.10074" lon="-1.50007">
        <ele>19.49</ele>
        <time>2020-05-14T16:01:55Z</time>
      </trkpt>
      <trkpt lat="47.10074" lon="-1.49992">
        <ele>19.75</ele>
        <time>2020-05-14T16:01:57Z</time>
      </trkpt>
      <trkpt lat="47.10074" lon="-1.49975">
        <ele>20.04</ele>
        <time>2020-05-14T16:01:59Z</time>
      </trkpt>
      <trkpt lat="47.10073" lon="-1.49956">
        <ele>18.88</ele>
        <time>2020-05-14T16:02:01Z</time>
      </trkpt>
      <trkpt lat="47.10072" lon="-1.49939">
        <ele>18.16</ele>
        <time>2020-05-14T16:02:03Z</time>
      </trkpt>
      <trkpt lat="47.10071" lon="-1.49922">
        <ele>18.17</ele>
        <time>2020-05-14T16:02:05Z</time>
      </trkpt>
      <trkpt lat="47.10068" lon="-1.49903">
        <ele>18.38</ele>
        <time>2020-05-14T16:02:07Z</time>
      </trkpt>
      <trkpt lat="47.10064" lon="-1.49884">
        <ele>18.95</ele>
        <time>2020-05-14T16:02:09Z</time>
      </trkpt>
      <trkpt lat="47.10059" lon="-1.49865">
        <ele>18.36</ele>
        <time>2020-05-14T16:02:11Z</time>
      </trkpt>
      <trkpt lat="47.10053" lon="-1.49847">
        <ele>17.18</ele>
        <time>2020-05-14T16:02:13Z</time>
      </trkpt>
      <trkpt lat="47.10046" lon="-1.49829">
        <ele>16.21</ele>
        <time>2020-05-14T16:02:15Z</time>
      </trkpt>
      <trkpt lat="47.10039" lon="-1.49813">
        <ele>16.01</ele>
        <time>2020-05-14T16:02:17Z</time>
      </trkpt>
      <trkpt lat="47.10031" lon="-1.49797">
        <ele>16.3</ele>
        <time>2020-05-14T16:02:19Z</time>
      </trkpt>
      <trkpt lat="47.10023" lon="-1.49783">
        <ele>15.88</ele>
        <time>2020-05-14T16:02:21Z</time>
      </trkpt>
      <trkpt lat="47.10016" lon="-1.49766">
        <ele>15.1</ele>
        <time>2020-05-14T16:02:23Z</time>
      </trkpt>
      <trkpt lat="47.10008" lon="-1.49748">
        <ele>15.04</ele>
        <time>2020-05-14T16:02:25Z</time>
      </trkpt>
      <trkpt lat="47.1" lon="-1.49732">
        <ele>15.23</ele>
        <time>2020-05-14T16:02:27Z</time>
      </trkpt>
      <trkpt lat="47.09993" lon="-1.49715">
        <ele>15.71</ele>
        <time>2020-05-14T16:02:29Z</time>
      </trkpt>
      <trkpt lat="47.09986" lon="-1.49701">
        <ele>15.6</ele>
        <time>2020-05-14T16:02:31Z</time>
      </trkpt>
      <trkpt lat="47.09979" lon="-1.49684">
        <ele>16</ele>
        <time>2020-05-14T16:02:33Z</time>
      </trkpt>
      <trkpt lat="47.0997" lon="-1.49668">
        <ele>15.6</ele>
        <time>2020-05-14T16:02:35Z</time>
      </trkpt>
      <trkpt lat="47.09963" lon="-1.49653">
        <ele>15.03</ele>
        <time>2020-05-14T16:02:37Z</time>
      </trkpt>
      <trkpt lat="47.09957" lon="-1.49638">
        <ele>14.82</ele>
        <time>2020-05-14T16:02:39Z</time>
      </trkpt>
      <trkpt lat="47.09951" lon="-1.49622">
        <ele>14.3</ele>
        <time>2020-05-14T16:02:41Z</time>
      </trkpt>
      <trkpt lat="47.09943" lon="-1.49603">
        <ele>14.37</ele>
        <time>2020-05-14T16:02:43Z</time>
      </trkpt>
      <trkpt lat="47.09937" lon="-1.49591">
        <ele>15.36</ele>
        <time>2020-05-14T16:02:45Z</time>
      </trkpt>
      <trkpt lat="47.09929" lon="-1.49573">
        <ele>16.03</ele>
        <time>2020-05-14T16:02:47Z</time>
      </trkpt>
      <trkpt lat="47.09923" lon="-1.49558">
        <ele>16.54</ele>
        <time>2020-05-14T16:02:49Z</time>
      </trkpt>
      <trkpt lat="47.09917" lon="-1.49545">
        <ele>17.53</ele>
        <time>2020-05-14T16:02:51Z</time>
      </trkpt>
      <trkpt lat="47.0991" lon="-1.49531">
        <ele>17.68</ele>
        <time>2020-05-14T16:02:53Z</time>
      </trkpt>
      <trkpt lat="47.09903" lon="-1.49514">
        <ele>17.41</ele>
        <time>2020-05-14T16:02:55Z</time>
      </trkpt>
      <trkpt lat="47.09897" lon="-1.49499">
        <ele>18.09</ele>
        <time>2020-05-14T16:02:57Z</time>
      </trkpt>
      <trkpt lat="47.09891" lon="-1.49485">
        <ele>18.56</ele>
        <time>2020-05-14T16:02:59Z</time>
      </trkpt>
      <trkpt lat="47.09884" lon="-1.49467">
        <ele>18.7</ele>
        <time>2020-05-14T16:03:01Z</time>
      </trkpt>
      <trkpt lat="47.09879" lon="-1.49452">
        <ele>18.22</ele>
        <time>2020-05-14T16:03:03Z</time>
      </trkpt>
      <trkpt lat="47.09874" lon="-1.49437">
        <ele>18.48</ele>
        <time>2020-05-14T16:03:05Z</time>
      </trkpt>
      <trkpt lat="47.09871" lon="-1.49419">
        <ele>18.55</ele>
        <time>2020-05-14T16:03:07Z</time>
      </trkpt>
      <trkpt lat="47.09869" lon="-1.49401">
        <ele>18.43</ele>
        <time>2020-05-14T16:03:09Z</time>
      </trkpt>
      <trkpt lat="47.09867" lon="-1.49382">
        <ele>18.02</ele>
        <time>2020-05-14T16:03:11Z</time>
      </trkpt>
      <trkpt lat="47.09865" lon="-1.49364">
        <ele>17.81</ele>
        <time>2020-05-14T16:03:13Z</time>
      </trkpt>
      <trkpt lat="47.09862" lon="-1.49347">
        <ele>17.47</ele>
        <time>2020-05-14T16:03:15Z</time>
      </trkpt>
      <trkpt lat="47.0986" lon="-1.4933">
        <ele>17.89</ele>
        <time>2020-05-14T16:03:17Z</time>
      </trkpt>
      <trkpt lat="47.09859" lon="-1.49312">
        <ele>17.63</ele>
        <time>2020-05-14T16:03:19Z</time>
      </trkpt>
      <trkpt lat="47.09856" lon="-1.49296">
        <ele>16.59</ele>
        <time>2020-05-14T16:03:21Z</time>
      </trkpt>
      <trkpt lat="47.09855" lon="-1.4928">
        <ele>16.08</ele>
        <time>2020-05-14T16:03:23Z</time>
      </trkpt>
      <trkpt lat="47.09853" lon="-1.49263">
        <ele>16.16</ele>
        <time>2020-05-14T16:03:25Z</time>
      </trkpt>
      <trkpt lat="47.09853" lon="-1.49246">
        <ele>16.5</ele>
        <time>2020-05-14T16:03:27Z</time>
      </trkpt>
      <trkpt lat="47.09853" lon="-1.49229">
        <ele>16.46</ele>
        <time>2020-05-14T16:03:29Z</time>
      </trkpt>
      <trkpt lat="47.09852" lon="-1.4921">
        <ele>16.11</ele>
        <time>2020-05-14T16:03:31Z</time>
      </trkpt>
      <trkpt lat="47.09852" lon="-1.49193">
        <ele>16.16</ele>
        <time>2020-05-14T16:03:33Z</time>
      </trkpt>
      <trkpt lat="47.09852" lon="-1.49176">
        <ele>16.81</ele>
        <time>2020-05-14T16:03:35Z</time>
      </trkpt>
      <trkpt lat="47.09851" lon="-1.49157">
        <ele>17.15</ele>
        <time>2020-05-14T16:03:37Z</time>
      </trkpt>
      <trkpt lat="47.09851" lon="-1.49139">
        <ele>17.27</ele>
        <time>2020-05-14T16:03:39Z</time>
      </trkpt>
      <trkpt lat="47.09851" lon="-1.49122">
        <ele>18.11</ele>
        <time>2020-05-14T16:03:41Z</time>
      </trkpt>
      <trkpt lat="47.09851" lon="-1.49105">
        <ele>17.5</ele>
        <time>2020-05-14T16:03:43Z</time>
      </trkpt>
      <trkpt lat="47.09851" lon="-1.49088">
        <ele>17.62</ele>
        <time>2020-05-14T16:03:45Z</time>
      </trkpt>
      <trkpt lat="47.09852" lon="-1.4907">
        <ele>17.68</ele>
        <time>2020-05-14T16:03:47Z</time>
      </trkpt>
      <trkpt lat="47.09849" lon="-1.49055">
        <ele>17.86</ele>
        <time>2020-05-14T16:03:49Z</time>
      </trkpt>
      <trkpt lat="47.09843" lon="-1.4904">
        <ele>18.38</ele>
        <time>2020-05-14T16:03:51Z</time>
      </trkpt>
      <trkpt lat="47.09837" lon="-1.49026">
        <ele>18.76</ele>
        <time>2020-05-14T16:03:53Z</time>
      </trkpt>
      <trkpt lat="47.0983" lon="-1.4901">
        <ele>19.16</ele>
        <time>2020-05-14T16:03:55Z</time>
      </trkpt>
      <trkpt lat="47.09825" lon="-1.48997">
        <ele>19.01</ele>
        <time>2020-05-14T16:03:57Z</time>
      </trkpt>
      <trkpt lat="47.0982" lon="-1.48985">
        <ele>18.68</ele>
        <time>2020-05-14T16:03:59Z</time>
      </trkpt>
      <trkpt lat="47.09818" lon="-1.4897">
        <ele>17.68</ele>
        <time>2020-05-14T16:04:01Z</time>
      </trkpt>
      <trkpt lat="47.09811" lon="-1.48958">
        <ele>16.36</ele>
        <time>2020-05-14T16:04:04Z</time>
      </trkpt>
      <trkpt lat="47.09799" lon="-1.48959">
        <ele>16.44</ele>
        <time>2020-05-14T16:04:07Z</time>
      </trkpt>
      <trkpt lat="47.09794" lon="-1.48942">
        <ele>16.93</ele>
        <time>2020-05-14T16:04:11Z</time>
      </trkpt>
      <trkpt lat="47.09796" lon="-1.48928">
        <ele>17.6</ele>
        <time>2020-05-14T16:04:13Z</time>
      </trkpt>
      <trkpt lat="47.098" lon="-1.48911">
        <ele>17.61</ele>
        <time>2020-05-14T16:04:15Z</time>
      </trkpt>
      <trkpt lat="47.09798" lon="-1.48893">
        <ele>17.61</ele>
        <time>2020-05-14T16:04:17Z</time>
      </trkpt>
      <trkpt lat="47.09791" lon="-1.48874">
        <ele>17.63</ele>
        <time>2020-05-14T16:04:19Z</time>
      </trkpt>
      <trkpt lat="47.09783" lon="-1.48856">
        <ele>17.53</ele>
        <time>2020-05-14T16:04:21Z</time>
      </trkpt>
      <trkpt lat="47.09776" lon="-1.48838">
        <ele>16.77</ele>
        <time>2020-05-14T16:04:23Z</time>
      </trkpt>
      <trkpt lat="47.09769" lon="-1.48817">
        <ele>15.86</ele>
        <time>2020-05-14T16:04:25Z</time>
      </trkpt>
      <trkpt lat="47.09763" lon="-1.48802">
        <ele>14.74</ele>
        <time>2020-05-14T16:04:27Z</time>
      </trkpt>
      <trkpt lat="47.0976" lon="-1.48785">
        <ele>14.96</ele>
        <time>2020-05-14T16:04:29Z</time>
      </trkpt>
      <trkpt lat="47.09761" lon="-1.48769">
        <ele>15.55</ele>
        <time>2020-05-14T16:04:31Z</time>
      </trkpt>
      <trkpt lat="47.09765" lon="-1.48755">
        <ele>15.8</ele>
        <time>2020-05-14T16:04:33Z</time>
      </trkpt>
      <trkpt lat="47.09774" lon="-1.48742">
        <ele>16.26</ele>
        <time>2020-05-14T16:04:35Z</time>
      </trkpt>
      <trkpt lat="47.09784" lon="-1.48729">
        <ele>17.07</ele>
        <time>2020-05-14T16:04:37Z</time>
      </trkpt>
      <trkpt lat="47.09793" lon="-1.48717">
        <ele>17.5</ele>
        <time>2020-05-14T16:04:39Z</time>
      </trkpt>
      <trkpt lat="47.09801" lon="-1.48702">
        <ele>17.4</ele>
        <time>2020-05-14T16:04:41Z</time>
      </trkpt>
      <trkpt lat="47.09808" lon="-1.48689">
        <ele>18.36</ele>
        <time>2020-05-14T16:04:43Z</time>
      </trkpt>
      <trkpt lat="47.09814" lon="-1.48676">
        <ele>18.93</ele>
        <time>2020-05-14T16:04:45Z</time>
      </trkpt>
      <trkpt lat="47.0982" lon="-1.48665">
        <ele>18.6</ele>
        <time>2020-05-14T16:04:47Z</time>
      </trkpt>
      <trkpt lat="47.09829" lon="-1.48649">
        <ele>18.67</ele>
        <time>2020-05-14T16:04:49Z</time>
      </trkpt>
      <trkpt lat="47.09835" lon="-1.48638">
        <ele>17.72</ele>
        <time>2020-05-14T16:04:51Z</time>
      </trkpt>
      <trkpt lat="47.09843" lon="-1.48625">
        <ele>16.53</ele>
        <time>2020-05-14T16:04:53Z</time>
      </trkpt>
      <trkpt lat="47.09851" lon="-1.48612">
        <ele>16.57</ele>
        <time>2020-05-14T16:04:55Z</time>
      </trkpt>
      <trkpt lat="47.09857" lon="-1.48599">
        <ele>15.96</ele>
        <time>2020-05-14T16:04:57Z</time>
      </trkpt>
      <trkpt lat="47.09861" lon="-1.48583">
        <ele>15.19</ele>
        <time>2020-05-14T16:04:59Z</time>
      </trkpt>
      <trkpt lat="47.09865" lon="-1.48566">
        <ele>14.63</ele>
        <time>2020-05-14T16:05:01Z</time>
      </trkpt>
      <trkpt lat="47.09868" lon="-1.48549">
        <ele>13.55</ele>
        <time>2020-05-14T16:05:03Z</time>
      </trkpt>
      <trkpt lat="47.0987" lon="-1.48531">
        <ele>13.46</ele>
        <time>2020-05-14T16:05:05Z</time>
      </trkpt>
      <trkpt lat="47.0987" lon="-1.48516">
        <ele>14.36</ele>
        <time>2020-05-14T16:05:07Z</time>
      </trkpt>
      <trkpt lat="47.09869" lon="-1.48497">
        <ele>15.39</ele>
        <time>2020-05-14T16:05:09Z</time>
      </trkpt>
      <trkpt lat="47.09867" lon="-1.48478">
        <ele>15.34</ele>
        <time>2020-05-14T16:05:11Z</time>
      </trkpt>
      <trkpt lat="47.09865" lon="-1.48461">
        <ele>15.09</ele>
        <time>2020-05-14T16:05:13Z</time>
      </trkpt>
      <trkpt lat="47.09862" lon="-1.48442">
        <ele>15.36</ele>
        <time>2020-05-14T16:05:15Z</time>
      </trkpt>
      <trkpt lat="47.0986" lon="-1.48426">
        <ele>15.41</ele>
        <time>2020-05-14T16:05:17Z</time>
      </trkpt>
      <trkpt lat="47.09857" lon="-1.48408">
        <ele>15.06</ele>
        <time>2020-05-14T16:05:19Z</time>
      </trkpt>
      <trkpt lat="47.09855" lon="-1.4839">
        <ele>14.58</ele>
        <time>2020-05-14T16:05:21Z</time>
      </trkpt>
      <trkpt lat="47.09853" lon="-1.48372">
        <ele>13.71</ele>
        <time>2020-05-14T16:05:23Z</time>
      </trkpt>
      <trkpt lat="47.09851" lon="-1.48354">
        <ele>12.69</ele>
        <time>2020-05-14T16:05:25Z</time>
      </trkpt>
      <trkpt lat="47.09849" lon="-1.48337">
        <ele>12.65</ele>
        <time>2020-05-14T16:05:27Z</time>
      </trkpt>
      <trkpt lat="47.09848" lon="-1.48321">
        <ele>13.68</ele>
        <time>2020-05-14T16:05:29Z</time>
      </trkpt>
      <trkpt lat="47.09847" lon="-1.48304">
        <ele>14.98</ele>
        <time>2020-05-14T16:05:31Z</time>
      </trkpt>
      <trkpt lat="47.09845" lon="-1.48285">
        <ele>15.65</ele>
        <time>2020-05-14T16:05:33Z</time>
      </trkpt>
      <trkpt lat="47.09843" lon="-1.48269">
        <ele>15.1</ele>
        <time>2020-05-14T16:05:35Z</time>
      </trkpt>
      <trkpt lat="47.09841" lon="-1.48253">
        <ele>14.77</ele>
        <time>2020-05-14T16:05:37Z</time>
      </trkpt>
      <trkpt lat="47.09839" lon="-1.48236">
        <ele>14.84</ele>
        <time>2020-05-14T16:05:39Z</time>
      </trkpt>
      <trkpt lat="47.09837" lon="-1.48222">
        <ele>15.23</ele>
        <time>2020-05-14T16:05:41Z</time>
      </trkpt>
      <trkpt lat="47.09836" lon="-1.48204">
        <ele>16.42</ele>
        <time>2020-05-14T16:05:43Z</time>
      </trkpt>
      <trkpt lat="47.09835" lon="-1.48186">
        <ele>16.52</ele>
        <time>2020-05-14T16:05:45Z</time>
      </trkpt>
      <trkpt lat="47.09835" lon="-1.48167">
        <ele>16.16</ele>
        <time>2020-05-14T16:05:47Z</time>
      </trkpt>
      <trkpt lat="47.09836" lon="-1.48149">
        <ele>14.99</ele>
        <time>2020-05-14T16:05:49Z</time>
      </trkpt>
      <trkpt lat="47.09838" lon="-1.48132">
        <ele>15.01</ele>
        <time>2020-05-14T16:05:51Z</time>
      </trkpt>
      <trkpt lat="47.09838" lon="-1.48117">
        <ele>14.88</ele>
        <time>2020-05-14T16:05:53Z</time>
      </trkpt>
      <trkpt lat="47.09839" lon="-1.481">
        <ele>14.94</ele>
        <time>2020-05-14T16:05:55Z</time>
      </trkpt>
      <trkpt lat="47.0984" lon="-1.48081">
        <ele>15.11</ele>
        <time>2020-05-14T16:05:57Z</time>
      </trkpt>
      <trkpt lat="47.0984" lon="-1.48062">
        <ele>16.44</ele>
        <time>2020-05-14T16:05:59Z</time>
      </trkpt>
      <trkpt lat="47.09838" lon="-1.48043">
        <ele>17.89</ele>
        <time>2020-05-14T16:06:01Z</time>
      </trkpt>
      <trkpt lat="47.09836" lon="-1.48023">
        <ele>18.65</ele>
        <time>2020-05-14T16:06:03Z</time>
      </trkpt>
      <trkpt lat="47.09835" lon="-1.48007">
        <ele>18.17</ele>
        <time>2020-05-14T16:06:05Z</time>
      </trkpt>
      <trkpt lat="47.09834" lon="-1.47991">
        <ele>17.51</ele>
        <time>2020-05-14T16:06:07Z</time>
      </trkpt>
      <trkpt lat="47.09832" lon="-1.47973">
        <ele>16.66</ele>
        <time>2020-05-14T16:06:09Z</time>
      </trkpt>
      <trkpt lat="47.09831" lon="-1.47956">
        <ele>15.94</ele>
        <time>2020-05-14T16:06:11Z</time>
      </trkpt>
      <trkpt lat="47.09829" lon="-1.47941">
        <ele>15.78</ele>
        <time>2020-05-14T16:06:13Z</time>
      </trkpt>
      <trkpt lat="47.09827" lon="-1.47924">
        <ele>16.29</ele>
        <time>2020-05-14T16:06:15Z</time>
      </trkpt>
      <trkpt lat="47.09826" lon="-1.47905">
        <ele>17.13</ele>
        <time>2020-05-14T16:06:17Z</time>
      </trkpt>
      <trkpt lat="47.09824" lon="-1.47886">
        <ele>17.33</ele>
        <time>2020-05-14T16:06:19Z</time>
      </trkpt>
      <trkpt lat="47.09822" lon="-1.47869">
        <ele>17.63</ele>
        <time>2020-05-14T16:06:21Z</time>
      </trkpt>
      <trkpt lat="47.0982" lon="-1.47855">
        <ele>18.44</ele>
        <time>2020-05-14T16:06:23Z</time>
      </trkpt>
      <trkpt lat="47.0982" lon="-1.47838">
        <ele>19.51</ele>
        <time>2020-05-14T16:06:25Z</time>
      </trkpt>
      <trkpt lat="47.09818" lon="-1.4782">
        <ele>20.36</ele>
        <time>2020-05-14T16:06:27Z</time>
      </trkpt>
      <trkpt lat="47.09817" lon="-1.47803">
        <ele>20.25</ele>
        <time>2020-05-14T16:06:29Z</time>
      </trkpt>
      <trkpt lat="47.09816" lon="-1.47786">
        <ele>21.16</ele>
        <time>2020-05-14T16:06:31Z</time>
      </trkpt>
      <trkpt lat="47.09815" lon="-1.47768">
        <ele>22.3</ele>
        <time>2020-05-14T16:06:33Z</time>
      </trkpt>
      <trkpt lat="47.09814" lon="-1.4775">
        <ele>23.32</ele>
        <time>2020-05-14T16:06:35Z</time>
      </trkpt>
      <trkpt lat="47.09813" lon="-1.47733">
        <ele>23.68</ele>
        <time>2020-05-14T16:06:37Z</time>
      </trkpt>
      <trkpt lat="47.09813" lon="-1.47719">
        <ele>22.88</ele>
        <time>2020-05-14T16:06:39Z</time>
      </trkpt>
      <trkpt lat="47.09813" lon="-1.47699">
        <ele>22.46</ele>
        <time>2020-05-14T16:06:42Z</time>
      </trkpt>
      <trkpt lat="47.09814" lon="-1.47684">
        <ele>22.04</ele>
        <time>2020-05-14T16:06:44Z</time>
      </trkpt>
      <trkpt lat="47.09815" lon="-1.47663">
        <ele>22.04</ele>
        <time>2020-05-14T16:06:47Z</time>
      </trkpt>
      <trkpt lat="47.09817" lon="-1.4765">
        <ele>21.54</ele>
        <time>2020-05-14T16:06:49Z</time>
      </trkpt>
      <trkpt lat="47.09819" lon="-1.47632">
        <ele>20.17</ele>
        <time>2020-05-14T16:06:52Z</time>
      </trkpt>
      <trkpt lat="47.09823" lon="-1.47613">
        <ele>19.3</ele>
        <time>2020-05-14T16:06:55Z</time>
      </trkpt>
      <trkpt lat="47.09827" lon="-1.47599">
        <ele>18.59</ele>
        <time>2020-05-14T16:06:57Z</time>
      </trkpt>
      <trkpt lat="47.09832" lon="-1.47582">
        <ele>19.21</ele>
        <time>2020-05-14T16:07:00Z</time>
      </trkpt>
      <trkpt lat="47.09839" lon="-1.47566">
        <ele>21.18</ele>
        <time>2020-05-14T16:07:03Z</time>
      </trkpt>
      <trkpt lat="47.09844" lon="-1.47553">
        <ele>21.4</ele>
        <time>2020-05-14T16:07:05Z</time>
      </trkpt>
      <trkpt lat="47.0985" lon="-1.47538">
        <ele>22.82</ele>
        <time>2020-05-14T16:07:08Z</time>
      </trkpt>
      <trkpt lat="47.09856" lon="-1.47524">
        <ele>23.95</ele>
        <time>2020-05-14T16:07:11Z</time>
      </trkpt>
      <trkpt lat="47.09863" lon="-1.47511">
        <ele>25.1</ele>
        <time>2020-05-14T16:07:14Z</time>
      </trkpt>
      <trkpt lat="47.09869" lon="-1.47497">
        <ele>25.27</ele>
        <time>2020-05-14T16:07:17Z</time>
      </trkpt>
      <trkpt lat="47.09876" lon="-1.47487">
        <ele>25.49</ele>
        <time>2020-05-14T16:07:22Z</time>
      </trkpt>
      <trkpt lat="47.09883" lon="-1.47475">
        <ele>25.4</ele>
        <time>2020-05-14T16:07:25Z</time>
      </trkpt>
      <trkpt lat="47.09891" lon="-1.47461">
        <ele>25.44</ele>
        <time>2020-05-14T16:07:28Z</time>
      </trkpt>
      <trkpt lat="47.09897" lon="-1.47449">
        <ele>25.54</ele>
        <time>2020-05-14T16:07:31Z</time>
      </trkpt>
      <trkpt lat="47.09903" lon="-1.47438">
        <ele>25.55</ele>
        <time>2020-05-14T16:07:34Z</time>
      </trkpt>
      <trkpt lat="47.09912" lon="-1.47423">
        <ele>25.66</ele>
        <time>2020-05-14T16:07:37Z</time>
      </trkpt>
      <trkpt lat="47.09918" lon="-1.47412">
        <ele>25.43</ele>
        <time>2020-05-14T16:07:39Z</time>
      </trkpt>
      <trkpt lat="47.09925" lon="-1.474">
        <ele>27.03</ele>
        <time>2020-05-14T16:07:42Z</time>
      </trkpt>
      <trkpt lat="47.09931" lon="-1.47388">
        <ele>30</ele>
        <time>2020-05-14T16:07:45Z</time>
      </trkpt>
      <trkpt lat="47.09936" lon="-1.47377">
        <ele>30.77</ele>
        <time>2020-05-14T16:07:47Z</time>
      </trkpt>
      <trkpt lat="47.09944" lon="-1.47361">
        <ele>32.73</ele>
        <time>2020-05-14T16:07:50Z</time>
      </trkpt>
      <trkpt lat="47.09951" lon="-1.47349">
        <ele>33.08</ele>
        <time>2020-05-14T16:07:52Z</time>
      </trkpt>
      <trkpt lat="47.09958" lon="-1.47336">
        <ele>32.83</ele>
        <time>2020-05-14T16:07:55Z</time>
      </trkpt>
      <trkpt lat="47.09964" lon="-1.47325">
        <ele>32.26</ele>
        <time>2020-05-14T16:07:57Z</time>
      </trkpt>
      <trkpt lat="47.09971" lon="-1.47313">
        <ele>33.7</ele>
        <time>2020-05-14T16:08:00Z</time>
      </trkpt>
      <trkpt lat="47.09977" lon="-1.47303">
        <ele>34.16</ele>
        <time>2020-05-14T16:08:03Z</time>
      </trkpt>
      <trkpt lat="47.09984" lon="-1.47288">
        <ele>35.19</ele>
        <time>2020-05-14T16:08:06Z</time>
      </trkpt>
      <trkpt lat="47.09989" lon="-1.47277">
        <ele>35.84</ele>
        <time>2020-05-14T16:08:08Z</time>
      </trkpt>
      <trkpt lat="47.09998" lon="-1.47262">
        <ele>35.64</ele>
        <time>2020-05-14T16:08:11Z</time>
      </trkpt>
      <trkpt lat="47.10005" lon="-1.47247">
        <ele>34.74</ele>
        <time>2020-05-14T16:08:14Z</time>
      </trkpt>
      <trkpt lat="47.10011" lon="-1.47235">
        <ele>34.33</ele>
        <time>2020-05-14T16:08:16Z</time>
      </trkpt>
      <trkpt lat="47.10017" lon="-1.47223">
        <ele>33.61</ele>
        <time>2020-05-14T16:08:18Z</time>
      </trkpt>
      <trkpt lat="47.10023" lon="-1.47212">
        <ele>33.33</ele>
        <time>2020-05-14T16:08:20Z</time>
      </trkpt>
      <trkpt lat="47.10029" lon="-1.47202">
        <ele>32.49</ele>
        <time>2020-05-14T16:08:22Z</time>
      </trkpt>
      <trkpt lat="47.10037" lon="-1.47188">
        <ele>31.76</ele>
        <time>2020-05-14T16:08:24Z</time>
      </trkpt>
      <trkpt lat="47.10043" lon="-1.47177">
        <ele>30.89</ele>
        <time>2020-05-14T16:08:26Z</time>
      </trkpt>
      <trkpt lat="47.10051" lon="-1.47163">
        <ele>30.53</ele>
        <time>2020-05-14T16:08:28Z</time>
      </trkpt>
      <trkpt lat="47.10058" lon="-1.47149">
        <ele>30.56</ele>
        <time>2020-05-14T16:08:30Z</time>
      </trkpt>
      <trkpt lat="47.10064" lon="-1.47135">
        <ele>30.93</ele>
        <time>2020-05-14T16:08:32Z</time>
      </trkpt>
      <trkpt lat="47.10069" lon="-1.4712">
        <ele>30.36</ele>
        <time>2020-05-14T16:08:34Z</time>
      </trkpt>
      <trkpt lat="47.10075" lon="-1.47106">
        <ele>30.33</ele>
        <time>2020-05-14T16:08:36Z</time>
      </trkpt>
      <trkpt lat="47.10079" lon="-1.47092">
        <ele>30.28</ele>
        <time>2020-05-14T16:08:38Z</time>
      </trkpt>
      <trkpt lat="47.10083" lon="-1.47077">
        <ele>29.82</ele>
        <time>2020-05-14T16:08:40Z</time>
      </trkpt>
      <trkpt lat="47.10087" lon="-1.47062">
        <ele>29.33</ele>
        <time>2020-05-14T16:08:42Z</time>
      </trkpt>
      <trkpt lat="47.10092" lon="-1.47043">
        <ele>27.73</ele>
        <time>2020-05-14T16:08:45Z</time>
      </trkpt>
      <trkpt lat="47.10097" lon="-1.47026">
        <ele>26.84</ele>
        <time>2020-05-14T16:08:48Z</time>
      </trkpt>
      <trkpt lat="47.10101" lon="-1.47012">
        <ele>25.97</ele>
        <time>2020-05-14T16:08:50Z</time>
      </trkpt>
      <trkpt lat="47.10104" lon="-1.46997">
        <ele>25.45</ele>
        <time>2020-05-14T16:08:52Z</time>
      </trkpt>
      <trkpt lat="47.10108" lon="-1.46983">
        <ele>25.82</ele>
        <time>2020-05-14T16:08:54Z</time>
      </trkpt>
      <trkpt lat="47.10111" lon="-1.46971">
        <ele>25.85</ele>
        <time>2020-05-14T16:08:56Z</time>
      </trkpt>
      <trkpt lat="47.10115" lon="-1.46957">
        <ele>25.59</ele>
        <time>2020-05-14T16:08:58Z</time>
      </trkpt>
      <trkpt lat="47.10119" lon="-1.46939">
        <ele>26.57</ele>
        <time>2020-05-14T16:09:01Z</time>
      </trkpt>
      <trkpt lat="47.10123" lon="-1.46924">
        <ele>27.63</ele>
        <time>2020-05-14T16:09:03Z</time>
      </trkpt>
      <trkpt lat="47.10127" lon="-1.46909">
        <ele>27.74</ele>
        <time>2020-05-14T16:09:05Z</time>
      </trkpt>
      <trkpt lat="47.1013" lon="-1.46894">
        <ele>27.47</ele>
        <time>2020-05-14T16:09:07Z</time>
      </trkpt>
      <trkpt lat="47.10135" lon="-1.46877">
        <ele>28.94</ele>
        <time>2020-05-14T16:09:09Z</time>
      </trkpt>
      <trkpt lat="47.10138" lon="-1.46864">
        <ele>30.68</ele>
        <time>2020-05-14T16:09:11Z</time>
      </trkpt>
      <trkpt lat="47.10142" lon="-1.46849">
        <ele>31.91</ele>
        <time>2020-05-14T16:09:13Z</time>
      </trkpt>
      <trkpt lat="47.10145" lon="-1.46835">
        <ele>33.05</ele>
        <time>2020-05-14T16:09:15Z</time>
      </trkpt>
      <trkpt lat="47.10149" lon="-1.4682">
        <ele>33.02</ele>
        <time>2020-05-14T16:09:17Z</time>
      </trkpt>
      <trkpt lat="47.10153" lon="-1.46805">
        <ele>34.2</ele>
        <time>2020-05-14T16:09:19Z</time>
      </trkpt>
      <trkpt lat="47.10157" lon="-1.46791">
        <ele>35.17</ele>
        <time>2020-05-14T16:09:21Z</time>
      </trkpt>
      <trkpt lat="47.10159" lon="-1.46776">
        <ele>34.33</ele>
        <time>2020-05-14T16:09:23Z</time>
      </trkpt>
      <trkpt lat="47.10162" lon="-1.46762">
        <ele>34.55</ele>
        <time>2020-05-14T16:09:26Z</time>
      </trkpt>
      <trkpt lat="47.10164" lon="-1.4675">
        <ele>34.88</ele>
        <time>2020-05-14T16:09:27Z</time>
      </trkpt>
      <trkpt lat="47.10167" lon="-1.46733">
        <ele>34.05</ele>
        <time>2020-05-14T16:09:30Z</time>
      </trkpt>
      <trkpt lat="47.10169" lon="-1.46714">
        <ele>33.83</ele>
        <time>2020-05-14T16:09:33Z</time>
      </trkpt>
      <trkpt lat="47.10172" lon="-1.46693">
        <ele>33.23</ele>
        <time>2020-05-14T16:09:36Z</time>
      </trkpt>
      <trkpt lat="47.10173" lon="-1.46679">
        <ele>32.82</ele>
        <time>2020-05-14T16:09:38Z</time>
      </trkpt>
      <trkpt lat="47.10175" lon="-1.46666">
        <ele>34.41</ele>
        <time>2020-05-14T16:09:40Z</time>
      </trkpt>
      <trkpt lat="47.10177" lon="-1.46649">
        <ele>36.03</ele>
        <time>2020-05-14T16:09:43Z</time>
      </trkpt>
      <trkpt lat="47.1018" lon="-1.46636">
        <ele>36.04</ele>
        <time>2020-05-14T16:09:45Z</time>
      </trkpt>
      <trkpt lat="47.10182" lon="-1.46619">
        <ele>36.12</ele>
        <time>2020-05-14T16:09:48Z</time>
      </trkpt>
      <trkpt lat="47.10185" lon="-1.46602">
        <ele>36.97</ele>
        <time>2020-05-14T16:09:51Z</time>
      </trkpt>
      <trkpt lat="47.10188" lon="-1.46584">
        <ele>36.52</ele>
        <time>2020-05-14T16:09:54Z</time>
      </trkpt>
      <trkpt lat="47.10189" lon="-1.46568">
        <ele>35.64</ele>
        <time>2020-05-14T16:09:57Z</time>
      </trkpt>
      <trkpt lat="47.10191" lon="-1.46552">
        <ele>37.2</ele>
        <time>2020-05-14T16:10:00Z</time>
      </trkpt>
      <trkpt lat="47.10192" lon="-1.46534">
        <ele>38.76</ele>
        <time>2020-05-14T16:10:03Z</time>
      </trkpt>
      <trkpt lat="47.10192" lon="-1.46516">
        <ele>39.44</ele>
        <time>2020-05-14T16:10:06Z</time>
      </trkpt>
      <trkpt lat="47.10194" lon="-1.46497">
        <ele>39.44</ele>
        <time>2020-05-14T16:10:09Z</time>
      </trkpt>
      <trkpt lat="47.10196" lon="-1.46479">
        <ele>39.29</ele>
        <time>2020-05-14T16:10:12Z</time>
      </trkpt>
      <trkpt lat="47.10197" lon="-1.46463">
        <ele>38.97</ele>
        <time>2020-05-14T16:10:15Z</time>
      </trkpt>
      <trkpt lat="47.10198" lon="-1.46449">
        <ele>38.82</ele>
        <time>2020-05-14T16:10:18Z</time>
      </trkpt>
      <trkpt lat="47.10198" lon="-1.4643">
        <ele>39.72</ele>
        <time>2020-05-14T16:10:21Z</time>
      </trkpt>
      <trkpt lat="47.102" lon="-1.46416">
        <ele>39.75</ele>
        <time>2020-05-14T16:10:23Z</time>
      </trkpt>
      <trkpt lat="47.10201" lon="-1.464">
        <ele>40.45</ele>
        <time>2020-05-14T16:10:26Z</time>
      </trkpt>
      <trkpt lat="47.10203" lon="-1.46382">
        <ele>40.94</ele>
        <time>2020-05-14T16:10:30Z</time>
      </trkpt>
      <trkpt lat="47.10206" lon="-1.46365">
        <ele>41.39</ele>
        <time>2020-05-14T16:10:34Z</time>
      </trkpt>
      <trkpt lat="47.10212" lon="-1.4635">
        <ele>41.63</ele>
        <time>2020-05-14T16:10:37Z</time>
      </trkpt>
      <trkpt lat="47.1022" lon="-1.46335">
        <ele>41.78</ele>
        <time>2020-05-14T16:10:40Z</time>
      </trkpt>
      <trkpt lat="47.10226" lon="-1.46323">
        <ele>41.83</ele>
        <time>2020-05-14T16:10:43Z</time>
      </trkpt>
      <trkpt lat="47.10234" lon="-1.4631">
        <ele>43.34</ele>
        <time>2020-05-14T16:10:46Z</time>
      </trkpt>
      <trkpt lat="47.10243" lon="-1.46296">
        <ele>44.8</ele>
        <time>2020-05-14T16:10:49Z</time>
      </trkpt>
      <trkpt lat="47.10252" lon="-1.46283">
        <ele>44.72</ele>
        <time>2020-05-14T16:10:52Z</time>
      </trkpt>
      <trkpt lat="47.10258" lon="-1.46273">
        <ele>44.34</ele>
        <time>2020-05-14T16:10:54Z</time>
      </trkpt>
      <trkpt lat="47.10267" lon="-1.46259">
        <ele>43.09</ele>
        <time>2020-05-14T16:10:57Z</time>
      </trkpt>
      <trkpt lat="47.10275" lon="-1.46246">
        <ele>43.07</ele>
        <time>2020-05-14T16:11:00Z</time>
      </trkpt>
      <trkpt lat="47.10284" lon="-1.46234">
        <ele>43.5</ele>
        <time>2020-05-14T16:11:03Z</time>
      </trkpt>
      <trkpt lat="47.1029" lon="-1.46221">
        <ele>43.75</ele>
        <time>2020-05-14T16:11:06Z</time>
      </trkpt>
      <trkpt lat="47.10286" lon="-1.46206">
        <ele>44.1</ele>
        <time>2020-05-14T16:11:09Z</time>
      </trkpt>
      <trkpt lat="47.10278" lon="-1.46193">
        <ele>45.54</ele>
        <time>2020-05-14T16:11:12Z</time>
      </trkpt>
      <trkpt lat="47.10269" lon="-1.46177">
        <ele>46.86</ele>
        <time>2020-05-14T16:11:15Z</time>
      </trkpt>
      <trkpt lat="47.10262" lon="-1.46164">
        <ele>47.3</ele>
        <time>2020-05-14T16:11:17Z</time>
      </trkpt>
      <trkpt lat="47.10254" lon="-1.4615">
        <ele>47.76</ele>
        <time>2020-05-14T16:11:19Z</time>
      </trkpt>
      <trkpt lat="47.10247" lon="-1.46136">
        <ele>47.79</ele>
        <time>2020-05-14T16:11:21Z</time>
      </trkpt>
      <trkpt lat="47.1024" lon="-1.46124">
        <ele>47.84</ele>
        <time>2020-05-14T16:11:23Z</time>
      </trkpt>
      <trkpt lat="47.10232" lon="-1.4611">
        <ele>47.57</ele>
        <time>2020-05-14T16:11:25Z</time>
      </trkpt>
      <trkpt lat="47.10225" lon="-1.46097">
        <ele>47.74</ele>
        <time>2020-05-14T16:11:27Z</time>
      </trkpt>
      <trkpt lat="47.10218" lon="-1.46085">
        <ele>47.51</ele>
        <time>2020-05-14T16:11:29Z</time>
      </trkpt>
      <trkpt lat="47.1021" lon="-1.46073">
        <ele>47.5</ele>
        <time>2020-05-14T16:11:31Z</time>
      </trkpt>
      <trkpt lat="47.10203" lon="-1.46059">
        <ele>48.95</ele>
        <time>2020-05-14T16:11:33Z</time>
      </trkpt>
      <trkpt lat="47.10195" lon="-1.46046">
        <ele>49.15</ele>
        <time>2020-05-14T16:11:35Z</time>
      </trkpt>
      <trkpt lat="47.10189" lon="-1.46036">
        <ele>48.91</ele>
        <time>2020-05-14T16:11:37Z</time>
      </trkpt>
      <trkpt lat="47.10182" lon="-1.46024">
        <ele>49.47</ele>
        <time>2020-05-14T16:11:39Z</time>
      </trkpt>
      <trkpt lat="47.10174" lon="-1.46011">
        <ele>50.99</ele>
        <time>2020-05-14T16:11:41Z</time>
      </trkpt>
      <trkpt lat="47.10167" lon="-1.45998">
        <ele>52.2</ele>
        <time>2020-05-14T16:11:43Z</time>
      </trkpt>
      <trkpt lat="47.1016" lon="-1.45983">
        <ele>52.67</ele>
        <time>2020-05-14T16:11:45Z</time>
      </trkpt>
      <trkpt lat="47.10153" lon="-1.4597">
        <ele>52.09</ele>
        <time>2020-05-14T16:11:47Z</time>
      </trkpt>
      <trkpt lat="47.10146" lon="-1.45957">
        <ele>51.36</ele>
        <time>2020-05-14T16:11:49Z</time>
      </trkpt>
      <trkpt lat="47.10137" lon="-1.45941">
        <ele>51.62</ele>
        <time>2020-05-14T16:11:51Z</time>
      </trkpt>
      <trkpt lat="47.1013" lon="-1.45927">
        <ele>52.23</ele>
        <time>2020-05-14T16:11:53Z</time>
      </trkpt>
      <trkpt lat="47.10121" lon="-1.45912">
        <ele>52.4</ele>
        <time>2020-05-14T16:11:55Z</time>
      </trkpt>
      <trkpt lat="47.10113" lon="-1.459">
        <ele>51.77</ele>
        <time>2020-05-14T16:11:57Z</time>
      </trkpt>
      <trkpt lat="47.10106" lon="-1.45887">
        <ele>51.53</ele>
        <time>2020-05-14T16:11:59Z</time>
      </trkpt>
      <trkpt lat="47.10097" lon="-1.45872">
        <ele>50.58</ele>
        <time>2020-05-14T16:12:01Z</time>
      </trkpt>
      <trkpt lat="47.10088" lon="-1.45857">
        <ele>50.29</ele>
        <time>2020-05-14T16:12:03Z</time>
      </trkpt>
      <trkpt lat="47.10081" lon="-1.45843">
        <ele>49.89</ele>
        <time>2020-05-14T16:12:05Z</time>
      </trkpt>
      <trkpt lat="47.10074" lon="-1.45828">
        <ele>49.53</ele>
        <time>2020-05-14T16:12:07Z</time>
      </trkpt>
      <trkpt lat="47.10066" lon="-1.45814">
        <ele>48.77</ele>
        <time>2020-05-14T16:12:09Z</time>
      </trkpt>
      <trkpt lat="47.1006" lon="-1.45803">
        <ele>48.3</ele>
        <time>2020-05-14T16:12:11Z</time>
      </trkpt>
      <trkpt lat="47.10052" lon="-1.45788">
        <ele>48.78</ele>
        <time>2020-05-14T16:12:13Z</time>
      </trkpt>
      <trkpt lat="47.10044" lon="-1.45773">
        <ele>48.42</ele>
        <time>2020-05-14T16:12:15Z</time>
      </trkpt>
      <trkpt lat="47.10037" lon="-1.45757">
        <ele>48.43</ele>
        <time>2020-05-14T16:12:17Z</time>
      </trkpt>
      <trkpt lat="47.10029" lon="-1.45743">
        <ele>49.47</ele>
        <time>2020-05-14T16:12:19Z</time>
      </trkpt>
      <trkpt lat="47.10021" lon="-1.45728">
        <ele>49.18</ele>
        <time>2020-05-14T16:12:21Z</time>
      </trkpt>
      <trkpt lat="47.10014" lon="-1.45714">
        <ele>48.59</ele>
        <time>2020-05-14T16:12:23Z</time>
      </trkpt>
      <trkpt lat="47.10007" lon="-1.457">
        <ele>48.48</ele>
        <time>2020-05-14T16:12:25Z</time>
      </trkpt>
      <trkpt lat="47.09999" lon="-1.45686">
        <ele>48.32</ele>
        <time>2020-05-14T16:12:27Z</time>
      </trkpt>
      <trkpt lat="47.09991" lon="-1.45669">
        <ele>47.28</ele>
        <time>2020-05-14T16:12:29Z</time>
      </trkpt>
      <trkpt lat="47.09983" lon="-1.45654">
        <ele>47.13</ele>
        <time>2020-05-14T16:12:31Z</time>
      </trkpt>
      <trkpt lat="47.09976" lon="-1.45642">
        <ele>47.72</ele>
        <time>2020-05-14T16:12:33Z</time>
      </trkpt>
      <trkpt lat="47.09969" lon="-1.45627">
        <ele>47.77</ele>
        <time>2020-05-14T16:12:35Z</time>
      </trkpt>
      <trkpt lat="47.09962" lon="-1.45613">
        <ele>47.68</ele>
        <time>2020-05-14T16:12:37Z</time>
      </trkpt>
      <trkpt lat="47.09955" lon="-1.456">
        <ele>47.86</ele>
        <time>2020-05-14T16:12:39Z</time>
      </trkpt>
      <trkpt lat="47.09948" lon="-1.45585">
        <ele>48.3</ele>
        <time>2020-05-14T16:12:41Z</time>
      </trkpt>
      <trkpt lat="47.0994" lon="-1.45571">
        <ele>48.46</ele>
        <time>2020-05-14T16:12:43Z</time>
      </trkpt>
      <trkpt lat="47.09933" lon="-1.45556">
        <ele>49.15</ele>
        <time>2020-05-14T16:12:45Z</time>
      </trkpt>
      <trkpt lat="47.09925" lon="-1.4554">
        <ele>48.65</ele>
        <time>2020-05-14T16:12:47Z</time>
      </trkpt>
      <trkpt lat="47.09919" lon="-1.45526">
        <ele>48.76</ele>
        <time>2020-05-14T16:12:49Z</time>
      </trkpt>
      <trkpt lat="47.09912" lon="-1.45511">
        <ele>48.72</ele>
        <time>2020-05-14T16:12:51Z</time>
      </trkpt>
      <trkpt lat="47.09905" lon="-1.45495">
        <ele>48.23</ele>
        <time>2020-05-14T16:12:53Z</time>
      </trkpt>
      <trkpt lat="47.09899" lon="-1.4548">
        <ele>48.48</ele>
        <time>2020-05-14T16:12:55Z</time>
      </trkpt>
      <trkpt lat="47.09893" lon="-1.45465">
        <ele>48.51</ele>
        <time>2020-05-14T16:12:57Z</time>
      </trkpt>
      <trkpt lat="47.09887" lon="-1.45453">
        <ele>48.1</ele>
        <time>2020-05-14T16:12:59Z</time>
      </trkpt>
      <trkpt lat="47.09881" lon="-1.45437">
        <ele>48.09</ele>
        <time>2020-05-14T16:13:01Z</time>
      </trkpt>
      <trkpt lat="47.09875" lon="-1.45422">
        <ele>47.9</ele>
        <time>2020-05-14T16:13:03Z</time>
      </trkpt>
      <trkpt lat="47.09867" lon="-1.45405">
        <ele>47.78</ele>
        <time>2020-05-14T16:13:05Z</time>
      </trkpt>
      <trkpt lat="47.0986" lon="-1.4539">
        <ele>48.2</ele>
        <time>2020-05-14T16:13:07Z</time>
      </trkpt>
      <trkpt lat="47.09853" lon="-1.45375">
        <ele>48.28</ele>
        <time>2020-05-14T16:13:09Z</time>
      </trkpt>
      <trkpt lat="47.09847" lon="-1.45358">
        <ele>47.67</ele>
        <time>2020-05-14T16:13:11Z</time>
      </trkpt>
      <trkpt lat="47.0984" lon="-1.4534">
        <ele>47.08</ele>
        <time>2020-05-14T16:13:13Z</time>
      </trkpt>
      <trkpt lat="47.09832" lon="-1.45323">
        <ele>46.24</ele>
        <time>2020-05-14T16:13:15Z</time>
      </trkpt>
      <trkpt lat="47.09826" lon="-1.4531">
        <ele>45.79</ele>
        <time>2020-05-14T16:13:17Z</time>
      </trkpt>
      <trkpt lat="47.09818" lon="-1.45291">
        <ele>45.62</ele>
        <time>2020-05-14T16:13:19Z</time>
      </trkpt>
      <trkpt lat="47.09812" lon="-1.45277">
        <ele>45.84</ele>
        <time>2020-05-14T16:13:21Z</time>
      </trkpt>
      <trkpt lat="47.09806" lon="-1.45263">
        <ele>46.03</ele>
        <time>2020-05-14T16:13:23Z</time>
      </trkpt>
      <trkpt lat="47.098" lon="-1.45249">
        <ele>45.86</ele>
        <time>2020-05-14T16:13:25Z</time>
      </trkpt>
      <trkpt lat="47.09793" lon="-1.45233">
        <ele>45.38</ele>
        <time>2020-05-14T16:13:27Z</time>
      </trkpt>
      <trkpt lat="47.09786" lon="-1.45217">
        <ele>44.84</ele>
        <time>2020-05-14T16:13:29Z</time>
      </trkpt>
      <trkpt lat="47.09779" lon="-1.45201">
        <ele>44.01</ele>
        <time>2020-05-14T16:13:31Z</time>
      </trkpt>
      <trkpt lat="47.09772" lon="-1.45187">
        <ele>44.41</ele>
        <time>2020-05-14T16:13:33Z</time>
      </trkpt>
      <trkpt lat="47.09766" lon="-1.45173">
        <ele>45.29</ele>
        <time>2020-05-14T16:13:35Z</time>
      </trkpt>
      <trkpt lat="47.09758" lon="-1.45158">
        <ele>45.44</ele>
        <time>2020-05-14T16:13:37Z</time>
      </trkpt>
      <trkpt lat="47.0975" lon="-1.45141">
        <ele>46.17</ele>
        <time>2020-05-14T16:13:39Z</time>
      </trkpt>
      <trkpt lat="47.09743" lon="-1.45126">
        <ele>47</ele>
        <time>2020-05-14T16:13:41Z</time>
      </trkpt>
      <trkpt lat="47.09736" lon="-1.45111">
        <ele>46.89</ele>
        <time>2020-05-14T16:13:43Z</time>
      </trkpt>
      <trkpt lat="47.09728" lon="-1.45095">
        <ele>46.46</ele>
        <time>2020-05-14T16:13:45Z</time>
      </trkpt>
      <trkpt lat="47.09721" lon="-1.45079">
        <ele>45.79</ele>
        <time>2020-05-14T16:13:47Z</time>
      </trkpt>
      <trkpt lat="47.09714" lon="-1.45065">
        <ele>46.07</ele>
        <time>2020-05-14T16:13:49Z</time>
      </trkpt>
      <trkpt lat="47.09708" lon="-1.45051">
        <ele>45.6</ele>
        <time>2020-05-14T16:13:51Z</time>
      </trkpt>
      <trkpt lat="47.09702" lon="-1.45038">
        <ele>45.36</ele>
        <time>2020-05-14T16:13:53Z</time>
      </trkpt>
      <trkpt lat="47.09695" lon="-1.45023">
        <ele>45.43</ele>
        <time>2020-05-14T16:13:55Z</time>
      </trkpt>
      <trkpt lat="47.09688" lon="-1.45008">
        <ele>44.73</ele>
        <time>2020-05-14T16:13:57Z</time>
      </trkpt>
      <trkpt lat="47.09681" lon="-1.44994">
        <ele>44.06</ele>
        <time>2020-05-14T16:13:59Z</time>
      </trkpt>
      <trkpt lat="47.09673" lon="-1.4498">
        <ele>44.21</ele>
        <time>2020-05-14T16:14:01Z</time>
      </trkpt>
      <trkpt lat="47.09666" lon="-1.4497">
        <ele>44.62</ele>
        <time>2020-05-14T16:14:03Z</time>
      </trkpt>
      <trkpt lat="47.09656" lon="-1.44962">
        <ele>44.9</ele>
        <time>2020-05-14T16:14:05Z</time>
      </trkpt>
      <trkpt lat="47.09644" lon="-1.44959">
        <ele>44.9</ele>
        <time>2020-05-14T16:14:07Z</time>
      </trkpt>
      <trkpt lat="47.09633" lon="-1.44951">
        <ele>45.43</ele>
        <time>2020-05-14T16:14:09Z</time>
      </trkpt>
      <trkpt lat="47.09628" lon="-1.44937">
        <ele>46.04</ele>
        <time>2020-05-14T16:14:11Z</time>
      </trkpt>
      <trkpt lat="47.09628" lon="-1.44918">
        <ele>45.97</ele>
        <time>2020-05-14T16:14:13Z</time>
      </trkpt>
      <trkpt lat="47.09631" lon="-1.44901">
        <ele>45.89</ele>
        <time>2020-05-14T16:14:15Z</time>
      </trkpt>
      <trkpt lat="47.0964" lon="-1.44889">
        <ele>45.36</ele>
        <time>2020-05-14T16:14:17Z</time>
      </trkpt>
      <trkpt lat="47.09652" lon="-1.44881">
        <ele>45.12</ele>
        <time>2020-05-14T16:14:19Z</time>
      </trkpt>
      <trkpt lat="47.09664" lon="-1.44873">
        <ele>44.99</ele>
        <time>2020-05-14T16:14:21Z</time>
      </trkpt>
      <trkpt lat="47.09672" lon="-1.44858">
        <ele>44.66</ele>
        <time>2020-05-14T16:14:23Z</time>
      </trkpt>
      <trkpt lat="47.09679" lon="-1.44844">
        <ele>44.17</ele>
        <time>2020-05-14T16:14:25Z</time>
      </trkpt>
      <trkpt lat="47.09685" lon="-1.44828">
        <ele>43.75</ele>
        <time>2020-05-14T16:14:27Z</time>
      </trkpt>
      <trkpt lat="47.09686" lon="-1.4481">
        <ele>44.22</ele>
        <time>2020-05-14T16:14:29Z</time>
      </trkpt>
      <trkpt lat="47.09686" lon="-1.44792">
        <ele>44.02</ele>
        <time>2020-05-14T16:14:31Z</time>
      </trkpt>
      <trkpt lat="47.09682" lon="-1.44776">
        <ele>43.79</ele>
        <time>2020-05-14T16:14:33Z</time>
      </trkpt>
      <trkpt lat="47.09675" lon="-1.44763">
        <ele>43.55</ele>
        <time>2020-05-14T16:14:35Z</time>
      </trkpt>
      <trkpt lat="47.09666" lon="-1.44749">
        <ele>43.92</ele>
        <time>2020-05-14T16:14:37Z</time>
      </trkpt>
      <trkpt lat="47.09659" lon="-1.44738">
        <ele>44.48</ele>
        <time>2020-05-14T16:14:39Z</time>
      </trkpt>
      <trkpt lat="47.09651" lon="-1.44724">
        <ele>44.42</ele>
        <time>2020-05-14T16:14:41Z</time>
      </trkpt>
      <trkpt lat="47.09646" lon="-1.4471">
        <ele>45.2</ele>
        <time>2020-05-14T16:14:43Z</time>
      </trkpt>
      <trkpt lat="47.09643" lon="-1.44694">
        <ele>45.65</ele>
        <time>2020-05-14T16:14:45Z</time>
      </trkpt>
      <trkpt lat="47.09643" lon="-1.44679">
        <ele>46.51</ele>
        <time>2020-05-14T16:14:47Z</time>
      </trkpt>
      <trkpt lat="47.09644" lon="-1.44662">
        <ele>46.99</ele>
        <time>2020-05-14T16:14:49Z</time>
      </trkpt>
      <trkpt lat="47.09646" lon="-1.44647">
        <ele>47.13</ele>
        <time>2020-05-14T16:14:51Z</time>
      </trkpt>
      <trkpt lat="47.09653" lon="-1.44632">
        <ele>47.42</ele>
        <time>2020-05-14T16:14:53Z</time>
      </trkpt>
      <trkpt lat="47.09663" lon="-1.4462">
        <ele>47.47</ele>
        <time>2020-05-14T16:14:55Z</time>
      </trkpt>
      <trkpt lat="47.09674" lon="-1.44609">
        <ele>47.17</ele>
        <time>2020-05-14T16:14:57Z</time>
      </trkpt>
      <trkpt lat="47.09685" lon="-1.44599">
        <ele>46.11</ele>
        <time>2020-05-14T16:14:59Z</time>
      </trkpt>
      <trkpt lat="47.09696" lon="-1.44591">
        <ele>45.74</ele>
        <time>2020-05-14T16:15:01Z</time>
      </trkpt>
      <trkpt lat="47.09708" lon="-1.44582">
        <ele>45.29</ele>
        <time>2020-05-14T16:15:03Z</time>
      </trkpt>
      <trkpt lat="47.09719" lon="-1.44576">
        <ele>44.33</ele>
        <time>2020-05-14T16:15:05Z</time>
      </trkpt>
      <trkpt lat="47.0973" lon="-1.44571">
        <ele>43.31</ele>
        <time>2020-05-14T16:15:07Z</time>
      </trkpt>
      <trkpt lat="47.09742" lon="-1.44564">
        <ele>42.48</ele>
        <time>2020-05-14T16:15:09Z</time>
      </trkpt>
      <trkpt lat="47.09752" lon="-1.4456">
        <ele>42.07</ele>
        <time>2020-05-14T16:15:11Z</time>
      </trkpt>
      <trkpt lat="47.09764" lon="-1.44554">
        <ele>40.75</ele>
        <time>2020-05-14T16:15:13Z</time>
      </trkpt>
      <trkpt lat="47.09776" lon="-1.44549">
        <ele>38.99</ele>
        <time>2020-05-14T16:15:15Z</time>
      </trkpt>
      <trkpt lat="47.09785" lon="-1.44545">
        <ele>37.76</ele>
        <time>2020-05-14T16:15:17Z</time>
      </trkpt>
      <trkpt lat="47.09795" lon="-1.44542">
        <ele>36.93</ele>
        <time>2020-05-14T16:15:19Z</time>
      </trkpt>
      <trkpt lat="47.09806" lon="-1.44538">
        <ele>35.81</ele>
        <time>2020-05-14T16:15:21Z</time>
      </trkpt>
      <trkpt lat="47.09817" lon="-1.44535">
        <ele>35.54</ele>
        <time>2020-05-14T16:15:23Z</time>
      </trkpt>
      <trkpt lat="47.09827" lon="-1.44532">
        <ele>35.27</ele>
        <time>2020-05-14T16:15:25Z</time>
      </trkpt>
      <trkpt lat="47.0984" lon="-1.44527">
        <ele>34.89</ele>
        <time>2020-05-14T16:15:27Z</time>
      </trkpt>
      <trkpt lat="47.09854" lon="-1.44522">
        <ele>34.49</ele>
        <time>2020-05-14T16:15:29Z</time>
      </trkpt>
      <trkpt lat="47.09868" lon="-1.44517">
        <ele>34.89</ele>
        <time>2020-05-14T16:15:31Z</time>
      </trkpt>
      <trkpt lat="47.0988" lon="-1.44511">
        <ele>35.41</ele>
        <time>2020-05-14T16:15:33Z</time>
      </trkpt>
      <trkpt lat="47.09892" lon="-1.44507">
        <ele>36.1</ele>
        <time>2020-05-14T16:15:35Z</time>
      </trkpt>
      <trkpt lat="47.09906" lon="-1.44501">
        <ele>36.84</ele>
        <time>2020-05-14T16:15:37Z</time>
      </trkpt>
      <trkpt lat="47.09919" lon="-1.44496">
        <ele>36.3</ele>
        <time>2020-05-14T16:15:39Z</time>
      </trkpt>
      <trkpt lat="47.09933" lon="-1.44492">
        <ele>34.04</ele>
        <time>2020-05-14T16:15:41Z</time>
      </trkpt>
      <trkpt lat="47.09946" lon="-1.44487">
        <ele>31.11</ele>
        <time>2020-05-14T16:15:43Z</time>
      </trkpt>
      <trkpt lat="47.09961" lon="-1.44481">
        <ele>29.15</ele>
        <time>2020-05-14T16:15:45Z</time>
      </trkpt>
      <trkpt lat="47.09976" lon="-1.44476">
        <ele>27.42</ele>
        <time>2020-05-14T16:15:47Z</time>
      </trkpt>
      <trkpt lat="47.09991" lon="-1.44469">
        <ele>25.48</ele>
        <time>2020-05-14T16:15:49Z</time>
      </trkpt>
      <trkpt lat="47.10006" lon="-1.44462">
        <ele>24.32</ele>
        <time>2020-05-14T16:15:51Z</time>
      </trkpt>
      <trkpt lat="47.10021" lon="-1.44457">
        <ele>24.08</ele>
        <time>2020-05-14T16:15:53Z</time>
      </trkpt>
      <trkpt lat="47.10035" lon="-1.44451">
        <ele>24.5</ele>
        <time>2020-05-14T16:15:55Z</time>
      </trkpt>
      <trkpt lat="47.10049" lon="-1.44446">
        <ele>23.87</ele>
        <time>2020-05-14T16:15:57Z</time>
      </trkpt>
      <trkpt lat="47.10065" lon="-1.4444">
        <ele>24.04</ele>
        <time>2020-05-14T16:15:59Z</time>
      </trkpt>
      <trkpt lat="47.10079" lon="-1.44435">
        <ele>23.82</ele>
        <time>2020-05-14T16:16:01Z</time>
      </trkpt>
      <trkpt lat="47.10093" lon="-1.4443">
        <ele>24.12</ele>
        <time>2020-05-14T16:16:03Z</time>
      </trkpt>
      <trkpt lat="47.10104" lon="-1.44426">
        <ele>25.34</ele>
        <time>2020-05-14T16:16:05Z</time>
      </trkpt>
      <trkpt lat="47.10116" lon="-1.44421">
        <ele>26.52</ele>
        <time>2020-05-14T16:16:07Z</time>
      </trkpt>
      <trkpt lat="47.10128" lon="-1.44413">
        <ele>26.94</ele>
        <time>2020-05-14T16:16:09Z</time>
      </trkpt>
      <trkpt lat="47.1014" lon="-1.44404">
        <ele>26.61</ele>
        <time>2020-05-14T16:16:11Z</time>
      </trkpt>
      <trkpt lat="47.10152" lon="-1.44393">
        <ele>25.83</ele>
        <time>2020-05-14T16:16:13Z</time>
      </trkpt>
      <trkpt lat="47.10163" lon="-1.44381">
        <ele>25.54</ele>
        <time>2020-05-14T16:16:15Z</time>
      </trkpt>
      <trkpt lat="47.10173" lon="-1.44369">
        <ele>25.71</ele>
        <time>2020-05-14T16:16:17Z</time>
      </trkpt>
      <trkpt lat="47.10182" lon="-1.44358">
        <ele>25.46</ele>
        <time>2020-05-14T16:16:19Z</time>
      </trkpt>
      <trkpt lat="47.10191" lon="-1.44347">
        <ele>25.79</ele>
        <time>2020-05-14T16:16:21Z</time>
      </trkpt>
      <trkpt lat="47.10199" lon="-1.44335">
        <ele>26.64</ele>
        <time>2020-05-14T16:16:23Z</time>
      </trkpt>
      <trkpt lat="47.10209" lon="-1.44323">
        <ele>26.66</ele>
        <time>2020-05-14T16:16:25Z</time>
      </trkpt>
      <trkpt lat="47.10219" lon="-1.44311">
        <ele>26.3</ele>
        <time>2020-05-14T16:16:27Z</time>
      </trkpt>
      <trkpt lat="47.10228" lon="-1.44299">
        <ele>25.67</ele>
        <time>2020-05-14T16:16:29Z</time>
      </trkpt>
      <trkpt lat="47.10239" lon="-1.44287">
        <ele>25.32</ele>
        <time>2020-05-14T16:16:31Z</time>
      </trkpt>
      <trkpt lat="47.1025" lon="-1.44274">
        <ele>24.92</ele>
        <time>2020-05-14T16:16:33Z</time>
      </trkpt>
      <trkpt lat="47.10259" lon="-1.44264">
        <ele>25.18</ele>
        <time>2020-05-14T16:16:35Z</time>
      </trkpt>
      <trkpt lat="47.10269" lon="-1.44253">
        <ele>25.3</ele>
        <time>2020-05-14T16:16:37Z</time>
      </trkpt>
      <trkpt lat="47.1028" lon="-1.44243">
        <ele>25.26</ele>
        <time>2020-05-14T16:16:39Z</time>
      </trkpt>
      <trkpt lat="47.10288" lon="-1.44235">
        <ele>26.58</ele>
        <time>2020-05-14T16:16:41Z</time>
      </trkpt>
      <trkpt lat="47.10299" lon="-1.44226">
        <ele>26.43</ele>
        <time>2020-05-14T16:16:43Z</time>
      </trkpt>
      <trkpt lat="47.10311" lon="-1.44218">
        <ele>25.4</ele>
        <time>2020-05-14T16:16:45Z</time>
      </trkpt>
      <trkpt lat="47.10321" lon="-1.44214">
        <ele>24.93</ele>
        <time>2020-05-14T16:16:47Z</time>
      </trkpt>
      <trkpt lat="47.10332" lon="-1.4421">
        <ele>24.82</ele>
        <time>2020-05-14T16:16:49Z</time>
      </trkpt>
      <trkpt lat="47.10345" lon="-1.44205">
        <ele>24.05</ele>
        <time>2020-05-14T16:16:51Z</time>
      </trkpt>
      <trkpt lat="47.10355" lon="-1.44201">
        <ele>24.25</ele>
        <time>2020-05-14T16:16:53Z</time>
      </trkpt>
      <trkpt lat="47.10364" lon="-1.44198">
        <ele>24.83</ele>
        <time>2020-05-14T16:16:55Z</time>
      </trkpt>
      <trkpt lat="47.10377" lon="-1.44192">
        <ele>25.37</ele>
        <time>2020-05-14T16:16:58Z</time>
      </trkpt>
      <trkpt lat="47.1039" lon="-1.44186">
        <ele>25.76</ele>
        <time>2020-05-14T16:17:00Z</time>
      </trkpt>
      <trkpt lat="47.10402" lon="-1.44181">
        <ele>25.18</ele>
        <time>2020-05-14T16:17:02Z</time>
      </trkpt>
      <trkpt lat="47.10415" lon="-1.44175">
        <ele>24.45</ele>
        <time>2020-05-14T16:17:04Z</time>
      </trkpt>
      <trkpt lat="47.10424" lon="-1.44171">
        <ele>23.79</ele>
        <time>2020-05-14T16:17:06Z</time>
      </trkpt>
      <trkpt lat="47.10435" lon="-1.44165">
        <ele>22.01</ele>
        <time>2020-05-14T16:17:08Z</time>
      </trkpt>
      <trkpt lat="47.10446" lon="-1.4416">
        <ele>20.95</ele>
        <time>2020-05-14T16:17:10Z</time>
      </trkpt>
      <trkpt lat="47.10458" lon="-1.44155">
        <ele>21.17</ele>
        <time>2020-05-14T16:17:13Z</time>
      </trkpt>
      <trkpt lat="47.10472" lon="-1.44148">
        <ele>24.06</ele>
        <time>2020-05-14T16:17:16Z</time>
      </trkpt>
      <trkpt lat="47.10482" lon="-1.44143">
        <ele>25.09</ele>
        <time>2020-05-14T16:17:18Z</time>
      </trkpt>
      <trkpt lat="47.10495" lon="-1.44136">
        <ele>25.54</ele>
        <time>2020-05-14T16:17:20Z</time>
      </trkpt>
      <trkpt lat="47.10505" lon="-1.4413">
        <ele>25.49</ele>
        <time>2020-05-14T16:17:22Z</time>
      </trkpt>
      <trkpt lat="47.10516" lon="-1.44122">
        <ele>25.01</ele>
        <time>2020-05-14T16:17:25Z</time>
      </trkpt>
      <trkpt lat="47.10529" lon="-1.44113">
        <ele>24.35</ele>
        <time>2020-05-14T16:17:28Z</time>
      </trkpt>
      <trkpt lat="47.10538" lon="-1.44105">
        <ele>24.02</ele>
        <time>2020-05-14T16:17:30Z</time>
      </trkpt>
      <trkpt lat="47.10546" lon="-1.44097">
        <ele>23.37</ele>
        <time>2020-05-14T16:17:32Z</time>
      </trkpt>
      <trkpt lat="47.10555" lon="-1.4409">
        <ele>22.14</ele>
        <time>2020-05-14T16:17:34Z</time>
      </trkpt>
      <trkpt lat="47.10563" lon="-1.44082">
        <ele>21.08</ele>
        <time>2020-05-14T16:17:36Z</time>
      </trkpt>
      <trkpt lat="47.10571" lon="-1.44074">
        <ele>21.61</ele>
        <time>2020-05-14T16:17:38Z</time>
      </trkpt>
      <trkpt lat="47.10579" lon="-1.44066">
        <ele>21.57</ele>
        <time>2020-05-14T16:17:40Z</time>
      </trkpt>
      <trkpt lat="47.1059" lon="-1.44055">
        <ele>21.49</ele>
        <time>2020-05-14T16:17:43Z</time>
      </trkpt>
      <trkpt lat="47.106" lon="-1.44045">
        <ele>22.06</ele>
        <time>2020-05-14T16:17:45Z</time>
      </trkpt>
      <trkpt lat="47.10609" lon="-1.44038">
        <ele>23.44</ele>
        <time>2020-05-14T16:17:47Z</time>
      </trkpt>
      <trkpt lat="47.10618" lon="-1.44032">
        <ele>23.86</ele>
        <time>2020-05-14T16:17:49Z</time>
      </trkpt>
      <trkpt lat="47.10627" lon="-1.44027">
        <ele>25.08</ele>
        <time>2020-05-14T16:17:51Z</time>
      </trkpt>
      <trkpt lat="47.10639" lon="-1.4402">
        <ele>25.96</ele>
        <time>2020-05-14T16:17:54Z</time>
      </trkpt>
      <trkpt lat="47.10648" lon="-1.44014">
        <ele>25.83</ele>
        <time>2020-05-14T16:17:56Z</time>
      </trkpt>
      <trkpt lat="47.10658" lon="-1.44008">
        <ele>26.13</ele>
        <time>2020-05-14T16:17:58Z</time>
      </trkpt>
      <trkpt lat="47.1067" lon="-1.44001">
        <ele>27.76</ele>
        <time>2020-05-14T16:18:01Z</time>
      </trkpt>
      <trkpt lat="47.10681" lon="-1.43995">
        <ele>29.49</ele>
        <time>2020-05-14T16:18:03Z</time>
      </trkpt>
      <trkpt lat="47.10693" lon="-1.43989">
        <ele>31.03</ele>
        <time>2020-05-14T16:18:05Z</time>
      </trkpt>
      <trkpt lat="47.10705" lon="-1.4398">
        <ele>31.95</ele>
        <time>2020-05-14T16:18:08Z</time>
      </trkpt>
      <trkpt lat="47.10714" lon="-1.43974">
        <ele>32.11</ele>
        <time>2020-05-14T16:18:10Z</time>
      </trkpt>
      <trkpt lat="47.10725" lon="-1.43963">
        <ele>32.91</ele>
        <time>2020-05-14T16:18:13Z</time>
      </trkpt>
      <trkpt lat="47.10734" lon="-1.43955">
        <ele>32.54</ele>
        <time>2020-05-14T16:18:15Z</time>
      </trkpt>
      <trkpt lat="47.10742" lon="-1.43946">
        <ele>33.02</ele>
        <time>2020-05-14T16:18:17Z</time>
      </trkpt>
      <trkpt lat="47.10752" lon="-1.43936">
        <ele>32.48</ele>
        <time>2020-05-14T16:18:19Z</time>
      </trkpt>
      <trkpt lat="47.10763" lon="-1.43925">
        <ele>32.48</ele>
        <time>2020-05-14T16:18:22Z</time>
      </trkpt>
      <trkpt lat="47.10771" lon="-1.43919">
        <ele>31.79</ele>
        <time>2020-05-14T16:18:24Z</time>
      </trkpt>
      <trkpt lat="47.10782" lon="-1.43911">
        <ele>31.11</ele>
        <time>2020-05-14T16:18:27Z</time>
      </trkpt>
      <trkpt lat="47.10793" lon="-1.439">
        <ele>31.19</ele>
        <time>2020-05-14T16:18:30Z</time>
      </trkpt>
      <trkpt lat="47.10801" lon="-1.43893">
        <ele>30.05</ele>
        <time>2020-05-14T16:18:32Z</time>
      </trkpt>
      <trkpt lat="47.10809" lon="-1.43886">
        <ele>29.41</ele>
        <time>2020-05-14T16:18:35Z</time>
      </trkpt>
      <trkpt lat="47.10818" lon="-1.43878">
        <ele>29.75</ele>
        <time>2020-05-14T16:18:38Z</time>
      </trkpt>
      <trkpt lat="47.10828" lon="-1.4387">
        <ele>30.64</ele>
        <time>2020-05-14T16:18:41Z</time>
      </trkpt>
      <trkpt lat="47.10836" lon="-1.43863">
        <ele>31.43</ele>
        <time>2020-05-14T16:18:43Z</time>
      </trkpt>
      <trkpt lat="47.10844" lon="-1.43854">
        <ele>31.81</ele>
        <time>2020-05-14T16:18:45Z</time>
      </trkpt>
      <trkpt lat="47.10852" lon="-1.43846">
        <ele>31.28</ele>
        <time>2020-05-14T16:18:47Z</time>
      </trkpt>
      <trkpt lat="47.10862" lon="-1.43836">
        <ele>31.33</ele>
        <time>2020-05-14T16:18:50Z</time>
      </trkpt>
      <trkpt lat="47.10874" lon="-1.43827">
        <ele>32.18</ele>
        <time>2020-05-14T16:18:52Z</time>
      </trkpt>
      <trkpt lat="47.10883" lon="-1.43821">
        <ele>32.43</ele>
        <time>2020-05-14T16:18:54Z</time>
      </trkpt>
      <trkpt lat="47.10893" lon="-1.43811">
        <ele>32.35</ele>
        <time>2020-05-14T16:18:57Z</time>
      </trkpt>
      <trkpt lat="47.10903" lon="-1.438">
        <ele>33.44</ele>
        <time>2020-05-14T16:19:00Z</time>
      </trkpt>
      <trkpt lat="47.10911" lon="-1.43793">
        <ele>34.35</ele>
        <time>2020-05-14T16:19:02Z</time>
      </trkpt>
      <trkpt lat="47.10921" lon="-1.43783">
        <ele>35.73</ele>
        <time>2020-05-14T16:19:05Z</time>
      </trkpt>
      <trkpt lat="47.10928" lon="-1.43774">
        <ele>35.58</ele>
        <time>2020-05-14T16:19:07Z</time>
      </trkpt>
      <trkpt lat="47.10937" lon="-1.43764">
        <ele>36.51</ele>
        <time>2020-05-14T16:19:10Z</time>
      </trkpt>
      <trkpt lat="47.10944" lon="-1.43756">
        <ele>36.44</ele>
        <time>2020-05-14T16:19:12Z</time>
      </trkpt>
      <trkpt lat="47.10954" lon="-1.43746">
        <ele>35.41</ele>
        <time>2020-05-14T16:19:15Z</time>
      </trkpt>
      <trkpt lat="47.10962" lon="-1.43738">
        <ele>34.88</ele>
        <time>2020-05-14T16:19:17Z</time>
      </trkpt>
      <trkpt lat="47.10971" lon="-1.43727">
        <ele>34.65</ele>
        <time>2020-05-14T16:19:20Z</time>
      </trkpt>
      <trkpt lat="47.10981" lon="-1.43718">
        <ele>34.36</ele>
        <time>2020-05-14T16:19:23Z</time>
      </trkpt>
      <trkpt lat="47.10993" lon="-1.43706">
        <ele>33.33</ele>
        <time>2020-05-14T16:19:26Z</time>
      </trkpt>
      <trkpt lat="47.11" lon="-1.43697">
        <ele>32.61</ele>
        <time>2020-05-14T16:19:28Z</time>
      </trkpt>
      <trkpt lat="47.11008" lon="-1.43689">
        <ele>33.42</ele>
        <time>2020-05-14T16:19:30Z</time>
      </trkpt>
      <trkpt lat="47.11015" lon="-1.43681">
        <ele>34.27</ele>
        <time>2020-05-14T16:19:32Z</time>
      </trkpt>
      <trkpt lat="47.11023" lon="-1.43673">
        <ele>35.11</ele>
        <time>2020-05-14T16:19:34Z</time>
      </trkpt>
      <trkpt lat="47.1103" lon="-1.43664">
        <ele>35.7</ele>
        <time>2020-05-14T16:19:36Z</time>
      </trkpt>
      <trkpt lat="47.11039" lon="-1.43654">
        <ele>35.65</ele>
        <time>2020-05-14T16:19:39Z</time>
      </trkpt>
      <trkpt lat="47.11046" lon="-1.43643">
        <ele>35.3</ele>
        <time>2020-05-14T16:19:41Z</time>
      </trkpt>
      <trkpt lat="47.11056" lon="-1.43629">
        <ele>33.77</ele>
        <time>2020-05-14T16:19:44Z</time>
      </trkpt>
      <trkpt lat="47.11066" lon="-1.43618">
        <ele>32.74</ele>
        <time>2020-05-14T16:19:47Z</time>
      </trkpt>
      <trkpt lat="47.11074" lon="-1.43608">
        <ele>33.38</ele>
        <time>2020-05-14T16:19:50Z</time>
      </trkpt>
      <trkpt lat="47.1108" lon="-1.43599">
        <ele>34.14</ele>
        <time>2020-05-14T16:19:52Z</time>
      </trkpt>
      <trkpt lat="47.11092" lon="-1.43589">
        <ele>35.48</ele>
        <time>2020-05-14T16:19:55Z</time>
      </trkpt>
      <trkpt lat="47.111" lon="-1.43582">
        <ele>35.7</ele>
        <time>2020-05-14T16:19:57Z</time>
      </trkpt>
      <trkpt lat="47.11107" lon="-1.43574">
        <ele>35.78</ele>
        <time>2020-05-14T16:19:59Z</time>
      </trkpt>
      <trkpt lat="47.11115" lon="-1.43562">
        <ele>36.52</ele>
        <time>2020-05-14T16:20:02Z</time>
      </trkpt>
      <trkpt lat="47.11122" lon="-1.43549">
        <ele>38.22</ele>
        <time>2020-05-14T16:20:05Z</time>
      </trkpt>
      <trkpt lat="47.11129" lon="-1.43537">
        <ele>38.78</ele>
        <time>2020-05-14T16:20:07Z</time>
      </trkpt>
      <trkpt lat="47.11137" lon="-1.43523">
        <ele>39.08</ele>
        <time>2020-05-14T16:20:10Z</time>
      </trkpt>
      <trkpt lat="47.11145" lon="-1.43509">
        <ele>40.07</ele>
        <time>2020-05-14T16:20:13Z</time>
      </trkpt>
      <trkpt lat="47.11151" lon="-1.43499">
        <ele>41.9</ele>
        <time>2020-05-14T16:20:15Z</time>
      </trkpt>
      <trkpt lat="47.11158" lon="-1.43484">
        <ele>44.58</ele>
        <time>2020-05-14T16:20:18Z</time>
      </trkpt>
      <trkpt lat="47.11165" lon="-1.43473">
        <ele>45.63</ele>
        <time>2020-05-14T16:20:20Z</time>
      </trkpt>
      <trkpt lat="47.11172" lon="-1.4346">
        <ele>45.42</ele>
        <time>2020-05-14T16:20:23Z</time>
      </trkpt>
      <trkpt lat="47.1118" lon="-1.43446">
        <ele>44.68</ele>
        <time>2020-05-14T16:20:26Z</time>
      </trkpt>
      <trkpt lat="47.11187" lon="-1.43433">
        <ele>44.99</ele>
        <time>2020-05-14T16:20:29Z</time>
      </trkpt>
      <trkpt lat="47.11193" lon="-1.43422">
        <ele>45.62</ele>
        <time>2020-05-14T16:20:31Z</time>
      </trkpt>
      <trkpt lat="47.112" lon="-1.43411">
        <ele>45.82</ele>
        <time>2020-05-14T16:20:33Z</time>
      </trkpt>
      <trkpt lat="47.11206" lon="-1.434">
        <ele>45.62</ele>
        <time>2020-05-14T16:20:35Z</time>
      </trkpt>
      <trkpt lat="47.11214" lon="-1.43387">
        <ele>44.53</ele>
        <time>2020-05-14T16:20:38Z</time>
      </trkpt>
      <trkpt lat="47.11221" lon="-1.43376">
        <ele>43.62</ele>
        <time>2020-05-14T16:20:40Z</time>
      </trkpt>
      <trkpt lat="47.11228" lon="-1.43363">
        <ele>42.6</ele>
        <time>2020-05-14T16:20:43Z</time>
      </trkpt>
      <trkpt lat="47.11236" lon="-1.43349">
        <ele>42.12</ele>
        <time>2020-05-14T16:20:46Z</time>
      </trkpt>
      <trkpt lat="47.11242" lon="-1.4334">
        <ele>41.14</ele>
        <time>2020-05-14T16:20:48Z</time>
      </trkpt>
      <trkpt lat="47.11249" lon="-1.4333">
        <ele>40.06</ele>
        <time>2020-05-14T16:20:50Z</time>
      </trkpt>
      <trkpt lat="47.11257" lon="-1.43318">
        <ele>37.78</ele>
        <time>2020-05-14T16:20:53Z</time>
      </trkpt>
      <trkpt lat="47.11264" lon="-1.43308">
        <ele>37.1</ele>
        <time>2020-05-14T16:20:55Z</time>
      </trkpt>
      <trkpt lat="47.11271" lon="-1.43298">
        <ele>37.33</ele>
        <time>2020-05-14T16:20:57Z</time>
      </trkpt>
      <trkpt lat="47.11279" lon="-1.43289">
        <ele>38.46</ele>
        <time>2020-05-14T16:20:59Z</time>
      </trkpt>
      <trkpt lat="47.11287" lon="-1.43279">
        <ele>38.9</ele>
        <time>2020-05-14T16:21:01Z</time>
      </trkpt>
      <trkpt lat="47.11295" lon="-1.4327">
        <ele>39.9</ele>
        <time>2020-05-14T16:21:03Z</time>
      </trkpt>
      <trkpt lat="47.11303" lon="-1.43261">
        <ele>39.7</ele>
        <time>2020-05-14T16:21:05Z</time>
      </trkpt>
      <trkpt lat="47.11311" lon="-1.43251">
        <ele>40.01</ele>
        <time>2020-05-14T16:21:07Z</time>
      </trkpt>
      <trkpt lat="47.11321" lon="-1.4324">
        <ele>40.77</ele>
        <time>2020-05-14T16:21:10Z</time>
      </trkpt>
      <trkpt lat="47.11331" lon="-1.43229">
        <ele>40.04</ele>
        <time>2020-05-14T16:21:12Z</time>
      </trkpt>
      <trkpt lat="47.11339" lon="-1.4322">
        <ele>39</ele>
        <time>2020-05-14T16:21:14Z</time>
      </trkpt>
      <trkpt lat="47.11347" lon="-1.4321">
        <ele>39.15</ele>
        <time>2020-05-14T16:21:16Z</time>
      </trkpt>
      <trkpt lat="47.11354" lon="-1.43201">
        <ele>39.87</ele>
        <time>2020-05-14T16:21:18Z</time>
      </trkpt>
      <trkpt lat="47.11363" lon="-1.43191">
        <ele>40.04</ele>
        <time>2020-05-14T16:21:20Z</time>
      </trkpt>
      <trkpt lat="47.11371" lon="-1.4318">
        <ele>40.25</ele>
        <time>2020-05-14T16:21:22Z</time>
      </trkpt>
      <trkpt lat="47.11379" lon="-1.43171">
        <ele>39.71</ele>
        <time>2020-05-14T16:21:24Z</time>
      </trkpt>
      <trkpt lat="47.11386" lon="-1.43161">
        <ele>38.87</ele>
        <time>2020-05-14T16:21:26Z</time>
      </trkpt>
      <trkpt lat="47.11393" lon="-1.43152">
        <ele>38.02</ele>
        <time>2020-05-14T16:21:28Z</time>
      </trkpt>
      <trkpt lat="47.11402" lon="-1.4314">
        <ele>37.97</ele>
        <time>2020-05-14T16:21:30Z</time>
      </trkpt>
      <trkpt lat="47.11409" lon="-1.43129">
        <ele>38.75</ele>
        <time>2020-05-14T16:21:32Z</time>
      </trkpt>
      <trkpt lat="47.11416" lon="-1.4312">
        <ele>39.38</ele>
        <time>2020-05-14T16:21:34Z</time>
      </trkpt>
      <trkpt lat="47.11424" lon="-1.4311">
        <ele>40.32</ele>
        <time>2020-05-14T16:21:36Z</time>
      </trkpt>
      <trkpt lat="47.11434" lon="-1.43098">
        <ele>40.4</ele>
        <time>2020-05-14T16:21:38Z</time>
      </trkpt>
      <trkpt lat="47.11444" lon="-1.43088">
        <ele>39.86</ele>
        <time>2020-05-14T16:21:40Z</time>
      </trkpt>
      <trkpt lat="47.11454" lon="-1.43079">
        <ele>39.83</ele>
        <time>2020-05-14T16:21:42Z</time>
      </trkpt>
      <trkpt lat="47.11464" lon="-1.43069">
        <ele>38.37</ele>
        <time>2020-05-14T16:21:44Z</time>
      </trkpt>
      <trkpt lat="47.11476" lon="-1.43059">
        <ele>37.51</ele>
        <time>2020-05-14T16:21:46Z</time>
      </trkpt>
      <trkpt lat="47.11489" lon="-1.43048">
        <ele>37.05</ele>
        <time>2020-05-14T16:21:48Z</time>
      </trkpt>
      <trkpt lat="47.11501" lon="-1.43037">
        <ele>36.68</ele>
        <time>2020-05-14T16:21:50Z</time>
      </trkpt>
      <trkpt lat="47.11511" lon="-1.43026">
        <ele>36.17</ele>
        <time>2020-05-14T16:21:52Z</time>
      </trkpt>
      <trkpt lat="47.11522" lon="-1.43016">
        <ele>36.07</ele>
        <time>2020-05-14T16:21:54Z</time>
      </trkpt>
      <trkpt lat="47.11533" lon="-1.43006">
        <ele>36.22</ele>
        <time>2020-05-14T16:21:56Z</time>
      </trkpt>
      <trkpt lat="47.11545" lon="-1.42994">
        <ele>36</ele>
        <time>2020-05-14T16:21:58Z</time>
      </trkpt>
      <trkpt lat="47.11554" lon="-1.42985">
        <ele>36.14</ele>
        <time>2020-05-14T16:22:00Z</time>
      </trkpt>
      <trkpt lat="47.11565" lon="-1.42975">
        <ele>36.24</ele>
        <time>2020-05-14T16:22:02Z</time>
      </trkpt>
      <trkpt lat="47.11577" lon="-1.42964">
        <ele>35.95</ele>
        <time>2020-05-14T16:22:04Z</time>
      </trkpt>
      <trkpt lat="47.1159" lon="-1.42952">
        <ele>35.49</ele>
        <time>2020-05-14T16:22:06Z</time>
      </trkpt>
      <trkpt lat="47.11602" lon="-1.4294">
        <ele>34.71</ele>
        <time>2020-05-14T16:22:08Z</time>
      </trkpt>
      <trkpt lat="47.11614" lon="-1.42927">
        <ele>34.48</ele>
        <time>2020-05-14T16:22:10Z</time>
      </trkpt>
      <trkpt lat="47.11621" lon="-1.42919">
        <ele>33.8</ele>
        <time>2020-05-14T16:22:11Z</time>
      </trkpt>
      <trkpt lat="47.11631" lon="-1.42903">
        <ele>32.79</ele>
        <time>2020-05-14T16:22:13Z</time>
      </trkpt>
      <trkpt lat="47.11642" lon="-1.42884">
        <ele>31.42</ele>
        <time>2020-05-14T16:22:15Z</time>
      </trkpt>
      <trkpt lat="47.11649" lon="-1.4287">
        <ele>30.39</ele>
        <time>2020-05-14T16:22:17Z</time>
      </trkpt>
      <trkpt lat="47.11656" lon="-1.42852">
        <ele>29.92</ele>
        <time>2020-05-14T16:22:19Z</time>
      </trkpt>
      <trkpt lat="47.11662" lon="-1.42834">
        <ele>30.56</ele>
        <time>2020-05-14T16:22:21Z</time>
      </trkpt>
      <trkpt lat="47.11668" lon="-1.42818">
        <ele>30.11</ele>
        <time>2020-05-14T16:22:23Z</time>
      </trkpt>
      <trkpt lat="47.11674" lon="-1.42803">
        <ele>29.54</ele>
        <time>2020-05-14T16:22:25Z</time>
      </trkpt>
      <trkpt lat="47.11678" lon="-1.42789">
        <ele>29.74</ele>
        <time>2020-05-14T16:22:27Z</time>
      </trkpt>
      <trkpt lat="47.11682" lon="-1.42774">
        <ele>30.31</ele>
        <time>2020-05-14T16:22:29Z</time>
      </trkpt>
      <trkpt lat="47.11685" lon="-1.42761">
        <ele>31.18</ele>
        <time>2020-05-14T16:22:31Z</time>
      </trkpt>
      <trkpt lat="47.11689" lon="-1.42748">
        <ele>31.8</ele>
        <time>2020-05-14T16:22:33Z</time>
      </trkpt>
      <trkpt lat="47.11692" lon="-1.42731">
        <ele>32.29</ele>
        <time>2020-05-14T16:22:36Z</time>
      </trkpt>
      <trkpt lat="47.11696" lon="-1.42715">
        <ele>32.37</ele>
        <time>2020-05-14T16:22:40Z</time>
      </trkpt>
      <trkpt lat="47.11704" lon="-1.42702">
        <ele>32.4</ele>
        <time>2020-05-14T16:22:43Z</time>
      </trkpt>
      <trkpt lat="47.11713" lon="-1.42693">
        <ele>32.55</ele>
        <time>2020-05-14T16:22:46Z</time>
      </trkpt>
      <trkpt lat="47.11723" lon="-1.42686">
        <ele>33.13</ele>
        <time>2020-05-14T16:22:49Z</time>
      </trkpt>
      <trkpt lat="47.11732" lon="-1.4268">
        <ele>33.39</ele>
        <time>2020-05-14T16:22:52Z</time>
      </trkpt>
      <trkpt lat="47.11745" lon="-1.42673">
        <ele>33.57</ele>
        <time>2020-05-14T16:22:55Z</time>
      </trkpt>
      <trkpt lat="47.11755" lon="-1.42667">
        <ele>33.78</ele>
        <time>2020-05-14T16:22:58Z</time>
      </trkpt>
      <trkpt lat="47.11765" lon="-1.42662">
        <ele>34.06</ele>
        <time>2020-05-14T16:23:01Z</time>
      </trkpt>
      <trkpt lat="47.11775" lon="-1.42656">
        <ele>34.33</ele>
        <time>2020-05-14T16:23:04Z</time>
      </trkpt>
      <trkpt lat="47.11784" lon="-1.4265">
        <ele>34.43</ele>
        <time>2020-05-14T16:23:07Z</time>
      </trkpt>
      <trkpt lat="47.11796" lon="-1.42644">
        <ele>34.58</ele>
        <time>2020-05-14T16:23:10Z</time>
      </trkpt>
      <trkpt lat="47.11805" lon="-1.42637">
        <ele>35.02</ele>
        <time>2020-05-14T16:23:14Z</time>
      </trkpt>
      <trkpt lat="47.11815" lon="-1.42631">
        <ele>35.2</ele>
        <time>2020-05-14T16:23:17Z</time>
      </trkpt>
      <trkpt lat="47.11825" lon="-1.42625">
        <ele>35.42</ele>
        <time>2020-05-14T16:23:20Z</time>
      </trkpt>
      <trkpt lat="47.11835" lon="-1.42619">
        <ele>35.83</ele>
        <time>2020-05-14T16:23:24Z</time>
      </trkpt>
      <trkpt lat="47.11845" lon="-1.42613">
        <ele>36.33</ele>
        <time>2020-05-14T16:23:27Z</time>
      </trkpt>
      <trkpt lat="47.11856" lon="-1.42606">
        <ele>36.88</ele>
        <time>2020-05-14T16:23:30Z</time>
      </trkpt>
      <trkpt lat="47.11866" lon="-1.42597">
        <ele>37.42</ele>
        <time>2020-05-14T16:23:33Z</time>
      </trkpt>
      <trkpt lat="47.11877" lon="-1.42587">
        <ele>37.71</ele>
        <time>2020-05-14T16:23:36Z</time>
      </trkpt>
      <trkpt lat="47.11887" lon="-1.42577">
        <ele>38.29</ele>
        <time>2020-05-14T16:23:40Z</time>
      </trkpt>
      <trkpt lat="47.11897" lon="-1.42567">
        <ele>38.52</ele>
        <time>2020-05-14T16:23:43Z</time>
      </trkpt>
      <trkpt lat="47.11906" lon="-1.42559">
        <ele>38.78</ele>
        <time>2020-05-14T16:23:46Z</time>
      </trkpt>
      <trkpt lat="47.11915" lon="-1.42549">
        <ele>39.14</ele>
        <time>2020-05-14T16:23:49Z</time>
      </trkpt>
      <trkpt lat="47.11925" lon="-1.42539">
        <ele>39.42</ele>
        <time>2020-05-14T16:23:52Z</time>
      </trkpt>
      <trkpt lat="47.11932" lon="-1.42532">
        <ele>39.59</ele>
        <time>2020-05-14T16:23:54Z</time>
      </trkpt>
      <trkpt lat="47.11943" lon="-1.42521">
        <ele>39.92</ele>
        <time>2020-05-14T16:23:58Z</time>
      </trkpt>
      <trkpt lat="47.11953" lon="-1.42513">
        <ele>39.91</ele>
        <time>2020-05-14T16:24:01Z</time>
      </trkpt>
      <trkpt lat="47.11963" lon="-1.42503">
        <ele>40.13</ele>
        <time>2020-05-14T16:24:04Z</time>
      </trkpt>
      <trkpt lat="47.11973" lon="-1.42494">
        <ele>40.26</ele>
        <time>2020-05-14T16:24:08Z</time>
      </trkpt>
      <trkpt lat="47.11983" lon="-1.42484">
        <ele>40.45</ele>
        <time>2020-05-14T16:24:11Z</time>
      </trkpt>
      <trkpt lat="47.11993" lon="-1.42474">
        <ele>41.1</ele>
        <time>2020-05-14T16:24:14Z</time>
      </trkpt>
      <trkpt lat="47.12003" lon="-1.42465">
        <ele>41.87</ele>
        <time>2020-05-14T16:24:17Z</time>
      </trkpt>
      <trkpt lat="47.12011" lon="-1.42456">
        <ele>43.83</ele>
        <time>2020-05-14T16:24:20Z</time>
      </trkpt>
      <trkpt lat="47.12018" lon="-1.42449">
        <ele>45.11</ele>
        <time>2020-05-14T16:24:22Z</time>
      </trkpt>
      <trkpt lat="47.12028" lon="-1.42439">
        <ele>47.42</ele>
        <time>2020-05-14T16:24:25Z</time>
      </trkpt>
      <trkpt lat="47.12039" lon="-1.42428">
        <ele>47.43</ele>
        <time>2020-05-14T16:24:28Z</time>
      </trkpt>
      <trkpt lat="47.12047" lon="-1.42419">
        <ele>46.82</ele>
        <time>2020-05-14T16:24:31Z</time>
      </trkpt>
      <trkpt lat="47.12056" lon="-1.42405">
        <ele>44.85</ele>
        <time>2020-05-14T16:24:34Z</time>
      </trkpt>
      <trkpt lat="47.12063" lon="-1.42395">
        <ele>43.87</ele>
        <time>2020-05-14T16:24:36Z</time>
      </trkpt>
      <trkpt lat="47.12067" lon="-1.42383">
        <ele>43.63</ele>
        <time>2020-05-14T16:24:38Z</time>
      </trkpt>
      <trkpt lat="47.12072" lon="-1.42368">
        <ele>44.38</ele>
        <time>2020-05-14T16:24:40Z</time>
      </trkpt>
      <trkpt lat="47.12076" lon="-1.42354">
        <ele>44.3</ele>
        <time>2020-05-14T16:24:42Z</time>
      </trkpt>
      <trkpt lat="47.1208" lon="-1.4234">
        <ele>45.22</ele>
        <time>2020-05-14T16:24:44Z</time>
      </trkpt>
      <trkpt lat="47.12084" lon="-1.42324">
        <ele>45.78</ele>
        <time>2020-05-14T16:24:46Z</time>
      </trkpt>
      <trkpt lat="47.12088" lon="-1.42309">
        <ele>45.23</ele>
        <time>2020-05-14T16:24:48Z</time>
      </trkpt>
      <trkpt lat="47.12092" lon="-1.42296">
        <ele>45.39</ele>
        <time>2020-05-14T16:24:50Z</time>
      </trkpt>
      <trkpt lat="47.12097" lon="-1.42281">
        <ele>45.75</ele>
        <time>2020-05-14T16:24:52Z</time>
      </trkpt>
      <trkpt lat="47.12101" lon="-1.42268">
        <ele>46.05</ele>
        <time>2020-05-14T16:24:54Z</time>
      </trkpt>
      <trkpt lat="47.12106" lon="-1.42254">
        <ele>45.57</ele>
        <time>2020-05-14T16:24:56Z</time>
      </trkpt>
      <trkpt lat="47.1211" lon="-1.4224">
        <ele>45.13</ele>
        <time>2020-05-14T16:24:58Z</time>
      </trkpt>
      <trkpt lat="47.12115" lon="-1.42225">
        <ele>44.77</ele>
        <time>2020-05-14T16:25:00Z</time>
      </trkpt>
      <trkpt lat="47.12119" lon="-1.42212">
        <ele>44.52</ele>
        <time>2020-05-14T16:25:02Z</time>
      </trkpt>
      <trkpt lat="47.12124" lon="-1.42199">
        <ele>44.85</ele>
        <time>2020-05-14T16:25:04Z</time>
      </trkpt>
      <trkpt lat="47.12131" lon="-1.42187">
        <ele>44.86</ele>
        <time>2020-05-14T16:25:06Z</time>
      </trkpt>
      <trkpt lat="47.12138" lon="-1.42178">
        <ele>44.62</ele>
        <time>2020-05-14T16:25:08Z</time>
      </trkpt>
      <trkpt lat="47.12146" lon="-1.42169">
        <ele>45.05</ele>
        <time>2020-05-14T16:25:10Z</time>
      </trkpt>
      <trkpt lat="47.12157" lon="-1.42158">
        <ele>46.86</ele>
        <time>2020-05-14T16:25:13Z</time>
      </trkpt>
      <trkpt lat="47.12166" lon="-1.42153">
        <ele>47.12</ele>
        <time>2020-05-14T16:25:15Z</time>
      </trkpt>
      <trkpt lat="47.12175" lon="-1.42148">
        <ele>47.29</ele>
        <time>2020-05-14T16:25:17Z</time>
      </trkpt>
      <trkpt lat="47.12186" lon="-1.42142">
        <ele>47.27</ele>
        <time>2020-05-14T16:25:19Z</time>
      </trkpt>
      <trkpt lat="47.12195" lon="-1.42138">
        <ele>47.25</ele>
        <time>2020-05-14T16:25:21Z</time>
      </trkpt>
      <trkpt lat="47.12204" lon="-1.42133">
        <ele>47.17</ele>
        <time>2020-05-14T16:25:23Z</time>
      </trkpt>
      <trkpt lat="47.12214" lon="-1.42129">
        <ele>46.99</ele>
        <time>2020-05-14T16:25:25Z</time>
      </trkpt>
      <trkpt lat="47.12225" lon="-1.42123">
        <ele>46.57</ele>
        <time>2020-05-14T16:25:27Z</time>
      </trkpt>
      <trkpt lat="47.12234" lon="-1.42115">
        <ele>46.33</ele>
        <time>2020-05-14T16:25:29Z</time>
      </trkpt>
      <trkpt lat="47.12244" lon="-1.42106">
        <ele>46.15</ele>
        <time>2020-05-14T16:25:31Z</time>
      </trkpt>
      <trkpt lat="47.12253" lon="-1.42098">
        <ele>46.42</ele>
        <time>2020-05-14T16:25:33Z</time>
      </trkpt>
      <trkpt lat="47.12261" lon="-1.42091">
        <ele>46.97</ele>
        <time>2020-05-14T16:25:35Z</time>
      </trkpt>
      <trkpt lat="47.1227" lon="-1.42084">
        <ele>46.5</ele>
        <time>2020-05-14T16:25:37Z</time>
      </trkpt>
      <trkpt lat="47.1228" lon="-1.42077">
        <ele>47.24</ele>
        <time>2020-05-14T16:25:39Z</time>
      </trkpt>
      <trkpt lat="47.12288" lon="-1.42069">
        <ele>46.45</ele>
        <time>2020-05-14T16:25:41Z</time>
      </trkpt>
      <trkpt lat="47.12296" lon="-1.42062">
        <ele>45.6</ele>
        <time>2020-05-14T16:25:43Z</time>
      </trkpt>
      <trkpt lat="47.12306" lon="-1.42056">
        <ele>45.39</ele>
        <time>2020-05-14T16:25:45Z</time>
      </trkpt>
      <trkpt lat="47.12315" lon="-1.4205">
        <ele>44.78</ele>
        <time>2020-05-14T16:25:47Z</time>
      </trkpt>
      <trkpt lat="47.12324" lon="-1.42043">
        <ele>44.74</ele>
        <time>2020-05-14T16:25:49Z</time>
      </trkpt>
      <trkpt lat="47.12336" lon="-1.4205">
        <ele>45.38</ele>
        <time>2020-05-14T16:25:52Z</time>
      </trkpt>
      <trkpt lat="47.12346" lon="-1.42052">
        <ele>45.36</ele>
        <time>2020-05-14T16:25:54Z</time>
      </trkpt>
      <trkpt lat="47.12356" lon="-1.42044">
        <ele>45.27</ele>
        <time>2020-05-14T16:25:56Z</time>
      </trkpt>
      <trkpt lat="47.12365" lon="-1.42037">
        <ele>45.24</ele>
        <time>2020-05-14T16:25:58Z</time>
      </trkpt>
      <trkpt lat="47.12375" lon="-1.42029">
        <ele>45.29</ele>
        <time>2020-05-14T16:26:00Z</time>
      </trkpt>
      <trkpt lat="47.12384" lon="-1.42022">
        <ele>45.29</ele>
        <time>2020-05-14T16:26:02Z</time>
      </trkpt>
      <trkpt lat="47.12392" lon="-1.42016">
        <ele>45.36</ele>
        <time>2020-05-14T16:26:04Z</time>
      </trkpt>
      <trkpt lat="47.124" lon="-1.42008">
        <ele>45.98</ele>
        <time>2020-05-14T16:26:06Z</time>
      </trkpt>
      <trkpt lat="47.12409" lon="-1.41993">
        <ele>45.76</ele>
        <time>2020-05-14T16:26:08Z</time>
      </trkpt>
      <trkpt lat="47.12416" lon="-1.4198">
        <ele>44.92</ele>
        <time>2020-05-14T16:26:10Z</time>
      </trkpt>
      <trkpt lat="47.12422" lon="-1.41967">
        <ele>44.46</ele>
        <time>2020-05-14T16:26:12Z</time>
      </trkpt>
      <trkpt lat="47.1243" lon="-1.41953">
        <ele>44.9</ele>
        <time>2020-05-14T16:26:14Z</time>
      </trkpt>
      <trkpt lat="47.12439" lon="-1.41939">
        <ele>44.77</ele>
        <time>2020-05-14T16:26:16Z</time>
      </trkpt>
      <trkpt lat="47.12448" lon="-1.41926">
        <ele>44.89</ele>
        <time>2020-05-14T16:26:18Z</time>
      </trkpt>
      <trkpt lat="47.1246" lon="-1.41912">
        <ele>45.89</ele>
        <time>2020-05-14T16:26:20Z</time>
      </trkpt>
      <trkpt lat="47.1247" lon="-1.41902">
        <ele>46.8</ele>
        <time>2020-05-14T16:26:22Z</time>
      </trkpt>
      <trkpt lat="47.12482" lon="-1.4189">
        <ele>47.17</ele>
        <time>2020-05-14T16:26:24Z</time>
      </trkpt>
      <trkpt lat="47.12494" lon="-1.4188">
        <ele>45.92</ele>
        <time>2020-05-14T16:26:26Z</time>
      </trkpt>
      <trkpt lat="47.12505" lon="-1.41871">
        <ele>44.52</ele>
        <time>2020-05-14T16:26:28Z</time>
      </trkpt>
      <trkpt lat="47.12516" lon="-1.41865">
        <ele>44.52</ele>
        <time>2020-05-14T16:26:30Z</time>
      </trkpt>
      <trkpt lat="47.12528" lon="-1.41859">
        <ele>44.94</ele>
        <time>2020-05-14T16:26:32Z</time>
      </trkpt>
      <trkpt lat="47.12541" lon="-1.41854">
        <ele>44.25</ele>
        <time>2020-05-14T16:26:34Z</time>
      </trkpt>
      <trkpt lat="47.12555" lon="-1.41848">
        <ele>43.42</ele>
        <time>2020-05-14T16:26:36Z</time>
      </trkpt>
      <trkpt lat="47.12565" lon="-1.41838">
        <ele>43.14</ele>
        <time>2020-05-14T16:26:38Z</time>
      </trkpt>
      <trkpt lat="47.12571" lon="-1.4182">
        <ele>43.17</ele>
        <time>2020-05-14T16:26:40Z</time>
      </trkpt>
      <trkpt lat="47.12577" lon="-1.418">
        <ele>42.23</ele>
        <time>2020-05-14T16:26:42Z</time>
      </trkpt>
      <trkpt lat="47.12582" lon="-1.41777">
        <ele>41.42</ele>
        <time>2020-05-14T16:26:44Z</time>
      </trkpt>
      <trkpt lat="47.12588" lon="-1.41753">
        <ele>40.17</ele>
        <time>2020-05-14T16:26:46Z</time>
      </trkpt>
      <trkpt lat="47.126" lon="-1.41739">
        <ele>39.35</ele>
        <time>2020-05-14T16:26:48Z</time>
      </trkpt>
      <trkpt lat="47.12616" lon="-1.4173">
        <ele>37.84</ele>
        <time>2020-05-14T16:26:50Z</time>
      </trkpt>
      <trkpt lat="47.12633" lon="-1.41722">
        <ele>36.66</ele>
        <time>2020-05-14T16:26:52Z</time>
      </trkpt>
      <trkpt lat="47.12643" lon="-1.41719">
        <ele>36.29</ele>
        <time>2020-05-14T16:26:53Z</time>
      </trkpt>
      <trkpt lat="47.12652" lon="-1.41715">
        <ele>35.96</ele>
        <time>2020-05-14T16:26:54Z</time>
      </trkpt>
      <trkpt lat="47.12661" lon="-1.41709">
        <ele>35.8</ele>
        <time>2020-05-14T16:26:55Z</time>
      </trkpt>
      <trkpt lat="47.12669" lon="-1.41703">
        <ele>35.6</ele>
        <time>2020-05-14T16:26:56Z</time>
      </trkpt>
      <trkpt lat="47.12678" lon="-1.41696">
        <ele>35.24</ele>
        <time>2020-05-14T16:26:57Z</time>
      </trkpt>
      <trkpt lat="47.12686" lon="-1.41689">
        <ele>34.74</ele>
        <time>2020-05-14T16:26:58Z</time>
      </trkpt>
      <trkpt lat="47.12697" lon="-1.4168">
        <ele>33.85</ele>
        <time>2020-05-14T16:26:59Z</time>
      </trkpt>
      <trkpt lat="47.12705" lon="-1.41675">
        <ele>32.95</ele>
        <time>2020-05-14T16:27:00Z</time>
      </trkpt>
      <trkpt lat="47.12714" lon="-1.4167">
        <ele>31.89</ele>
        <time>2020-05-14T16:27:01Z</time>
      </trkpt>
      <trkpt lat="47.12725" lon="-1.41669">
        <ele>31</ele>
        <time>2020-05-14T16:27:02Z</time>
      </trkpt>
      <trkpt lat="47.12736" lon="-1.41668">
        <ele>30.33</ele>
        <time>2020-05-14T16:27:03Z</time>
      </trkpt>
      <trkpt lat="47.12754" lon="-1.41668">
        <ele>29.42</ele>
        <time>2020-05-14T16:27:05Z</time>
      </trkpt>
      <trkpt lat="47.12764" lon="-1.41667">
        <ele>29.49</ele>
        <time>2020-05-14T16:27:06Z</time>
      </trkpt>
      <trkpt lat="47.12776" lon="-1.41651">
        <ele>29.33</ele>
        <time>2020-05-14T16:27:08Z</time>
      </trkpt>
      <trkpt lat="47.1278" lon="-1.41639">
        <ele>28.68</ele>
        <time>2020-05-14T16:27:09Z</time>
      </trkpt>
      <trkpt lat="47.12779" lon="-1.41624">
        <ele>27.9</ele>
        <time>2020-05-14T16:27:10Z</time>
      </trkpt>
      <trkpt lat="47.12775" lon="-1.4161">
        <ele>27.21</ele>
        <time>2020-05-14T16:27:11Z</time>
      </trkpt>
      <trkpt lat="47.12768" lon="-1.41599">
        <ele>26.17</ele>
        <time>2020-05-14T16:27:12Z</time>
      </trkpt>
      <trkpt lat="47.1276" lon="-1.41592">
        <ele>25.13</ele>
        <time>2020-05-14T16:27:13Z</time>
      </trkpt>
      <trkpt lat="47.1275" lon="-1.4159">
        <ele>24.3</ele>
        <time>2020-05-14T16:27:14Z</time>
      </trkpt>
      <trkpt lat="47.12741" lon="-1.41592">
        <ele>23.52</ele>
        <time>2020-05-14T16:27:15Z</time>
      </trkpt>
      <trkpt lat="47.12722" lon="-1.41597">
        <ele>22.5</ele>
        <time>2020-05-14T16:27:17Z</time>
      </trkpt>
      <trkpt lat="47.12712" lon="-1.41595">
        <ele>21.76</ele>
        <time>2020-05-14T16:27:18Z</time>
      </trkpt>
      <trkpt lat="47.12695" lon="-1.41586">
        <ele>20.77</ele>
        <time>2020-05-14T16:27:20Z</time>
      </trkpt>
      <trkpt lat="47.12685" lon="-1.41579">
        <ele>20.12</ele>
        <time>2020-05-14T16:27:21Z</time>
      </trkpt>
      <trkpt lat="47.12675" lon="-1.41573">
        <ele>19.41</ele>
        <time>2020-05-14T16:27:22Z</time>
      </trkpt>
      <trkpt lat="47.12664" lon="-1.4157">
        <ele>18.4</ele>
        <time>2020-05-14T16:27:23Z</time>
      </trkpt>
      <trkpt lat="47.12655" lon="-1.41577">
        <ele>17.92</ele>
        <time>2020-05-14T16:27:24Z</time>
      </trkpt>
      <trkpt lat="47.12646" lon="-1.41584">
        <ele>17.52</ele>
        <time>2020-05-14T16:27:25Z</time>
      </trkpt>
      <trkpt lat="47.12628" lon="-1.41589">
        <ele>15.96</ele>
        <time>2020-05-14T16:27:27Z</time>
      </trkpt>
      <trkpt lat="47.12618" lon="-1.41585">
        <ele>15.34</ele>
        <time>2020-05-14T16:27:28Z</time>
      </trkpt>
      <trkpt lat="47.12609" lon="-1.4158">
        <ele>14.48</ele>
        <time>2020-05-14T16:27:29Z</time>
      </trkpt>
      <trkpt lat="47.12601" lon="-1.41568">
        <ele>13.62</ele>
        <time>2020-05-14T16:27:30Z</time>
      </trkpt>
      <trkpt lat="47.12593" lon="-1.41556">
        <ele>12.52</ele>
        <time>2020-05-14T16:27:31Z</time>
      </trkpt>
      <trkpt lat="47.12585" lon="-1.41543">
        <ele>11.58</ele>
        <time>2020-05-14T16:27:32Z</time>
      </trkpt>
      <trkpt lat="47.12577" lon="-1.41529">
        <ele>10.87</ele>
        <time>2020-05-14T16:27:33Z</time>
      </trkpt>
      <trkpt lat="47.1257" lon="-1.41517">
        <ele>9.72</ele>
        <time>2020-05-14T16:27:34Z</time>
      </trkpt>
      <trkpt lat="47.12558" lon="-1.41496">
        <ele>8.16</ele>
        <time>2020-05-14T16:27:36Z</time>
      </trkpt>
      <trkpt lat="47.12549" lon="-1.41478">
        <ele>7.04</ele>
        <time>2020-05-14T16:27:38Z</time>
      </trkpt>
      <trkpt lat="47.12538" lon="-1.41459">
        <ele>6.22</ele>
        <time>2020-05-14T16:27:40Z</time>
      </trkpt>
      <trkpt lat="47.12533" lon="-1.41448">
        <ele>5.74</ele>
        <time>2020-05-14T16:27:41Z</time>
      </trkpt>
      <trkpt lat="47.12525" lon="-1.41428">
        <ele>5.3</ele>
        <time>2020-05-14T16:27:43Z</time>
      </trkpt>
      <trkpt lat="47.12528" lon="-1.41411">
        <ele>5.24</ele>
        <time>2020-05-14T16:27:45Z</time>
      </trkpt>
      <trkpt lat="47.12535" lon="-1.41398">
        <ele>5.38</ele>
        <time>2020-05-14T16:27:47Z</time>
      </trkpt>
      <trkpt lat="47.12544" lon="-1.41386">
        <ele>6.23</ele>
        <time>2020-05-14T16:27:49Z</time>
      </trkpt>
      <trkpt lat="47.12551" lon="-1.41376">
        <ele>7.06</ele>
        <time>2020-05-14T16:27:51Z</time>
      </trkpt>
      <trkpt lat="47.12557" lon="-1.41366">
        <ele>7.95</ele>
        <time>2020-05-14T16:27:53Z</time>
      </trkpt>
      <trkpt lat="47.12567" lon="-1.41351">
        <ele>9.13</ele>
        <time>2020-05-14T16:27:56Z</time>
      </trkpt>
      <trkpt lat="47.12574" lon="-1.41341">
        <ele>9.36</ele>
        <time>2020-05-14T16:27:58Z</time>
      </trkpt>
      <trkpt lat="47.12581" lon="-1.41331">
        <ele>9.99</ele>
        <time>2020-05-14T16:28:01Z</time>
      </trkpt>
      <trkpt lat="47.12587" lon="-1.41317">
        <ele>11.4</ele>
        <time>2020-05-14T16:28:05Z</time>
      </trkpt>
      <trkpt lat="47.12595" lon="-1.41304">
        <ele>12.07</ele>
        <time>2020-05-14T16:28:08Z</time>
      </trkpt>
      <trkpt lat="47.12602" lon="-1.41293">
        <ele>12.28</ele>
        <time>2020-05-14T16:28:10Z</time>
      </trkpt>
      <trkpt lat="47.12611" lon="-1.41283">
        <ele>12.77</ele>
        <time>2020-05-14T16:28:13Z</time>
      </trkpt>
      <trkpt lat="47.12622" lon="-1.41278">
        <ele>14.41</ele>
        <time>2020-05-14T16:28:17Z</time>
      </trkpt>
      <trkpt lat="47.12632" lon="-1.41276">
        <ele>15.24</ele>
        <time>2020-05-14T16:28:20Z</time>
      </trkpt>
      <trkpt lat="47.12642" lon="-1.41272">
        <ele>15.66</ele>
        <time>2020-05-14T16:28:23Z</time>
      </trkpt>
      <trkpt lat="47.12651" lon="-1.41264">
        <ele>15.94</ele>
        <time>2020-05-14T16:28:26Z</time>
      </trkpt>
      <trkpt lat="47.12661" lon="-1.4126">
        <ele>16.27</ele>
        <time>2020-05-14T16:28:29Z</time>
      </trkpt>
      <trkpt lat="47.12671" lon="-1.41257">
        <ele>16.65</ele>
        <time>2020-05-14T16:28:32Z</time>
      </trkpt>
      <trkpt lat="47.12683" lon="-1.41252">
        <ele>16.92</ele>
        <time>2020-05-14T16:28:35Z</time>
      </trkpt>
      <trkpt lat="47.12696" lon="-1.41245">
        <ele>17.08</ele>
        <time>2020-05-14T16:28:38Z</time>
      </trkpt>
      <trkpt lat="47.12708" lon="-1.41236">
        <ele>17.44</ele>
        <time>2020-05-14T16:28:41Z</time>
      </trkpt>
      <trkpt lat="47.12718" lon="-1.41227">
        <ele>17.77</ele>
        <time>2020-05-14T16:28:44Z</time>
      </trkpt>
      <trkpt lat="47.12727" lon="-1.4122">
        <ele>18.91</ele>
        <time>2020-05-14T16:28:47Z</time>
      </trkpt>
      <trkpt lat="47.12736" lon="-1.41211">
        <ele>19.21</ele>
        <time>2020-05-14T16:28:50Z</time>
      </trkpt>
      <trkpt lat="47.12745" lon="-1.412">
        <ele>19.5</ele>
        <time>2020-05-14T16:28:53Z</time>
      </trkpt>
      <trkpt lat="47.12754" lon="-1.41185">
        <ele>19.95</ele>
        <time>2020-05-14T16:28:56Z</time>
      </trkpt>
      <trkpt lat="47.12762" lon="-1.4117">
        <ele>21.93</ele>
        <time>2020-05-14T16:28:59Z</time>
      </trkpt>
      <trkpt lat="47.12769" lon="-1.41155">
        <ele>23.03</ele>
        <time>2020-05-14T16:29:02Z</time>
      </trkpt>
      <trkpt lat="47.12777" lon="-1.41139">
        <ele>23.2</ele>
        <time>2020-05-14T16:29:05Z</time>
      </trkpt>
      <trkpt lat="47.12782" lon="-1.41128">
        <ele>23.27</ele>
        <time>2020-05-14T16:29:07Z</time>
      </trkpt>
      <trkpt lat="47.1279" lon="-1.41116">
        <ele>23.07</ele>
        <time>2020-05-14T16:29:10Z</time>
      </trkpt>
      <trkpt lat="47.12797" lon="-1.41106">
        <ele>23.35</ele>
        <time>2020-05-14T16:29:13Z</time>
      </trkpt>
      <trkpt lat="47.12803" lon="-1.41095">
        <ele>23.94</ele>
        <time>2020-05-14T16:29:16Z</time>
      </trkpt>
      <trkpt lat="47.1281" lon="-1.4108">
        <ele>25.1</ele>
        <time>2020-05-14T16:29:19Z</time>
      </trkpt>
      <trkpt lat="47.12815" lon="-1.41062">
        <ele>26</ele>
        <time>2020-05-14T16:29:22Z</time>
      </trkpt>
      <trkpt lat="47.12816" lon="-1.41047">
        <ele>26.29</ele>
        <time>2020-05-14T16:29:24Z</time>
      </trkpt>
      <trkpt lat="47.12812" lon="-1.41029">
        <ele>26.62</ele>
        <time>2020-05-14T16:29:27Z</time>
      </trkpt>
      <trkpt lat="47.12806" lon="-1.41014">
        <ele>26.37</ele>
        <time>2020-05-14T16:29:30Z</time>
      </trkpt>
      <trkpt lat="47.12799" lon="-1.41">
        <ele>27.96</ele>
        <time>2020-05-14T16:29:33Z</time>
      </trkpt>
      <trkpt lat="47.12792" lon="-1.40989">
        <ele>28.41</ele>
        <time>2020-05-14T16:29:36Z</time>
      </trkpt>
      <trkpt lat="47.12785" lon="-1.40974">
        <ele>28.85</ele>
        <time>2020-05-14T16:29:39Z</time>
      </trkpt>
      <trkpt lat="47.12779" lon="-1.40959">
        <ele>29.32</ele>
        <time>2020-05-14T16:29:42Z</time>
      </trkpt>
      <trkpt lat="47.12773" lon="-1.40945">
        <ele>29.86</ele>
        <time>2020-05-14T16:29:45Z</time>
      </trkpt>
      <trkpt lat="47.12765" lon="-1.40931">
        <ele>30.44</ele>
        <time>2020-05-14T16:29:48Z</time>
      </trkpt>
      <trkpt lat="47.12756" lon="-1.4092">
        <ele>34.07</ele>
        <time>2020-05-14T16:29:51Z</time>
      </trkpt>
      <trkpt lat="47.12743" lon="-1.40913">
        <ele>35.58</ele>
        <time>2020-05-14T16:29:54Z</time>
      </trkpt>
      <trkpt lat="47.1273" lon="-1.40909">
        <ele>38.41</ele>
        <time>2020-05-14T16:29:57Z</time>
      </trkpt>
      <trkpt lat="47.1272" lon="-1.40907">
        <ele>41.89</ele>
        <time>2020-05-14T16:30:00Z</time>
      </trkpt>
      <trkpt lat="47.12708" lon="-1.40905">
        <ele>42.9</ele>
        <time>2020-05-14T16:30:03Z</time>
      </trkpt>
      <trkpt lat="47.12699" lon="-1.40904">
        <ele>43.23</ele>
        <time>2020-05-14T16:30:05Z</time>
      </trkpt>
      <trkpt lat="47.12687" lon="-1.40902">
        <ele>44.52</ele>
        <time>2020-05-14T16:30:08Z</time>
      </trkpt>
      <trkpt lat="47.12676" lon="-1.40901">
        <ele>45.67</ele>
        <time>2020-05-14T16:30:11Z</time>
      </trkpt>
      <trkpt lat="47.12665" lon="-1.40899">
        <ele>46.4</ele>
        <time>2020-05-14T16:30:14Z</time>
      </trkpt>
      <trkpt lat="47.12656" lon="-1.40897">
        <ele>45.93</ele>
        <time>2020-05-14T16:30:16Z</time>
      </trkpt>
      <trkpt lat="47.12647" lon="-1.40896">
        <ele>46.03</ele>
        <time>2020-05-14T16:30:18Z</time>
      </trkpt>
      <trkpt lat="47.12634" lon="-1.40893">
        <ele>46.74</ele>
        <time>2020-05-14T16:30:21Z</time>
      </trkpt>
      <trkpt lat="47.12621" lon="-1.4089">
        <ele>48.12</ele>
        <time>2020-05-14T16:30:24Z</time>
      </trkpt>
      <trkpt lat="47.1261" lon="-1.40887">
        <ele>48.95</ele>
        <time>2020-05-14T16:30:26Z</time>
      </trkpt>
      <trkpt lat="47.12599" lon="-1.40885">
        <ele>49.32</ele>
        <time>2020-05-14T16:30:28Z</time>
      </trkpt>
      <trkpt lat="47.12587" lon="-1.40883">
        <ele>47.94</ele>
        <time>2020-05-14T16:30:30Z</time>
      </trkpt>
      <trkpt lat="47.12577" lon="-1.4088">
        <ele>47.3</ele>
        <time>2020-05-14T16:30:32Z</time>
      </trkpt>
      <trkpt lat="47.12565" lon="-1.40877">
        <ele>46.73</ele>
        <time>2020-05-14T16:30:34Z</time>
      </trkpt>
      <trkpt lat="47.12555" lon="-1.40874">
        <ele>46.61</ele>
        <time>2020-05-14T16:30:36Z</time>
      </trkpt>
      <trkpt lat="47.12543" lon="-1.40872">
        <ele>47.51</ele>
        <time>2020-05-14T16:30:38Z</time>
      </trkpt>
      <trkpt lat="47.12534" lon="-1.4087">
        <ele>47.69</ele>
        <time>2020-05-14T16:30:40Z</time>
      </trkpt>
      <trkpt lat="47.12524" lon="-1.40868">
        <ele>47.44</ele>
        <time>2020-05-14T16:30:42Z</time>
      </trkpt>
      <trkpt lat="47.12514" lon="-1.40866">
        <ele>47.54</ele>
        <time>2020-05-14T16:30:44Z</time>
      </trkpt>
      <trkpt lat="47.12503" lon="-1.40863">
        <ele>47.22</ele>
        <time>2020-05-14T16:30:46Z</time>
      </trkpt>
      <trkpt lat="47.12492" lon="-1.4086">
        <ele>48.13</ele>
        <time>2020-05-14T16:30:48Z</time>
      </trkpt>
      <trkpt lat="47.12482" lon="-1.40858">
        <ele>49.89</ele>
        <time>2020-05-14T16:30:50Z</time>
      </trkpt>
      <trkpt lat="47.12471" lon="-1.40856">
        <ele>50.94</ele>
        <time>2020-05-14T16:30:52Z</time>
      </trkpt>
      <trkpt lat="47.1246" lon="-1.40851">
        <ele>52.04</ele>
        <time>2020-05-14T16:30:54Z</time>
      </trkpt>
      <trkpt lat="47.12449" lon="-1.40846">
        <ele>52.27</ele>
        <time>2020-05-14T16:30:56Z</time>
      </trkpt>
      <trkpt lat="47.12438" lon="-1.40838">
        <ele>51.17</ele>
        <time>2020-05-14T16:30:58Z</time>
      </trkpt>
      <trkpt lat="47.12427" lon="-1.40828">
        <ele>50.07</ele>
        <time>2020-05-14T16:31:00Z</time>
      </trkpt>
      <trkpt lat="47.12418" lon="-1.40817">
        <ele>49.55</ele>
        <time>2020-05-14T16:31:02Z</time>
      </trkpt>
      <trkpt lat="47.12411" lon="-1.40806">
        <ele>49.89</ele>
        <time>2020-05-14T16:31:04Z</time>
      </trkpt>
      <trkpt lat="47.12404" lon="-1.40794">
        <ele>51.24</ele>
        <time>2020-05-14T16:31:06Z</time>
      </trkpt>
      <trkpt lat="47.12399" lon="-1.40782">
        <ele>51.75</ele>
        <time>2020-05-14T16:31:08Z</time>
      </trkpt>
      <trkpt lat="47.12391" lon="-1.4077">
        <ele>53.23</ele>
        <time>2020-05-14T16:31:10Z</time>
      </trkpt>
      <trkpt lat="47.12383" lon="-1.40757">
        <ele>53.54</ele>
        <time>2020-05-14T16:31:12Z</time>
      </trkpt>
      <trkpt lat="47.12376" lon="-1.40746">
        <ele>54.17</ele>
        <time>2020-05-14T16:31:14Z</time>
      </trkpt>
      <trkpt lat="47.12368" lon="-1.40734">
        <ele>54.64</ele>
        <time>2020-05-14T16:31:16Z</time>
      </trkpt>
      <trkpt lat="47.1236" lon="-1.40721">
        <ele>54.38</ele>
        <time>2020-05-14T16:31:18Z</time>
      </trkpt>
      <trkpt lat="47.12351" lon="-1.40711">
        <ele>53.95</ele>
        <time>2020-05-14T16:31:20Z</time>
      </trkpt>
      <trkpt lat="47.12339" lon="-1.407">
        <ele>53.8</ele>
        <time>2020-05-14T16:31:22Z</time>
      </trkpt>
      <trkpt lat="47.12327" lon="-1.40692">
        <ele>54.93</ele>
        <time>2020-05-14T16:31:24Z</time>
      </trkpt>
      <trkpt lat="47.12316" lon="-1.40687">
        <ele>55.82</ele>
        <time>2020-05-14T16:31:26Z</time>
      </trkpt>
      <trkpt lat="47.12304" lon="-1.40682">
        <ele>56.91</ele>
        <time>2020-05-14T16:31:28Z</time>
      </trkpt>
      <trkpt lat="47.12292" lon="-1.40675">
        <ele>57.97</ele>
        <time>2020-05-14T16:31:30Z</time>
      </trkpt>
      <trkpt lat="47.12282" lon="-1.40666">
        <ele>58.41</ele>
        <time>2020-05-14T16:31:32Z</time>
      </trkpt>
      <trkpt lat="47.12273" lon="-1.40651">
        <ele>58.44</ele>
        <time>2020-05-14T16:31:34Z</time>
      </trkpt>
      <trkpt lat="47.12267" lon="-1.40635">
        <ele>57.96</ele>
        <time>2020-05-14T16:31:36Z</time>
      </trkpt>
      <trkpt lat="47.12262" lon="-1.4062">
        <ele>58</ele>
        <time>2020-05-14T16:31:38Z</time>
      </trkpt>
      <trkpt lat="47.12255" lon="-1.40603">
        <ele>58.14</ele>
        <time>2020-05-14T16:31:40Z</time>
      </trkpt>
      <trkpt lat="47.12249" lon="-1.40587">
        <ele>58.73</ele>
        <time>2020-05-14T16:31:42Z</time>
      </trkpt>
      <trkpt lat="47.12243" lon="-1.40572">
        <ele>58.8</ele>
        <time>2020-05-14T16:31:44Z</time>
      </trkpt>
      <trkpt lat="47.12237" lon="-1.40555">
        <ele>58.38</ele>
        <time>2020-05-14T16:31:46Z</time>
      </trkpt>
      <trkpt lat="47.12232" lon="-1.40539">
        <ele>57.46</ele>
        <time>2020-05-14T16:31:48Z</time>
      </trkpt>
      <trkpt lat="47.12228" lon="-1.40523">
        <ele>56.41</ele>
        <time>2020-05-14T16:31:50Z</time>
      </trkpt>
      <trkpt lat="47.12224" lon="-1.40506">
        <ele>55.77</ele>
        <time>2020-05-14T16:31:52Z</time>
      </trkpt>
      <trkpt lat="47.1222" lon="-1.40489">
        <ele>55.16</ele>
        <time>2020-05-14T16:31:54Z</time>
      </trkpt>
      <trkpt lat="47.12217" lon="-1.4047">
        <ele>54.03</ele>
        <time>2020-05-14T16:31:56Z</time>
      </trkpt>
      <trkpt lat="47.12214" lon="-1.40454">
        <ele>52.99</ele>
        <time>2020-05-14T16:31:58Z</time>
      </trkpt>
      <trkpt lat="47.12211" lon="-1.40436">
        <ele>52.9</ele>
        <time>2020-05-14T16:32:00Z</time>
      </trkpt>
      <trkpt lat="47.12208" lon="-1.40421">
        <ele>53.44</ele>
        <time>2020-05-14T16:32:02Z</time>
      </trkpt>
      <trkpt lat="47.12204" lon="-1.40404">
        <ele>53.68</ele>
        <time>2020-05-14T16:32:04Z</time>
      </trkpt>
      <trkpt lat="47.122" lon="-1.40389">
        <ele>54.3</ele>
        <time>2020-05-14T16:32:06Z</time>
      </trkpt>
      <trkpt lat="47.12198" lon="-1.40375">
        <ele>53.83</ele>
        <time>2020-05-14T16:32:08Z</time>
      </trkpt>
      <trkpt lat="47.12194" lon="-1.40356">
        <ele>53.2</ele>
        <time>2020-05-14T16:32:10Z</time>
      </trkpt>
      <trkpt lat="47.12192" lon="-1.40343">
        <ele>53.31</ele>
        <time>2020-05-14T16:32:12Z</time>
      </trkpt>
      <trkpt lat="47.12189" lon="-1.40324">
        <ele>53.22</ele>
        <time>2020-05-14T16:32:15Z</time>
      </trkpt>
      <trkpt lat="47.12187" lon="-1.40306">
        <ele>52.57</ele>
        <time>2020-05-14T16:32:18Z</time>
      </trkpt>
      <trkpt lat="47.12196" lon="-1.40294">
        <ele>52.73</ele>
        <time>2020-05-14T16:32:25Z</time>
      </trkpt>
      <trkpt lat="47.12206" lon="-1.40289">
        <ele>53.1</ele>
        <time>2020-05-14T16:32:27Z</time>
      </trkpt>
      <trkpt lat="47.12219" lon="-1.40283">
        <ele>53.15</ele>
        <time>2020-05-14T16:32:30Z</time>
      </trkpt>
      <trkpt lat="47.12229" lon="-1.40278">
        <ele>52.57</ele>
        <time>2020-05-14T16:32:32Z</time>
      </trkpt>
      <trkpt lat="47.12239" lon="-1.40273">
        <ele>52.08</ele>
        <time>2020-05-14T16:32:34Z</time>
      </trkpt>
      <trkpt lat="47.12249" lon="-1.40269">
        <ele>51.82</ele>
        <time>2020-05-14T16:32:36Z</time>
      </trkpt>
      <trkpt lat="47.12261" lon="-1.40263">
        <ele>52.01</ele>
        <time>2020-05-14T16:32:38Z</time>
      </trkpt>
      <trkpt lat="47.12272" lon="-1.40258">
        <ele>51.59</ele>
        <time>2020-05-14T16:32:40Z</time>
      </trkpt>
      <trkpt lat="47.12281" lon="-1.40254">
        <ele>52.41</ele>
        <time>2020-05-14T16:32:42Z</time>
      </trkpt>
      <trkpt lat="47.1229" lon="-1.4025">
        <ele>52.64</ele>
        <time>2020-05-14T16:32:44Z</time>
      </trkpt>
      <trkpt lat="47.12301" lon="-1.40246">
        <ele>52.44</ele>
        <time>2020-05-14T16:32:46Z</time>
      </trkpt>
      <trkpt lat="47.12312" lon="-1.40241">
        <ele>52.04</ele>
        <time>2020-05-14T16:32:48Z</time>
      </trkpt>
      <trkpt lat="47.12324" lon="-1.40235">
        <ele>51.92</ele>
        <time>2020-05-14T16:32:50Z</time>
      </trkpt>
      <trkpt lat="47.12335" lon="-1.40229">
        <ele>51.42</ele>
        <time>2020-05-14T16:32:52Z</time>
      </trkpt>
      <trkpt lat="47.12347" lon="-1.40224">
        <ele>50.52</ele>
        <time>2020-05-14T16:32:54Z</time>
      </trkpt>
      <trkpt lat="47.12358" lon="-1.40219">
        <ele>50.09</ele>
        <time>2020-05-14T16:32:56Z</time>
      </trkpt>
      <trkpt lat="47.12369" lon="-1.40214">
        <ele>50.75</ele>
        <time>2020-05-14T16:32:58Z</time>
      </trkpt>
      <trkpt lat="47.12382" lon="-1.40208">
        <ele>50.46</ele>
        <time>2020-05-14T16:33:00Z</time>
      </trkpt>
      <trkpt lat="47.12393" lon="-1.40203">
        <ele>50.24</ele>
        <time>2020-05-14T16:33:02Z</time>
      </trkpt>
      <trkpt lat="47.12406" lon="-1.40197">
        <ele>48.76</ele>
        <time>2020-05-14T16:33:04Z</time>
      </trkpt>
      <trkpt lat="47.12418" lon="-1.40191">
        <ele>47.59</ele>
        <time>2020-05-14T16:33:06Z</time>
      </trkpt>
      <trkpt lat="47.12432" lon="-1.40184">
        <ele>45.99</ele>
        <time>2020-05-14T16:33:08Z</time>
      </trkpt>
      <trkpt lat="47.12444" lon="-1.40179">
        <ele>44.29</ele>
        <time>2020-05-14T16:33:10Z</time>
      </trkpt>
      <trkpt lat="47.12457" lon="-1.40173">
        <ele>43.79</ele>
        <time>2020-05-14T16:33:12Z</time>
      </trkpt>
      <trkpt lat="47.1247" lon="-1.40168">
        <ele>43.64</ele>
        <time>2020-05-14T16:33:14Z</time>
      </trkpt>
      <trkpt lat="47.12483" lon="-1.40162">
        <ele>42.89</ele>
        <time>2020-05-14T16:33:16Z</time>
      </trkpt>
      <trkpt lat="47.12496" lon="-1.40156">
        <ele>43.05</ele>
        <time>2020-05-14T16:33:18Z</time>
      </trkpt>
      <trkpt lat="47.12508" lon="-1.40152">
        <ele>44.05</ele>
        <time>2020-05-14T16:33:20Z</time>
      </trkpt>
      <trkpt lat="47.12521" lon="-1.40149">
        <ele>44.26</ele>
        <time>2020-05-14T16:33:22Z</time>
      </trkpt>
      <trkpt lat="47.12534" lon="-1.40149">
        <ele>44.24</ele>
        <time>2020-05-14T16:33:24Z</time>
      </trkpt>
      <trkpt lat="47.12548" lon="-1.4015">
        <ele>43.82</ele>
        <time>2020-05-14T16:33:26Z</time>
      </trkpt>
      <trkpt lat="47.1256" lon="-1.40152">
        <ele>43.25</ele>
        <time>2020-05-14T16:33:28Z</time>
      </trkpt>
      <trkpt lat="47.12573" lon="-1.40156">
        <ele>43.22</ele>
        <time>2020-05-14T16:33:30Z</time>
      </trkpt>
      <trkpt lat="47.12586" lon="-1.40161">
        <ele>43.58</ele>
        <time>2020-05-14T16:33:32Z</time>
      </trkpt>
      <trkpt lat="47.12598" lon="-1.40166">
        <ele>43.29</ele>
        <time>2020-05-14T16:33:34Z</time>
      </trkpt>
      <trkpt lat="47.12611" lon="-1.40167">
        <ele>42.91</ele>
        <time>2020-05-14T16:33:36Z</time>
      </trkpt>
      <trkpt lat="47.12625" lon="-1.40167">
        <ele>43.26</ele>
        <time>2020-05-14T16:33:38Z</time>
      </trkpt>
      <trkpt lat="47.12638" lon="-1.40165">
        <ele>43.88</ele>
        <time>2020-05-14T16:33:40Z</time>
      </trkpt>
      <trkpt lat="47.12651" lon="-1.40162">
        <ele>43.36</ele>
        <time>2020-05-14T16:33:42Z</time>
      </trkpt>
      <trkpt lat="47.12666" lon="-1.40159">
        <ele>41.87</ele>
        <time>2020-05-14T16:33:44Z</time>
      </trkpt>
      <trkpt lat="47.12679" lon="-1.40156">
        <ele>40.14</ele>
        <time>2020-05-14T16:33:46Z</time>
      </trkpt>
      <trkpt lat="47.12693" lon="-1.4015">
        <ele>38.68</ele>
        <time>2020-05-14T16:33:48Z</time>
      </trkpt>
      <trkpt lat="47.12705" lon="-1.4014">
        <ele>38.15</ele>
        <time>2020-05-14T16:33:50Z</time>
      </trkpt>
      <trkpt lat="47.12715" lon="-1.40132">
        <ele>38.38</ele>
        <time>2020-05-14T16:33:52Z</time>
      </trkpt>
      <trkpt lat="47.12729" lon="-1.4012">
        <ele>38.89</ele>
        <time>2020-05-14T16:33:54Z</time>
      </trkpt>
      <trkpt lat="47.12741" lon="-1.40107">
        <ele>39.53</ele>
        <time>2020-05-14T16:33:56Z</time>
      </trkpt>
      <trkpt lat="47.12751" lon="-1.40096">
        <ele>40.26</ele>
        <time>2020-05-14T16:33:58Z</time>
      </trkpt>
      <trkpt lat="47.12762" lon="-1.40085">
        <ele>40.38</ele>
        <time>2020-05-14T16:34:00Z</time>
      </trkpt>
      <trkpt lat="47.12773" lon="-1.40074">
        <ele>40.92</ele>
        <time>2020-05-14T16:34:02Z</time>
      </trkpt>
      <trkpt lat="47.12785" lon="-1.40062">
        <ele>41.66</ele>
        <time>2020-05-14T16:34:04Z</time>
      </trkpt>
      <trkpt lat="47.12796" lon="-1.40052">
        <ele>42.46</ele>
        <time>2020-05-14T16:34:06Z</time>
      </trkpt>
      <trkpt lat="47.12808" lon="-1.4004">
        <ele>42.21</ele>
        <time>2020-05-14T16:34:08Z</time>
      </trkpt>
      <trkpt lat="47.1282" lon="-1.40029">
        <ele>41.9</ele>
        <time>2020-05-14T16:34:10Z</time>
      </trkpt>
      <trkpt lat="47.12831" lon="-1.40018">
        <ele>41.51</ele>
        <time>2020-05-14T16:34:12Z</time>
      </trkpt>
      <trkpt lat="47.12841" lon="-1.40008">
        <ele>40.9</ele>
        <time>2020-05-14T16:34:14Z</time>
      </trkpt>
      <trkpt lat="47.1285" lon="-1.39999">
        <ele>41.13</ele>
        <time>2020-05-14T16:34:16Z</time>
      </trkpt>
      <trkpt lat="47.1286" lon="-1.39989">
        <ele>41.29</ele>
        <time>2020-05-14T16:34:18Z</time>
      </trkpt>
      <trkpt lat="47.1287" lon="-1.39979">
        <ele>41.41</ele>
        <time>2020-05-14T16:34:20Z</time>
      </trkpt>
      <trkpt lat="47.1288" lon="-1.39971">
        <ele>41.94</ele>
        <time>2020-05-14T16:34:22Z</time>
      </trkpt>
      <trkpt lat="47.1289" lon="-1.39963">
        <ele>41.48</ele>
        <time>2020-05-14T16:34:24Z</time>
      </trkpt>
      <trkpt lat="47.12901" lon="-1.39956">
        <ele>41.5</ele>
        <time>2020-05-14T16:34:26Z</time>
      </trkpt>
      <trkpt lat="47.12914" lon="-1.39948">
        <ele>41.12</ele>
        <time>2020-05-14T16:34:28Z</time>
      </trkpt>
      <trkpt lat="47.12925" lon="-1.39942">
        <ele>41.63</ele>
        <time>2020-05-14T16:34:30Z</time>
      </trkpt>
      <trkpt lat="47.12937" lon="-1.39938">
        <ele>41.55</ele>
        <time>2020-05-14T16:34:32Z</time>
      </trkpt>
      <trkpt lat="47.12948" lon="-1.39934">
        <ele>42.37</ele>
        <time>2020-05-14T16:34:34Z</time>
      </trkpt>
      <trkpt lat="47.12958" lon="-1.3993">
        <ele>42.97</ele>
        <time>2020-05-14T16:34:36Z</time>
      </trkpt>
      <trkpt lat="47.12967" lon="-1.39926">
        <ele>43.96</ele>
        <time>2020-05-14T16:34:38Z</time>
      </trkpt>
      <trkpt lat="47.12977" lon="-1.39921">
        <ele>43.96</ele>
        <time>2020-05-14T16:34:40Z</time>
      </trkpt>
      <trkpt lat="47.12985" lon="-1.39912">
        <ele>43.93</ele>
        <time>2020-05-14T16:34:42Z</time>
      </trkpt>
      <trkpt lat="47.12993" lon="-1.39901">
        <ele>43.72</ele>
        <time>2020-05-14T16:34:45Z</time>
      </trkpt>
      <trkpt lat="47.13003" lon="-1.39901">
        <ele>43.59</ele>
        <time>2020-05-14T16:34:49Z</time>
      </trkpt>
      <trkpt lat="47.1301" lon="-1.39914">
        <ele>43.24</ele>
        <time>2020-05-14T16:34:51Z</time>
      </trkpt>
      <trkpt lat="47.13016" lon="-1.39928">
        <ele>42.94</ele>
        <time>2020-05-14T16:34:53Z</time>
      </trkpt>
      <trkpt lat="47.13023" lon="-1.39941">
        <ele>41.53</ele>
        <time>2020-05-14T16:34:55Z</time>
      </trkpt>
      <trkpt lat="47.13031" lon="-1.39952">
        <ele>41.46</ele>
        <time>2020-05-14T16:34:57Z</time>
      </trkpt>
      <trkpt lat="47.13041" lon="-1.39965">
        <ele>40.67</ele>
        <time>2020-05-14T16:34:59Z</time>
      </trkpt>
      <trkpt lat="47.13053" lon="-1.39978">
        <ele>40.47</ele>
        <time>2020-05-14T16:35:01Z</time>
      </trkpt>
      <trkpt lat="47.13066" lon="-1.3999">
        <ele>40.22</ele>
        <time>2020-05-14T16:35:03Z</time>
      </trkpt>
      <trkpt lat="47.13079" lon="-1.39999">
        <ele>40.57</ele>
        <time>2020-05-14T16:35:05Z</time>
      </trkpt>
      <trkpt lat="47.13093" lon="-1.40007">
        <ele>40.58</ele>
        <time>2020-05-14T16:35:07Z</time>
      </trkpt>
      <trkpt lat="47.13106" lon="-1.40013">
        <ele>40.7</ele>
        <time>2020-05-14T16:35:09Z</time>
      </trkpt>
      <trkpt lat="47.13119" lon="-1.40019">
        <ele>40.96</ele>
        <time>2020-05-14T16:35:11Z</time>
      </trkpt>
      <trkpt lat="47.13131" lon="-1.40023">
        <ele>40.6</ele>
        <time>2020-05-14T16:35:13Z</time>
      </trkpt>
      <trkpt lat="47.13142" lon="-1.40029">
        <ele>41.33</ele>
        <time>2020-05-14T16:35:15Z</time>
      </trkpt>
      <trkpt lat="47.13155" lon="-1.40034">
        <ele>41.43</ele>
        <time>2020-05-14T16:35:17Z</time>
      </trkpt>
      <trkpt lat="47.13168" lon="-1.4004">
        <ele>41.28</ele>
        <time>2020-05-14T16:35:19Z</time>
      </trkpt>
      <trkpt lat="47.13178" lon="-1.40046">
        <ele>40.91</ele>
        <time>2020-05-14T16:35:21Z</time>
      </trkpt>
      <trkpt lat="47.1319" lon="-1.40054">
        <ele>40.98</ele>
        <time>2020-05-14T16:35:23Z</time>
      </trkpt>
      <trkpt lat="47.13201" lon="-1.40061">
        <ele>40.29</ele>
        <time>2020-05-14T16:35:25Z</time>
      </trkpt>
      <trkpt lat="47.13213" lon="-1.40069">
        <ele>40.4</ele>
        <time>2020-05-14T16:35:27Z</time>
      </trkpt>
      <trkpt lat="47.13225" lon="-1.40078">
        <ele>40.31</ele>
        <time>2020-05-14T16:35:29Z</time>
      </trkpt>
      <trkpt lat="47.13236" lon="-1.40087">
        <ele>39.94</ele>
        <time>2020-05-14T16:35:31Z</time>
      </trkpt>
      <trkpt lat="47.13247" lon="-1.40096">
        <ele>40.26</ele>
        <time>2020-05-14T16:35:33Z</time>
      </trkpt>
      <trkpt lat="47.13258" lon="-1.40106">
        <ele>40.64</ele>
        <time>2020-05-14T16:35:35Z</time>
      </trkpt>
      <trkpt lat="47.13269" lon="-1.40115">
        <ele>41.24</ele>
        <time>2020-05-14T16:35:37Z</time>
      </trkpt>
      <trkpt lat="47.1328" lon="-1.40124">
        <ele>41.56</ele>
        <time>2020-05-14T16:35:39Z</time>
      </trkpt>
      <trkpt lat="47.1329" lon="-1.40132">
        <ele>41.85</ele>
        <time>2020-05-14T16:35:41Z</time>
      </trkpt>
      <trkpt lat="47.133" lon="-1.40141">
        <ele>42.16</ele>
        <time>2020-05-14T16:35:43Z</time>
      </trkpt>
      <trkpt lat="47.13309" lon="-1.40149">
        <ele>42.05</ele>
        <time>2020-05-14T16:35:45Z</time>
      </trkpt>
      <trkpt lat="47.13318" lon="-1.40157">
        <ele>41.79</ele>
        <time>2020-05-14T16:35:47Z</time>
      </trkpt>
      <trkpt lat="47.13328" lon="-1.40165">
        <ele>40.45</ele>
        <time>2020-05-14T16:35:49Z</time>
      </trkpt>
      <trkpt lat="47.13338" lon="-1.40172">
        <ele>40.18</ele>
        <time>2020-05-14T16:35:51Z</time>
      </trkpt>
      <trkpt lat="47.13351" lon="-1.4018">
        <ele>40.69</ele>
        <time>2020-05-14T16:35:53Z</time>
      </trkpt>
      <trkpt lat="47.13362" lon="-1.40183">
        <ele>41.36</ele>
        <time>2020-05-14T16:35:55Z</time>
      </trkpt>
      <trkpt lat="47.13373" lon="-1.40186">
        <ele>41.18</ele>
        <time>2020-05-14T16:35:57Z</time>
      </trkpt>
      <trkpt lat="47.13384" lon="-1.40186">
        <ele>40.5</ele>
        <time>2020-05-14T16:35:59Z</time>
      </trkpt>
      <trkpt lat="47.13395" lon="-1.40186">
        <ele>40.42</ele>
        <time>2020-05-14T16:36:01Z</time>
      </trkpt>
      <trkpt lat="47.13405" lon="-1.40185">
        <ele>40.59</ele>
        <time>2020-05-14T16:36:03Z</time>
      </trkpt>
      <trkpt lat="47.13417" lon="-1.40184">
        <ele>39.72</ele>
        <time>2020-05-14T16:36:05Z</time>
      </trkpt>
      <trkpt lat="47.13427" lon="-1.40184">
        <ele>40.17</ele>
        <time>2020-05-14T16:36:07Z</time>
      </trkpt>
      <trkpt lat="47.13437" lon="-1.40185">
        <ele>41.33</ele>
        <time>2020-05-14T16:36:09Z</time>
      </trkpt>
      <trkpt lat="47.13447" lon="-1.40187">
        <ele>41.56</ele>
        <time>2020-05-14T16:36:11Z</time>
      </trkpt>
      <trkpt lat="47.13457" lon="-1.40191">
        <ele>41.81</ele>
        <time>2020-05-14T16:36:13Z</time>
      </trkpt>
      <trkpt lat="47.13468" lon="-1.40196">
        <ele>42.24</ele>
        <time>2020-05-14T16:36:15Z</time>
      </trkpt>
      <trkpt lat="47.13478" lon="-1.40201">
        <ele>42.19</ele>
        <time>2020-05-14T16:36:17Z</time>
      </trkpt>
      <trkpt lat="47.13488" lon="-1.40206">
        <ele>41.24</ele>
        <time>2020-05-14T16:36:19Z</time>
      </trkpt>
      <trkpt lat="47.13497" lon="-1.40211">
        <ele>41.58</ele>
        <time>2020-05-14T16:36:21Z</time>
      </trkpt>
      <trkpt lat="47.13507" lon="-1.40215">
        <ele>42.18</ele>
        <time>2020-05-14T16:36:23Z</time>
      </trkpt>
      <trkpt lat="47.13517" lon="-1.4022">
        <ele>42.09</ele>
        <time>2020-05-14T16:36:25Z</time>
      </trkpt>
      <trkpt lat="47.13526" lon="-1.40225">
        <ele>41.69</ele>
        <time>2020-05-14T16:36:27Z</time>
      </trkpt>
      <trkpt lat="47.13535" lon="-1.40229">
        <ele>41.14</ele>
        <time>2020-05-14T16:36:29Z</time>
      </trkpt>
      <trkpt lat="47.13544" lon="-1.40232">
        <ele>40.49</ele>
        <time>2020-05-14T16:36:31Z</time>
      </trkpt>
      <trkpt lat="47.13553" lon="-1.40237">
        <ele>40.04</ele>
        <time>2020-05-14T16:36:33Z</time>
      </trkpt>
      <trkpt lat="47.13562" lon="-1.40242">
        <ele>40.52</ele>
        <time>2020-05-14T16:36:35Z</time>
      </trkpt>
      <trkpt lat="47.13574" lon="-1.40248">
        <ele>40.68</ele>
        <time>2020-05-14T16:36:38Z</time>
      </trkpt>
      <trkpt lat="47.13584" lon="-1.40252">
        <ele>41.19</ele>
        <time>2020-05-14T16:36:40Z</time>
      </trkpt>
      <trkpt lat="47.13594" lon="-1.40257">
        <ele>41.08</ele>
        <time>2020-05-14T16:36:42Z</time>
      </trkpt>
      <trkpt lat="47.13605" lon="-1.40261">
        <ele>40.67</ele>
        <time>2020-05-14T16:36:44Z</time>
      </trkpt>
      <trkpt lat="47.13614" lon="-1.40266">
        <ele>40.64</ele>
        <time>2020-05-14T16:36:46Z</time>
      </trkpt>
      <trkpt lat="47.13624" lon="-1.4027">
        <ele>41.26</ele>
        <time>2020-05-14T16:36:48Z</time>
      </trkpt>
      <trkpt lat="47.13634" lon="-1.40275">
        <ele>41.43</ele>
        <time>2020-05-14T16:36:50Z</time>
      </trkpt>
      <trkpt lat="47.13645" lon="-1.40279">
        <ele>41.45</ele>
        <time>2020-05-14T16:36:52Z</time>
      </trkpt>
      <trkpt lat="47.13655" lon="-1.40281">
        <ele>41.31</ele>
        <time>2020-05-14T16:36:54Z</time>
      </trkpt>
      <trkpt lat="47.13665" lon="-1.40283">
        <ele>41.66</ele>
        <time>2020-05-14T16:36:56Z</time>
      </trkpt>
      <trkpt lat="47.13675" lon="-1.40283">
        <ele>41.88</ele>
        <time>2020-05-14T16:36:58Z</time>
      </trkpt>
      <trkpt lat="47.13684" lon="-1.40282">
        <ele>41.49</ele>
        <time>2020-05-14T16:37:00Z</time>
      </trkpt>
      <trkpt lat="47.13694" lon="-1.4028">
        <ele>40.16</ele>
        <time>2020-05-14T16:37:02Z</time>
      </trkpt>
      <trkpt lat="47.13703" lon="-1.40278">
        <ele>39.58</ele>
        <time>2020-05-14T16:37:04Z</time>
      </trkpt>
      <trkpt lat="47.13714" lon="-1.40277">
        <ele>38.76</ele>
        <time>2020-05-14T16:37:06Z</time>
      </trkpt>
      <trkpt lat="47.13724" lon="-1.40275">
        <ele>38.66</ele>
        <time>2020-05-14T16:37:08Z</time>
      </trkpt>
      <trkpt lat="47.13734" lon="-1.40273">
        <ele>37.88</ele>
        <time>2020-05-14T16:37:10Z</time>
      </trkpt>
      <trkpt lat="47.13744" lon="-1.40271">
        <ele>37.28</ele>
        <time>2020-05-14T16:37:12Z</time>
      </trkpt>
      <trkpt lat="47.13754" lon="-1.40269">
        <ele>37.88</ele>
        <time>2020-05-14T16:37:14Z</time>
      </trkpt>
      <trkpt lat="47.13764" lon="-1.40267">
        <ele>38.41</ele>
        <time>2020-05-14T16:37:16Z</time>
      </trkpt>
      <trkpt lat="47.13774" lon="-1.40266">
        <ele>38.56</ele>
        <time>2020-05-14T16:37:18Z</time>
      </trkpt>
      <trkpt lat="47.13787" lon="-1.40263">
        <ele>36.76</ele>
        <time>2020-05-14T16:37:20Z</time>
      </trkpt>
      <trkpt lat="47.13798" lon="-1.40261">
        <ele>34.56</ele>
        <time>2020-05-14T16:37:22Z</time>
      </trkpt>
      <trkpt lat="47.13807" lon="-1.40259">
        <ele>33.73</ele>
        <time>2020-05-14T16:37:24Z</time>
      </trkpt>
      <trkpt lat="47.13817" lon="-1.40258">
        <ele>34.27</ele>
        <time>2020-05-14T16:37:26Z</time>
      </trkpt>
      <trkpt lat="47.13826" lon="-1.40256">
        <ele>35.06</ele>
        <time>2020-05-14T16:37:28Z</time>
      </trkpt>
      <trkpt lat="47.13837" lon="-1.40255">
        <ele>36.16</ele>
        <time>2020-05-14T16:37:30Z</time>
      </trkpt>
      <trkpt lat="47.13848" lon="-1.40252">
        <ele>37.01</ele>
        <time>2020-05-14T16:37:32Z</time>
      </trkpt>
      <trkpt lat="47.13859" lon="-1.4025">
        <ele>36.75</ele>
        <time>2020-05-14T16:37:34Z</time>
      </trkpt>
      <trkpt lat="47.13868" lon="-1.40248">
        <ele>36.61</ele>
        <time>2020-05-14T16:37:36Z</time>
      </trkpt>
      <trkpt lat="47.13879" lon="-1.40246">
        <ele>36.58</ele>
        <time>2020-05-14T16:37:38Z</time>
      </trkpt>
      <trkpt lat="47.13889" lon="-1.40245">
        <ele>36.81</ele>
        <time>2020-05-14T16:37:39Z</time>
      </trkpt>
      <trkpt lat="47.13899" lon="-1.40244">
        <ele>37.17</ele>
        <time>2020-05-14T16:37:41Z</time>
      </trkpt>
      <trkpt lat="47.1391" lon="-1.40245">
        <ele>37.17</ele>
        <time>2020-05-14T16:37:43Z</time>
      </trkpt>
      <trkpt lat="47.1392" lon="-1.40247">
        <ele>37.65</ele>
        <time>2020-05-14T16:37:45Z</time>
      </trkpt>
      <trkpt lat="47.13931" lon="-1.4025">
        <ele>37.5</ele>
        <time>2020-05-14T16:37:47Z</time>
      </trkpt>
      <trkpt lat="47.1394" lon="-1.40253">
        <ele>37.73</ele>
        <time>2020-05-14T16:37:49Z</time>
      </trkpt>
      <trkpt lat="47.13951" lon="-1.40258">
        <ele>38.26</ele>
        <time>2020-05-14T16:37:51Z</time>
      </trkpt>
      <trkpt lat="47.1396" lon="-1.40263">
        <ele>38.96</ele>
        <time>2020-05-14T16:37:53Z</time>
      </trkpt>
      <trkpt lat="47.1397" lon="-1.40269">
        <ele>39.47</ele>
        <time>2020-05-14T16:37:55Z</time>
      </trkpt>
      <trkpt lat="47.13981" lon="-1.40275">
        <ele>39.19</ele>
        <time>2020-05-14T16:37:57Z</time>
      </trkpt>
      <trkpt lat="47.13991" lon="-1.40282">
        <ele>39.68</ele>
        <time>2020-05-14T16:37:59Z</time>
      </trkpt>
      <trkpt lat="47.14" lon="-1.4029">
        <ele>40.29</ele>
        <time>2020-05-14T16:38:01Z</time>
      </trkpt>
      <trkpt lat="47.14009" lon="-1.403">
        <ele>40.24</ele>
        <time>2020-05-14T16:38:03Z</time>
      </trkpt>
      <trkpt lat="47.14016" lon="-1.40312">
        <ele>39.46</ele>
        <time>2020-05-14T16:38:05Z</time>
      </trkpt>
      <trkpt lat="47.14023" lon="-1.40324">
        <ele>39.54</ele>
        <time>2020-05-14T16:38:07Z</time>
      </trkpt>
      <trkpt lat="47.14031" lon="-1.40338">
        <ele>40.26</ele>
        <time>2020-05-14T16:38:09Z</time>
      </trkpt>
      <trkpt lat="47.14038" lon="-1.40352">
        <ele>41.06</ele>
        <time>2020-05-14T16:38:11Z</time>
      </trkpt>
      <trkpt lat="47.14045" lon="-1.4037">
        <ele>42.39</ele>
        <time>2020-05-14T16:38:13Z</time>
      </trkpt>
      <trkpt lat="47.1405" lon="-1.40388">
        <ele>43.21</ele>
        <time>2020-05-14T16:38:15Z</time>
      </trkpt>
      <trkpt lat="47.14056" lon="-1.40407">
        <ele>42.96</ele>
        <time>2020-05-14T16:38:17Z</time>
      </trkpt>
      <trkpt lat="47.14062" lon="-1.40425">
        <ele>42.32</ele>
        <time>2020-05-14T16:38:19Z</time>
      </trkpt>
      <trkpt lat="47.14067" lon="-1.4044">
        <ele>41.25</ele>
        <time>2020-05-14T16:38:21Z</time>
      </trkpt>
      <trkpt lat="47.14073" lon="-1.40454">
        <ele>40.53</ele>
        <time>2020-05-14T16:38:23Z</time>
      </trkpt>
      <trkpt lat="47.14081" lon="-1.4047">
        <ele>40.42</ele>
        <time>2020-05-14T16:38:25Z</time>
      </trkpt>
      <trkpt lat="47.14089" lon="-1.40484">
        <ele>40.32</ele>
        <time>2020-05-14T16:38:27Z</time>
      </trkpt>
      <trkpt lat="47.14098" lon="-1.40498">
        <ele>40.98</ele>
        <time>2020-05-14T16:38:29Z</time>
      </trkpt>
      <trkpt lat="47.14107" lon="-1.4051">
        <ele>40.97</ele>
        <time>2020-05-14T16:38:31Z</time>
      </trkpt>
      <trkpt lat="47.14117" lon="-1.40523">
        <ele>40.7</ele>
        <time>2020-05-14T16:38:33Z</time>
      </trkpt>
      <trkpt lat="47.14126" lon="-1.40535">
        <ele>40.9</ele>
        <time>2020-05-14T16:38:35Z</time>
      </trkpt>
      <trkpt lat="47.14136" lon="-1.40549">
        <ele>39.07</ele>
        <time>2020-05-14T16:38:37Z</time>
      </trkpt>
      <trkpt lat="47.14146" lon="-1.40563">
        <ele>38.17</ele>
        <time>2020-05-14T16:38:39Z</time>
      </trkpt>
      <trkpt lat="47.14155" lon="-1.40574">
        <ele>37.74</ele>
        <time>2020-05-14T16:38:41Z</time>
      </trkpt>
      <trkpt lat="47.14164" lon="-1.40585">
        <ele>36.77</ele>
        <time>2020-05-14T16:38:43Z</time>
      </trkpt>
      <trkpt lat="47.14172" lon="-1.40597">
        <ele>36.45</ele>
        <time>2020-05-14T16:38:45Z</time>
      </trkpt>
      <trkpt lat="47.14183" lon="-1.40611">
        <ele>36.14</ele>
        <time>2020-05-14T16:38:47Z</time>
      </trkpt>
      <trkpt lat="47.14192" lon="-1.40625">
        <ele>35.93</ele>
        <time>2020-05-14T16:38:49Z</time>
      </trkpt>
      <trkpt lat="47.14202" lon="-1.40639">
        <ele>36.4</ele>
        <time>2020-05-14T16:38:51Z</time>
      </trkpt>
      <trkpt lat="47.14211" lon="-1.40651">
        <ele>36.18</ele>
        <time>2020-05-14T16:38:53Z</time>
      </trkpt>
      <trkpt lat="47.14221" lon="-1.40665">
        <ele>36.29</ele>
        <time>2020-05-14T16:38:55Z</time>
      </trkpt>
      <trkpt lat="47.14229" lon="-1.40677">
        <ele>36.63</ele>
        <time>2020-05-14T16:38:57Z</time>
      </trkpt>
      <trkpt lat="47.14237" lon="-1.40691">
        <ele>36.67</ele>
        <time>2020-05-14T16:38:59Z</time>
      </trkpt>
      <trkpt lat="47.14246" lon="-1.40705">
        <ele>36.95</ele>
        <time>2020-05-14T16:39:01Z</time>
      </trkpt>
      <trkpt lat="47.14255" lon="-1.40721">
        <ele>35.8</ele>
        <time>2020-05-14T16:39:03Z</time>
      </trkpt>
      <trkpt lat="47.14264" lon="-1.40738">
        <ele>35.03</ele>
        <time>2020-05-14T16:39:05Z</time>
      </trkpt>
      <trkpt lat="47.14272" lon="-1.40752">
        <ele>34.39</ele>
        <time>2020-05-14T16:39:07Z</time>
      </trkpt>
      <trkpt lat="47.1428" lon="-1.40767">
        <ele>34.39</ele>
        <time>2020-05-14T16:39:09Z</time>
      </trkpt>
      <trkpt lat="47.14288" lon="-1.40783">
        <ele>34.63</ele>
        <time>2020-05-14T16:39:11Z</time>
      </trkpt>
      <trkpt lat="47.14297" lon="-1.408">
        <ele>35.29</ele>
        <time>2020-05-14T16:39:13Z</time>
      </trkpt>
      <trkpt lat="47.14305" lon="-1.40815">
        <ele>36.05</ele>
        <time>2020-05-14T16:39:15Z</time>
      </trkpt>
      <trkpt lat="47.14313" lon="-1.4083">
        <ele>36.72</ele>
        <time>2020-05-14T16:39:17Z</time>
      </trkpt>
      <trkpt lat="47.1432" lon="-1.40845">
        <ele>37.54</ele>
        <time>2020-05-14T16:39:19Z</time>
      </trkpt>
      <trkpt lat="47.14327" lon="-1.40858">
        <ele>37.47</ele>
        <time>2020-05-14T16:39:21Z</time>
      </trkpt>
      <trkpt lat="47.14335" lon="-1.40873">
        <ele>37.58</ele>
        <time>2020-05-14T16:39:23Z</time>
      </trkpt>
      <trkpt lat="47.14343" lon="-1.40887">
        <ele>38.08</ele>
        <time>2020-05-14T16:39:25Z</time>
      </trkpt>
      <trkpt lat="47.14351" lon="-1.40902">
        <ele>38.16</ele>
        <time>2020-05-14T16:39:27Z</time>
      </trkpt>
      <trkpt lat="47.14359" lon="-1.40915">
        <ele>37.82</ele>
        <time>2020-05-14T16:39:29Z</time>
      </trkpt>
      <trkpt lat="47.14367" lon="-1.40927">
        <ele>37.31</ele>
        <time>2020-05-14T16:39:31Z</time>
      </trkpt>
      <trkpt lat="47.14375" lon="-1.4094">
        <ele>37.1</ele>
        <time>2020-05-14T16:39:33Z</time>
      </trkpt>
      <trkpt lat="47.14381" lon="-1.4095">
        <ele>37.45</ele>
        <time>2020-05-14T16:39:35Z</time>
      </trkpt>
      <trkpt lat="47.14388" lon="-1.40963">
        <ele>37.54</ele>
        <time>2020-05-14T16:39:37Z</time>
      </trkpt>
      <trkpt lat="47.14395" lon="-1.40976">
        <ele>37.69</ele>
        <time>2020-05-14T16:39:39Z</time>
      </trkpt>
      <trkpt lat="47.144" lon="-1.40988">
        <ele>37.82</ele>
        <time>2020-05-14T16:39:41Z</time>
      </trkpt>
      <trkpt lat="47.14408" lon="-1.41008">
        <ele>38.84</ele>
        <time>2020-05-14T16:39:44Z</time>
      </trkpt>
      <trkpt lat="47.14411" lon="-1.41023">
        <ele>40.25</ele>
        <time>2020-05-14T16:39:46Z</time>
      </trkpt>
      <trkpt lat="47.14413" lon="-1.41039">
        <ele>40.9</ele>
        <time>2020-05-14T16:39:48Z</time>
      </trkpt>
      <trkpt lat="47.14413" lon="-1.41054">
        <ele>40.56</ele>
        <time>2020-05-14T16:39:50Z</time>
      </trkpt>
      <trkpt lat="47.14412" lon="-1.41075">
        <ele>40.43</ele>
        <time>2020-05-14T16:39:52Z</time>
      </trkpt>
      <trkpt lat="47.1441" lon="-1.41092">
        <ele>40.5</ele>
        <time>2020-05-14T16:39:54Z</time>
      </trkpt>
      <trkpt lat="47.14409" lon="-1.41108">
        <ele>40.05</ele>
        <time>2020-05-14T16:39:56Z</time>
      </trkpt>
      <trkpt lat="47.14408" lon="-1.41127">
        <ele>39.63</ele>
        <time>2020-05-14T16:39:58Z</time>
      </trkpt>
      <trkpt lat="47.14407" lon="-1.41144">
        <ele>39</ele>
        <time>2020-05-14T16:40:00Z</time>
      </trkpt>
      <trkpt lat="47.14406" lon="-1.4116">
        <ele>37.11</ele>
        <time>2020-05-14T16:40:02Z</time>
      </trkpt>
      <trkpt lat="47.14405" lon="-1.41177">
        <ele>36.06</ele>
        <time>2020-05-14T16:40:04Z</time>
      </trkpt>
      <trkpt lat="47.14404" lon="-1.41195">
        <ele>35.75</ele>
        <time>2020-05-14T16:40:06Z</time>
      </trkpt>
      <trkpt lat="47.14403" lon="-1.41213">
        <ele>36.6</ele>
        <time>2020-05-14T16:40:08Z</time>
      </trkpt>
      <trkpt lat="47.14402" lon="-1.41232">
        <ele>37.49</ele>
        <time>2020-05-14T16:40:10Z</time>
      </trkpt>
      <trkpt lat="47.14401" lon="-1.41251">
        <ele>37.87</ele>
        <time>2020-05-14T16:40:12Z</time>
      </trkpt>
      <trkpt lat="47.14401" lon="-1.41266">
        <ele>37.31</ele>
        <time>2020-05-14T16:40:14Z</time>
      </trkpt>
      <trkpt lat="47.144" lon="-1.41284">
        <ele>37.51</ele>
        <time>2020-05-14T16:40:16Z</time>
      </trkpt>
      <trkpt lat="47.144" lon="-1.41301">
        <ele>37.05</ele>
        <time>2020-05-14T16:40:18Z</time>
      </trkpt>
      <trkpt lat="47.14399" lon="-1.41319">
        <ele>37.01</ele>
        <time>2020-05-14T16:40:20Z</time>
      </trkpt>
      <trkpt lat="47.14398" lon="-1.41335">
        <ele>36.1</ele>
        <time>2020-05-14T16:40:22Z</time>
      </trkpt>
      <trkpt lat="47.14398" lon="-1.4135">
        <ele>35.12</ele>
        <time>2020-05-14T16:40:24Z</time>
      </trkpt>
      <trkpt lat="47.14399" lon="-1.41365">
        <ele>35.57</ele>
        <time>2020-05-14T16:40:26Z</time>
      </trkpt>
      <trkpt lat="47.14399" lon="-1.41385">
        <ele>35.92</ele>
        <time>2020-05-14T16:40:28Z</time>
      </trkpt>
      <trkpt lat="47.144" lon="-1.41401">
        <ele>35.73</ele>
        <time>2020-05-14T16:40:30Z</time>
      </trkpt>
      <trkpt lat="47.14399" lon="-1.41416">
        <ele>37.05</ele>
        <time>2020-05-14T16:40:32Z</time>
      </trkpt>
      <trkpt lat="47.144" lon="-1.41432">
        <ele>38.33</ele>
        <time>2020-05-14T16:40:34Z</time>
      </trkpt>
      <trkpt lat="47.144" lon="-1.4145">
        <ele>38.39</ele>
        <time>2020-05-14T16:40:36Z</time>
      </trkpt>
      <trkpt lat="47.144" lon="-1.41471">
        <ele>38</ele>
        <time>2020-05-14T16:40:38Z</time>
      </trkpt>
      <trkpt lat="47.144" lon="-1.4149">
        <ele>37.27</ele>
        <time>2020-05-14T16:40:40Z</time>
      </trkpt>
      <trkpt lat="47.144" lon="-1.41507">
        <ele>35.63</ele>
        <time>2020-05-14T16:40:42Z</time>
      </trkpt>
      <trkpt lat="47.14401" lon="-1.41523">
        <ele>34.81</ele>
        <time>2020-05-14T16:40:44Z</time>
      </trkpt>
      <trkpt lat="47.14402" lon="-1.41537">
        <ele>33.92</ele>
        <time>2020-05-14T16:40:46Z</time>
      </trkpt>
      <trkpt lat="47.14403" lon="-1.41558">
        <ele>34.9</ele>
        <time>2020-05-14T16:40:48Z</time>
      </trkpt>
      <trkpt lat="47.14403" lon="-1.41576">
        <ele>35.74</ele>
        <time>2020-05-14T16:40:50Z</time>
      </trkpt>
      <trkpt lat="47.14402" lon="-1.4159">
        <ele>36.64</ele>
        <time>2020-05-14T16:40:52Z</time>
      </trkpt>
      <trkpt lat="47.14399" lon="-1.41603">
        <ele>36.47</ele>
        <time>2020-05-14T16:40:54Z</time>
      </trkpt>
      <trkpt lat="47.14396" lon="-1.41618">
        <ele>36.24</ele>
        <time>2020-05-14T16:40:56Z</time>
      </trkpt>
      <trkpt lat="47.14391" lon="-1.41633">
        <ele>37.17</ele>
        <time>2020-05-14T16:40:58Z</time>
      </trkpt>
      <trkpt lat="47.14387" lon="-1.4165">
        <ele>38.67</ele>
        <time>2020-05-14T16:41:00Z</time>
      </trkpt>
      <trkpt lat="47.14385" lon="-1.41667">
        <ele>39.95</ele>
        <time>2020-05-14T16:41:02Z</time>
      </trkpt>
      <trkpt lat="47.14388" lon="-1.41684">
        <ele>40.57</ele>
        <time>2020-05-14T16:41:04Z</time>
      </trkpt>
      <trkpt lat="47.14393" lon="-1.41703">
        <ele>40.07</ele>
        <time>2020-05-14T16:41:06Z</time>
      </trkpt>
      <trkpt lat="47.14399" lon="-1.41719">
        <ele>39.6</ele>
        <time>2020-05-14T16:41:08Z</time>
      </trkpt>
      <trkpt lat="47.14404" lon="-1.41739">
        <ele>39.39</ele>
        <time>2020-05-14T16:41:10Z</time>
      </trkpt>
      <trkpt lat="47.14408" lon="-1.41761">
        <ele>38.6</ele>
        <time>2020-05-14T16:41:12Z</time>
      </trkpt>
      <trkpt lat="47.14411" lon="-1.41783">
        <ele>37.09</ele>
        <time>2020-05-14T16:41:14Z</time>
      </trkpt>
      <trkpt lat="47.14413" lon="-1.41809">
        <ele>34.75</ele>
        <time>2020-05-14T16:41:16Z</time>
      </trkpt>
      <trkpt lat="47.14414" lon="-1.41836">
        <ele>33.05</ele>
        <time>2020-05-14T16:41:18Z</time>
      </trkpt>
      <trkpt lat="47.14415" lon="-1.41859">
        <ele>32.05</ele>
        <time>2020-05-14T16:41:20Z</time>
      </trkpt>
      <trkpt lat="47.14419" lon="-1.41882">
        <ele>31.59</ele>
        <time>2020-05-14T16:41:22Z</time>
      </trkpt>
      <trkpt lat="47.14423" lon="-1.41904">
        <ele>31.43</ele>
        <time>2020-05-14T16:41:24Z</time>
      </trkpt>
      <trkpt lat="47.14428" lon="-1.41927">
        <ele>31.83</ele>
        <time>2020-05-14T16:41:26Z</time>
      </trkpt>
      <trkpt lat="47.14433" lon="-1.4195">
        <ele>32.37</ele>
        <time>2020-05-14T16:41:28Z</time>
      </trkpt>
      <trkpt lat="47.14436" lon="-1.41963">
        <ele>32.71</ele>
        <time>2020-05-14T16:41:29Z</time>
      </trkpt>
      <trkpt lat="47.14441" lon="-1.41986">
        <ele>32.63</ele>
        <time>2020-05-14T16:41:31Z</time>
      </trkpt>
      <trkpt lat="47.14446" lon="-1.42009">
        <ele>32.46</ele>
        <time>2020-05-14T16:41:33Z</time>
      </trkpt>
      <trkpt lat="47.14452" lon="-1.42032">
        <ele>31.91</ele>
        <time>2020-05-14T16:41:35Z</time>
      </trkpt>
      <trkpt lat="47.14456" lon="-1.42044">
        <ele>31.48</ele>
        <time>2020-05-14T16:41:36Z</time>
      </trkpt>
      <trkpt lat="47.14464" lon="-1.42066">
        <ele>30.53</ele>
        <time>2020-05-14T16:41:38Z</time>
      </trkpt>
      <trkpt lat="47.14473" lon="-1.42088">
        <ele>29.46</ele>
        <time>2020-05-14T16:41:40Z</time>
      </trkpt>
      <trkpt lat="47.14478" lon="-1.42099">
        <ele>28.72</ele>
        <time>2020-05-14T16:41:41Z</time>
      </trkpt>
      <trkpt lat="47.14484" lon="-1.4211">
        <ele>27.71</ele>
        <time>2020-05-14T16:41:42Z</time>
      </trkpt>
      <trkpt lat="47.14489" lon="-1.42123">
        <ele>26.93</ele>
        <time>2020-05-14T16:41:43Z</time>
      </trkpt>
      <trkpt lat="47.14494" lon="-1.42135">
        <ele>26.39</ele>
        <time>2020-05-14T16:41:44Z</time>
      </trkpt>
      <trkpt lat="47.14504" lon="-1.42157">
        <ele>26.36</ele>
        <time>2020-05-14T16:41:46Z</time>
      </trkpt>
      <trkpt lat="47.14509" lon="-1.42168">
        <ele>25.99</ele>
        <time>2020-05-14T16:41:47Z</time>
      </trkpt>
      <trkpt lat="47.14513" lon="-1.4218">
        <ele>25.44</ele>
        <time>2020-05-14T16:41:48Z</time>
      </trkpt>
      <trkpt lat="47.14518" lon="-1.42193">
        <ele>25.62</ele>
        <time>2020-05-14T16:41:49Z</time>
      </trkpt>
      <trkpt lat="47.14522" lon="-1.42206">
        <ele>25.5</ele>
        <time>2020-05-14T16:41:50Z</time>
      </trkpt>
      <trkpt lat="47.14527" lon="-1.42219">
        <ele>24.87</ele>
        <time>2020-05-14T16:41:51Z</time>
      </trkpt>
      <trkpt lat="47.14531" lon="-1.42232">
        <ele>24.56</ele>
        <time>2020-05-14T16:41:52Z</time>
      </trkpt>
      <trkpt lat="47.1454" lon="-1.42255">
        <ele>24.04</ele>
        <time>2020-05-14T16:41:54Z</time>
      </trkpt>
      <trkpt lat="47.14548" lon="-1.42278">
        <ele>23.9</ele>
        <time>2020-05-14T16:41:56Z</time>
      </trkpt>
      <trkpt lat="47.14557" lon="-1.42297">
        <ele>24.08</ele>
        <time>2020-05-14T16:41:58Z</time>
      </trkpt>
      <trkpt lat="47.14566" lon="-1.42313">
        <ele>23.31</ele>
        <time>2020-05-14T16:42:00Z</time>
      </trkpt>
      <trkpt lat="47.14577" lon="-1.42327">
        <ele>22.28</ele>
        <time>2020-05-14T16:42:02Z</time>
      </trkpt>
      <trkpt lat="47.14587" lon="-1.42339">
        <ele>21.52</ele>
        <time>2020-05-14T16:42:04Z</time>
      </trkpt>
      <trkpt lat="47.14598" lon="-1.42351">
        <ele>21.28</ele>
        <time>2020-05-14T16:42:06Z</time>
      </trkpt>
      <trkpt lat="47.14609" lon="-1.42361">
        <ele>21</ele>
        <time>2020-05-14T16:42:08Z</time>
      </trkpt>
      <trkpt lat="47.14619" lon="-1.4237">
        <ele>21.17</ele>
        <time>2020-05-14T16:42:10Z</time>
      </trkpt>
      <trkpt lat="47.14628" lon="-1.42378">
        <ele>21.11</ele>
        <time>2020-05-14T16:42:12Z</time>
      </trkpt>
      <trkpt lat="47.14638" lon="-1.42386">
        <ele>21.59</ele>
        <time>2020-05-14T16:42:14Z</time>
      </trkpt>
      <trkpt lat="47.14648" lon="-1.42395">
        <ele>22.18</ele>
        <time>2020-05-14T16:42:16Z</time>
      </trkpt>
      <trkpt lat="47.14657" lon="-1.42403">
        <ele>21.98</ele>
        <time>2020-05-14T16:42:18Z</time>
      </trkpt>
      <trkpt lat="47.14666" lon="-1.4241">
        <ele>21.37</ele>
        <time>2020-05-14T16:42:20Z</time>
      </trkpt>
      <trkpt lat="47.14674" lon="-1.4242">
        <ele>21.71</ele>
        <time>2020-05-14T16:42:22Z</time>
      </trkpt>
      <trkpt lat="47.14684" lon="-1.42429">
        <ele>22.51</ele>
        <time>2020-05-14T16:42:24Z</time>
      </trkpt>
      <trkpt lat="47.14694" lon="-1.42439">
        <ele>23.41</ele>
        <time>2020-05-14T16:42:26Z</time>
      </trkpt>
      <trkpt lat="47.14705" lon="-1.42449">
        <ele>23.93</ele>
        <time>2020-05-14T16:42:29Z</time>
      </trkpt>
      <trkpt lat="47.14714" lon="-1.42458">
        <ele>23.86</ele>
        <time>2020-05-14T16:42:31Z</time>
      </trkpt>
      <trkpt lat="47.14723" lon="-1.42468">
        <ele>24.31</ele>
        <time>2020-05-14T16:42:33Z</time>
      </trkpt>
      <trkpt lat="47.14733" lon="-1.42477">
        <ele>25.35</ele>
        <time>2020-05-14T16:42:36Z</time>
      </trkpt>
      <trkpt lat="47.14741" lon="-1.42485">
        <ele>27.67</ele>
        <time>2020-05-14T16:42:38Z</time>
      </trkpt>
      <trkpt lat="47.1475" lon="-1.42494">
        <ele>28.33</ele>
        <time>2020-05-14T16:42:40Z</time>
      </trkpt>
      <trkpt lat="47.14759" lon="-1.42504">
        <ele>27.69</ele>
        <time>2020-05-14T16:42:42Z</time>
      </trkpt>
      <trkpt lat="47.14767" lon="-1.42511">
        <ele>28.33</ele>
        <time>2020-05-14T16:42:44Z</time>
      </trkpt>
      <trkpt lat="47.14777" lon="-1.42522">
        <ele>29.6</ele>
        <time>2020-05-14T16:42:47Z</time>
      </trkpt>
      <trkpt lat="47.14785" lon="-1.4253">
        <ele>31.14</ele>
        <time>2020-05-14T16:42:49Z</time>
      </trkpt>
      <trkpt lat="47.14792" lon="-1.4254">
        <ele>32.32</ele>
        <time>2020-05-14T16:42:51Z</time>
      </trkpt>
      <trkpt lat="47.14803" lon="-1.42553">
        <ele>32.02</ele>
        <time>2020-05-14T16:42:54Z</time>
      </trkpt>
      <trkpt lat="47.14812" lon="-1.42564">
        <ele>32.13</ele>
        <time>2020-05-14T16:42:56Z</time>
      </trkpt>
      <trkpt lat="47.1482" lon="-1.42575">
        <ele>32.12</ele>
        <time>2020-05-14T16:42:58Z</time>
      </trkpt>
      <trkpt lat="47.14829" lon="-1.42585">
        <ele>32.34</ele>
        <time>2020-05-14T16:43:00Z</time>
      </trkpt>
      <trkpt lat="47.14836" lon="-1.42595">
        <ele>31.61</ele>
        <time>2020-05-14T16:43:02Z</time>
      </trkpt>
      <trkpt lat="47.14845" lon="-1.42606">
        <ele>30.43</ele>
        <time>2020-05-14T16:43:04Z</time>
      </trkpt>
      <trkpt lat="47.14853" lon="-1.42617">
        <ele>29.68</ele>
        <time>2020-05-14T16:43:06Z</time>
      </trkpt>
      <trkpt lat="47.14861" lon="-1.42628">
        <ele>30.42</ele>
        <time>2020-05-14T16:43:08Z</time>
      </trkpt>
      <trkpt lat="47.14871" lon="-1.4264">
        <ele>30.69</ele>
        <time>2020-05-14T16:43:10Z</time>
      </trkpt>
      <trkpt lat="47.14879" lon="-1.42652">
        <ele>30.48</ele>
        <time>2020-05-14T16:43:12Z</time>
      </trkpt>
      <trkpt lat="47.14888" lon="-1.42664">
        <ele>29.84</ele>
        <time>2020-05-14T16:43:14Z</time>
      </trkpt>
      <trkpt lat="47.14898" lon="-1.42678">
        <ele>29.19</ele>
        <time>2020-05-14T16:43:16Z</time>
      </trkpt>
      <trkpt lat="47.14907" lon="-1.42692">
        <ele>27.87</ele>
        <time>2020-05-14T16:43:18Z</time>
      </trkpt>
      <trkpt lat="47.14916" lon="-1.42706">
        <ele>26.37</ele>
        <time>2020-05-14T16:43:20Z</time>
      </trkpt>
      <trkpt lat="47.14926" lon="-1.42722">
        <ele>26.34</ele>
        <time>2020-05-14T16:43:22Z</time>
      </trkpt>
      <trkpt lat="47.14936" lon="-1.42736">
        <ele>25.48</ele>
        <time>2020-05-14T16:43:24Z</time>
      </trkpt>
      <trkpt lat="47.14946" lon="-1.42751">
        <ele>24.69</ele>
        <time>2020-05-14T16:43:26Z</time>
      </trkpt>
      <trkpt lat="47.14956" lon="-1.42767">
        <ele>24.25</ele>
        <time>2020-05-14T16:43:28Z</time>
      </trkpt>
      <trkpt lat="47.14965" lon="-1.4278">
        <ele>23.9</ele>
        <time>2020-05-14T16:43:30Z</time>
      </trkpt>
      <trkpt lat="47.14973" lon="-1.42795">
        <ele>24.34</ele>
        <time>2020-05-14T16:43:32Z</time>
      </trkpt>
      <trkpt lat="47.14982" lon="-1.42809">
        <ele>24.49</ele>
        <time>2020-05-14T16:43:34Z</time>
      </trkpt>
      <trkpt lat="47.14991" lon="-1.42822">
        <ele>24.03</ele>
        <time>2020-05-14T16:43:36Z</time>
      </trkpt>
      <trkpt lat="47.15001" lon="-1.42837">
        <ele>23.45</ele>
        <time>2020-05-14T16:43:38Z</time>
      </trkpt>
      <trkpt lat="47.1501" lon="-1.42849">
        <ele>22.87</ele>
        <time>2020-05-14T16:43:40Z</time>
      </trkpt>
      <trkpt lat="47.15022" lon="-1.42862">
        <ele>22.47</ele>
        <time>2020-05-14T16:43:42Z</time>
      </trkpt>
      <trkpt lat="47.15033" lon="-1.42869">
        <ele>23.12</ele>
        <time>2020-05-14T16:43:44Z</time>
      </trkpt>
      <trkpt lat="47.15046" lon="-1.42875">
        <ele>23.44</ele>
        <time>2020-05-14T16:43:46Z</time>
      </trkpt>
      <trkpt lat="47.15059" lon="-1.42878">
        <ele>23.68</ele>
        <time>2020-05-14T16:43:48Z</time>
      </trkpt>
      <trkpt lat="47.15073" lon="-1.42882">
        <ele>23.67</ele>
        <time>2020-05-14T16:43:50Z</time>
      </trkpt>
      <trkpt lat="47.15087" lon="-1.42887">
        <ele>23.13</ele>
        <time>2020-05-14T16:43:52Z</time>
      </trkpt>
      <trkpt lat="47.15099" lon="-1.4289">
        <ele>23.52</ele>
        <time>2020-05-14T16:43:54Z</time>
      </trkpt>
      <trkpt lat="47.1511" lon="-1.42894">
        <ele>24.48</ele>
        <time>2020-05-14T16:43:56Z</time>
      </trkpt>
      <trkpt lat="47.15124" lon="-1.42899">
        <ele>23.51</ele>
        <time>2020-05-14T16:43:58Z</time>
      </trkpt>
      <trkpt lat="47.15137" lon="-1.42904">
        <ele>21.97</ele>
        <time>2020-05-14T16:44:00Z</time>
      </trkpt>
      <trkpt lat="47.15151" lon="-1.4291">
        <ele>20.91</ele>
        <time>2020-05-14T16:44:02Z</time>
      </trkpt>
      <trkpt lat="47.15162" lon="-1.42916">
        <ele>21.05</ele>
        <time>2020-05-14T16:44:04Z</time>
      </trkpt>
      <trkpt lat="47.15173" lon="-1.42922">
        <ele>21.07</ele>
        <time>2020-05-14T16:44:06Z</time>
      </trkpt>
      <trkpt lat="47.15185" lon="-1.4293">
        <ele>21.87</ele>
        <time>2020-05-14T16:44:08Z</time>
      </trkpt>
      <trkpt lat="47.15197" lon="-1.4294">
        <ele>22.19</ele>
        <time>2020-05-14T16:44:10Z</time>
      </trkpt>
      <trkpt lat="47.15208" lon="-1.42955">
        <ele>21.75</ele>
        <time>2020-05-14T16:44:12Z</time>
      </trkpt>
      <trkpt lat="47.15218" lon="-1.42971">
        <ele>21.53</ele>
        <time>2020-05-14T16:44:14Z</time>
      </trkpt>
      <trkpt lat="47.15228" lon="-1.42989">
        <ele>21.51</ele>
        <time>2020-05-14T16:44:16Z</time>
      </trkpt>
      <trkpt lat="47.15237" lon="-1.43009">
        <ele>21.08</ele>
        <time>2020-05-14T16:44:18Z</time>
      </trkpt>
      <trkpt lat="47.15247" lon="-1.43031">
        <ele>20.31</ele>
        <time>2020-05-14T16:44:20Z</time>
      </trkpt>
      <trkpt lat="47.15254" lon="-1.43057">
        <ele>18.57</ele>
        <time>2020-05-14T16:44:22Z</time>
      </trkpt>
      <trkpt lat="47.15257" lon="-1.43069">
        <ele>18.17</ele>
        <time>2020-05-14T16:44:23Z</time>
      </trkpt>
      <trkpt lat="47.15258" lon="-1.43084">
        <ele>17.81</ele>
        <time>2020-05-14T16:44:24Z</time>
      </trkpt>
      <trkpt lat="47.15258" lon="-1.43098">
        <ele>17.61</ele>
        <time>2020-05-14T16:44:25Z</time>
      </trkpt>
      <trkpt lat="47.15259" lon="-1.43112">
        <ele>16.95</ele>
        <time>2020-05-14T16:44:26Z</time>
      </trkpt>
      <trkpt lat="47.15259" lon="-1.43127">
        <ele>16.39</ele>
        <time>2020-05-14T16:44:27Z</time>
      </trkpt>
      <trkpt lat="47.15259" lon="-1.43141">
        <ele>16.01</ele>
        <time>2020-05-14T16:44:28Z</time>
      </trkpt>
      <trkpt lat="47.15259" lon="-1.43154">
        <ele>15.58</ele>
        <time>2020-05-14T16:44:29Z</time>
      </trkpt>
      <trkpt lat="47.15258" lon="-1.43169">
        <ele>15.21</ele>
        <time>2020-05-14T16:44:30Z</time>
      </trkpt>
      <trkpt lat="47.15257" lon="-1.43196">
        <ele>13.65</ele>
        <time>2020-05-14T16:44:32Z</time>
      </trkpt>
      <trkpt lat="47.15256" lon="-1.43209">
        <ele>13.21</ele>
        <time>2020-05-14T16:44:33Z</time>
      </trkpt>
      <trkpt lat="47.15257" lon="-1.43237">
        <ele>13.23</ele>
        <time>2020-05-14T16:44:35Z</time>
      </trkpt>
      <trkpt lat="47.15255" lon="-1.43264">
        <ele>12.8</ele>
        <time>2020-05-14T16:44:37Z</time>
      </trkpt>
      <trkpt lat="47.15254" lon="-1.43291">
        <ele>11.15</ele>
        <time>2020-05-14T16:44:39Z</time>
      </trkpt>
      <trkpt lat="47.15253" lon="-1.43306">
        <ele>10.05</ele>
        <time>2020-05-14T16:44:40Z</time>
      </trkpt>
      <trkpt lat="47.15253" lon="-1.43321">
        <ele>9.26</ele>
        <time>2020-05-14T16:44:41Z</time>
      </trkpt>
      <trkpt lat="47.15253" lon="-1.43336">
        <ele>8.69</ele>
        <time>2020-05-14T16:44:42Z</time>
      </trkpt>
      <trkpt lat="47.15252" lon="-1.43349">
        <ele>8.37</ele>
        <time>2020-05-14T16:44:43Z</time>
      </trkpt>
      <trkpt lat="47.15252" lon="-1.43363">
        <ele>8.43</ele>
        <time>2020-05-14T16:44:44Z</time>
      </trkpt>
      <trkpt lat="47.15252" lon="-1.43378">
        <ele>8.75</ele>
        <time>2020-05-14T16:44:45Z</time>
      </trkpt>
      <trkpt lat="47.15252" lon="-1.43391">
        <ele>8.95</ele>
        <time>2020-05-14T16:44:46Z</time>
      </trkpt>
      <trkpt lat="47.15253" lon="-1.43417">
        <ele>8.88</ele>
        <time>2020-05-14T16:44:48Z</time>
      </trkpt>
      <trkpt lat="47.15255" lon="-1.43439">
        <ele>8.2</ele>
        <time>2020-05-14T16:44:50Z</time>
      </trkpt>
      <trkpt lat="47.15258" lon="-1.43463">
        <ele>6.91</ele>
        <time>2020-05-14T16:44:52Z</time>
      </trkpt>
      <trkpt lat="47.1526" lon="-1.43485">
        <ele>3.55</ele>
        <time>2020-05-14T16:44:54Z</time>
      </trkpt>
      <trkpt lat="47.15262" lon="-1.4351">
        <ele>2.24</ele>
        <time>2020-05-14T16:44:56Z</time>
      </trkpt>
      <trkpt lat="47.15264" lon="-1.43524">
        <ele>2.17</ele>
        <time>2020-05-14T16:44:57Z</time>
      </trkpt>
      <trkpt lat="47.15267" lon="-1.43549">
        <ele>3.42</ele>
        <time>2020-05-14T16:44:59Z</time>
      </trkpt>
      <trkpt lat="47.1527" lon="-1.43572">
        <ele>4.07</ele>
        <time>2020-05-14T16:45:01Z</time>
      </trkpt>
      <trkpt lat="47.15272" lon="-1.43589">
        <ele>5.18</ele>
        <time>2020-05-14T16:45:03Z</time>
      </trkpt>
      <trkpt lat="47.15274" lon="-1.4361">
        <ele>6.23</ele>
        <time>2020-05-14T16:45:05Z</time>
      </trkpt>
      <trkpt lat="47.15276" lon="-1.43628">
        <ele>6.79</ele>
        <time>2020-05-14T16:45:07Z</time>
      </trkpt>
      <trkpt lat="47.15278" lon="-1.43649">
        <ele>7.46</ele>
        <time>2020-05-14T16:45:09Z</time>
      </trkpt>
      <trkpt lat="47.15281" lon="-1.4367">
        <ele>6.96</ele>
        <time>2020-05-14T16:45:11Z</time>
      </trkpt>
      <trkpt lat="47.15283" lon="-1.43693">
        <ele>6.03</ele>
        <time>2020-05-14T16:45:13Z</time>
      </trkpt>
      <trkpt lat="47.15281" lon="-1.43715">
        <ele>5.36</ele>
        <time>2020-05-14T16:45:15Z</time>
      </trkpt>
      <trkpt lat="47.1528" lon="-1.43736">
        <ele>5.97</ele>
        <time>2020-05-14T16:45:17Z</time>
      </trkpt>
      <trkpt lat="47.15279" lon="-1.43755">
        <ele>6.18</ele>
        <time>2020-05-14T16:45:19Z</time>
      </trkpt>
      <trkpt lat="47.15279" lon="-1.4377">
        <ele>4.98</ele>
        <time>2020-05-14T16:45:21Z</time>
      </trkpt>
      <trkpt lat="47.15278" lon="-1.43791">
        <ele>4.27</ele>
        <time>2020-05-14T16:45:23Z</time>
      </trkpt>
      <trkpt lat="47.15276" lon="-1.43814">
        <ele>5.07</ele>
        <time>2020-05-14T16:45:25Z</time>
      </trkpt>
      <trkpt lat="47.15275" lon="-1.43837">
        <ele>5.22</ele>
        <time>2020-05-14T16:45:27Z</time>
      </trkpt>
      <trkpt lat="47.15276" lon="-1.43859">
        <ele>4.94</ele>
        <time>2020-05-14T16:45:29Z</time>
      </trkpt>
      <trkpt lat="47.15281" lon="-1.4388">
        <ele>5.51</ele>
        <time>2020-05-14T16:45:31Z</time>
      </trkpt>
      <trkpt lat="47.15287" lon="-1.439">
        <ele>4.96</ele>
        <time>2020-05-14T16:45:33Z</time>
      </trkpt>
      <trkpt lat="47.15295" lon="-1.43918">
        <ele>3.62</ele>
        <time>2020-05-14T16:45:35Z</time>
      </trkpt>
      <trkpt lat="47.15303" lon="-1.43932">
        <ele>2.91</ele>
        <time>2020-05-14T16:45:37Z</time>
      </trkpt>
      <trkpt lat="47.15311" lon="-1.43944">
        <ele>2.66</ele>
        <time>2020-05-14T16:45:39Z</time>
      </trkpt>
      <trkpt lat="47.1532" lon="-1.43955">
        <ele>2.73</ele>
        <time>2020-05-14T16:45:41Z</time>
      </trkpt>
      <trkpt lat="47.15329" lon="-1.43968">
        <ele>1.43</ele>
        <time>2020-05-14T16:45:43Z</time>
      </trkpt>
      <trkpt lat="47.15336" lon="-1.43978">
        <ele>1.07</ele>
        <time>2020-05-14T16:45:45Z</time>
      </trkpt>
      <trkpt lat="47.15344" lon="-1.43987">
        <ele>1.71</ele>
        <time>2020-05-14T16:45:47Z</time>
      </trkpt>
      <trkpt lat="47.15351" lon="-1.43999">
        <ele>2.47</ele>
        <time>2020-05-14T16:45:49Z</time>
      </trkpt>
      <trkpt lat="47.1536" lon="-1.44013">
        <ele>5.08</ele>
        <time>2020-05-14T16:45:52Z</time>
      </trkpt>
      <trkpt lat="47.15368" lon="-1.44025">
        <ele>7.75</ele>
        <time>2020-05-14T16:45:54Z</time>
      </trkpt>
      <trkpt lat="47.15377" lon="-1.44038">
        <ele>8.01</ele>
        <time>2020-05-14T16:45:56Z</time>
      </trkpt>
      <trkpt lat="47.15384" lon="-1.44051">
        <ele>7.82</ele>
        <time>2020-05-14T16:45:58Z</time>
      </trkpt>
      <trkpt lat="47.15387" lon="-1.4407">
        <ele>5.17</ele>
        <time>2020-05-14T16:46:00Z</time>
      </trkpt>
      <trkpt lat="47.15385" lon="-1.4409">
        <ele>3.46</ele>
        <time>2020-05-14T16:46:02Z</time>
      </trkpt>
      <trkpt lat="47.15383" lon="-1.44108">
        <ele>2.65</ele>
        <time>2020-05-14T16:46:04Z</time>
      </trkpt>
      <trkpt lat="47.1538" lon="-1.44129">
        <ele>2.27</ele>
        <time>2020-05-14T16:46:06Z</time>
      </trkpt>
      <trkpt lat="47.15377" lon="-1.44148">
        <ele>2.31</ele>
        <time>2020-05-14T16:46:08Z</time>
      </trkpt>
      <trkpt lat="47.15374" lon="-1.44165">
        <ele>1.85</ele>
        <time>2020-05-14T16:46:10Z</time>
      </trkpt>
      <trkpt lat="47.15372" lon="-1.44183">
        <ele>2.01</ele>
        <time>2020-05-14T16:46:12Z</time>
      </trkpt>
      <trkpt lat="47.1537" lon="-1.44203">
        <ele>2.04</ele>
        <time>2020-05-14T16:46:14Z</time>
      </trkpt>
      <trkpt lat="47.15369" lon="-1.44219">
        <ele>2.73</ele>
        <time>2020-05-14T16:46:16Z</time>
      </trkpt>
      <trkpt lat="47.15371" lon="-1.44238">
        <ele>3.71</ele>
        <time>2020-05-14T16:46:18Z</time>
      </trkpt>
      <trkpt lat="47.15372" lon="-1.44256">
        <ele>4.8</ele>
        <time>2020-05-14T16:46:20Z</time>
      </trkpt>
      <trkpt lat="47.15377" lon="-1.44274">
        <ele>5.85</ele>
        <time>2020-05-14T16:46:22Z</time>
      </trkpt>
      <trkpt lat="47.15381" lon="-1.4429">
        <ele>6.41</ele>
        <time>2020-05-14T16:46:24Z</time>
      </trkpt>
      <trkpt lat="47.15386" lon="-1.44308">
        <ele>6.6</ele>
        <time>2020-05-14T16:46:26Z</time>
      </trkpt>
      <trkpt lat="47.15391" lon="-1.44324">
        <ele>5.19</ele>
        <time>2020-05-14T16:46:28Z</time>
      </trkpt>
      <trkpt lat="47.15398" lon="-1.44341">
        <ele>5.16</ele>
        <time>2020-05-14T16:46:30Z</time>
      </trkpt>
      <trkpt lat="47.15406" lon="-1.44358">
        <ele>5.22</ele>
        <time>2020-05-14T16:46:32Z</time>
      </trkpt>
      <trkpt lat="47.15415" lon="-1.44371">
        <ele>4.89</ele>
        <time>2020-05-14T16:46:34Z</time>
      </trkpt>
      <trkpt lat="47.15424" lon="-1.44383">
        <ele>4.98</ele>
        <time>2020-05-14T16:46:36Z</time>
      </trkpt>
      <trkpt lat="47.15433" lon="-1.44394">
        <ele>4.92</ele>
        <time>2020-05-14T16:46:38Z</time>
      </trkpt>
      <trkpt lat="47.15442" lon="-1.44403">
        <ele>5.66</ele>
        <time>2020-05-14T16:46:40Z</time>
      </trkpt>
      <trkpt lat="47.15452" lon="-1.4441">
        <ele>6.47</ele>
        <time>2020-05-14T16:46:42Z</time>
      </trkpt>
      <trkpt lat="47.15463" lon="-1.44416">
        <ele>7.46</ele>
        <time>2020-05-14T16:46:44Z</time>
      </trkpt>
      <trkpt lat="47.15473" lon="-1.4442">
        <ele>8.41</ele>
        <time>2020-05-14T16:46:46Z</time>
      </trkpt>
      <trkpt lat="47.15485" lon="-1.44423">
        <ele>8.68</ele>
        <time>2020-05-14T16:46:48Z</time>
      </trkpt>
      <trkpt lat="47.15496" lon="-1.44426">
        <ele>8.24</ele>
        <time>2020-05-14T16:46:50Z</time>
      </trkpt>
      <trkpt lat="47.15508" lon="-1.44427">
        <ele>8.22</ele>
        <time>2020-05-14T16:46:52Z</time>
      </trkpt>
      <trkpt lat="47.15518" lon="-1.44428">
        <ele>8.74</ele>
        <time>2020-05-14T16:46:54Z</time>
      </trkpt>
      <trkpt lat="47.15528" lon="-1.44429">
        <ele>8.56</ele>
        <time>2020-05-14T16:46:56Z</time>
      </trkpt>
      <trkpt lat="47.15538" lon="-1.44429">
        <ele>7.87</ele>
        <time>2020-05-14T16:46:58Z</time>
      </trkpt>
      <trkpt lat="47.15548" lon="-1.44429">
        <ele>7.57</ele>
        <time>2020-05-14T16:47:01Z</time>
      </trkpt>
      <trkpt lat="47.15557" lon="-1.44429">
        <ele>8.17</ele>
        <time>2020-05-14T16:47:03Z</time>
      </trkpt>
      <trkpt lat="47.15567" lon="-1.44428">
        <ele>8.91</ele>
        <time>2020-05-14T16:47:05Z</time>
      </trkpt>
      <trkpt lat="47.15578" lon="-1.44425">
        <ele>9.78</ele>
        <time>2020-05-14T16:47:07Z</time>
      </trkpt>
      <trkpt lat="47.15587" lon="-1.44421">
        <ele>10.52</ele>
        <time>2020-05-14T16:47:09Z</time>
      </trkpt>
      <trkpt lat="47.15599" lon="-1.44417">
        <ele>10.68</ele>
        <time>2020-05-14T16:47:11Z</time>
      </trkpt>
      <trkpt lat="47.15609" lon="-1.44413">
        <ele>10.79</ele>
        <time>2020-05-14T16:47:13Z</time>
      </trkpt>
      <trkpt lat="47.15618" lon="-1.44408">
        <ele>10.38</ele>
        <time>2020-05-14T16:47:15Z</time>
      </trkpt>
      <trkpt lat="47.15629" lon="-1.44403">
        <ele>9.57</ele>
        <time>2020-05-14T16:47:17Z</time>
      </trkpt>
      <trkpt lat="47.15638" lon="-1.44397">
        <ele>8.76</ele>
        <time>2020-05-14T16:47:19Z</time>
      </trkpt>
      <trkpt lat="47.15647" lon="-1.44393">
        <ele>8.83</ele>
        <time>2020-05-14T16:47:21Z</time>
      </trkpt>
      <trkpt lat="47.1566" lon="-1.44388">
        <ele>10.04</ele>
        <time>2020-05-14T16:47:24Z</time>
      </trkpt>
      <trkpt lat="47.1567" lon="-1.44383">
        <ele>10.91</ele>
        <time>2020-05-14T16:47:26Z</time>
      </trkpt>
      <trkpt lat="47.15679" lon="-1.44379">
        <ele>13.7</ele>
        <time>2020-05-14T16:47:28Z</time>
      </trkpt>
      <trkpt lat="47.15688" lon="-1.44375">
        <ele>15.79</ele>
        <time>2020-05-14T16:47:30Z</time>
      </trkpt>
      <trkpt lat="47.15698" lon="-1.44371">
        <ele>17.12</ele>
        <time>2020-05-14T16:47:32Z</time>
      </trkpt>
      <trkpt lat="47.15707" lon="-1.44366">
        <ele>17.65</ele>
        <time>2020-05-14T16:47:34Z</time>
      </trkpt>
      <trkpt lat="47.15716" lon="-1.44362">
        <ele>18.1</ele>
        <time>2020-05-14T16:47:36Z</time>
      </trkpt>
      <trkpt lat="47.15725" lon="-1.44358">
        <ele>19.07</ele>
        <time>2020-05-14T16:47:38Z</time>
      </trkpt>
      <trkpt lat="47.15736" lon="-1.44354">
        <ele>19.53</ele>
        <time>2020-05-14T16:47:40Z</time>
      </trkpt>
      <trkpt lat="47.15746" lon="-1.44351">
        <ele>20.37</ele>
        <time>2020-05-14T16:47:42Z</time>
      </trkpt>
      <trkpt lat="47.15755" lon="-1.44347">
        <ele>21.21</ele>
        <time>2020-05-14T16:47:44Z</time>
      </trkpt>
      <trkpt lat="47.15768" lon="-1.44342">
        <ele>21.54</ele>
        <time>2020-05-14T16:47:47Z</time>
      </trkpt>
      <trkpt lat="47.15778" lon="-1.44337">
        <ele>22.24</ele>
        <time>2020-05-14T16:47:49Z</time>
      </trkpt>
      <trkpt lat="47.15789" lon="-1.44335">
        <ele>23.23</ele>
        <time>2020-05-14T16:47:51Z</time>
      </trkpt>
      <trkpt lat="47.15801" lon="-1.44334">
        <ele>22.66</ele>
        <time>2020-05-14T16:47:53Z</time>
      </trkpt>
      <trkpt lat="47.15811" lon="-1.44339">
        <ele>21.85</ele>
        <time>2020-05-14T16:47:55Z</time>
      </trkpt>
      <trkpt lat="47.15821" lon="-1.44348">
        <ele>19.72</ele>
        <time>2020-05-14T16:47:57Z</time>
      </trkpt>
      <trkpt lat="47.15828" lon="-1.44359">
        <ele>17.71</ele>
        <time>2020-05-14T16:47:59Z</time>
      </trkpt>
      <trkpt lat="47.15834" lon="-1.44372">
        <ele>16.32</ele>
        <time>2020-05-14T16:48:01Z</time>
      </trkpt>
      <trkpt lat="47.1584" lon="-1.44385">
        <ele>15.32</ele>
        <time>2020-05-14T16:48:03Z</time>
      </trkpt>
      <trkpt lat="47.15845" lon="-1.44398">
        <ele>15.05</ele>
        <time>2020-05-14T16:48:05Z</time>
      </trkpt>
      <trkpt lat="47.15851" lon="-1.44413">
        <ele>14.71</ele>
        <time>2020-05-14T16:48:07Z</time>
      </trkpt>
      <trkpt lat="47.15858" lon="-1.44426">
        <ele>13.68</ele>
        <time>2020-05-14T16:48:09Z</time>
      </trkpt>
      <trkpt lat="47.15863" lon="-1.44439">
        <ele>13.06</ele>
        <time>2020-05-14T16:48:11Z</time>
      </trkpt>
      <trkpt lat="47.15868" lon="-1.44452">
        <ele>13.25</ele>
        <time>2020-05-14T16:48:13Z</time>
      </trkpt>
      <trkpt lat="47.15873" lon="-1.44464">
        <ele>12.15</ele>
        <time>2020-05-14T16:48:15Z</time>
      </trkpt>
      <trkpt lat="47.15878" lon="-1.44476">
        <ele>11.51</ele>
        <time>2020-05-14T16:48:17Z</time>
      </trkpt>
      <trkpt lat="47.15882" lon="-1.44489">
        <ele>12.52</ele>
        <time>2020-05-14T16:48:19Z</time>
      </trkpt>
      <trkpt lat="47.15887" lon="-1.44502">
        <ele>13.95</ele>
        <time>2020-05-14T16:48:21Z</time>
      </trkpt>
      <trkpt lat="47.15893" lon="-1.4452">
        <ele>16.8</ele>
        <time>2020-05-14T16:48:24Z</time>
      </trkpt>
      <trkpt lat="47.159" lon="-1.44538">
        <ele>19.01</ele>
        <time>2020-05-14T16:48:27Z</time>
      </trkpt>
      <trkpt lat="47.15905" lon="-1.44552">
        <ele>19.98</ele>
        <time>2020-05-14T16:48:29Z</time>
      </trkpt>
      <trkpt lat="47.15912" lon="-1.4457">
        <ele>21.63</ele>
        <time>2020-05-14T16:48:32Z</time>
      </trkpt>
      <trkpt lat="47.15916" lon="-1.44583">
        <ele>22.54</ele>
        <time>2020-05-14T16:48:34Z</time>
      </trkpt>
      <trkpt lat="47.1592" lon="-1.44596">
        <ele>22.96</ele>
        <time>2020-05-14T16:48:36Z</time>
      </trkpt>
      <trkpt lat="47.15925" lon="-1.4461">
        <ele>22.81</ele>
        <time>2020-05-14T16:48:38Z</time>
      </trkpt>
      <trkpt lat="47.15929" lon="-1.44627">
        <ele>23.3</ele>
        <time>2020-05-14T16:48:41Z</time>
      </trkpt>
      <trkpt lat="47.15932" lon="-1.4464">
        <ele>25.33</ele>
        <time>2020-05-14T16:48:43Z</time>
      </trkpt>
      <trkpt lat="47.15936" lon="-1.44655">
        <ele>26.95</ele>
        <time>2020-05-14T16:48:45Z</time>
      </trkpt>
      <trkpt lat="47.1594" lon="-1.44668">
        <ele>27.57</ele>
        <time>2020-05-14T16:48:47Z</time>
      </trkpt>
      <trkpt lat="47.15946" lon="-1.44686">
        <ele>28.15</ele>
        <time>2020-05-14T16:48:50Z</time>
      </trkpt>
      <trkpt lat="47.1595" lon="-1.44698">
        <ele>29.27</ele>
        <time>2020-05-14T16:48:52Z</time>
      </trkpt>
      <trkpt lat="47.15954" lon="-1.44713">
        <ele>30.07</ele>
        <time>2020-05-14T16:48:54Z</time>
      </trkpt>
      <trkpt lat="47.15958" lon="-1.44726">
        <ele>30.49</ele>
        <time>2020-05-14T16:48:56Z</time>
      </trkpt>
      <trkpt lat="47.15963" lon="-1.44741">
        <ele>30.93</ele>
        <time>2020-05-14T16:48:58Z</time>
      </trkpt>
      <trkpt lat="47.15967" lon="-1.44753">
        <ele>30.63</ele>
        <time>2020-05-14T16:49:00Z</time>
      </trkpt>
      <trkpt lat="47.1597" lon="-1.44765">
        <ele>30.96</ele>
        <time>2020-05-14T16:49:02Z</time>
      </trkpt>
      <trkpt lat="47.15975" lon="-1.44781">
        <ele>31.51</ele>
        <time>2020-05-14T16:49:04Z</time>
      </trkpt>
      <trkpt lat="47.15979" lon="-1.44795">
        <ele>32.21</ele>
        <time>2020-05-14T16:49:06Z</time>
      </trkpt>
      <trkpt lat="47.15985" lon="-1.44811">
        <ele>31.06</ele>
        <time>2020-05-14T16:49:08Z</time>
      </trkpt>
      <trkpt lat="47.15992" lon="-1.44825">
        <ele>29.6</ele>
        <time>2020-05-14T16:49:10Z</time>
      </trkpt>
      <trkpt lat="47.16001" lon="-1.4484">
        <ele>29.13</ele>
        <time>2020-05-14T16:49:12Z</time>
      </trkpt>
      <trkpt lat="47.1601" lon="-1.44856">
        <ele>29.02</ele>
        <time>2020-05-14T16:49:14Z</time>
      </trkpt>
      <trkpt lat="47.1602" lon="-1.44869">
        <ele>28.49</ele>
        <time>2020-05-14T16:49:16Z</time>
      </trkpt>
      <trkpt lat="47.1603" lon="-1.44881">
        <ele>28.4</ele>
        <time>2020-05-14T16:49:18Z</time>
      </trkpt>
      <trkpt lat="47.16041" lon="-1.44893">
        <ele>27.88</ele>
        <time>2020-05-14T16:49:20Z</time>
      </trkpt>
      <trkpt lat="47.16051" lon="-1.44904">
        <ele>27.17</ele>
        <time>2020-05-14T16:49:22Z</time>
      </trkpt>
      <trkpt lat="47.16062" lon="-1.44915">
        <ele>26.64</ele>
        <time>2020-05-14T16:49:24Z</time>
      </trkpt>
      <trkpt lat="47.16073" lon="-1.44927">
        <ele>26.02</ele>
        <time>2020-05-14T16:49:26Z</time>
      </trkpt>
      <trkpt lat="47.16082" lon="-1.44939">
        <ele>25.91</ele>
        <time>2020-05-14T16:49:28Z</time>
      </trkpt>
      <trkpt lat="47.16092" lon="-1.44954">
        <ele>25.76</ele>
        <time>2020-05-14T16:49:30Z</time>
      </trkpt>
      <trkpt lat="47.16098" lon="-1.44967">
        <ele>25.88</ele>
        <time>2020-05-14T16:49:32Z</time>
      </trkpt>
      <trkpt lat="47.16106" lon="-1.44985">
        <ele>27.29</ele>
        <time>2020-05-14T16:49:34Z</time>
      </trkpt>
      <trkpt lat="47.16111" lon="-1.45">
        <ele>28.06</ele>
        <time>2020-05-14T16:49:36Z</time>
      </trkpt>
      <trkpt lat="47.16115" lon="-1.45014">
        <ele>28.21</ele>
        <time>2020-05-14T16:49:38Z</time>
      </trkpt>
      <trkpt lat="47.16121" lon="-1.45032">
        <ele>29.27</ele>
        <time>2020-05-14T16:49:40Z</time>
      </trkpt>
      <trkpt lat="47.16128" lon="-1.45051">
        <ele>30.38</ele>
        <time>2020-05-14T16:49:42Z</time>
      </trkpt>
      <trkpt lat="47.16133" lon="-1.45067">
        <ele>30.52</ele>
        <time>2020-05-14T16:49:44Z</time>
      </trkpt>
      <trkpt lat="47.16138" lon="-1.45084">
        <ele>30.69</ele>
        <time>2020-05-14T16:49:46Z</time>
      </trkpt>
      <trkpt lat="47.16141" lon="-1.45097">
        <ele>30.54</ele>
        <time>2020-05-14T16:49:48Z</time>
      </trkpt>
      <trkpt lat="47.16144" lon="-1.45111">
        <ele>29.73</ele>
        <time>2020-05-14T16:49:50Z</time>
      </trkpt>
      <trkpt lat="47.16147" lon="-1.45125">
        <ele>30.18</ele>
        <time>2020-05-14T16:49:52Z</time>
      </trkpt>
      <trkpt lat="47.1615" lon="-1.4514">
        <ele>31.31</ele>
        <time>2020-05-14T16:49:54Z</time>
      </trkpt>
      <trkpt lat="47.16154" lon="-1.45153">
        <ele>31.49</ele>
        <time>2020-05-14T16:49:56Z</time>
      </trkpt>
      <trkpt lat="47.16161" lon="-1.45162">
        <ele>31.97</ele>
        <time>2020-05-14T16:49:58Z</time>
      </trkpt>
      <trkpt lat="47.16172" lon="-1.45167">
        <ele>32.76</ele>
        <time>2020-05-14T16:50:00Z</time>
      </trkpt>
      <trkpt lat="47.16182" lon="-1.45172">
        <ele>34.48</ele>
        <time>2020-05-14T16:50:02Z</time>
      </trkpt>
      <trkpt lat="47.16192" lon="-1.45179">
        <ele>35.82</ele>
        <time>2020-05-14T16:50:04Z</time>
      </trkpt>
      <trkpt lat="47.16201" lon="-1.45184">
        <ele>36.1</ele>
        <time>2020-05-14T16:50:06Z</time>
      </trkpt>
      <trkpt lat="47.16212" lon="-1.45189">
        <ele>36.15</ele>
        <time>2020-05-14T16:50:08Z</time>
      </trkpt>
      <trkpt lat="47.1622" lon="-1.45195">
        <ele>36.08</ele>
        <time>2020-05-14T16:50:10Z</time>
      </trkpt>
      <trkpt lat="47.16229" lon="-1.452">
        <ele>35.81</ele>
        <time>2020-05-14T16:50:12Z</time>
      </trkpt>
      <trkpt lat="47.16238" lon="-1.45207">
        <ele>35.48</ele>
        <time>2020-05-14T16:50:14Z</time>
      </trkpt>
      <trkpt lat="47.16246" lon="-1.45214">
        <ele>35.92</ele>
        <time>2020-05-14T16:50:16Z</time>
      </trkpt>
      <trkpt lat="47.16256" lon="-1.45229">
        <ele>36.61</ele>
        <time>2020-05-14T16:50:19Z</time>
      </trkpt>
      <trkpt lat="47.16262" lon="-1.45245">
        <ele>36.64</ele>
        <time>2020-05-14T16:50:21Z</time>
      </trkpt>
      <trkpt lat="47.16267" lon="-1.4526">
        <ele>36.98</ele>
        <time>2020-05-14T16:50:23Z</time>
      </trkpt>
      <trkpt lat="47.1627" lon="-1.45274">
        <ele>37.87</ele>
        <time>2020-05-14T16:50:25Z</time>
      </trkpt>
      <trkpt lat="47.16274" lon="-1.45291">
        <ele>37.79</ele>
        <time>2020-05-14T16:50:27Z</time>
      </trkpt>
      <trkpt lat="47.1628" lon="-1.45306">
        <ele>36.29</ele>
        <time>2020-05-14T16:50:29Z</time>
      </trkpt>
      <trkpt lat="47.16286" lon="-1.45324">
        <ele>34.64</ele>
        <time>2020-05-14T16:50:31Z</time>
      </trkpt>
      <trkpt lat="47.16292" lon="-1.45341">
        <ele>32.34</ele>
        <time>2020-05-14T16:50:33Z</time>
      </trkpt>
      <trkpt lat="47.16296" lon="-1.45362">
        <ele>31.92</ele>
        <time>2020-05-14T16:50:35Z</time>
      </trkpt>
      <trkpt lat="47.16299" lon="-1.45384">
        <ele>31.4</ele>
        <time>2020-05-14T16:50:37Z</time>
      </trkpt>
      <trkpt lat="47.16301" lon="-1.45407">
        <ele>30.51</ele>
        <time>2020-05-14T16:50:39Z</time>
      </trkpt>
      <trkpt lat="47.16307" lon="-1.45428">
        <ele>29.76</ele>
        <time>2020-05-14T16:50:41Z</time>
      </trkpt>
      <trkpt lat="47.16315" lon="-1.4545">
        <ele>29.78</ele>
        <time>2020-05-14T16:50:43Z</time>
      </trkpt>
      <trkpt lat="47.16324" lon="-1.4547">
        <ele>29.89</ele>
        <time>2020-05-14T16:50:45Z</time>
      </trkpt>
      <trkpt lat="47.16332" lon="-1.45487">
        <ele>29.59</ele>
        <time>2020-05-14T16:50:47Z</time>
      </trkpt>
      <trkpt lat="47.16342" lon="-1.45505">
        <ele>28.72</ele>
        <time>2020-05-14T16:50:49Z</time>
      </trkpt>
      <trkpt lat="47.16351" lon="-1.4552">
        <ele>28.39</ele>
        <time>2020-05-14T16:50:51Z</time>
      </trkpt>
      <trkpt lat="47.1636" lon="-1.45536">
        <ele>28.66</ele>
        <time>2020-05-14T16:50:53Z</time>
      </trkpt>
      <trkpt lat="47.16368" lon="-1.45551">
        <ele>28.57</ele>
        <time>2020-05-14T16:50:55Z</time>
      </trkpt>
      <trkpt lat="47.16378" lon="-1.45568">
        <ele>27.53</ele>
        <time>2020-05-14T16:50:57Z</time>
      </trkpt>
      <trkpt lat="47.16388" lon="-1.45585">
        <ele>27.02</ele>
        <time>2020-05-14T16:50:59Z</time>
      </trkpt>
      <trkpt lat="47.16396" lon="-1.45601">
        <ele>27.08</ele>
        <time>2020-05-14T16:51:01Z</time>
      </trkpt>
      <trkpt lat="47.16404" lon="-1.45619">
        <ele>26.7</ele>
        <time>2020-05-14T16:51:03Z</time>
      </trkpt>
      <trkpt lat="47.16411" lon="-1.45638">
        <ele>26.28</ele>
        <time>2020-05-14T16:51:05Z</time>
      </trkpt>
      <trkpt lat="47.16417" lon="-1.45657">
        <ele>26.76</ele>
        <time>2020-05-14T16:51:07Z</time>
      </trkpt>
      <trkpt lat="47.16422" lon="-1.45676">
        <ele>25.61</ele>
        <time>2020-05-14T16:51:09Z</time>
      </trkpt>
      <trkpt lat="47.16427" lon="-1.45695">
        <ele>24.7</ele>
        <time>2020-05-14T16:51:11Z</time>
      </trkpt>
      <trkpt lat="47.16432" lon="-1.45716">
        <ele>24.13</ele>
        <time>2020-05-14T16:51:13Z</time>
      </trkpt>
      <trkpt lat="47.16436" lon="-1.45735">
        <ele>24.03</ele>
        <time>2020-05-14T16:51:15Z</time>
      </trkpt>
      <trkpt lat="47.1644" lon="-1.45752">
        <ele>25.09</ele>
        <time>2020-05-14T16:51:17Z</time>
      </trkpt>
      <trkpt lat="47.16444" lon="-1.45771">
        <ele>24.27</ele>
        <time>2020-05-14T16:51:19Z</time>
      </trkpt>
      <trkpt lat="47.16448" lon="-1.45786">
        <ele>24.31</ele>
        <time>2020-05-14T16:51:21Z</time>
      </trkpt>
      <trkpt lat="47.16453" lon="-1.45805">
        <ele>24.74</ele>
        <time>2020-05-14T16:51:23Z</time>
      </trkpt>
      <trkpt lat="47.16457" lon="-1.45824">
        <ele>25.54</ele>
        <time>2020-05-14T16:51:25Z</time>
      </trkpt>
      <trkpt lat="47.16461" lon="-1.45839">
        <ele>26.91</ele>
        <time>2020-05-14T16:51:27Z</time>
      </trkpt>
      <trkpt lat="47.16464" lon="-1.45853">
        <ele>27.53</ele>
        <time>2020-05-14T16:51:29Z</time>
      </trkpt>
      <trkpt lat="47.16469" lon="-1.45869">
        <ele>28.07</ele>
        <time>2020-05-14T16:51:31Z</time>
      </trkpt>
      <trkpt lat="47.16474" lon="-1.45886">
        <ele>29</ele>
        <time>2020-05-14T16:51:33Z</time>
      </trkpt>
      <trkpt lat="47.16479" lon="-1.45903">
        <ele>29.23</ele>
        <time>2020-05-14T16:51:35Z</time>
      </trkpt>
      <trkpt lat="47.16483" lon="-1.45917">
        <ele>28.34</ele>
        <time>2020-05-14T16:51:37Z</time>
      </trkpt>
      <trkpt lat="47.16487" lon="-1.4593">
        <ele>27.46</ele>
        <time>2020-05-14T16:51:39Z</time>
      </trkpt>
      <trkpt lat="47.16493" lon="-1.45946">
        <ele>26.55</ele>
        <time>2020-05-14T16:51:41Z</time>
      </trkpt>
      <trkpt lat="47.16499" lon="-1.45964">
        <ele>25.2</ele>
        <time>2020-05-14T16:51:43Z</time>
      </trkpt>
      <trkpt lat="47.16504" lon="-1.45977">
        <ele>25.18</ele>
        <time>2020-05-14T16:51:45Z</time>
      </trkpt>
      <trkpt lat="47.16509" lon="-1.4599">
        <ele>25.42</ele>
        <time>2020-05-14T16:51:47Z</time>
      </trkpt>
      <trkpt lat="47.16514" lon="-1.46002">
        <ele>27.94</ele>
        <time>2020-05-14T16:51:49Z</time>
      </trkpt>
      <trkpt lat="47.16519" lon="-1.46019">
        <ele>30.48</ele>
        <time>2020-05-14T16:51:51Z</time>
      </trkpt>
      <trkpt lat="47.16525" lon="-1.46033">
        <ele>32.06</ele>
        <time>2020-05-14T16:51:53Z</time>
      </trkpt>
      <trkpt lat="47.16534" lon="-1.46039">
        <ele>33.39</ele>
        <time>2020-05-14T16:51:55Z</time>
      </trkpt>
      <trkpt lat="47.16543" lon="-1.46044">
        <ele>34.86</ele>
        <time>2020-05-14T16:51:57Z</time>
      </trkpt>
      <trkpt lat="47.16549" lon="-1.46056">
        <ele>35.88</ele>
        <time>2020-05-14T16:51:59Z</time>
      </trkpt>
      <trkpt lat="47.1655" lon="-1.46073">
        <ele>36.54</ele>
        <time>2020-05-14T16:52:01Z</time>
      </trkpt>
      <trkpt lat="47.16546" lon="-1.46091">
        <ele>36.65</ele>
        <time>2020-05-14T16:52:03Z</time>
      </trkpt>
      <trkpt lat="47.16537" lon="-1.46099">
        <ele>36.47</ele>
        <time>2020-05-14T16:52:05Z</time>
      </trkpt>
      <trkpt lat="47.16525" lon="-1.46101">
        <ele>35.98</ele>
        <time>2020-05-14T16:52:07Z</time>
      </trkpt>
      <trkpt lat="47.1651" lon="-1.461">
        <ele>35.28</ele>
        <time>2020-05-14T16:52:09Z</time>
      </trkpt>
      <trkpt lat="47.16501" lon="-1.46111">
        <ele>34.68</ele>
        <time>2020-05-14T16:52:11Z</time>
      </trkpt>
      <trkpt lat="47.1649" lon="-1.46122">
        <ele>34.35</ele>
        <time>2020-05-14T16:52:13Z</time>
      </trkpt>
      <trkpt lat="47.16478" lon="-1.46135">
        <ele>33.58</ele>
        <time>2020-05-14T16:52:15Z</time>
      </trkpt>
      <trkpt lat="47.16467" lon="-1.46145">
        <ele>33.54</ele>
        <time>2020-05-14T16:52:17Z</time>
      </trkpt>
      <trkpt lat="47.16456" lon="-1.46156">
        <ele>34.2</ele>
        <time>2020-05-14T16:52:19Z</time>
      </trkpt>
      <trkpt lat="47.16444" lon="-1.4617">
        <ele>35.5</ele>
        <time>2020-05-14T16:52:21Z</time>
      </trkpt>
      <trkpt lat="47.16433" lon="-1.46182">
        <ele>36.27</ele>
        <time>2020-05-14T16:52:23Z</time>
      </trkpt>
      <trkpt lat="47.16422" lon="-1.46196">
        <ele>36.09</ele>
        <time>2020-05-14T16:52:25Z</time>
      </trkpt>
      <trkpt lat="47.16411" lon="-1.46207">
        <ele>36.24</ele>
        <time>2020-05-14T16:52:27Z</time>
      </trkpt>
      <trkpt lat="47.164" lon="-1.46221">
        <ele>35.84</ele>
        <time>2020-05-14T16:52:29Z</time>
      </trkpt>
      <trkpt lat="47.16389" lon="-1.46237">
        <ele>35.09</ele>
        <time>2020-05-14T16:52:31Z</time>
      </trkpt>
      <trkpt lat="47.16379" lon="-1.46251">
        <ele>35</ele>
        <time>2020-05-14T16:52:33Z</time>
      </trkpt>
      <trkpt lat="47.16368" lon="-1.46268">
        <ele>34.67</ele>
        <time>2020-05-14T16:52:35Z</time>
      </trkpt>
      <trkpt lat="47.16358" lon="-1.46286">
        <ele>34.39</ele>
        <time>2020-05-14T16:52:37Z</time>
      </trkpt>
      <trkpt lat="47.1635" lon="-1.46303">
        <ele>34.41</ele>
        <time>2020-05-14T16:52:39Z</time>
      </trkpt>
      <trkpt lat="47.16341" lon="-1.46321">
        <ele>34.11</ele>
        <time>2020-05-14T16:52:41Z</time>
      </trkpt>
      <trkpt lat="47.16333" lon="-1.46341">
        <ele>34.63</ele>
        <time>2020-05-14T16:52:43Z</time>
      </trkpt>
      <trkpt lat="47.16326" lon="-1.46361">
        <ele>35.12</ele>
        <time>2020-05-14T16:52:45Z</time>
      </trkpt>
      <trkpt lat="47.1632" lon="-1.4638">
        <ele>34.66</ele>
        <time>2020-05-14T16:52:47Z</time>
      </trkpt>
      <trkpt lat="47.16315" lon="-1.46399">
        <ele>34.02</ele>
        <time>2020-05-14T16:52:49Z</time>
      </trkpt>
      <trkpt lat="47.1631" lon="-1.46419">
        <ele>33.6</ele>
        <time>2020-05-14T16:52:51Z</time>
      </trkpt>
      <trkpt lat="47.16306" lon="-1.46438">
        <ele>32.9</ele>
        <time>2020-05-14T16:52:53Z</time>
      </trkpt>
      <trkpt lat="47.16302" lon="-1.46461">
        <ele>33.56</ele>
        <time>2020-05-14T16:52:55Z</time>
      </trkpt>
      <trkpt lat="47.16298" lon="-1.46482">
        <ele>34.2</ele>
        <time>2020-05-14T16:52:57Z</time>
      </trkpt>
      <trkpt lat="47.16295" lon="-1.46503">
        <ele>34.25</ele>
        <time>2020-05-14T16:52:59Z</time>
      </trkpt>
      <trkpt lat="47.16293" lon="-1.46524">
        <ele>33.68</ele>
        <time>2020-05-14T16:53:01Z</time>
      </trkpt>
      <trkpt lat="47.1629" lon="-1.46547">
        <ele>33.54</ele>
        <time>2020-05-14T16:53:03Z</time>
      </trkpt>
      <trkpt lat="47.16288" lon="-1.46569">
        <ele>33.18</ele>
        <time>2020-05-14T16:53:05Z</time>
      </trkpt>
      <trkpt lat="47.16286" lon="-1.46593">
        <ele>32.57</ele>
        <time>2020-05-14T16:53:07Z</time>
      </trkpt>
      <trkpt lat="47.16285" lon="-1.46615">
        <ele>31.99</ele>
        <time>2020-05-14T16:53:09Z</time>
      </trkpt>
      <trkpt lat="47.16283" lon="-1.46641">
        <ele>30.4</ele>
        <time>2020-05-14T16:53:11Z</time>
      </trkpt>
      <trkpt lat="47.16281" lon="-1.46666">
        <ele>28.12</ele>
        <time>2020-05-14T16:53:13Z</time>
      </trkpt>
      <trkpt lat="47.1628" lon="-1.46679">
        <ele>27.25</ele>
        <time>2020-05-14T16:53:14Z</time>
      </trkpt>
      <trkpt lat="47.16279" lon="-1.46694">
        <ele>27.08</ele>
        <time>2020-05-14T16:53:15Z</time>
      </trkpt>
      <trkpt lat="47.16278" lon="-1.46719">
        <ele>26.96</ele>
        <time>2020-05-14T16:53:17Z</time>
      </trkpt>
      <trkpt lat="47.16276" lon="-1.46745">
        <ele>26.37</ele>
        <time>2020-05-14T16:53:19Z</time>
      </trkpt>
      <trkpt lat="47.16274" lon="-1.46771">
        <ele>25.6</ele>
        <time>2020-05-14T16:53:21Z</time>
      </trkpt>
      <trkpt lat="47.16273" lon="-1.46794">
        <ele>24.65</ele>
        <time>2020-05-14T16:53:23Z</time>
      </trkpt>
      <trkpt lat="47.16275" lon="-1.46807">
        <ele>24.72</ele>
        <time>2020-05-14T16:53:24Z</time>
      </trkpt>
      <trkpt lat="47.16277" lon="-1.4683">
        <ele>24.55</ele>
        <time>2020-05-14T16:53:26Z</time>
      </trkpt>
      <trkpt lat="47.16271" lon="-1.46849">
        <ele>24.67</ele>
        <time>2020-05-14T16:53:28Z</time>
      </trkpt>
      <trkpt lat="47.16269" lon="-1.46863">
        <ele>25.1</ele>
        <time>2020-05-14T16:53:29Z</time>
      </trkpt>
      <trkpt lat="47.16267" lon="-1.46875">
        <ele>25.53</ele>
        <time>2020-05-14T16:53:30Z</time>
      </trkpt>
      <trkpt lat="47.16264" lon="-1.46901">
        <ele>25.22</ele>
        <time>2020-05-14T16:53:32Z</time>
      </trkpt>
      <trkpt lat="47.16261" lon="-1.46927">
        <ele>24.74</ele>
        <time>2020-05-14T16:53:34Z</time>
      </trkpt>
      <trkpt lat="47.16259" lon="-1.46953">
        <ele>24.7</ele>
        <time>2020-05-14T16:53:36Z</time>
      </trkpt>
      <trkpt lat="47.16257" lon="-1.4698">
        <ele>24.94</ele>
        <time>2020-05-14T16:53:38Z</time>
      </trkpt>
      <trkpt lat="47.16257" lon="-1.47003">
        <ele>24.89</ele>
        <time>2020-05-14T16:53:40Z</time>
      </trkpt>
      <trkpt lat="47.16257" lon="-1.47028">
        <ele>24.44</ele>
        <time>2020-05-14T16:53:42Z</time>
      </trkpt>
      <trkpt lat="47.16258" lon="-1.47053">
        <ele>23.97</ele>
        <time>2020-05-14T16:53:44Z</time>
      </trkpt>
      <trkpt lat="47.16259" lon="-1.47067">
        <ele>23.47</ele>
        <time>2020-05-14T16:53:45Z</time>
      </trkpt>
      <trkpt lat="47.16263" lon="-1.47092">
        <ele>22.28</ele>
        <time>2020-05-14T16:53:47Z</time>
      </trkpt>
      <trkpt lat="47.16267" lon="-1.47116">
        <ele>21.28</ele>
        <time>2020-05-14T16:53:49Z</time>
      </trkpt>
      <trkpt lat="47.1627" lon="-1.47129">
        <ele>20.61</ele>
        <time>2020-05-14T16:53:50Z</time>
      </trkpt>
      <trkpt lat="47.16273" lon="-1.47142">
        <ele>19.55</ele>
        <time>2020-05-14T16:53:51Z</time>
      </trkpt>
      <trkpt lat="47.16279" lon="-1.47167">
        <ele>17.61</ele>
        <time>2020-05-14T16:53:53Z</time>
      </trkpt>
      <trkpt lat="47.16282" lon="-1.47181">
        <ele>17.43</ele>
        <time>2020-05-14T16:53:54Z</time>
      </trkpt>
      <trkpt lat="47.16286" lon="-1.47194">
        <ele>17.32</ele>
        <time>2020-05-14T16:53:55Z</time>
      </trkpt>
      <trkpt lat="47.16291" lon="-1.47206">
        <ele>17.14</ele>
        <time>2020-05-14T16:53:56Z</time>
      </trkpt>
      <trkpt lat="47.16295" lon="-1.47218">
        <ele>16.63</ele>
        <time>2020-05-14T16:53:57Z</time>
      </trkpt>
      <trkpt lat="47.163" lon="-1.47233">
        <ele>15.89</ele>
        <time>2020-05-14T16:53:58Z</time>
      </trkpt>
      <trkpt lat="47.16305" lon="-1.47246">
        <ele>15.41</ele>
        <time>2020-05-14T16:53:59Z</time>
      </trkpt>
      <trkpt lat="47.1631" lon="-1.4726">
        <ele>14.77</ele>
        <time>2020-05-14T16:54:00Z</time>
      </trkpt>
      <trkpt lat="47.16315" lon="-1.47272">
        <ele>14.46</ele>
        <time>2020-05-14T16:54:01Z</time>
      </trkpt>
      <trkpt lat="47.1632" lon="-1.47285">
        <ele>14.05</ele>
        <time>2020-05-14T16:54:02Z</time>
      </trkpt>
      <trkpt lat="47.16328" lon="-1.47309">
        <ele>12.65</ele>
        <time>2020-05-14T16:54:04Z</time>
      </trkpt>
      <trkpt lat="47.16334" lon="-1.47331">
        <ele>11.36</ele>
        <time>2020-05-14T16:54:06Z</time>
      </trkpt>
      <trkpt lat="47.16337" lon="-1.47354">
        <ele>10.38</ele>
        <time>2020-05-14T16:54:08Z</time>
      </trkpt>
      <trkpt lat="47.16334" lon="-1.47368">
        <ele>10</ele>
        <time>2020-05-14T16:54:09Z</time>
      </trkpt>
      <trkpt lat="47.16334" lon="-1.47381">
        <ele>9.95</ele>
        <time>2020-05-14T16:54:10Z</time>
      </trkpt>
      <trkpt lat="47.16338" lon="-1.47406">
        <ele>9.88</ele>
        <time>2020-05-14T16:54:12Z</time>
      </trkpt>
      <trkpt lat="47.16342" lon="-1.47428">
        <ele>9.83</ele>
        <time>2020-05-14T16:54:14Z</time>
      </trkpt>
      <trkpt lat="47.16347" lon="-1.47449">
        <ele>9.5</ele>
        <time>2020-05-14T16:54:16Z</time>
      </trkpt>
      <trkpt lat="47.16351" lon="-1.4747">
        <ele>8.46</ele>
        <time>2020-05-14T16:54:18Z</time>
      </trkpt>
      <trkpt lat="47.16356" lon="-1.47493">
        <ele>8.68</ele>
        <time>2020-05-14T16:54:20Z</time>
      </trkpt>
      <trkpt lat="47.16361" lon="-1.47516">
        <ele>9.04</ele>
        <time>2020-05-14T16:54:22Z</time>
      </trkpt>
      <trkpt lat="47.16366" lon="-1.47538">
        <ele>9.42</ele>
        <time>2020-05-14T16:54:24Z</time>
      </trkpt>
      <trkpt lat="47.16371" lon="-1.47559">
        <ele>8.58</ele>
        <time>2020-05-14T16:54:26Z</time>
      </trkpt>
      <trkpt lat="47.16376" lon="-1.47579">
        <ele>8.92</ele>
        <time>2020-05-14T16:54:28Z</time>
      </trkpt>
      <trkpt lat="47.16381" lon="-1.47602">
        <ele>9.28</ele>
        <time>2020-05-14T16:54:30Z</time>
      </trkpt>
      <trkpt lat="47.16386" lon="-1.47624">
        <ele>9.36</ele>
        <time>2020-05-14T16:54:32Z</time>
      </trkpt>
      <trkpt lat="47.1639" lon="-1.47645">
        <ele>9.76</ele>
        <time>2020-05-14T16:54:34Z</time>
      </trkpt>
      <trkpt lat="47.16394" lon="-1.47666">
        <ele>9.91</ele>
        <time>2020-05-14T16:54:36Z</time>
      </trkpt>
      <trkpt lat="47.16399" lon="-1.47687">
        <ele>9.39</ele>
        <time>2020-05-14T16:54:38Z</time>
      </trkpt>
      <trkpt lat="47.16403" lon="-1.4771">
        <ele>7.57</ele>
        <time>2020-05-14T16:54:40Z</time>
      </trkpt>
      <trkpt lat="47.16407" lon="-1.47728">
        <ele>6.07</ele>
        <time>2020-05-14T16:54:42Z</time>
      </trkpt>
      <trkpt lat="47.16413" lon="-1.47751">
        <ele>5.05</ele>
        <time>2020-05-14T16:54:44Z</time>
      </trkpt>
      <trkpt lat="47.16417" lon="-1.47772">
        <ele>3.08</ele>
        <time>2020-05-14T16:54:46Z</time>
      </trkpt>
      <trkpt lat="47.16422" lon="-1.47792">
        <ele>1.45</ele>
        <time>2020-05-14T16:54:48Z</time>
      </trkpt>
      <trkpt lat="47.16426" lon="-1.4781">
        <ele>1.11</ele>
        <time>2020-05-14T16:54:50Z</time>
      </trkpt>
      <trkpt lat="47.16431" lon="-1.47831">
        <ele>1</ele>
        <time>2020-05-14T16:54:52Z</time>
      </trkpt>
      <trkpt lat="47.16436" lon="-1.47851">
        <ele>1.23</ele>
        <time>2020-05-14T16:54:54Z</time>
      </trkpt>
      <trkpt lat="47.16441" lon="-1.47872">
        <ele>1.95</ele>
        <time>2020-05-14T16:54:56Z</time>
      </trkpt>
      <trkpt lat="47.16445" lon="-1.47893">
        <ele>2.26</ele>
        <time>2020-05-14T16:54:58Z</time>
      </trkpt>
      <trkpt lat="47.16449" lon="-1.47912">
        <ele>3.05</ele>
        <time>2020-05-14T16:55:00Z</time>
      </trkpt>
      <trkpt lat="47.16453" lon="-1.47931">
        <ele>3.73</ele>
        <time>2020-05-14T16:55:02Z</time>
      </trkpt>
      <trkpt lat="47.16458" lon="-1.47951">
        <ele>4.29</ele>
        <time>2020-05-14T16:55:04Z</time>
      </trkpt>
      <trkpt lat="47.16462" lon="-1.47971">
        <ele>5.01</ele>
        <time>2020-05-14T16:55:06Z</time>
      </trkpt>
      <trkpt lat="47.16467" lon="-1.47991">
        <ele>5.33</ele>
        <time>2020-05-14T16:55:08Z</time>
      </trkpt>
      <trkpt lat="47.16471" lon="-1.48007">
        <ele>4.74</ele>
        <time>2020-05-14T16:55:10Z</time>
      </trkpt>
      <trkpt lat="47.16476" lon="-1.48025">
        <ele>4.17</ele>
        <time>2020-05-14T16:55:12Z</time>
      </trkpt>
      <trkpt lat="47.1648" lon="-1.4804">
        <ele>3.87</ele>
        <time>2020-05-14T16:55:14Z</time>
      </trkpt>
      <trkpt lat="47.16485" lon="-1.48058">
        <ele>4.04</ele>
        <time>2020-05-14T16:55:16Z</time>
      </trkpt>
      <trkpt lat="47.16488" lon="-1.48071">
        <ele>3.6</ele>
        <time>2020-05-14T16:55:18Z</time>
      </trkpt>
      <trkpt lat="47.16493" lon="-1.48086">
        <ele>4.16</ele>
        <time>2020-05-14T16:55:21Z</time>
      </trkpt>
      <trkpt lat="47.16502" lon="-1.48098">
        <ele>4.03</ele>
        <time>2020-05-14T16:55:25Z</time>
      </trkpt>
      <trkpt lat="47.16505" lon="-1.48112">
        <ele>3.12</ele>
        <time>2020-05-14T16:55:27Z</time>
      </trkpt>
      <trkpt lat="47.16509" lon="-1.48128">
        <ele>3.04</ele>
        <time>2020-05-14T16:55:29Z</time>
      </trkpt>
      <trkpt lat="47.16515" lon="-1.4814">
        <ele>2.88</ele>
        <time>2020-05-14T16:55:31Z</time>
      </trkpt>
      <trkpt lat="47.16528" lon="-1.48133">
        <ele>2.81</ele>
        <time>2020-05-14T16:55:34Z</time>
      </trkpt>
      <trkpt lat="47.16538" lon="-1.48124">
        <ele>1.7</ele>
        <time>2020-05-14T16:55:36Z</time>
      </trkpt>
      <trkpt lat="47.16547" lon="-1.48119">
        <ele>1.13</ele>
        <time>2020-05-14T16:55:38Z</time>
      </trkpt>
      <trkpt lat="47.16556" lon="-1.48115">
        <ele>0.93</ele>
        <time>2020-05-14T16:55:40Z</time>
      </trkpt>
      <trkpt lat="47.16564" lon="-1.48109">
        <ele>1.28</ele>
        <time>2020-05-14T16:55:42Z</time>
      </trkpt>
      <trkpt lat="47.16575" lon="-1.48101">
        <ele>1.87</ele>
        <time>2020-05-14T16:55:44Z</time>
      </trkpt>
      <trkpt lat="47.16584" lon="-1.48094">
        <ele>3.07</ele>
        <time>2020-05-14T16:55:46Z</time>
      </trkpt>
      <trkpt lat="47.16593" lon="-1.48087">
        <ele>3.92</ele>
        <time>2020-05-14T16:55:48Z</time>
      </trkpt>
      <trkpt lat="47.16605" lon="-1.48079">
        <ele>5.11</ele>
        <time>2020-05-14T16:55:51Z</time>
      </trkpt>
      <trkpt lat="47.16614" lon="-1.48073">
        <ele>5.57</ele>
        <time>2020-05-14T16:55:53Z</time>
      </trkpt>
      <trkpt lat="47.16625" lon="-1.48067">
        <ele>6.26</ele>
        <time>2020-05-14T16:55:55Z</time>
      </trkpt>
      <trkpt lat="47.16634" lon="-1.48061">
        <ele>6.41</ele>
        <time>2020-05-14T16:55:57Z</time>
      </trkpt>
      <trkpt lat="47.16643" lon="-1.48054">
        <ele>6.32</ele>
        <time>2020-05-14T16:55:59Z</time>
      </trkpt>
      <trkpt lat="47.16652" lon="-1.48047">
        <ele>5.24</ele>
        <time>2020-05-14T16:56:01Z</time>
      </trkpt>
      <trkpt lat="47.1666" lon="-1.4804">
        <ele>4.72</ele>
        <time>2020-05-14T16:56:03Z</time>
      </trkpt>
      <trkpt lat="47.16671" lon="-1.48033">
        <ele>3.99</ele>
        <time>2020-05-14T16:56:05Z</time>
      </trkpt>
      <trkpt lat="47.16682" lon="-1.48025">
        <ele>3.44</ele>
        <time>2020-05-14T16:56:07Z</time>
      </trkpt>
      <trkpt lat="47.16691" lon="-1.48019">
        <ele>2.33</ele>
        <time>2020-05-14T16:56:09Z</time>
      </trkpt>
      <trkpt lat="47.16702" lon="-1.48013">
        <ele>0.94</ele>
        <time>2020-05-14T16:56:11Z</time>
      </trkpt>
      <trkpt lat="47.16713" lon="-1.48008">
        <ele>0.11</ele>
        <time>2020-05-14T16:56:13Z</time>
      </trkpt>
      <trkpt lat="47.16725" lon="-1.48005">
        <ele>-0.62</ele>
        <time>2020-05-14T16:56:14Z</time>
      </trkpt>
      <trkpt lat="47.16734" lon="-1.48002">
        <ele>-1.12</ele>
        <time>2020-05-14T16:56:16Z</time>
      </trkpt>
      <trkpt lat="47.16748" lon="-1.47998">
        <ele>-1.46</ele>
        <time>2020-05-14T16:56:19Z</time>
      </trkpt>
      <trkpt lat="47.16762" lon="-1.47997">
        <ele>-0.72</ele>
        <time>2020-05-14T16:56:22Z</time>
      </trkpt>
      <trkpt lat="47.16774" lon="-1.47999">
        <ele>-0.13</ele>
        <time>2020-05-14T16:56:24Z</time>
      </trkpt>
      <trkpt lat="47.16785" lon="-1.48004">
        <ele>0.2</ele>
        <time>2020-05-14T16:56:26Z</time>
      </trkpt>
      <trkpt lat="47.16797" lon="-1.48006">
        <ele>1.32</ele>
        <time>2020-05-14T16:56:29Z</time>
      </trkpt>
      <trkpt lat="47.16809" lon="-1.48013">
        <ele>1.43</ele>
        <time>2020-05-14T16:56:32Z</time>
      </trkpt>
      <trkpt lat="47.16817" lon="-1.48027">
        <ele>0.51</ele>
        <time>2020-05-14T16:56:35Z</time>
      </trkpt>
      <trkpt lat="47.16824" lon="-1.48043">
        <ele>0.11</ele>
        <time>2020-05-14T16:56:37Z</time>
      </trkpt>
      <trkpt lat="47.1683" lon="-1.48054">
        <ele>-0.68</ele>
        <time>2020-05-14T16:56:39Z</time>
      </trkpt>
      <trkpt lat="47.16835" lon="-1.48066">
        <ele>-0.28</ele>
        <time>2020-05-14T16:56:41Z</time>
      </trkpt>
      <trkpt lat="47.16841" lon="-1.48077">
        <ele>1.17</ele>
        <time>2020-05-14T16:56:43Z</time>
      </trkpt>
      <trkpt lat="47.16849" lon="-1.48085">
        <ele>2.53</ele>
        <time>2020-05-14T16:56:45Z</time>
      </trkpt>
      <trkpt lat="47.16858" lon="-1.48095">
        <ele>3.03</ele>
        <time>2020-05-14T16:56:47Z</time>
      </trkpt>
      <trkpt lat="47.16867" lon="-1.48107">
        <ele>3.11</ele>
        <time>2020-05-14T16:56:49Z</time>
      </trkpt>
      <trkpt lat="47.16874" lon="-1.4812">
        <ele>2.47</ele>
        <time>2020-05-14T16:56:51Z</time>
      </trkpt>
      <trkpt lat="47.16881" lon="-1.48132">
        <ele>2.15</ele>
        <time>2020-05-14T16:56:53Z</time>
      </trkpt>
      <trkpt lat="47.16888" lon="-1.48145">
        <ele>1.72</ele>
        <time>2020-05-14T16:56:55Z</time>
      </trkpt>
      <trkpt lat="47.16895" lon="-1.48158">
        <ele>0.74</ele>
        <time>2020-05-14T16:56:57Z</time>
      </trkpt>
      <trkpt lat="47.16903" lon="-1.48174">
        <ele>0.17</ele>
        <time>2020-05-14T16:56:59Z</time>
      </trkpt>
      <trkpt lat="47.1691" lon="-1.48187">
        <ele>0.54</ele>
        <time>2020-05-14T16:57:01Z</time>
      </trkpt>
      <trkpt lat="47.16917" lon="-1.48197">
        <ele>0.57</ele>
        <time>2020-05-14T16:57:03Z</time>
      </trkpt>
      <trkpt lat="47.16925" lon="-1.48209">
        <ele>-0.14</ele>
        <time>2020-05-14T16:57:05Z</time>
      </trkpt>
      <trkpt lat="47.1693" lon="-1.48221">
        <ele>0.26</ele>
        <time>2020-05-14T16:57:07Z</time>
      </trkpt>
      <trkpt lat="47.16934" lon="-1.48235">
        <ele>0.85</ele>
        <time>2020-05-14T16:57:09Z</time>
      </trkpt>
      <trkpt lat="47.16938" lon="-1.48248">
        <ele>1.02</ele>
        <time>2020-05-14T16:57:11Z</time>
      </trkpt>
      <trkpt lat="47.16943" lon="-1.48266">
        <ele>0.06</ele>
        <time>2020-05-14T16:57:13Z</time>
      </trkpt>
      <trkpt lat="47.16946" lon="-1.48285">
        <ele>-1.13</ele>
        <time>2020-05-14T16:57:15Z</time>
      </trkpt>
      <trkpt lat="47.16944" lon="-1.48302">
        <ele>-1.95</ele>
        <time>2020-05-14T16:57:17Z</time>
      </trkpt>
      <trkpt lat="47.16942" lon="-1.48319">
        <ele>-3.29</ele>
        <time>2020-05-14T16:57:19Z</time>
      </trkpt>
      <trkpt lat="47.1694" lon="-1.48337">
        <ele>-4.56</ele>
        <time>2020-05-14T16:57:21Z</time>
      </trkpt>
      <trkpt lat="47.16936" lon="-1.48354">
        <ele>-6.06</ele>
        <time>2020-05-14T16:57:23Z</time>
      </trkpt>
      <trkpt lat="47.16931" lon="-1.48372">
        <ele>-7.21</ele>
        <time>2020-05-14T16:57:25Z</time>
      </trkpt>
      <trkpt lat="47.16926" lon="-1.48389">
        <ele>-7.54</ele>
        <time>2020-05-14T16:57:27Z</time>
      </trkpt>
      <trkpt lat="47.16921" lon="-1.48404">
        <ele>-6.89</ele>
        <time>2020-05-14T16:57:29Z</time>
      </trkpt>
      <trkpt lat="47.16917" lon="-1.48419">
        <ele>-4.81</ele>
        <time>2020-05-14T16:57:31Z</time>
      </trkpt>
      <trkpt lat="47.16912" lon="-1.48437">
        <ele>-2.92</ele>
        <time>2020-05-14T16:57:33Z</time>
      </trkpt>
      <trkpt lat="47.16909" lon="-1.48453">
        <ele>-1.23</ele>
        <time>2020-05-14T16:57:35Z</time>
      </trkpt>
      <trkpt lat="47.16903" lon="-1.4847">
        <ele>6.3</ele>
        <time>2020-05-14T16:57:37Z</time>
      </trkpt>
      <trkpt lat="47.16898" lon="-1.48487">
        <ele>0.47</ele>
        <time>2020-05-14T16:57:39Z</time>
      </trkpt>
      <trkpt lat="47.16894" lon="-1.48504">
        <ele>1.6</ele>
        <time>2020-05-14T16:57:41Z</time>
      </trkpt>
      <trkpt lat="47.16891" lon="-1.48523">
        <ele>2.86</ele>
        <time>2020-05-14T16:57:43Z</time>
      </trkpt>
      <trkpt lat="47.1689" lon="-1.48539">
        <ele>3.35</ele>
        <time>2020-05-14T16:57:45Z</time>
      </trkpt>
      <trkpt lat="47.16889" lon="-1.48556">
        <ele>2.66</ele>
        <time>2020-05-14T16:57:47Z</time>
      </trkpt>
      <trkpt lat="47.16889" lon="-1.48574">
        <ele>2.03</ele>
        <time>2020-05-14T16:57:49Z</time>
      </trkpt>
      <trkpt lat="47.1689" lon="-1.48593">
        <ele>1.16</ele>
        <time>2020-05-14T16:57:51Z</time>
      </trkpt>
      <trkpt lat="47.16893" lon="-1.48609">
        <ele>1.25</ele>
        <time>2020-05-14T16:57:53Z</time>
      </trkpt>
      <trkpt lat="47.16897" lon="-1.48624">
        <ele>0.62</ele>
        <time>2020-05-14T16:57:55Z</time>
      </trkpt>
      <trkpt lat="47.169" lon="-1.48642">
        <ele>-0.89</ele>
        <time>2020-05-14T16:57:57Z</time>
      </trkpt>
      <trkpt lat="47.16903" lon="-1.48656">
        <ele>-2.06</ele>
        <time>2020-05-14T16:57:59Z</time>
      </trkpt>
      <trkpt lat="47.16906" lon="-1.48671">
        <ele>-3.16</ele>
        <time>2020-05-14T16:58:01Z</time>
      </trkpt>
      <trkpt lat="47.16909" lon="-1.48687">
        <ele>-3.26</ele>
        <time>2020-05-14T16:58:03Z</time>
      </trkpt>
      <trkpt lat="47.16913" lon="-1.48708">
        <ele>-3.06</ele>
        <time>2020-05-14T16:58:05Z</time>
      </trkpt>
      <trkpt lat="47.16917" lon="-1.48727">
        <ele>-3</ele>
        <time>2020-05-14T16:58:07Z</time>
      </trkpt>
      <trkpt lat="47.16921" lon="-1.48743">
        <ele>-2.51</ele>
        <time>2020-05-14T16:58:09Z</time>
      </trkpt>
      <trkpt lat="47.16925" lon="-1.48758">
        <ele>-2.32</ele>
        <time>2020-05-14T16:58:11Z</time>
      </trkpt>
      <trkpt lat="47.1693" lon="-1.48777">
        <ele>-2.42</ele>
        <time>2020-05-14T16:58:13Z</time>
      </trkpt>
      <trkpt lat="47.16934" lon="-1.48795">
        <ele>-2.28</ele>
        <time>2020-05-14T16:58:15Z</time>
      </trkpt>
      <trkpt lat="47.16937" lon="-1.48812">
        <ele>-2.12</ele>
        <time>2020-05-14T16:58:17Z</time>
      </trkpt>
      <trkpt lat="47.16941" lon="-1.48831">
        <ele>-1.66</ele>
        <time>2020-05-14T16:58:19Z</time>
      </trkpt>
      <trkpt lat="47.16945" lon="-1.48849">
        <ele>-2.07</ele>
        <time>2020-05-14T16:58:21Z</time>
      </trkpt>
      <trkpt lat="47.1695" lon="-1.48866">
        <ele>-2.75</ele>
        <time>2020-05-14T16:58:23Z</time>
      </trkpt>
      <trkpt lat="47.16954" lon="-1.48881">
        <ele>-4.39</ele>
        <time>2020-05-14T16:58:25Z</time>
      </trkpt>
      <trkpt lat="47.16958" lon="-1.489">
        <ele>-3.75</ele>
        <time>2020-05-14T16:58:27Z</time>
      </trkpt>
      <trkpt lat="47.16961" lon="-1.4892">
        <ele>-3.34</ele>
        <time>2020-05-14T16:58:29Z</time>
      </trkpt>
      <trkpt lat="47.16964" lon="-1.48935">
        <ele>-3.57</ele>
        <time>2020-05-14T16:58:31Z</time>
      </trkpt>
      <trkpt lat="47.16967" lon="-1.48951">
        <ele>-4.14</ele>
        <time>2020-05-14T16:58:33Z</time>
      </trkpt>
      <trkpt lat="47.16972" lon="-1.48971">
        <ele>-4.7</ele>
        <time>2020-05-14T16:58:35Z</time>
      </trkpt>
      <trkpt lat="47.16976" lon="-1.48987">
        <ele>-6.14</ele>
        <time>2020-05-14T16:58:37Z</time>
      </trkpt>
      <trkpt lat="47.16981" lon="-1.49003">
        <ele>-7.51</ele>
        <time>2020-05-14T16:58:39Z</time>
      </trkpt>
      <trkpt lat="47.16986" lon="-1.49023">
        <ele>-8.58</ele>
        <time>2020-05-14T16:58:41Z</time>
      </trkpt>
      <trkpt lat="47.16994" lon="-1.49042">
        <ele>-8.95</ele>
        <time>2020-05-14T16:58:43Z</time>
      </trkpt>
      <trkpt lat="47.16999" lon="-1.49059">
        <ele>-8.92</ele>
        <time>2020-05-14T16:58:45Z</time>
      </trkpt>
      <trkpt lat="47.17003" lon="-1.49076">
        <ele>-7.81</ele>
        <time>2020-05-14T16:58:47Z</time>
      </trkpt>
      <trkpt lat="47.17008" lon="-1.49094">
        <ele>-6.58</ele>
        <time>2020-05-14T16:58:49Z</time>
      </trkpt>
      <trkpt lat="47.17012" lon="-1.49109">
        <ele>-6.06</ele>
        <time>2020-05-14T16:58:51Z</time>
      </trkpt>
      <trkpt lat="47.17017" lon="-1.49126">
        <ele>-5.71</ele>
        <time>2020-05-14T16:58:53Z</time>
      </trkpt>
      <trkpt lat="47.17024" lon="-1.49146">
        <ele>-7.23</ele>
        <time>2020-05-14T16:58:55Z</time>
      </trkpt>
      <trkpt lat="47.17028" lon="-1.49161">
        <ele>-8.08</ele>
        <time>2020-05-14T16:58:57Z</time>
      </trkpt>
      <trkpt lat="47.17034" lon="-1.49178">
        <ele>-8.34</ele>
        <time>2020-05-14T16:58:59Z</time>
      </trkpt>
      <trkpt lat="47.17041" lon="-1.49197">
        <ele>-9.19</ele>
        <time>2020-05-14T16:59:01Z</time>
      </trkpt>
      <trkpt lat="47.17046" lon="-1.49213">
        <ele>-9.79</ele>
        <time>2020-05-14T16:59:03Z</time>
      </trkpt>
      <trkpt lat="47.1705" lon="-1.49231">
        <ele>-9.87</ele>
        <time>2020-05-14T16:59:05Z</time>
      </trkpt>
      <trkpt lat="47.17054" lon="-1.49247">
        <ele>-10.47</ele>
        <time>2020-05-14T16:59:07Z</time>
      </trkpt>
      <trkpt lat="47.17058" lon="-1.49262">
        <ele>-10.53</ele>
        <time>2020-05-14T16:59:09Z</time>
      </trkpt>
      <trkpt lat="47.17064" lon="-1.49279">
        <ele>-8.97</ele>
        <time>2020-05-14T16:59:11Z</time>
      </trkpt>
      <trkpt lat="47.1707" lon="-1.49298">
        <ele>-7.87</ele>
        <time>2020-05-14T16:59:13Z</time>
      </trkpt>
      <trkpt lat="47.17074" lon="-1.49317">
        <ele>-5.42</ele>
        <time>2020-05-14T16:59:15Z</time>
      </trkpt>
      <trkpt lat="47.17077" lon="-1.49331">
        <ele>-3.23</ele>
        <time>2020-05-14T16:59:17Z</time>
      </trkpt>
      <trkpt lat="47.1708" lon="-1.49347">
        <ele>-2.74</ele>
        <time>2020-05-14T16:59:19Z</time>
      </trkpt>
      <trkpt lat="47.17084" lon="-1.49362">
        <ele>-1.73</ele>
        <time>2020-05-14T16:59:21Z</time>
      </trkpt>
      <trkpt lat="47.17089" lon="-1.49381">
        <ele>-2.44</ele>
        <time>2020-05-14T16:59:23Z</time>
      </trkpt>
      <trkpt lat="47.17093" lon="-1.49396">
        <ele>-3.17</ele>
        <time>2020-05-14T16:59:25Z</time>
      </trkpt>
      <trkpt lat="47.171" lon="-1.49409">
        <ele>-2.9</ele>
        <time>2020-05-14T16:59:27Z</time>
      </trkpt>
      <trkpt lat="47.17105" lon="-1.49422">
        <ele>-2.97</ele>
        <time>2020-05-14T16:59:29Z</time>
      </trkpt>
      <trkpt lat="47.1711" lon="-1.49439">
        <ele>-2.9</ele>
        <time>2020-05-14T16:59:31Z</time>
      </trkpt>
      <trkpt lat="47.17115" lon="-1.49456">
        <ele>-3.31</ele>
        <time>2020-05-14T16:59:33Z</time>
      </trkpt>
      <trkpt lat="47.1712" lon="-1.49472">
        <ele>-3.25</ele>
        <time>2020-05-14T16:59:35Z</time>
      </trkpt>
      <trkpt lat="47.17124" lon="-1.49488">
        <ele>-2.74</ele>
        <time>2020-05-14T16:59:37Z</time>
      </trkpt>
      <trkpt lat="47.17128" lon="-1.49506">
        <ele>-3.17</ele>
        <time>2020-05-14T16:59:39Z</time>
      </trkpt>
      <trkpt lat="47.17132" lon="-1.49521">
        <ele>-3.19</ele>
        <time>2020-05-14T16:59:41Z</time>
      </trkpt>
      <trkpt lat="47.17137" lon="-1.49537">
        <ele>-3.76</ele>
        <time>2020-05-14T16:59:43Z</time>
      </trkpt>
      <trkpt lat="47.17141" lon="-1.49557">
        <ele>-5.15</ele>
        <time>2020-05-14T16:59:45Z</time>
      </trkpt>
      <trkpt lat="47.17145" lon="-1.49573">
        <ele>-3.98</ele>
        <time>2020-05-14T16:59:47Z</time>
      </trkpt>
      <trkpt lat="47.17148" lon="-1.49588">
        <ele>-0.97</ele>
        <time>2020-05-14T16:59:49Z</time>
      </trkpt>
      <trkpt lat="47.17151" lon="-1.49604">
        <ele>1.62</ele>
        <time>2020-05-14T16:59:51Z</time>
      </trkpt>
      <trkpt lat="47.17155" lon="-1.4962">
        <ele>2.41</ele>
        <time>2020-05-14T16:59:53Z</time>
      </trkpt>
      <trkpt lat="47.1716" lon="-1.49638">
        <ele>1.27</ele>
        <time>2020-05-14T16:59:55Z</time>
      </trkpt>
      <trkpt lat="47.17164" lon="-1.49655">
        <ele>0.24</ele>
        <time>2020-05-14T16:59:57Z</time>
      </trkpt>
      <trkpt lat="47.17168" lon="-1.49671">
        <ele>0.15</ele>
        <time>2020-05-14T16:59:59Z</time>
      </trkpt>
      <trkpt lat="47.17172" lon="-1.49689">
        <ele>2.3</ele>
        <time>2020-05-14T17:00:01Z</time>
      </trkpt>
      <trkpt lat="47.17176" lon="-1.49707">
        <ele>2.78</ele>
        <time>2020-05-14T17:00:03Z</time>
      </trkpt>
      <trkpt lat="47.17181" lon="-1.49727">
        <ele>2.73</ele>
        <time>2020-05-14T17:00:05Z</time>
      </trkpt>
      <trkpt lat="47.17186" lon="-1.49742">
        <ele>3</ele>
        <time>2020-05-14T17:00:07Z</time>
      </trkpt>
      <trkpt lat="47.1719" lon="-1.49756">
        <ele>2.88</ele>
        <time>2020-05-14T17:00:09Z</time>
      </trkpt>
      <trkpt lat="47.17198" lon="-1.49774">
        <ele>2.43</ele>
        <time>2020-05-14T17:00:12Z</time>
      </trkpt>
      <trkpt lat="47.17204" lon="-1.4979">
        <ele>2.4</ele>
        <time>2020-05-14T17:00:14Z</time>
      </trkpt>
      <trkpt lat="47.17211" lon="-1.49808">
        <ele>2.4</ele>
        <time>2020-05-14T17:00:16Z</time>
      </trkpt>
      <trkpt lat="47.17216" lon="-1.49826">
        <ele>1.15</ele>
        <time>2020-05-14T17:00:18Z</time>
      </trkpt>
      <trkpt lat="47.17224" lon="-1.49848">
        <ele>-0.14</ele>
        <time>2020-05-14T17:00:20Z</time>
      </trkpt>
      <trkpt lat="47.1723" lon="-1.49866">
        <ele>-0.62</ele>
        <time>2020-05-14T17:00:22Z</time>
      </trkpt>
      <trkpt lat="47.17239" lon="-1.49886">
        <ele>-0.22</ele>
        <time>2020-05-14T17:00:24Z</time>
      </trkpt>
      <trkpt lat="47.17244" lon="-1.49903">
        <ele>0.05</ele>
        <time>2020-05-14T17:00:26Z</time>
      </trkpt>
      <trkpt lat="47.17251" lon="-1.49923">
        <ele>-0.06</ele>
        <time>2020-05-14T17:00:28Z</time>
      </trkpt>
      <trkpt lat="47.17257" lon="-1.49942">
        <ele>-0.16</ele>
        <time>2020-05-14T17:00:30Z</time>
      </trkpt>
      <trkpt lat="47.17263" lon="-1.4996">
        <ele>-0.32</ele>
        <time>2020-05-14T17:00:32Z</time>
      </trkpt>
      <trkpt lat="47.17267" lon="-1.49975">
        <ele>-0.65</ele>
        <time>2020-05-14T17:00:34Z</time>
      </trkpt>
      <trkpt lat="47.17272" lon="-1.49992">
        <ele>-0.37</ele>
        <time>2020-05-14T17:00:38Z</time>
      </trkpt>
      <trkpt lat="47.17278" lon="-1.50008">
        <ele>-0.44</ele>
        <time>2020-05-14T17:00:41Z</time>
      </trkpt>
      <trkpt lat="47.17286" lon="-1.50025">
        <ele>-1.47</ele>
        <time>2020-05-14T17:00:43Z</time>
      </trkpt>
      <trkpt lat="47.17292" lon="-1.50037">
        <ele>-1.87</ele>
        <time>2020-05-14T17:00:45Z</time>
      </trkpt>
      <trkpt lat="47.17299" lon="-1.50051">
        <ele>-1.62</ele>
        <time>2020-05-14T17:00:50Z</time>
      </trkpt>
      <trkpt lat="47.17308" lon="-1.50065">
        <ele>-0.86</ele>
        <time>2020-05-14T17:00:53Z</time>
      </trkpt>
      <trkpt lat="47.17316" lon="-1.50076">
        <ele>-0.91</ele>
        <time>2020-05-14T17:00:55Z</time>
      </trkpt>
      <trkpt lat="47.17325" lon="-1.50089">
        <ele>-0.65</ele>
        <time>2020-05-14T17:00:57Z</time>
      </trkpt>
      <trkpt lat="47.17331" lon="-1.50102">
        <ele>0.22</ele>
        <time>2020-05-14T17:00:59Z</time>
      </trkpt>
      <trkpt lat="47.17338" lon="-1.50115">
        <ele>1.18</ele>
        <time>2020-05-14T17:01:01Z</time>
      </trkpt>
      <trkpt lat="47.17347" lon="-1.50135">
        <ele>1.43</ele>
        <time>2020-05-14T17:01:03Z</time>
      </trkpt>
      <trkpt lat="47.17353" lon="-1.50152">
        <ele>1.43</ele>
        <time>2020-05-14T17:01:05Z</time>
      </trkpt>
      <trkpt lat="47.17361" lon="-1.50169">
        <ele>1.04</ele>
        <time>2020-05-14T17:01:07Z</time>
      </trkpt>
      <trkpt lat="47.17368" lon="-1.50186">
        <ele>0.28</ele>
        <time>2020-05-14T17:01:09Z</time>
      </trkpt>
      <trkpt lat="47.17375" lon="-1.50202">
        <ele>-1.1</ele>
        <time>2020-05-14T17:01:11Z</time>
      </trkpt>
      <trkpt lat="47.17382" lon="-1.5022">
        <ele>-1.32</ele>
        <time>2020-05-14T17:01:13Z</time>
      </trkpt>
      <trkpt lat="47.17389" lon="-1.50236">
        <ele>-0.97</ele>
        <time>2020-05-14T17:01:15Z</time>
      </trkpt>
      <trkpt lat="47.17396" lon="-1.50252">
        <ele>-0.4</ele>
        <time>2020-05-14T17:01:17Z</time>
      </trkpt>
      <trkpt lat="47.17404" lon="-1.5027">
        <ele>0.7</ele>
        <time>2020-05-14T17:01:19Z</time>
      </trkpt>
      <trkpt lat="47.1741" lon="-1.50286">
        <ele>0.89</ele>
        <time>2020-05-14T17:01:21Z</time>
      </trkpt>
      <trkpt lat="47.17415" lon="-1.50301">
        <ele>1.92</ele>
        <time>2020-05-14T17:01:23Z</time>
      </trkpt>
      <trkpt lat="47.17422" lon="-1.50319">
        <ele>2.91</ele>
        <time>2020-05-14T17:01:25Z</time>
      </trkpt>
      <trkpt lat="47.17429" lon="-1.50335">
        <ele>3.43</ele>
        <time>2020-05-14T17:01:27Z</time>
      </trkpt>
      <trkpt lat="47.17437" lon="-1.50353">
        <ele>3.6</ele>
        <time>2020-05-14T17:01:29Z</time>
      </trkpt>
      <trkpt lat="47.17445" lon="-1.50368">
        <ele>4.42</ele>
        <time>2020-05-14T17:01:31Z</time>
      </trkpt>
      <trkpt lat="47.17452" lon="-1.50383">
        <ele>5.15</ele>
        <time>2020-05-14T17:01:33Z</time>
      </trkpt>
      <trkpt lat="47.17461" lon="-1.50398">
        <ele>4.82</ele>
        <time>2020-05-14T17:01:35Z</time>
      </trkpt>
      <trkpt lat="47.17469" lon="-1.50413">
        <ele>3.71</ele>
        <time>2020-05-14T17:01:37Z</time>
      </trkpt>
      <trkpt lat="47.17477" lon="-1.50428">
        <ele>2.22</ele>
        <time>2020-05-14T17:01:39Z</time>
      </trkpt>
      <trkpt lat="47.17484" lon="-1.50441">
        <ele>1.37</ele>
        <time>2020-05-14T17:01:41Z</time>
      </trkpt>
      <trkpt lat="47.17491" lon="-1.50455">
        <ele>1.9</ele>
        <time>2020-05-14T17:01:43Z</time>
      </trkpt>
      <trkpt lat="47.17497" lon="-1.50469">
        <ele>2.15</ele>
        <time>2020-05-14T17:01:45Z</time>
      </trkpt>
      <trkpt lat="47.17505" lon="-1.50484">
        <ele>2.1</ele>
        <time>2020-05-14T17:01:47Z</time>
      </trkpt>
      <trkpt lat="47.17513" lon="-1.50498">
        <ele>1.1</ele>
        <time>2020-05-14T17:01:49Z</time>
      </trkpt>
      <trkpt lat="47.17522" lon="-1.50516">
        <ele>0.29</ele>
        <time>2020-05-14T17:01:51Z</time>
      </trkpt>
      <trkpt lat="47.17531" lon="-1.5053">
        <ele>0.85</ele>
        <time>2020-05-14T17:01:53Z</time>
      </trkpt>
      <trkpt lat="47.17539" lon="-1.50544">
        <ele>1.32</ele>
        <time>2020-05-14T17:01:55Z</time>
      </trkpt>
      <trkpt lat="47.17548" lon="-1.50561">
        <ele>2.12</ele>
        <time>2020-05-14T17:01:57Z</time>
      </trkpt>
      <trkpt lat="47.17557" lon="-1.50577">
        <ele>3</ele>
        <time>2020-05-14T17:01:59Z</time>
      </trkpt>
      <trkpt lat="47.17567" lon="-1.50592">
        <ele>2.46</ele>
        <time>2020-05-14T17:02:01Z</time>
      </trkpt>
      <trkpt lat="47.17575" lon="-1.50604">
        <ele>2.45</ele>
        <time>2020-05-14T17:02:03Z</time>
      </trkpt>
      <trkpt lat="47.17584" lon="-1.50617">
        <ele>2.78</ele>
        <time>2020-05-14T17:02:05Z</time>
      </trkpt>
      <trkpt lat="47.17592" lon="-1.50629">
        <ele>1.05</ele>
        <time>2020-05-14T17:02:07Z</time>
      </trkpt>
      <trkpt lat="47.17602" lon="-1.50644">
        <ele>0.24</ele>
        <time>2020-05-14T17:02:09Z</time>
      </trkpt>
      <trkpt lat="47.17611" lon="-1.50657">
        <ele>0.23</ele>
        <time>2020-05-14T17:02:11Z</time>
      </trkpt>
      <trkpt lat="47.17619" lon="-1.50668">
        <ele>0.86</ele>
        <time>2020-05-14T17:02:13Z</time>
      </trkpt>
      <trkpt lat="47.17627" lon="-1.50678">
        <ele>0.15</ele>
        <time>2020-05-14T17:02:15Z</time>
      </trkpt>
      <trkpt lat="47.17637" lon="-1.50693">
        <ele>-1.18</ele>
        <time>2020-05-14T17:02:18Z</time>
      </trkpt>
      <trkpt lat="47.17647" lon="-1.50704">
        <ele>-0.75</ele>
        <time>2020-05-14T17:02:20Z</time>
      </trkpt>
      <trkpt lat="47.17652" lon="-1.50718">
        <ele>0.24</ele>
        <time>2020-05-14T17:02:22Z</time>
      </trkpt>
      <trkpt lat="47.17651" lon="-1.50732">
        <ele>0.95</ele>
        <time>2020-05-14T17:02:24Z</time>
      </trkpt>
      <trkpt lat="47.17644" lon="-1.50747">
        <ele>1.57</ele>
        <time>2020-05-14T17:02:26Z</time>
      </trkpt>
      <trkpt lat="47.17636" lon="-1.50764">
        <ele>2.04</ele>
        <time>2020-05-14T17:02:28Z</time>
      </trkpt>
      <trkpt lat="47.17632" lon="-1.50777">
        <ele>2.93</ele>
        <time>2020-05-14T17:02:30Z</time>
      </trkpt>
      <trkpt lat="47.17637" lon="-1.50796">
        <ele>3.8</ele>
        <time>2020-05-14T17:02:33Z</time>
      </trkpt>
      <trkpt lat="47.17646" lon="-1.50807">
        <ele>3.41</ele>
        <time>2020-05-14T17:02:36Z</time>
      </trkpt>
      <trkpt lat="47.17654" lon="-1.50814">
        <ele>3.97</ele>
        <time>2020-05-14T17:02:38Z</time>
      </trkpt>
      <trkpt lat="47.17666" lon="-1.50818">
        <ele>5.56</ele>
        <time>2020-05-14T17:02:40Z</time>
      </trkpt>
      <trkpt lat="47.17677" lon="-1.50814">
        <ele>5.03</ele>
        <time>2020-05-14T17:02:42Z</time>
      </trkpt>
      <trkpt lat="47.17687" lon="-1.508">
        <ele>3.24</ele>
        <time>2020-05-14T17:02:44Z</time>
      </trkpt>
      <trkpt lat="47.17696" lon="-1.5079">
        <ele>2.09</ele>
        <time>2020-05-14T17:02:46Z</time>
      </trkpt>
      <trkpt lat="47.17706" lon="-1.50791">
        <ele>1.2</ele>
        <time>2020-05-14T17:02:48Z</time>
      </trkpt>
      <trkpt lat="47.17716" lon="-1.50802">
        <ele>0.96</ele>
        <time>2020-05-14T17:02:50Z</time>
      </trkpt>
      <trkpt lat="47.17725" lon="-1.50815">
        <ele>1.44</ele>
        <time>2020-05-14T17:02:52Z</time>
      </trkpt>
      <trkpt lat="47.17734" lon="-1.50828">
        <ele>2.44</ele>
        <time>2020-05-14T17:02:54Z</time>
      </trkpt>
      <trkpt lat="47.17744" lon="-1.50841">
        <ele>4.18</ele>
        <time>2020-05-14T17:02:56Z</time>
      </trkpt>
      <trkpt lat="47.17754" lon="-1.50855">
        <ele>5.32</ele>
        <time>2020-05-14T17:02:58Z</time>
      </trkpt>
      <trkpt lat="47.17764" lon="-1.50867">
        <ele>5.16</ele>
        <time>2020-05-14T17:03:00Z</time>
      </trkpt>
      <trkpt lat="47.17775" lon="-1.50878">
        <ele>5.35</ele>
        <time>2020-05-14T17:03:02Z</time>
      </trkpt>
      <trkpt lat="47.17786" lon="-1.5089">
        <ele>5.72</ele>
        <time>2020-05-14T17:03:04Z</time>
      </trkpt>
      <trkpt lat="47.17797" lon="-1.50902">
        <ele>4.92</ele>
        <time>2020-05-14T17:03:06Z</time>
      </trkpt>
      <trkpt lat="47.17807" lon="-1.50914">
        <ele>4.1</ele>
        <time>2020-05-14T17:03:08Z</time>
      </trkpt>
      <trkpt lat="47.17816" lon="-1.50922">
        <ele>3.9</ele>
        <time>2020-05-14T17:03:10Z</time>
      </trkpt>
      <trkpt lat="47.17826" lon="-1.50932">
        <ele>3.91</ele>
        <time>2020-05-14T17:03:12Z</time>
      </trkpt>
      <trkpt lat="47.17837" lon="-1.50943">
        <ele>4.52</ele>
        <time>2020-05-14T17:03:14Z</time>
      </trkpt>
      <trkpt lat="47.17846" lon="-1.50953">
        <ele>5.27</ele>
        <time>2020-05-14T17:03:16Z</time>
      </trkpt>
      <trkpt lat="47.17854" lon="-1.50965">
        <ele>6.2</ele>
        <time>2020-05-14T17:03:18Z</time>
      </trkpt>
      <trkpt lat="47.17864" lon="-1.50977">
        <ele>7.2</ele>
        <time>2020-05-14T17:03:20Z</time>
      </trkpt>
      <trkpt lat="47.17873" lon="-1.50991">
        <ele>7.45</ele>
        <time>2020-05-14T17:03:22Z</time>
      </trkpt>
      <trkpt lat="47.17883" lon="-1.51003">
        <ele>7.58</ele>
        <time>2020-05-14T17:03:24Z</time>
      </trkpt>
      <trkpt lat="47.17892" lon="-1.51015">
        <ele>7.44</ele>
        <time>2020-05-14T17:03:26Z</time>
      </trkpt>
      <trkpt lat="47.17899" lon="-1.51026">
        <ele>6.15</ele>
        <time>2020-05-14T17:03:28Z</time>
      </trkpt>
      <trkpt lat="47.17907" lon="-1.51038">
        <ele>4.56</ele>
        <time>2020-05-14T17:03:30Z</time>
      </trkpt>
      <trkpt lat="47.17914" lon="-1.51047">
        <ele>2.56</ele>
        <time>2020-05-14T17:03:32Z</time>
      </trkpt>
      <trkpt lat="47.17923" lon="-1.51058">
        <ele>1.11</ele>
        <time>2020-05-14T17:03:34Z</time>
      </trkpt>
      <trkpt lat="47.17932" lon="-1.51072">
        <ele>-0.47</ele>
        <time>2020-05-14T17:03:36Z</time>
      </trkpt>
      <trkpt lat="47.17941" lon="-1.51087">
        <ele>-1.51</ele>
        <time>2020-05-14T17:03:38Z</time>
      </trkpt>
      <trkpt lat="47.17948" lon="-1.51096">
        <ele>-1.2</ele>
        <time>2020-05-14T17:03:40Z</time>
      </trkpt>
      <trkpt lat="47.17958" lon="-1.51107">
        <ele>-0.55</ele>
        <time>2020-05-14T17:03:42Z</time>
      </trkpt>
      <trkpt lat="47.17966" lon="-1.51117">
        <ele>0.46</ele>
        <time>2020-05-14T17:03:44Z</time>
      </trkpt>
      <trkpt lat="47.17976" lon="-1.51129">
        <ele>-1.66</ele>
        <time>2020-05-14T17:03:46Z</time>
      </trkpt>
      <trkpt lat="47.17988" lon="-1.51139">
        <ele>-3.38</ele>
        <time>2020-05-14T17:03:48Z</time>
      </trkpt>
      <trkpt lat="47.18" lon="-1.51145">
        <ele>-4.14</ele>
        <time>2020-05-14T17:03:50Z</time>
      </trkpt>
      <trkpt lat="47.1801" lon="-1.51151">
        <ele>-5.32</ele>
        <time>2020-05-14T17:03:52Z</time>
      </trkpt>
      <trkpt lat="47.18022" lon="-1.51155">
        <ele>-5.51</ele>
        <time>2020-05-14T17:03:54Z</time>
      </trkpt>
      <trkpt lat="47.18032" lon="-1.51158">
        <ele>-5.32</ele>
        <time>2020-05-14T17:03:56Z</time>
      </trkpt>
      <trkpt lat="47.18042" lon="-1.51159">
        <ele>-5.49</ele>
        <time>2020-05-14T17:03:58Z</time>
      </trkpt>
      <trkpt lat="47.18054" lon="-1.51161">
        <ele>-4.25</ele>
        <time>2020-05-14T17:04:01Z</time>
      </trkpt>
      <trkpt lat="47.18059" lon="-1.51181">
        <ele>-3.56</ele>
        <time>2020-05-14T17:04:04Z</time>
      </trkpt>
      <trkpt lat="47.18059" lon="-1.51197">
        <ele>-1.82</ele>
        <time>2020-05-14T17:04:06Z</time>
      </trkpt>
      <trkpt lat="47.1806" lon="-1.51215">
        <ele>-0.62</ele>
        <time>2020-05-14T17:04:08Z</time>
      </trkpt>
      <trkpt lat="47.18061" lon="-1.51233">
        <ele>0.45</ele>
        <time>2020-05-14T17:04:10Z</time>
      </trkpt>
      <trkpt lat="47.18062" lon="-1.51249">
        <ele>0.87</ele>
        <time>2020-05-14T17:04:12Z</time>
      </trkpt>
      <trkpt lat="47.18063" lon="-1.51267">
        <ele>1.63</ele>
        <time>2020-05-14T17:04:14Z</time>
      </trkpt>
      <trkpt lat="47.18064" lon="-1.51283">
        <ele>1.42</ele>
        <time>2020-05-14T17:04:16Z</time>
      </trkpt>
      <trkpt lat="47.18065" lon="-1.51299">
        <ele>0.9</ele>
        <time>2020-05-14T17:04:18Z</time>
      </trkpt>
      <trkpt lat="47.18068" lon="-1.51316">
        <ele>0.35</ele>
        <time>2020-05-14T17:04:20Z</time>
      </trkpt>
      <trkpt lat="47.18073" lon="-1.51336">
        <ele>-0.38</ele>
        <time>2020-05-14T17:04:22Z</time>
      </trkpt>
      <trkpt lat="47.18079" lon="-1.51356">
        <ele>-1.59</ele>
        <time>2020-05-14T17:04:24Z</time>
      </trkpt>
      <trkpt lat="47.18084" lon="-1.51369">
        <ele>-2.83</ele>
        <time>2020-05-14T17:04:26Z</time>
      </trkpt>
      <trkpt lat="47.1809" lon="-1.51381">
        <ele>-2.93</ele>
        <time>2020-05-14T17:04:28Z</time>
      </trkpt>
      <trkpt lat="47.18095" lon="-1.51393">
        <ele>-2.95</ele>
        <time>2020-05-14T17:04:30Z</time>
      </trkpt>
      <trkpt lat="47.18101" lon="-1.51409">
        <ele>-3.72</ele>
        <time>2020-05-14T17:04:32Z</time>
      </trkpt>
      <trkpt lat="47.18107" lon="-1.51424">
        <ele>-5.09</ele>
        <time>2020-05-14T17:04:34Z</time>
      </trkpt>
      <trkpt lat="47.18113" lon="-1.51442">
        <ele>-5.27</ele>
        <time>2020-05-14T17:04:36Z</time>
      </trkpt>
      <trkpt lat="47.18119" lon="-1.5146">
        <ele>-5.43</ele>
        <time>2020-05-14T17:04:38Z</time>
      </trkpt>
      <trkpt lat="47.18123" lon="-1.51477">
        <ele>-4.63</ele>
        <time>2020-05-14T17:04:40Z</time>
      </trkpt>
      <trkpt lat="47.18127" lon="-1.5149">
        <ele>-3.54</ele>
        <time>2020-05-14T17:04:42Z</time>
      </trkpt>
      <trkpt lat="47.1813" lon="-1.51504">
        <ele>-2.58</ele>
        <time>2020-05-14T17:04:44Z</time>
      </trkpt>
      <trkpt lat="47.18134" lon="-1.5152">
        <ele>-2.19</ele>
        <time>2020-05-14T17:04:46Z</time>
      </trkpt>
      <trkpt lat="47.18138" lon="-1.51535">
        <ele>-1.96</ele>
        <time>2020-05-14T17:04:48Z</time>
      </trkpt>
      <trkpt lat="47.18141" lon="-1.51556">
        <ele>-1.79</ele>
        <time>2020-05-14T17:04:50Z</time>
      </trkpt>
      <trkpt lat="47.18144" lon="-1.51571">
        <ele>-0.76</ele>
        <time>2020-05-14T17:04:52Z</time>
      </trkpt>
      <trkpt lat="47.18146" lon="-1.51585">
        <ele>-0.69</ele>
        <time>2020-05-14T17:04:54Z</time>
      </trkpt>
      <trkpt lat="47.18148" lon="-1.51601">
        <ele>-0.79</ele>
        <time>2020-05-14T17:04:56Z</time>
      </trkpt>
      <trkpt lat="47.1815" lon="-1.5162">
        <ele>-1.89</ele>
        <time>2020-05-14T17:04:58Z</time>
      </trkpt>
      <trkpt lat="47.18153" lon="-1.51641">
        <ele>-2.29</ele>
        <time>2020-05-14T17:05:00Z</time>
      </trkpt>
      <trkpt lat="47.18153" lon="-1.51658">
        <ele>-2.19</ele>
        <time>2020-05-14T17:05:02Z</time>
      </trkpt>
      <trkpt lat="47.18154" lon="-1.51673">
        <ele>-1.89</ele>
        <time>2020-05-14T17:05:04Z</time>
      </trkpt>
      <trkpt lat="47.18155" lon="-1.5169">
        <ele>-2.15</ele>
        <time>2020-05-14T17:05:06Z</time>
      </trkpt>
      <trkpt lat="47.18156" lon="-1.51706">
        <ele>-1.9</ele>
        <time>2020-05-14T17:05:08Z</time>
      </trkpt>
      <trkpt lat="47.18158" lon="-1.5172">
        <ele>-2.55</ele>
        <time>2020-05-14T17:05:10Z</time>
      </trkpt>
      <trkpt lat="47.18158" lon="-1.51734">
        <ele>-2.87</ele>
        <time>2020-05-14T17:05:12Z</time>
      </trkpt>
      <trkpt lat="47.18159" lon="-1.51748">
        <ele>-2.54</ele>
        <time>2020-05-14T17:05:14Z</time>
      </trkpt>
      <trkpt lat="47.18151" lon="-1.51766">
        <ele>-1.76</ele>
        <time>2020-05-14T17:05:17Z</time>
      </trkpt>
      <trkpt lat="47.18141" lon="-1.51778">
        <ele>-0.57</ele>
        <time>2020-05-14T17:05:19Z</time>
      </trkpt>
      <trkpt lat="47.18133" lon="-1.51789">
        <ele>-0.27</ele>
        <time>2020-05-14T17:05:22Z</time>
      </trkpt>
      <trkpt lat="47.18126" lon="-1.518">
        <ele>0.82</ele>
        <time>2020-05-14T17:05:23Z</time>
      </trkpt>
      <trkpt lat="47.18118" lon="-1.51812">
        <ele>1.48</ele>
        <time>2020-05-14T17:05:26Z</time>
      </trkpt>
      <trkpt lat="47.18112" lon="-1.51825">
        <ele>2.19</ele>
        <time>2020-05-14T17:05:28Z</time>
      </trkpt>
      <trkpt lat="47.18109" lon="-1.51842">
        <ele>3.15</ele>
        <time>2020-05-14T17:05:30Z</time>
      </trkpt>
      <trkpt lat="47.18109" lon="-1.51858">
        <ele>3.55</ele>
        <time>2020-05-14T17:05:32Z</time>
      </trkpt>
      <trkpt lat="47.1811" lon="-1.51875">
        <ele>4.01</ele>
        <time>2020-05-14T17:05:34Z</time>
      </trkpt>
      <trkpt lat="47.18113" lon="-1.5189">
        <ele>4.96</ele>
        <time>2020-05-14T17:05:36Z</time>
      </trkpt>
      <trkpt lat="47.18116" lon="-1.51908">
        <ele>5.36</ele>
        <time>2020-05-14T17:05:39Z</time>
      </trkpt>
      <trkpt lat="47.18119" lon="-1.51924">
        <ele>5.64</ele>
        <time>2020-05-14T17:05:41Z</time>
      </trkpt>
      <trkpt lat="47.18121" lon="-1.51938">
        <ele>5.95</ele>
        <time>2020-05-14T17:05:43Z</time>
      </trkpt>
      <trkpt lat="47.18123" lon="-1.51955">
        <ele>5.2</ele>
        <time>2020-05-14T17:05:45Z</time>
      </trkpt>
      <trkpt lat="47.18124" lon="-1.51973">
        <ele>4.05</ele>
        <time>2020-05-14T17:05:47Z</time>
      </trkpt>
      <trkpt lat="47.18125" lon="-1.51988">
        <ele>3.34</ele>
        <time>2020-05-14T17:05:49Z</time>
      </trkpt>
      <trkpt lat="47.18126" lon="-1.52006">
        <ele>2.23</ele>
        <time>2020-05-14T17:05:51Z</time>
      </trkpt>
      <trkpt lat="47.18128" lon="-1.52024">
        <ele>2.25</ele>
        <time>2020-05-14T17:05:53Z</time>
      </trkpt>
      <trkpt lat="47.18129" lon="-1.52039">
        <ele>2.66</ele>
        <time>2020-05-14T17:05:55Z</time>
      </trkpt>
      <trkpt lat="47.1813" lon="-1.52056">
        <ele>1.79</ele>
        <time>2020-05-14T17:05:57Z</time>
      </trkpt>
      <trkpt lat="47.18132" lon="-1.52074">
        <ele>1.3</ele>
        <time>2020-05-14T17:05:59Z</time>
      </trkpt>
      <trkpt lat="47.18134" lon="-1.52089">
        <ele>1.43</ele>
        <time>2020-05-14T17:06:01Z</time>
      </trkpt>
      <trkpt lat="47.18139" lon="-1.52109">
        <ele>0.1</ele>
        <time>2020-05-14T17:06:04Z</time>
      </trkpt>
      <trkpt lat="47.18143" lon="-1.52121">
        <ele>0.01</ele>
        <time>2020-05-14T17:06:06Z</time>
      </trkpt>
      <trkpt lat="47.1815" lon="-1.52132">
        <ele>0.4</ele>
        <time>2020-05-14T17:06:09Z</time>
      </trkpt>
      <trkpt lat="47.18155" lon="-1.52143">
        <ele>0.6</ele>
        <time>2020-05-14T17:06:11Z</time>
      </trkpt>
      <trkpt lat="47.18161" lon="-1.52161">
        <ele>0.06</ele>
        <time>2020-05-14T17:06:15Z</time>
      </trkpt>
      <trkpt lat="47.18166" lon="-1.52177">
        <ele>-0.86</ele>
        <time>2020-05-14T17:06:17Z</time>
      </trkpt>
      <trkpt lat="47.1817" lon="-1.52191">
        <ele>-0.92</ele>
        <time>2020-05-14T17:06:19Z</time>
      </trkpt>
      <trkpt lat="47.18173" lon="-1.52209">
        <ele>-0.44</ele>
        <time>2020-05-14T17:06:21Z</time>
      </trkpt>
      <trkpt lat="47.18178" lon="-1.52228">
        <ele>0.21</ele>
        <time>2020-05-14T17:06:23Z</time>
      </trkpt>
      <trkpt lat="47.18185" lon="-1.52241">
        <ele>0.44</ele>
        <time>2020-05-14T17:06:27Z</time>
      </trkpt>
      <trkpt lat="47.18189" lon="-1.52258">
        <ele>0.13</ele>
        <time>2020-05-14T17:06:30Z</time>
      </trkpt>
      <trkpt lat="47.18191" lon="-1.52278">
        <ele>0.22</ele>
        <time>2020-05-14T17:06:33Z</time>
      </trkpt>
      <trkpt lat="47.18192" lon="-1.52293">
        <ele>0.1</ele>
        <time>2020-05-14T17:06:35Z</time>
      </trkpt>
      <trkpt lat="47.18193" lon="-1.52307">
        <ele>0.8</ele>
        <time>2020-05-14T17:06:37Z</time>
      </trkpt>
      <trkpt lat="47.18191" lon="-1.52324">
        <ele>0.88</ele>
        <time>2020-05-14T17:06:39Z</time>
      </trkpt>
      <trkpt lat="47.18188" lon="-1.5234">
        <ele>0.21</ele>
        <time>2020-05-14T17:06:41Z</time>
      </trkpt>
      <trkpt lat="47.18187" lon="-1.52354">
        <ele>3.5</ele>
        <time>2020-05-14T17:06:43Z</time>
      </trkpt>
      <trkpt lat="47.18187" lon="-1.52369">
        <ele>0.3</ele>
        <time>2020-05-14T17:06:45Z</time>
      </trkpt>
      <trkpt lat="47.18186" lon="-1.52385">
        <ele>-0.1</ele>
        <time>2020-05-14T17:06:47Z</time>
      </trkpt>
      <trkpt lat="47.18187" lon="-1.52407">
        <ele>1.09</ele>
        <time>2020-05-14T17:06:50Z</time>
      </trkpt>
      <trkpt lat="47.1819" lon="-1.52422">
        <ele>1.56</ele>
        <time>2020-05-14T17:06:52Z</time>
      </trkpt>
      <trkpt lat="47.18195" lon="-1.52435">
        <ele>1.69</ele>
        <time>2020-05-14T17:06:55Z</time>
      </trkpt>
      <trkpt lat="47.18196" lon="-1.5245">
        <ele>2.04</ele>
        <time>2020-05-14T17:06:57Z</time>
      </trkpt>
      <trkpt lat="47.18195" lon="-1.52469">
        <ele>2.41</ele>
        <time>2020-05-14T17:06:59Z</time>
      </trkpt>
      <trkpt lat="47.18193" lon="-1.52483">
        <ele>3.14</ele>
        <time>2020-05-14T17:07:01Z</time>
      </trkpt>
      <trkpt lat="47.18192" lon="-1.52498">
        <ele>3.47</ele>
        <time>2020-05-14T17:07:03Z</time>
      </trkpt>
      <trkpt lat="47.18192" lon="-1.52512">
        <ele>3.97</ele>
        <time>2020-05-14T17:07:05Z</time>
      </trkpt>
      <trkpt lat="47.18195" lon="-1.52529">
        <ele>5.54</ele>
        <time>2020-05-14T17:07:07Z</time>
      </trkpt>
      <trkpt lat="47.182" lon="-1.52541">
        <ele>6.64</ele>
        <time>2020-05-14T17:07:09Z</time>
      </trkpt>
      <trkpt lat="47.18207" lon="-1.52553">
        <ele>6.8</ele>
        <time>2020-05-14T17:07:12Z</time>
      </trkpt>
      <trkpt lat="47.18211" lon="-1.52566">
        <ele>6.68</ele>
        <time>2020-05-14T17:07:15Z</time>
      </trkpt>
      <trkpt lat="47.18215" lon="-1.52581">
        <ele>6.6</ele>
        <time>2020-05-14T17:07:17Z</time>
      </trkpt>
      <trkpt lat="47.1822" lon="-1.52596">
        <ele>6.55</ele>
        <time>2020-05-14T17:07:20Z</time>
      </trkpt>
      <trkpt lat="47.18229" lon="-1.52608">
        <ele>7.23</ele>
        <time>2020-05-14T17:07:23Z</time>
      </trkpt>
      <trkpt lat="47.18237" lon="-1.52624">
        <ele>7.15</ele>
        <time>2020-05-14T17:07:25Z</time>
      </trkpt>
      <trkpt lat="47.18241" lon="-1.52639">
        <ele>6.04</ele>
        <time>2020-05-14T17:07:27Z</time>
      </trkpt>
      <trkpt lat="47.18242" lon="-1.52657">
        <ele>4.77</ele>
        <time>2020-05-14T17:07:29Z</time>
      </trkpt>
      <trkpt lat="47.18241" lon="-1.52678">
        <ele>4.43</ele>
        <time>2020-05-14T17:07:31Z</time>
      </trkpt>
      <trkpt lat="47.18238" lon="-1.52695">
        <ele>4.75</ele>
        <time>2020-05-14T17:07:33Z</time>
      </trkpt>
      <trkpt lat="47.18235" lon="-1.52711">
        <ele>4.22</ele>
        <time>2020-05-14T17:07:35Z</time>
      </trkpt>
      <trkpt lat="47.18235" lon="-1.52727">
        <ele>3.58</ele>
        <time>2020-05-14T17:07:37Z</time>
      </trkpt>
      <trkpt lat="47.18237" lon="-1.52745">
        <ele>2.81</ele>
        <time>2020-05-14T17:07:39Z</time>
      </trkpt>
      <trkpt lat="47.18239" lon="-1.52761">
        <ele>2.61</ele>
        <time>2020-05-14T17:07:41Z</time>
      </trkpt>
      <trkpt lat="47.18243" lon="-1.52775">
        <ele>2.62</ele>
        <time>2020-05-14T17:07:43Z</time>
      </trkpt>
      <trkpt lat="47.18248" lon="-1.5279">
        <ele>2.81</ele>
        <time>2020-05-14T17:07:45Z</time>
      </trkpt>
      <trkpt lat="47.18254" lon="-1.52805">
        <ele>3.37</ele>
        <time>2020-05-14T17:07:47Z</time>
      </trkpt>
      <trkpt lat="47.1826" lon="-1.52822">
        <ele>3.98</ele>
        <time>2020-05-14T17:07:49Z</time>
      </trkpt>
      <trkpt lat="47.18265" lon="-1.5284">
        <ele>4.54</ele>
        <time>2020-05-14T17:07:51Z</time>
      </trkpt>
      <trkpt lat="47.18268" lon="-1.52856">
        <ele>4.51</ele>
        <time>2020-05-14T17:07:53Z</time>
      </trkpt>
      <trkpt lat="47.1827" lon="-1.5287">
        <ele>3.93</ele>
        <time>2020-05-14T17:07:55Z</time>
      </trkpt>
      <trkpt lat="47.18272" lon="-1.52887">
        <ele>3.6</ele>
        <time>2020-05-14T17:07:57Z</time>
      </trkpt>
      <trkpt lat="47.18275" lon="-1.52901">
        <ele>3.82</ele>
        <time>2020-05-14T17:07:59Z</time>
      </trkpt>
      <trkpt lat="47.1828" lon="-1.52914">
        <ele>3.91</ele>
        <time>2020-05-14T17:08:01Z</time>
      </trkpt>
      <trkpt lat="47.18286" lon="-1.52926">
        <ele>4.71</ele>
        <time>2020-05-14T17:08:03Z</time>
      </trkpt>
      <trkpt lat="47.18293" lon="-1.52938">
        <ele>4.75</ele>
        <time>2020-05-14T17:08:05Z</time>
      </trkpt>
      <trkpt lat="47.183" lon="-1.52951">
        <ele>3.63</ele>
        <time>2020-05-14T17:08:07Z</time>
      </trkpt>
      <trkpt lat="47.18308" lon="-1.52969">
        <ele>2.25</ele>
        <time>2020-05-14T17:08:09Z</time>
      </trkpt>
      <trkpt lat="47.18313" lon="-1.52988">
        <ele>2.41</ele>
        <time>2020-05-14T17:08:11Z</time>
      </trkpt>
      <trkpt lat="47.18319" lon="-1.53002">
        <ele>2.44</ele>
        <time>2020-05-14T17:08:13Z</time>
      </trkpt>
      <trkpt lat="47.18325" lon="-1.53013">
        <ele>2.6</ele>
        <time>2020-05-14T17:08:15Z</time>
      </trkpt>
      <trkpt lat="47.18331" lon="-1.53024">
        <ele>2.42</ele>
        <time>2020-05-14T17:08:17Z</time>
      </trkpt>
      <trkpt lat="47.18337" lon="-1.53037">
        <ele>2.34</ele>
        <time>2020-05-14T17:08:19Z</time>
      </trkpt>
      <trkpt lat="47.18343" lon="-1.53048">
        <ele>1.77</ele>
        <time>2020-05-14T17:08:21Z</time>
      </trkpt>
      <trkpt lat="47.18349" lon="-1.53059">
        <ele>1.13</ele>
        <time>2020-05-14T17:08:23Z</time>
      </trkpt>
      <trkpt lat="47.18358" lon="-1.53055">
        <ele>1.66</ele>
        <time>2020-05-14T17:08:26Z</time>
      </trkpt>
      <trkpt lat="47.18368" lon="-1.5305">
        <ele>1.87</ele>
        <time>2020-05-14T17:08:29Z</time>
      </trkpt>
      <trkpt lat="47.18368" lon="-1.53064">
        <ele>2.35</ele>
        <time>2020-05-14T17:08:33Z</time>
      </trkpt>
      <trkpt lat="47.18364" lon="-1.53078">
        <ele>3.48</ele>
        <time>2020-05-14T17:08:36Z</time>
      </trkpt>
      <trkpt lat="47.18353" lon="-1.53091">
        <ele>5.45</ele>
        <time>2020-05-14T17:08:39Z</time>
      </trkpt>
      <trkpt lat="47.18343" lon="-1.53101">
        <ele>5.5</ele>
        <time>2020-05-14T17:08:41Z</time>
      </trkpt>
      <trkpt lat="47.18333" lon="-1.53111">
        <ele>6.22</ele>
        <time>2020-05-14T17:08:43Z</time>
      </trkpt>
      <trkpt lat="47.18325" lon="-1.53118">
        <ele>6.48</ele>
        <time>2020-05-14T17:08:45Z</time>
      </trkpt>
      <trkpt lat="47.18316" lon="-1.53126">
        <ele>7.27</ele>
        <time>2020-05-14T17:08:47Z</time>
      </trkpt>
      <trkpt lat="47.18308" lon="-1.53132">
        <ele>7.46</ele>
        <time>2020-05-14T17:08:49Z</time>
      </trkpt>
      <trkpt lat="47.18298" lon="-1.53139">
        <ele>7.32</ele>
        <time>2020-05-14T17:08:51Z</time>
      </trkpt>
      <trkpt lat="47.18289" lon="-1.53147">
        <ele>6.8</ele>
        <time>2020-05-14T17:08:53Z</time>
      </trkpt>
      <trkpt lat="47.18279" lon="-1.53154">
        <ele>6.8</ele>
        <time>2020-05-14T17:08:55Z</time>
      </trkpt>
      <trkpt lat="47.18268" lon="-1.53164">
        <ele>6.66</ele>
        <time>2020-05-14T17:08:57Z</time>
      </trkpt>
      <trkpt lat="47.1826" lon="-1.53174">
        <ele>7.02</ele>
        <time>2020-05-14T17:08:59Z</time>
      </trkpt>
      <trkpt lat="47.18251" lon="-1.53185">
        <ele>6.69</ele>
        <time>2020-05-14T17:09:01Z</time>
      </trkpt>
      <trkpt lat="47.18252" lon="-1.53198">
        <ele>6.06</ele>
        <time>2020-05-14T17:09:05Z</time>
      </trkpt>
      <trkpt lat="47.1826" lon="-1.53189">
        <ele>5.98</ele>
        <time>2020-05-14T17:09:08Z</time>
      </trkpt>
      <trkpt lat="47.18268" lon="-1.53179">
        <ele>5.44</ele>
        <time>2020-05-14T17:09:10Z</time>
      </trkpt>
      <trkpt lat="47.18275" lon="-1.53171">
        <ele>4.62</ele>
        <time>2020-05-14T17:09:12Z</time>
      </trkpt>
      <trkpt lat="47.18284" lon="-1.53165">
        <ele>4.66</ele>
        <time>2020-05-14T17:09:14Z</time>
      </trkpt>
      <trkpt lat="47.18292" lon="-1.53169">
        <ele>4.63</ele>
        <time>2020-05-14T17:09:16Z</time>
      </trkpt>
      <trkpt lat="47.183" lon="-1.53183">
        <ele>4.71</ele>
        <time>2020-05-14T17:09:19Z</time>
      </trkpt>
      <trkpt lat="47.18306" lon="-1.53193">
        <ele>4.74</ele>
        <time>2020-05-14T17:09:21Z</time>
      </trkpt>
      <trkpt lat="47.18312" lon="-1.53204">
        <ele>4.91</ele>
        <time>2020-05-14T17:09:23Z</time>
      </trkpt>
      <trkpt lat="47.18318" lon="-1.53214">
        <ele>4.95</ele>
        <time>2020-05-14T17:09:25Z</time>
      </trkpt>
      <trkpt lat="47.18326" lon="-1.53227">
        <ele>5.26</ele>
        <time>2020-05-14T17:09:29Z</time>
      </trkpt>
      <trkpt lat="47.18334" lon="-1.53244">
        <ele>5.9</ele>
        <time>2020-05-14T17:09:32Z</time>
      </trkpt>
      <trkpt lat="47.18344" lon="-1.53258">
        <ele>6.85</ele>
        <time>2020-05-14T17:09:34Z</time>
      </trkpt>
      <trkpt lat="47.18354" lon="-1.5327">
        <ele>7.08</ele>
        <time>2020-05-14T17:09:36Z</time>
      </trkpt>
      <trkpt lat="47.18365" lon="-1.53282">
        <ele>6.68</ele>
        <time>2020-05-14T17:09:38Z</time>
      </trkpt>
      <trkpt lat="47.18377" lon="-1.53294">
        <ele>6.34</ele>
        <time>2020-05-14T17:09:40Z</time>
      </trkpt>
      <trkpt lat="47.18385" lon="-1.53303">
        <ele>6.52</ele>
        <time>2020-05-14T17:09:42Z</time>
      </trkpt>
      <trkpt lat="47.18393" lon="-1.53311">
        <ele>6.37</ele>
        <time>2020-05-14T17:09:45Z</time>
      </trkpt>
      <trkpt lat="47.184" lon="-1.53319">
        <ele>5.54</ele>
        <time>2020-05-14T17:09:47Z</time>
      </trkpt>
      <trkpt lat="47.18408" lon="-1.53329">
        <ele>3.92</ele>
        <time>2020-05-14T17:09:49Z</time>
      </trkpt>
      <trkpt lat="47.18416" lon="-1.53338">
        <ele>2.1</ele>
        <time>2020-05-14T17:09:51Z</time>
      </trkpt>
      <trkpt lat="47.18424" lon="-1.53347">
        <ele>0.39</ele>
        <time>2020-05-14T17:09:53Z</time>
      </trkpt>
      <trkpt lat="47.18434" lon="-1.53357">
        <ele>0.13</ele>
        <time>2020-05-14T17:09:55Z</time>
      </trkpt>
      <trkpt lat="47.18445" lon="-1.53371">
        <ele>-0.08</ele>
        <time>2020-05-14T17:09:57Z</time>
      </trkpt>
      <trkpt lat="47.18456" lon="-1.53384">
        <ele>0.17</ele>
        <time>2020-05-14T17:09:59Z</time>
      </trkpt>
      <trkpt lat="47.18466" lon="-1.53395">
        <ele>1.16</ele>
        <time>2020-05-14T17:10:01Z</time>
      </trkpt>
      <trkpt lat="47.18476" lon="-1.53405">
        <ele>1.71</ele>
        <time>2020-05-14T17:10:03Z</time>
      </trkpt>
      <trkpt lat="47.18484" lon="-1.53412">
        <ele>2.23</ele>
        <time>2020-05-14T17:10:05Z</time>
      </trkpt>
      <trkpt lat="47.18491" lon="-1.5342">
        <ele>2.29</ele>
        <time>2020-05-14T17:10:07Z</time>
      </trkpt>
      <trkpt lat="47.18499" lon="-1.5343">
        <ele>1.91</ele>
        <time>2020-05-14T17:10:09Z</time>
      </trkpt>
      <trkpt lat="47.18509" lon="-1.53444">
        <ele>1.47</ele>
        <time>2020-05-14T17:10:12Z</time>
      </trkpt>
      <trkpt lat="47.18517" lon="-1.53452">
        <ele>1.8</ele>
        <time>2020-05-14T17:10:14Z</time>
      </trkpt>
      <trkpt lat="47.18528" lon="-1.53459">
        <ele>2.8</ele>
        <time>2020-05-14T17:10:16Z</time>
      </trkpt>
      <trkpt lat="47.18538" lon="-1.53466">
        <ele>4.69</ele>
        <time>2020-05-14T17:10:18Z</time>
      </trkpt>
      <trkpt lat="47.18548" lon="-1.53477">
        <ele>7.18</ele>
        <time>2020-05-14T17:10:20Z</time>
      </trkpt>
      <trkpt lat="47.18557" lon="-1.53488">
        <ele>8.46</ele>
        <time>2020-05-14T17:10:22Z</time>
      </trkpt>
      <trkpt lat="47.18566" lon="-1.53499">
        <ele>9.26</ele>
        <time>2020-05-14T17:10:24Z</time>
      </trkpt>
      <trkpt lat="47.18575" lon="-1.53509">
        <ele>9.22</ele>
        <time>2020-05-14T17:10:26Z</time>
      </trkpt>
      <trkpt lat="47.18586" lon="-1.53518">
        <ele>8.49</ele>
        <time>2020-05-14T17:10:28Z</time>
      </trkpt>
      <trkpt lat="47.18598" lon="-1.53524">
        <ele>7.09</ele>
        <time>2020-05-14T17:10:30Z</time>
      </trkpt>
      <trkpt lat="47.18609" lon="-1.53532">
        <ele>5.6</ele>
        <time>2020-05-14T17:10:33Z</time>
      </trkpt>
      <trkpt lat="47.18618" lon="-1.53538">
        <ele>6.28</ele>
        <time>2020-05-14T17:10:35Z</time>
      </trkpt>
      <trkpt lat="47.18629" lon="-1.53543">
        <ele>6.61</ele>
        <time>2020-05-14T17:10:37Z</time>
      </trkpt>
      <trkpt lat="47.18641" lon="-1.53549">
        <ele>6.36</ele>
        <time>2020-05-14T17:10:39Z</time>
      </trkpt>
      <trkpt lat="47.18655" lon="-1.53557">
        <ele>5.01</ele>
        <time>2020-05-14T17:10:41Z</time>
      </trkpt>
      <trkpt lat="47.18667" lon="-1.53564">
        <ele>3.14</ele>
        <time>2020-05-14T17:10:43Z</time>
      </trkpt>
      <trkpt lat="47.1868" lon="-1.53568">
        <ele>1.32</ele>
        <time>2020-05-14T17:10:45Z</time>
      </trkpt>
      <trkpt lat="47.18692" lon="-1.53572">
        <ele>0.13</ele>
        <time>2020-05-14T17:10:47Z</time>
      </trkpt>
      <trkpt lat="47.18704" lon="-1.53576">
        <ele>-0.79</ele>
        <time>2020-05-14T17:10:49Z</time>
      </trkpt>
      <trkpt lat="47.18716" lon="-1.53579">
        <ele>-1.23</ele>
        <time>2020-05-14T17:10:51Z</time>
      </trkpt>
      <trkpt lat="47.18729" lon="-1.53583">
        <ele>-2.23</ele>
        <time>2020-05-14T17:10:53Z</time>
      </trkpt>
      <trkpt lat="47.18739" lon="-1.53587">
        <ele>-2.4</ele>
        <time>2020-05-14T17:10:55Z</time>
      </trkpt>
      <trkpt lat="47.18752" lon="-1.5359">
        <ele>-2.36</ele>
        <time>2020-05-14T17:10:57Z</time>
      </trkpt>
      <trkpt lat="47.18764" lon="-1.53593">
        <ele>-3.32</ele>
        <time>2020-05-14T17:10:59Z</time>
      </trkpt>
      <trkpt lat="47.18774" lon="-1.53596">
        <ele>-3.34</ele>
        <time>2020-05-14T17:11:01Z</time>
      </trkpt>
      <trkpt lat="47.18786" lon="-1.536">
        <ele>-3.25</ele>
        <time>2020-05-14T17:11:03Z</time>
      </trkpt>
      <trkpt lat="47.18797" lon="-1.53604">
        <ele>-2.85</ele>
        <time>2020-05-14T17:11:05Z</time>
      </trkpt>
      <trkpt lat="47.18808" lon="-1.53608">
        <ele>-2.98</ele>
        <time>2020-05-14T17:11:07Z</time>
      </trkpt>
      <trkpt lat="47.1882" lon="-1.53612">
        <ele>-4.23</ele>
        <time>2020-05-14T17:11:09Z</time>
      </trkpt>
      <trkpt lat="47.18833" lon="-1.53616">
        <ele>-5.86</ele>
        <time>2020-05-14T17:11:11Z</time>
      </trkpt>
      <trkpt lat="47.18844" lon="-1.53618">
        <ele>-5.81</ele>
        <time>2020-05-14T17:11:13Z</time>
      </trkpt>
      <trkpt lat="47.18853" lon="-1.53622">
        <ele>-5.16</ele>
        <time>2020-05-14T17:11:15Z</time>
      </trkpt>
      <trkpt lat="47.18863" lon="-1.53631">
        <ele>-3.13</ele>
        <time>2020-05-14T17:11:17Z</time>
      </trkpt>
      <trkpt lat="47.18874" lon="-1.53641">
        <ele>-0.93</ele>
        <time>2020-05-14T17:11:19Z</time>
      </trkpt>
      <trkpt lat="47.18885" lon="-1.53647">
        <ele>1.01</ele>
        <time>2020-05-14T17:11:21Z</time>
      </trkpt>
      <trkpt lat="47.18896" lon="-1.53653">
        <ele>1.89</ele>
        <time>2020-05-14T17:11:23Z</time>
      </trkpt>
      <trkpt lat="47.18906" lon="-1.53658">
        <ele>1.42</ele>
        <time>2020-05-14T17:11:25Z</time>
      </trkpt>
      <trkpt lat="47.18917" lon="-1.53665">
        <ele>1.28</ele>
        <time>2020-05-14T17:11:27Z</time>
      </trkpt>
      <trkpt lat="47.18926" lon="-1.53673">
        <ele>1.85</ele>
        <time>2020-05-14T17:11:29Z</time>
      </trkpt>
      <trkpt lat="47.18936" lon="-1.53684">
        <ele>2.76</ele>
        <time>2020-05-14T17:11:31Z</time>
      </trkpt>
      <trkpt lat="47.18947" lon="-1.53691">
        <ele>2.66</ele>
        <time>2020-05-14T17:11:33Z</time>
      </trkpt>
      <trkpt lat="47.18958" lon="-1.53697">
        <ele>2.82</ele>
        <time>2020-05-14T17:11:35Z</time>
      </trkpt>
      <trkpt lat="47.18971" lon="-1.53705">
        <ele>2.52</ele>
        <time>2020-05-14T17:11:37Z</time>
      </trkpt>
      <trkpt lat="47.18981" lon="-1.53712">
        <ele>2.67</ele>
        <time>2020-05-14T17:11:39Z</time>
      </trkpt>
      <trkpt lat="47.18993" lon="-1.53724">
        <ele>3.56</ele>
        <time>2020-05-14T17:11:41Z</time>
      </trkpt>
      <trkpt lat="47.19004" lon="-1.53736">
        <ele>3.89</ele>
        <time>2020-05-14T17:11:43Z</time>
      </trkpt>
      <trkpt lat="47.19014" lon="-1.53747">
        <ele>4.4</ele>
        <time>2020-05-14T17:11:45Z</time>
      </trkpt>
      <trkpt lat="47.19022" lon="-1.53757">
        <ele>5.08</ele>
        <time>2020-05-14T17:11:47Z</time>
      </trkpt>
      <trkpt lat="47.1903" lon="-1.53768">
        <ele>5.96</ele>
        <time>2020-05-14T17:11:49Z</time>
      </trkpt>
      <trkpt lat="47.1904" lon="-1.53779">
        <ele>7</ele>
        <time>2020-05-14T17:11:51Z</time>
      </trkpt>
      <trkpt lat="47.19052" lon="-1.53793">
        <ele>7.09</ele>
        <time>2020-05-14T17:11:53Z</time>
      </trkpt>
      <trkpt lat="47.19062" lon="-1.53803">
        <ele>7.15</ele>
        <time>2020-05-14T17:11:55Z</time>
      </trkpt>
      <trkpt lat="47.19072" lon="-1.53815">
        <ele>5.93</ele>
        <time>2020-05-14T17:11:57Z</time>
      </trkpt>
      <trkpt lat="47.19082" lon="-1.53827">
        <ele>4.84</ele>
        <time>2020-05-14T17:11:59Z</time>
      </trkpt>
      <trkpt lat="47.19092" lon="-1.53842">
        <ele>4.27</ele>
        <time>2020-05-14T17:12:01Z</time>
      </trkpt>
      <trkpt lat="47.19099" lon="-1.53853">
        <ele>4.14</ele>
        <time>2020-05-14T17:12:03Z</time>
      </trkpt>
      <trkpt lat="47.19109" lon="-1.53864">
        <ele>4.13</ele>
        <time>2020-05-14T17:12:05Z</time>
      </trkpt>
      <trkpt lat="47.19118" lon="-1.53879">
        <ele>4.4</ele>
        <time>2020-05-14T17:12:07Z</time>
      </trkpt>
      <trkpt lat="47.19127" lon="-1.53891">
        <ele>4.59</ele>
        <time>2020-05-14T17:12:09Z</time>
      </trkpt>
      <trkpt lat="47.19136" lon="-1.53898">
        <ele>3.18</ele>
        <time>2020-05-14T17:12:11Z</time>
      </trkpt>
      <trkpt lat="47.19145" lon="-1.53909">
        <ele>3.02</ele>
        <time>2020-05-14T17:12:13Z</time>
      </trkpt>
      <trkpt lat="47.19155" lon="-1.53919">
        <ele>3.21</ele>
        <time>2020-05-14T17:12:15Z</time>
      </trkpt>
      <trkpt lat="47.19165" lon="-1.53934">
        <ele>3.97</ele>
        <time>2020-05-14T17:12:17Z</time>
      </trkpt>
      <trkpt lat="47.19173" lon="-1.53947">
        <ele>4.98</ele>
        <time>2020-05-14T17:12:19Z</time>
      </trkpt>
      <trkpt lat="47.19181" lon="-1.53961">
        <ele>5.08</ele>
        <time>2020-05-14T17:12:21Z</time>
      </trkpt>
      <trkpt lat="47.19191" lon="-1.53978">
        <ele>4.38</ele>
        <time>2020-05-14T17:12:23Z</time>
      </trkpt>
      <trkpt lat="47.19199" lon="-1.53993">
        <ele>3.31</ele>
        <time>2020-05-14T17:12:25Z</time>
      </trkpt>
      <trkpt lat="47.19207" lon="-1.5401">
        <ele>3.21</ele>
        <time>2020-05-14T17:12:27Z</time>
      </trkpt>
      <trkpt lat="47.19214" lon="-1.54026">
        <ele>2.49</ele>
        <time>2020-05-14T17:12:30Z</time>
      </trkpt>
      <trkpt lat="47.19221" lon="-1.5404">
        <ele>1.22</ele>
        <time>2020-05-14T17:12:32Z</time>
      </trkpt>
      <trkpt lat="47.19226" lon="-1.54053">
        <ele>0.8</ele>
        <time>2020-05-14T17:12:34Z</time>
      </trkpt>
      <trkpt lat="47.19232" lon="-1.54067">
        <ele>1.17</ele>
        <time>2020-05-14T17:12:36Z</time>
      </trkpt>
      <trkpt lat="47.19236" lon="-1.5408">
        <ele>3.02</ele>
        <time>2020-05-14T17:12:38Z</time>
      </trkpt>
      <trkpt lat="47.19241" lon="-1.54093">
        <ele>4.42</ele>
        <time>2020-05-14T17:12:40Z</time>
      </trkpt>
      <trkpt lat="47.19248" lon="-1.54108">
        <ele>6.28</ele>
        <time>2020-05-14T17:12:42Z</time>
      </trkpt>
      <trkpt lat="47.19256" lon="-1.54124">
        <ele>6.94</ele>
        <time>2020-05-14T17:12:44Z</time>
      </trkpt>
      <trkpt lat="47.19264" lon="-1.54143">
        <ele>7.3</ele>
        <time>2020-05-14T17:12:46Z</time>
      </trkpt>
      <trkpt lat="47.19269" lon="-1.54157">
        <ele>7.76</ele>
        <time>2020-05-14T17:12:48Z</time>
      </trkpt>
      <trkpt lat="47.19276" lon="-1.54173">
        <ele>7.74</ele>
        <time>2020-05-14T17:12:50Z</time>
      </trkpt>
      <trkpt lat="47.19286" lon="-1.54185">
        <ele>6.86</ele>
        <time>2020-05-14T17:12:53Z</time>
      </trkpt>
      <trkpt lat="47.19294" lon="-1.54194">
        <ele>6.15</ele>
        <time>2020-05-14T17:12:55Z</time>
      </trkpt>
      <trkpt lat="47.19302" lon="-1.54203">
        <ele>5.59</ele>
        <time>2020-05-14T17:12:57Z</time>
      </trkpt>
      <trkpt lat="47.19309" lon="-1.54213">
        <ele>5.84</ele>
        <time>2020-05-14T17:12:59Z</time>
      </trkpt>
      <trkpt lat="47.19316" lon="-1.54227">
        <ele>5.23</ele>
        <time>2020-05-14T17:13:01Z</time>
      </trkpt>
      <trkpt lat="47.19323" lon="-1.54238">
        <ele>3.82</ele>
        <time>2020-05-14T17:13:03Z</time>
      </trkpt>
      <trkpt lat="47.19329" lon="-1.54249">
        <ele>2.58</ele>
        <time>2020-05-14T17:13:05Z</time>
      </trkpt>
      <trkpt lat="47.19335" lon="-1.54263">
        <ele>2.18</ele>
        <time>2020-05-14T17:13:07Z</time>
      </trkpt>
      <trkpt lat="47.19343" lon="-1.54279">
        <ele>1.63</ele>
        <time>2020-05-14T17:13:09Z</time>
      </trkpt>
      <trkpt lat="47.19352" lon="-1.54289">
        <ele>0.92</ele>
        <time>2020-05-14T17:13:11Z</time>
      </trkpt>
      <trkpt lat="47.19359" lon="-1.54299">
        <ele>0.94</ele>
        <time>2020-05-14T17:13:13Z</time>
      </trkpt>
      <trkpt lat="47.19367" lon="-1.54308">
        <ele>0.38</ele>
        <time>2020-05-14T17:13:15Z</time>
      </trkpt>
      <trkpt lat="47.19374" lon="-1.54317">
        <ele>0.71</ele>
        <time>2020-05-14T17:13:17Z</time>
      </trkpt>
      <trkpt lat="47.19383" lon="-1.54327">
        <ele>1.27</ele>
        <time>2020-05-14T17:13:19Z</time>
      </trkpt>
      <trkpt lat="47.19394" lon="-1.54341">
        <ele>1.54</ele>
        <time>2020-05-14T17:13:21Z</time>
      </trkpt>
      <trkpt lat="47.19402" lon="-1.54353">
        <ele>1.9</ele>
        <time>2020-05-14T17:13:23Z</time>
      </trkpt>
      <trkpt lat="47.19408" lon="-1.54363">
        <ele>2.67</ele>
        <time>2020-05-14T17:13:25Z</time>
      </trkpt>
      <trkpt lat="47.19416" lon="-1.54374">
        <ele>1.77</ele>
        <time>2020-05-14T17:13:27Z</time>
      </trkpt>
      <trkpt lat="47.19424" lon="-1.54388">
        <ele>1.18</ele>
        <time>2020-05-14T17:13:29Z</time>
      </trkpt>
      <trkpt lat="47.19433" lon="-1.54403">
        <ele>1.34</ele>
        <time>2020-05-14T17:13:31Z</time>
      </trkpt>
      <trkpt lat="47.19439" lon="-1.54414">
        <ele>1.44</ele>
        <time>2020-05-14T17:13:33Z</time>
      </trkpt>
      <trkpt lat="47.19448" lon="-1.5443">
        <ele>1.02</ele>
        <time>2020-05-14T17:13:36Z</time>
      </trkpt>
      <trkpt lat="47.19456" lon="-1.54443">
        <ele>1.51</ele>
        <time>2020-05-14T17:13:39Z</time>
      </trkpt>
      <trkpt lat="47.19459" lon="-1.54461">
        <ele>1.66</ele>
        <time>2020-05-14T17:13:41Z</time>
      </trkpt>
      <trkpt lat="47.19452" lon="-1.54472">
        <ele>2.84</ele>
        <time>2020-05-14T17:13:43Z</time>
      </trkpt>
      <trkpt lat="47.19442" lon="-1.54479">
        <ele>4.8</ele>
        <time>2020-05-14T17:13:46Z</time>
      </trkpt>
      <trkpt lat="47.19433" lon="-1.54485">
        <ele>4.97</ele>
        <time>2020-05-14T17:13:48Z</time>
      </trkpt>
      <trkpt lat="47.1943" lon="-1.54501">
        <ele>4.36</ele>
        <time>2020-05-14T17:13:51Z</time>
      </trkpt>
      <trkpt lat="47.19428" lon="-1.54519">
        <ele>4.32</ele>
        <time>2020-05-14T17:13:54Z</time>
      </trkpt>
      <trkpt lat="47.19423" lon="-1.54532">
        <ele>4.45</ele>
        <time>2020-05-14T17:13:57Z</time>
      </trkpt>
      <trkpt lat="47.19422" lon="-1.54546">
        <ele>4.11</ele>
        <time>2020-05-14T17:14:15Z</time>
      </trkpt>
      <trkpt lat="47.19434" lon="-1.54554">
        <ele>4.17</ele>
        <time>2020-05-14T17:14:18Z</time>
      </trkpt>
      <trkpt lat="47.19448" lon="-1.54565">
        <ele>4.07</ele>
        <time>2020-05-14T17:14:20Z</time>
      </trkpt>
      <trkpt lat="47.19459" lon="-1.54575">
        <ele>3.26</ele>
        <time>2020-05-14T17:14:22Z</time>
      </trkpt>
      <trkpt lat="47.19471" lon="-1.54585">
        <ele>2.42</ele>
        <time>2020-05-14T17:14:24Z</time>
      </trkpt>
      <trkpt lat="47.19475" lon="-1.54604">
        <ele>2.32</ele>
        <time>2020-05-14T17:14:26Z</time>
      </trkpt>
      <trkpt lat="47.19469" lon="-1.54623">
        <ele>2.57</ele>
        <time>2020-05-14T17:14:28Z</time>
      </trkpt>
      <trkpt lat="47.19457" lon="-1.54636">
        <ele>3.76</ele>
        <time>2020-05-14T17:14:30Z</time>
      </trkpt>
      <trkpt lat="47.19447" lon="-1.54645">
        <ele>3.29</ele>
        <time>2020-05-14T17:14:31Z</time>
      </trkpt>
      <trkpt lat="47.19443" lon="-1.54666">
        <ele>3.02</ele>
        <time>2020-05-14T17:14:33Z</time>
      </trkpt>
      <trkpt lat="47.19437" lon="-1.54687">
        <ele>3.56</ele>
        <time>2020-05-14T17:14:35Z</time>
      </trkpt>
      <trkpt lat="47.19432" lon="-1.54706">
        <ele>3.61</ele>
        <time>2020-05-14T17:14:37Z</time>
      </trkpt>
      <trkpt lat="47.19425" lon="-1.54727">
        <ele>4.44</ele>
        <time>2020-05-14T17:14:39Z</time>
      </trkpt>
      <trkpt lat="47.19419" lon="-1.54746">
        <ele>5.76</ele>
        <time>2020-05-14T17:14:41Z</time>
      </trkpt>
      <trkpt lat="47.19413" lon="-1.54765">
        <ele>7.16</ele>
        <time>2020-05-14T17:14:43Z</time>
      </trkpt>
      <trkpt lat="47.19407" lon="-1.54784">
        <ele>8.2</ele>
        <time>2020-05-14T17:14:45Z</time>
      </trkpt>
      <trkpt lat="47.19402" lon="-1.54802">
        <ele>8.66</ele>
        <time>2020-05-14T17:14:47Z</time>
      </trkpt>
      <trkpt lat="47.19398" lon="-1.54819">
        <ele>9.26</ele>
        <time>2020-05-14T17:14:49Z</time>
      </trkpt>
      <trkpt lat="47.19394" lon="-1.54834">
        <ele>10.3</ele>
        <time>2020-05-14T17:14:51Z</time>
      </trkpt>
      <trkpt lat="47.1939" lon="-1.5485">
        <ele>11.47</ele>
        <time>2020-05-14T17:14:53Z</time>
      </trkpt>
      <trkpt lat="47.19386" lon="-1.54867">
        <ele>12.47</ele>
        <time>2020-05-14T17:14:55Z</time>
      </trkpt>
      <trkpt lat="47.1938" lon="-1.54886">
        <ele>14.09</ele>
        <time>2020-05-14T17:14:57Z</time>
      </trkpt>
      <trkpt lat="47.19375" lon="-1.54905">
        <ele>15.61</ele>
        <time>2020-05-14T17:14:59Z</time>
      </trkpt>
      <trkpt lat="47.1937" lon="-1.54923">
        <ele>17</ele>
        <time>2020-05-14T17:15:01Z</time>
      </trkpt>
      <trkpt lat="47.19366" lon="-1.54939">
        <ele>18.98</ele>
        <time>2020-05-14T17:15:03Z</time>
      </trkpt>
      <trkpt lat="47.19362" lon="-1.54954">
        <ele>19.91</ele>
        <time>2020-05-14T17:15:05Z</time>
      </trkpt>
      <trkpt lat="47.19361" lon="-1.54971">
        <ele>19.81</ele>
        <time>2020-05-14T17:15:07Z</time>
      </trkpt>
      <trkpt lat="47.19357" lon="-1.54989">
        <ele>18.98</ele>
        <time>2020-05-14T17:15:09Z</time>
      </trkpt>
      <trkpt lat="47.19353" lon="-1.55007">
        <ele>18.51</ele>
        <time>2020-05-14T17:15:11Z</time>
      </trkpt>
      <trkpt lat="47.19348" lon="-1.55025">
        <ele>17.68</ele>
        <time>2020-05-14T17:15:13Z</time>
      </trkpt>
      <trkpt lat="47.19343" lon="-1.55042">
        <ele>16.7</ele>
        <time>2020-05-14T17:15:15Z</time>
      </trkpt>
      <trkpt lat="47.19339" lon="-1.5506">
        <ele>15.77</ele>
        <time>2020-05-14T17:15:17Z</time>
      </trkpt>
      <trkpt lat="47.19334" lon="-1.5508">
        <ele>15.04</ele>
        <time>2020-05-14T17:15:19Z</time>
      </trkpt>
      <trkpt lat="47.1933" lon="-1.55097">
        <ele>13.77</ele>
        <time>2020-05-14T17:15:21Z</time>
      </trkpt>
      <trkpt lat="47.19325" lon="-1.55117">
        <ele>11.52</ele>
        <time>2020-05-14T17:15:23Z</time>
      </trkpt>
      <trkpt lat="47.19319" lon="-1.55141">
        <ele>9.83</ele>
        <time>2020-05-14T17:15:25Z</time>
      </trkpt>
      <trkpt lat="47.19316" lon="-1.55154">
        <ele>9.55</ele>
        <time>2020-05-14T17:15:26Z</time>
      </trkpt>
      <trkpt lat="47.1931" lon="-1.55176">
        <ele>9.36</ele>
        <time>2020-05-14T17:15:28Z</time>
      </trkpt>
      <trkpt lat="47.19304" lon="-1.55199">
        <ele>9.95</ele>
        <time>2020-05-14T17:15:30Z</time>
      </trkpt>
      <trkpt lat="47.19298" lon="-1.55222">
        <ele>10.75</ele>
        <time>2020-05-14T17:15:32Z</time>
      </trkpt>
      <trkpt lat="47.19292" lon="-1.55246">
        <ele>10.76</ele>
        <time>2020-05-14T17:15:34Z</time>
      </trkpt>
      <trkpt lat="47.19285" lon="-1.55271">
        <ele>9.99</ele>
        <time>2020-05-14T17:15:36Z</time>
      </trkpt>
      <trkpt lat="47.1928" lon="-1.55294">
        <ele>9.38</ele>
        <time>2020-05-14T17:15:38Z</time>
      </trkpt>
      <trkpt lat="47.19276" lon="-1.55316">
        <ele>8.45</ele>
        <time>2020-05-14T17:15:40Z</time>
      </trkpt>
      <trkpt lat="47.1927" lon="-1.5534">
        <ele>7.39</ele>
        <time>2020-05-14T17:15:42Z</time>
      </trkpt>
      <trkpt lat="47.19265" lon="-1.55362">
        <ele>6.44</ele>
        <time>2020-05-14T17:15:44Z</time>
      </trkpt>
      <trkpt lat="47.19259" lon="-1.55385">
        <ele>6.1</ele>
        <time>2020-05-14T17:15:46Z</time>
      </trkpt>
      <trkpt lat="47.19256" lon="-1.55398">
        <ele>6.43</ele>
        <time>2020-05-14T17:15:49Z</time>
      </trkpt>
      <trkpt lat="47.19253" lon="-1.55412">
        <ele>6.53</ele>
        <time>2020-05-14T17:15:52Z</time>
      </trkpt>
      <trkpt lat="47.19257" lon="-1.55429">
        <ele>6.28</ele>
        <time>2020-05-14T17:15:55Z</time>
      </trkpt>
      <trkpt lat="47.19257" lon="-1.55444">
        <ele>6.1</ele>
        <time>2020-05-14T17:15:57Z</time>
      </trkpt>
      <trkpt lat="47.19253" lon="-1.55458">
        <ele>6.35</ele>
        <time>2020-05-14T17:15:59Z</time>
      </trkpt>
      <trkpt lat="47.19247" lon="-1.55475">
        <ele>6.7</ele>
        <time>2020-05-14T17:16:01Z</time>
      </trkpt>
      <trkpt lat="47.19245" lon="-1.55495">
        <ele>6.97</ele>
        <time>2020-05-14T17:16:03Z</time>
      </trkpt>
      <trkpt lat="47.19244" lon="-1.5552">
        <ele>6.74</ele>
        <time>2020-05-14T17:16:05Z</time>
      </trkpt>
      <trkpt lat="47.19243" lon="-1.55535">
        <ele>6.69</ele>
        <time>2020-05-14T17:16:06Z</time>
      </trkpt>
      <trkpt lat="47.19243" lon="-1.55548">
        <ele>6.63</ele>
        <time>2020-05-14T17:16:07Z</time>
      </trkpt>
      <trkpt lat="47.19241" lon="-1.55576">
        <ele>6.18</ele>
        <time>2020-05-14T17:16:09Z</time>
      </trkpt>
      <trkpt lat="47.1924" lon="-1.5559">
        <ele>5.86</ele>
        <time>2020-05-14T17:16:10Z</time>
      </trkpt>
      <trkpt lat="47.19239" lon="-1.55605">
        <ele>5.49</ele>
        <time>2020-05-14T17:16:11Z</time>
      </trkpt>
      <trkpt lat="47.19238" lon="-1.55622">
        <ele>5.28</ele>
        <time>2020-05-14T17:16:12Z</time>
      </trkpt>
      <trkpt lat="47.19237" lon="-1.55639">
        <ele>5.15</ele>
        <time>2020-05-14T17:16:13Z</time>
      </trkpt>
      <trkpt lat="47.19236" lon="-1.55655">
        <ele>5.11</ele>
        <time>2020-05-14T17:16:14Z</time>
      </trkpt>
      <trkpt lat="47.19235" lon="-1.55668">
        <ele>5.6</ele>
        <time>2020-05-14T17:16:15Z</time>
      </trkpt>
      <trkpt lat="47.19234" lon="-1.55696">
        <ele>6.45</ele>
        <time>2020-05-14T17:16:17Z</time>
      </trkpt>
      <trkpt lat="47.19233" lon="-1.55709">
        <ele>6.98</ele>
        <time>2020-05-14T17:16:18Z</time>
      </trkpt>
      <trkpt lat="47.19233" lon="-1.55734">
        <ele>7.04</ele>
        <time>2020-05-14T17:16:20Z</time>
      </trkpt>
      <trkpt lat="47.19233" lon="-1.55759">
        <ele>6.63</ele>
        <time>2020-05-14T17:16:22Z</time>
      </trkpt>
      <trkpt lat="47.19233" lon="-1.55785">
        <ele>5.81</ele>
        <time>2020-05-14T17:16:24Z</time>
      </trkpt>
      <trkpt lat="47.19234" lon="-1.55809">
        <ele>5.78</ele>
        <time>2020-05-14T17:16:26Z</time>
      </trkpt>
      <trkpt lat="47.19235" lon="-1.55832">
        <ele>5.86</ele>
        <time>2020-05-14T17:16:28Z</time>
      </trkpt>
      <trkpt lat="47.19237" lon="-1.55855">
        <ele>5.67</ele>
        <time>2020-05-14T17:16:30Z</time>
      </trkpt>
      <trkpt lat="47.19238" lon="-1.55875">
        <ele>5.98</ele>
        <time>2020-05-14T17:16:32Z</time>
      </trkpt>
      <trkpt lat="47.19239" lon="-1.55897">
        <ele>5.99</ele>
        <time>2020-05-14T17:16:34Z</time>
      </trkpt>
      <trkpt lat="47.19242" lon="-1.55923">
        <ele>5.25</ele>
        <time>2020-05-14T17:16:36Z</time>
      </trkpt>
      <trkpt lat="47.19243" lon="-1.55945">
        <ele>4.53</ele>
        <time>2020-05-14T17:16:38Z</time>
      </trkpt>
      <trkpt lat="47.19246" lon="-1.55963">
        <ele>4.45</ele>
        <time>2020-05-14T17:16:40Z</time>
      </trkpt>
      <trkpt lat="47.19248" lon="-1.55983">
        <ele>4.25</ele>
        <time>2020-05-14T17:16:42Z</time>
      </trkpt>
      <trkpt lat="47.19251" lon="-1.56006">
        <ele>4.06</ele>
        <time>2020-05-14T17:16:44Z</time>
      </trkpt>
      <trkpt lat="47.19254" lon="-1.56028">
        <ele>4.13</ele>
        <time>2020-05-14T17:16:46Z</time>
      </trkpt>
      <trkpt lat="47.19256" lon="-1.56049">
        <ele>3.84</ele>
        <time>2020-05-14T17:16:48Z</time>
      </trkpt>
      <trkpt lat="47.19259" lon="-1.56073">
        <ele>3.42</ele>
        <time>2020-05-14T17:16:50Z</time>
      </trkpt>
      <trkpt lat="47.19261" lon="-1.56094">
        <ele>3.13</ele>
        <time>2020-05-14T17:16:52Z</time>
      </trkpt>
      <trkpt lat="47.19263" lon="-1.56115">
        <ele>2.91</ele>
        <time>2020-05-14T17:16:54Z</time>
      </trkpt>
      <trkpt lat="47.19264" lon="-1.56137">
        <ele>2.77</ele>
        <time>2020-05-14T17:16:56Z</time>
      </trkpt>
      <trkpt lat="47.19265" lon="-1.56162">
        <ele>2.43</ele>
        <time>2020-05-14T17:16:58Z</time>
      </trkpt>
      <trkpt lat="47.19266" lon="-1.56182">
        <ele>2.2</ele>
        <time>2020-05-14T17:17:00Z</time>
      </trkpt>
      <trkpt lat="47.19266" lon="-1.56202">
        <ele>2.91</ele>
        <time>2020-05-14T17:17:02Z</time>
      </trkpt>
      <trkpt lat="47.19267" lon="-1.56223">
        <ele>2.9</ele>
        <time>2020-05-14T17:17:04Z</time>
      </trkpt>
      <trkpt lat="47.19269" lon="-1.56241">
        <ele>2.79</ele>
        <time>2020-05-14T17:17:06Z</time>
      </trkpt>
      <trkpt lat="47.19276" lon="-1.56258">
        <ele>3.46</ele>
        <time>2020-05-14T17:17:08Z</time>
      </trkpt>
      <trkpt lat="47.19286" lon="-1.56275">
        <ele>3.82</ele>
        <time>2020-05-14T17:17:10Z</time>
      </trkpt>
      <trkpt lat="47.1929" lon="-1.56294">
        <ele>3.62</ele>
        <time>2020-05-14T17:17:12Z</time>
      </trkpt>
      <trkpt lat="47.19287" lon="-1.56314">
        <ele>3.08</ele>
        <time>2020-05-14T17:17:14Z</time>
      </trkpt>
      <trkpt lat="47.19281" lon="-1.56335">
        <ele>2.9</ele>
        <time>2020-05-14T17:17:16Z</time>
      </trkpt>
      <trkpt lat="47.19279" lon="-1.56357">
        <ele>3.06</ele>
        <time>2020-05-14T17:17:18Z</time>
      </trkpt>
      <trkpt lat="47.19282" lon="-1.56377">
        <ele>2.67</ele>
        <time>2020-05-14T17:17:20Z</time>
      </trkpt>
      <trkpt lat="47.19284" lon="-1.56397">
        <ele>3.29</ele>
        <time>2020-05-14T17:17:22Z</time>
      </trkpt>
      <trkpt lat="47.19286" lon="-1.56419">
        <ele>3.6</ele>
        <time>2020-05-14T17:17:24Z</time>
      </trkpt>
      <trkpt lat="47.19288" lon="-1.56437">
        <ele>4.58</ele>
        <time>2020-05-14T17:17:26Z</time>
      </trkpt>
      <trkpt lat="47.19291" lon="-1.5646">
        <ele>4.57</ele>
        <time>2020-05-14T17:17:28Z</time>
      </trkpt>
      <trkpt lat="47.19293" lon="-1.56482">
        <ele>5.2</ele>
        <time>2020-05-14T17:17:30Z</time>
      </trkpt>
      <trkpt lat="47.19295" lon="-1.56501">
        <ele>5.82</ele>
        <time>2020-05-14T17:17:32Z</time>
      </trkpt>
      <trkpt lat="47.19297" lon="-1.56524">
        <ele>6.56</ele>
        <time>2020-05-14T17:17:34Z</time>
      </trkpt>
      <trkpt lat="47.193" lon="-1.56546">
        <ele>7.53</ele>
        <time>2020-05-14T17:17:36Z</time>
      </trkpt>
      <trkpt lat="47.19302" lon="-1.56564">
        <ele>7.92</ele>
        <time>2020-05-14T17:17:38Z</time>
      </trkpt>
      <trkpt lat="47.19304" lon="-1.56585">
        <ele>7.32</ele>
        <time>2020-05-14T17:17:40Z</time>
      </trkpt>
      <trkpt lat="47.19305" lon="-1.56606">
        <ele>8.05</ele>
        <time>2020-05-14T17:17:42Z</time>
      </trkpt>
      <trkpt lat="47.19307" lon="-1.56627">
        <ele>8.82</ele>
        <time>2020-05-14T17:17:44Z</time>
      </trkpt>
      <trkpt lat="47.19309" lon="-1.56647">
        <ele>8.13</ele>
        <time>2020-05-14T17:17:46Z</time>
      </trkpt>
      <trkpt lat="47.19311" lon="-1.56668">
        <ele>7.51</ele>
        <time>2020-05-14T17:17:48Z</time>
      </trkpt>
      <trkpt lat="47.19313" lon="-1.56689">
        <ele>8.28</ele>
        <time>2020-05-14T17:17:50Z</time>
      </trkpt>
      <trkpt lat="47.19314" lon="-1.56709">
        <ele>8.41</ele>
        <time>2020-05-14T17:17:52Z</time>
      </trkpt>
      <trkpt lat="47.19316" lon="-1.56729">
        <ele>8.13</ele>
        <time>2020-05-14T17:17:54Z</time>
      </trkpt>
      <trkpt lat="47.19318" lon="-1.5675">
        <ele>8.11</ele>
        <time>2020-05-14T17:17:56Z</time>
      </trkpt>
      <trkpt lat="47.1932" lon="-1.56769">
        <ele>8.67</ele>
        <time>2020-05-14T17:17:58Z</time>
      </trkpt>
      <trkpt lat="47.19321" lon="-1.56789">
        <ele>9.39</ele>
        <time>2020-05-14T17:18:00Z</time>
      </trkpt>
      <trkpt lat="47.19323" lon="-1.56808">
        <ele>10.3</ele>
        <time>2020-05-14T17:18:02Z</time>
      </trkpt>
      <trkpt lat="47.19325" lon="-1.56826">
        <ele>10.78</ele>
        <time>2020-05-14T17:18:04Z</time>
      </trkpt>
      <trkpt lat="47.19328" lon="-1.56843">
        <ele>9.59</ele>
        <time>2020-05-14T17:18:06Z</time>
      </trkpt>
      <trkpt lat="47.19329" lon="-1.56861">
        <ele>8.52</ele>
        <time>2020-05-14T17:18:08Z</time>
      </trkpt>
      <trkpt lat="47.1933" lon="-1.56881">
        <ele>7.1</ele>
        <time>2020-05-14T17:18:10Z</time>
      </trkpt>
      <trkpt lat="47.1933" lon="-1.56901">
        <ele>6.72</ele>
        <time>2020-05-14T17:18:12Z</time>
      </trkpt>
      <trkpt lat="47.19329" lon="-1.56917">
        <ele>6.58</ele>
        <time>2020-05-14T17:18:14Z</time>
      </trkpt>
      <trkpt lat="47.1933" lon="-1.56936">
        <ele>6.12</ele>
        <time>2020-05-14T17:18:16Z</time>
      </trkpt>
      <trkpt lat="47.19329" lon="-1.56955">
        <ele>5.38</ele>
        <time>2020-05-14T17:18:18Z</time>
      </trkpt>
      <trkpt lat="47.19327" lon="-1.56976">
        <ele>5.62</ele>
        <time>2020-05-14T17:18:20Z</time>
      </trkpt>
      <trkpt lat="47.19325" lon="-1.56994">
        <ele>5.43</ele>
        <time>2020-05-14T17:18:22Z</time>
      </trkpt>
      <trkpt lat="47.19323" lon="-1.57016">
        <ele>4.74</ele>
        <time>2020-05-14T17:18:24Z</time>
      </trkpt>
      <trkpt lat="47.19324" lon="-1.57034">
        <ele>3.7</ele>
        <time>2020-05-14T17:18:26Z</time>
      </trkpt>
      <trkpt lat="47.19331" lon="-1.57047">
        <ele>4.07</ele>
        <time>2020-05-14T17:18:28Z</time>
      </trkpt>
      <trkpt lat="47.19336" lon="-1.57065">
        <ele>5.38</ele>
        <time>2020-05-14T17:18:30Z</time>
      </trkpt>
      <trkpt lat="47.19332" lon="-1.57084">
        <ele>6.7</ele>
        <time>2020-05-14T17:18:32Z</time>
      </trkpt>
      <trkpt lat="47.19322" lon="-1.5709">
        <ele>7.6</ele>
        <time>2020-05-14T17:18:34Z</time>
      </trkpt>
      <trkpt lat="47.19315" lon="-1.57098">
        <ele>8.17</ele>
        <time>2020-05-14T17:18:36Z</time>
      </trkpt>
      <trkpt lat="47.19311" lon="-1.57116">
        <ele>7.67</ele>
        <time>2020-05-14T17:18:38Z</time>
      </trkpt>
      <trkpt lat="47.1931" lon="-1.57134">
        <ele>6.55</ele>
        <time>2020-05-14T17:18:40Z</time>
      </trkpt>
      <trkpt lat="47.19306" lon="-1.57155">
        <ele>5.57</ele>
        <time>2020-05-14T17:18:42Z</time>
      </trkpt>
      <trkpt lat="47.19305" lon="-1.57177">
        <ele>5.07</ele>
        <time>2020-05-14T17:18:44Z</time>
      </trkpt>
      <trkpt lat="47.19304" lon="-1.57198">
        <ele>4.54</ele>
        <time>2020-05-14T17:18:46Z</time>
      </trkpt>
      <trkpt lat="47.193" lon="-1.57218">
        <ele>3.84</ele>
        <time>2020-05-14T17:18:48Z</time>
      </trkpt>
      <trkpt lat="47.19295" lon="-1.5724">
        <ele>4.1</ele>
        <time>2020-05-14T17:18:50Z</time>
      </trkpt>
      <trkpt lat="47.1929" lon="-1.57261">
        <ele>5.05</ele>
        <time>2020-05-14T17:18:52Z</time>
      </trkpt>
      <trkpt lat="47.19284" lon="-1.5728">
        <ele>6.77</ele>
        <time>2020-05-14T17:18:54Z</time>
      </trkpt>
      <trkpt lat="47.19277" lon="-1.573">
        <ele>7.81</ele>
        <time>2020-05-14T17:18:56Z</time>
      </trkpt>
      <trkpt lat="47.1927" lon="-1.57321">
        <ele>7.92</ele>
        <time>2020-05-14T17:18:58Z</time>
      </trkpt>
      <trkpt lat="47.19264" lon="-1.57338">
        <ele>7.86</ele>
        <time>2020-05-14T17:19:00Z</time>
      </trkpt>
      <trkpt lat="47.19257" lon="-1.57357">
        <ele>7.23</ele>
        <time>2020-05-14T17:19:02Z</time>
      </trkpt>
      <trkpt lat="47.19249" lon="-1.57379">
        <ele>6.69</ele>
        <time>2020-05-14T17:19:04Z</time>
      </trkpt>
      <trkpt lat="47.19243" lon="-1.57399">
        <ele>6.32</ele>
        <time>2020-05-14T17:19:06Z</time>
      </trkpt>
      <trkpt lat="47.19235" lon="-1.57419">
        <ele>5.6</ele>
        <time>2020-05-14T17:19:08Z</time>
      </trkpt>
      <trkpt lat="47.19227" lon="-1.57439">
        <ele>4.41</ele>
        <time>2020-05-14T17:19:10Z</time>
      </trkpt>
      <trkpt lat="47.1922" lon="-1.57458">
        <ele>3.28</ele>
        <time>2020-05-14T17:19:12Z</time>
      </trkpt>
      <trkpt lat="47.19212" lon="-1.57477">
        <ele>2.38</ele>
        <time>2020-05-14T17:19:14Z</time>
      </trkpt>
      <trkpt lat="47.19205" lon="-1.57497">
        <ele>2.26</ele>
        <time>2020-05-14T17:19:16Z</time>
      </trkpt>
      <trkpt lat="47.19199" lon="-1.57516">
        <ele>2.72</ele>
        <time>2020-05-14T17:19:18Z</time>
      </trkpt>
      <trkpt lat="47.19192" lon="-1.57536">
        <ele>3.26</ele>
        <time>2020-05-14T17:19:20Z</time>
      </trkpt>
      <trkpt lat="47.19185" lon="-1.57558">
        <ele>3.57</ele>
        <time>2020-05-14T17:19:22Z</time>
      </trkpt>
      <trkpt lat="47.19177" lon="-1.57579">
        <ele>3.57</ele>
        <time>2020-05-14T17:19:24Z</time>
      </trkpt>
      <trkpt lat="47.1917" lon="-1.57598">
        <ele>2.93</ele>
        <time>2020-05-14T17:19:26Z</time>
      </trkpt>
      <trkpt lat="47.19163" lon="-1.57617">
        <ele>3.1</ele>
        <time>2020-05-14T17:19:28Z</time>
      </trkpt>
      <trkpt lat="47.19156" lon="-1.57637">
        <ele>3.91</ele>
        <time>2020-05-14T17:19:30Z</time>
      </trkpt>
      <trkpt lat="47.19149" lon="-1.57657">
        <ele>4.31</ele>
        <time>2020-05-14T17:19:32Z</time>
      </trkpt>
      <trkpt lat="47.19141" lon="-1.57678">
        <ele>4.82</ele>
        <time>2020-05-14T17:19:34Z</time>
      </trkpt>
      <trkpt lat="47.19135" lon="-1.57699">
        <ele>5.02</ele>
        <time>2020-05-14T17:19:36Z</time>
      </trkpt>
      <trkpt lat="47.19128" lon="-1.5772">
        <ele>4.94</ele>
        <time>2020-05-14T17:19:38Z</time>
      </trkpt>
      <trkpt lat="47.1912" lon="-1.57742">
        <ele>5.41</ele>
        <time>2020-05-14T17:19:40Z</time>
      </trkpt>
      <trkpt lat="47.19114" lon="-1.57762">
        <ele>6.45</ele>
        <time>2020-05-14T17:19:42Z</time>
      </trkpt>
      <trkpt lat="47.19106" lon="-1.57783">
        <ele>7.42</ele>
        <time>2020-05-14T17:19:44Z</time>
      </trkpt>
      <trkpt lat="47.19098" lon="-1.57806">
        <ele>7.45</ele>
        <time>2020-05-14T17:19:46Z</time>
      </trkpt>
      <trkpt lat="47.19091" lon="-1.57825">
        <ele>7.02</ele>
        <time>2020-05-14T17:19:48Z</time>
      </trkpt>
      <trkpt lat="47.19084" lon="-1.57844">
        <ele>5.6</ele>
        <time>2020-05-14T17:19:50Z</time>
      </trkpt>
      <trkpt lat="47.19077" lon="-1.57865">
        <ele>3.86</ele>
        <time>2020-05-14T17:19:52Z</time>
      </trkpt>
      <trkpt lat="47.1907" lon="-1.57885">
        <ele>3.57</ele>
        <time>2020-05-14T17:19:54Z</time>
      </trkpt>
      <trkpt lat="47.19062" lon="-1.57907">
        <ele>2.7</ele>
        <time>2020-05-14T17:19:56Z</time>
      </trkpt>
      <trkpt lat="47.19054" lon="-1.57928">
        <ele>2.1</ele>
        <time>2020-05-14T17:19:58Z</time>
      </trkpt>
      <trkpt lat="47.19047" lon="-1.57948">
        <ele>2.76</ele>
        <time>2020-05-14T17:20:00Z</time>
      </trkpt>
      <trkpt lat="47.19039" lon="-1.57969">
        <ele>3.11</ele>
        <time>2020-05-14T17:20:02Z</time>
      </trkpt>
      <trkpt lat="47.19032" lon="-1.5799">
        <ele>3.49</ele>
        <time>2020-05-14T17:20:04Z</time>
      </trkpt>
      <trkpt lat="47.19025" lon="-1.58009">
        <ele>3.85</ele>
        <time>2020-05-14T17:20:06Z</time>
      </trkpt>
      <trkpt lat="47.19017" lon="-1.58031">
        <ele>4.25</ele>
        <time>2020-05-14T17:20:08Z</time>
      </trkpt>
      <trkpt lat="47.1901" lon="-1.58051">
        <ele>4.38</ele>
        <time>2020-05-14T17:20:10Z</time>
      </trkpt>
      <trkpt lat="47.19002" lon="-1.58071">
        <ele>4.19</ele>
        <time>2020-05-14T17:20:12Z</time>
      </trkpt>
      <trkpt lat="47.18995" lon="-1.58092">
        <ele>4.7</ele>
        <time>2020-05-14T17:20:14Z</time>
      </trkpt>
      <trkpt lat="47.18987" lon="-1.58112">
        <ele>5.11</ele>
        <time>2020-05-14T17:20:16Z</time>
      </trkpt>
      <trkpt lat="47.1898" lon="-1.58133">
        <ele>5.69</ele>
        <time>2020-05-14T17:20:18Z</time>
      </trkpt>
      <trkpt lat="47.18972" lon="-1.58154">
        <ele>6.52</ele>
        <time>2020-05-14T17:20:20Z</time>
      </trkpt>
      <trkpt lat="47.18965" lon="-1.58174">
        <ele>6.72</ele>
        <time>2020-05-14T17:20:22Z</time>
      </trkpt>
      <trkpt lat="47.18957" lon="-1.58195">
        <ele>6.67</ele>
        <time>2020-05-14T17:20:24Z</time>
      </trkpt>
      <trkpt lat="47.1895" lon="-1.58214">
        <ele>6.33</ele>
        <time>2020-05-14T17:20:26Z</time>
      </trkpt>
      <trkpt lat="47.18943" lon="-1.58234">
        <ele>6.48</ele>
        <time>2020-05-14T17:20:28Z</time>
      </trkpt>
      <trkpt lat="47.18936" lon="-1.58254">
        <ele>6.36</ele>
        <time>2020-05-14T17:20:30Z</time>
      </trkpt>
      <trkpt lat="47.18929" lon="-1.58275">
        <ele>5.78</ele>
        <time>2020-05-14T17:20:32Z</time>
      </trkpt>
      <trkpt lat="47.18923" lon="-1.58295">
        <ele>5.57</ele>
        <time>2020-05-14T17:20:34Z</time>
      </trkpt>
      <trkpt lat="47.18916" lon="-1.58314">
        <ele>5.41</ele>
        <time>2020-05-14T17:20:36Z</time>
      </trkpt>
      <trkpt lat="47.18909" lon="-1.58336">
        <ele>5.89</ele>
        <time>2020-05-14T17:20:38Z</time>
      </trkpt>
      <trkpt lat="47.18901" lon="-1.58357">
        <ele>6.47</ele>
        <time>2020-05-14T17:20:40Z</time>
      </trkpt>
      <trkpt lat="47.18894" lon="-1.58377">
        <ele>5.98</ele>
        <time>2020-05-14T17:20:42Z</time>
      </trkpt>
      <trkpt lat="47.18887" lon="-1.58396">
        <ele>5.61</ele>
        <time>2020-05-14T17:20:44Z</time>
      </trkpt>
      <trkpt lat="47.18881" lon="-1.58416">
        <ele>5.61</ele>
        <time>2020-05-14T17:20:46Z</time>
      </trkpt>
      <trkpt lat="47.18876" lon="-1.58434">
        <ele>5.7</ele>
        <time>2020-05-14T17:20:48Z</time>
      </trkpt>
      <trkpt lat="47.1887" lon="-1.58453">
        <ele>6.42</ele>
        <time>2020-05-14T17:20:50Z</time>
      </trkpt>
      <trkpt lat="47.18863" lon="-1.58475">
        <ele>6.07</ele>
        <time>2020-05-14T17:20:52Z</time>
      </trkpt>
      <trkpt lat="47.18857" lon="-1.58496">
        <ele>5.59</ele>
        <time>2020-05-14T17:20:54Z</time>
      </trkpt>
      <trkpt lat="47.18851" lon="-1.58516">
        <ele>5.35</ele>
        <time>2020-05-14T17:20:56Z</time>
      </trkpt>
      <trkpt lat="47.18845" lon="-1.58537">
        <ele>5.35</ele>
        <time>2020-05-14T17:20:58Z</time>
      </trkpt>
      <trkpt lat="47.18839" lon="-1.58559">
        <ele>5.73</ele>
        <time>2020-05-14T17:21:00Z</time>
      </trkpt>
      <trkpt lat="47.18834" lon="-1.58579">
        <ele>5.54</ele>
        <time>2020-05-14T17:21:02Z</time>
      </trkpt>
      <trkpt lat="47.18828" lon="-1.586">
        <ele>4.61</ele>
        <time>2020-05-14T17:21:04Z</time>
      </trkpt>
      <trkpt lat="47.18824" lon="-1.58622">
        <ele>3.69</ele>
        <time>2020-05-14T17:21:06Z</time>
      </trkpt>
      <trkpt lat="47.18819" lon="-1.58645">
        <ele>2.98</ele>
        <time>2020-05-14T17:21:08Z</time>
      </trkpt>
      <trkpt lat="47.18815" lon="-1.58666">
        <ele>2.29</ele>
        <time>2020-05-14T17:21:10Z</time>
      </trkpt>
      <trkpt lat="47.18811" lon="-1.5869">
        <ele>2.74</ele>
        <time>2020-05-14T17:21:12Z</time>
      </trkpt>
      <trkpt lat="47.18809" lon="-1.58711">
        <ele>2.9</ele>
        <time>2020-05-14T17:21:14Z</time>
      </trkpt>
      <trkpt lat="47.18816" lon="-1.5873">
        <ele>2.82</ele>
        <time>2020-05-14T17:21:16Z</time>
      </trkpt>
      <trkpt lat="47.18824" lon="-1.58749">
        <ele>2.54</ele>
        <time>2020-05-14T17:21:18Z</time>
      </trkpt>
      <trkpt lat="47.18825" lon="-1.58771">
        <ele>2.2</ele>
        <time>2020-05-14T17:21:20Z</time>
      </trkpt>
      <trkpt lat="47.18818" lon="-1.58793">
        <ele>2.48</ele>
        <time>2020-05-14T17:21:22Z</time>
      </trkpt>
      <trkpt lat="47.18807" lon="-1.58809">
        <ele>3.58</ele>
        <time>2020-05-14T17:21:24Z</time>
      </trkpt>
      <trkpt lat="47.18795" lon="-1.58817">
        <ele>4.66</ele>
        <time>2020-05-14T17:21:26Z</time>
      </trkpt>
      <trkpt lat="47.18788" lon="-1.58837">
        <ele>5.48</ele>
        <time>2020-05-14T17:21:28Z</time>
      </trkpt>
      <trkpt lat="47.18783" lon="-1.5886">
        <ele>5.85</ele>
        <time>2020-05-14T17:21:30Z</time>
      </trkpt>
      <trkpt lat="47.18781" lon="-1.58873">
        <ele>5.41</ele>
        <time>2020-05-14T17:21:31Z</time>
      </trkpt>
      <trkpt lat="47.18778" lon="-1.58886">
        <ele>5.19</ele>
        <time>2020-05-14T17:21:32Z</time>
      </trkpt>
      <trkpt lat="47.18774" lon="-1.5891">
        <ele>4.88</ele>
        <time>2020-05-14T17:21:34Z</time>
      </trkpt>
      <trkpt lat="47.18772" lon="-1.58924">
        <ele>4.8</ele>
        <time>2020-05-14T17:21:35Z</time>
      </trkpt>
      <trkpt lat="47.18771" lon="-1.58937">
        <ele>4.9</ele>
        <time>2020-05-14T17:21:36Z</time>
      </trkpt>
      <trkpt lat="47.18769" lon="-1.58951">
        <ele>5.25</ele>
        <time>2020-05-14T17:21:37Z</time>
      </trkpt>
      <trkpt lat="47.18767" lon="-1.58975">
        <ele>5.77</ele>
        <time>2020-05-14T17:21:39Z</time>
      </trkpt>
      <trkpt lat="47.18764" lon="-1.58999">
        <ele>6.43</ele>
        <time>2020-05-14T17:21:41Z</time>
      </trkpt>
      <trkpt lat="47.18761" lon="-1.59022">
        <ele>6.61</ele>
        <time>2020-05-14T17:21:43Z</time>
      </trkpt>
      <trkpt lat="47.18758" lon="-1.59048">
        <ele>6.02</ele>
        <time>2020-05-14T17:21:45Z</time>
      </trkpt>
      <trkpt lat="47.18755" lon="-1.59074">
        <ele>5.75</ele>
        <time>2020-05-14T17:21:47Z</time>
      </trkpt>
      <trkpt lat="47.18752" lon="-1.59098">
        <ele>5.38</ele>
        <time>2020-05-14T17:21:49Z</time>
      </trkpt>
      <trkpt lat="47.18749" lon="-1.59123">
        <ele>3.94</ele>
        <time>2020-05-14T17:21:51Z</time>
      </trkpt>
      <trkpt lat="47.18747" lon="-1.59144">
        <ele>2.6</ele>
        <time>2020-05-14T17:21:53Z</time>
      </trkpt>
      <trkpt lat="47.18745" lon="-1.59166">
        <ele>1.64</ele>
        <time>2020-05-14T17:21:55Z</time>
      </trkpt>
      <trkpt lat="47.18742" lon="-1.5919">
        <ele>0.47</ele>
        <time>2020-05-14T17:21:57Z</time>
      </trkpt>
      <trkpt lat="47.1874" lon="-1.59212">
        <ele>-0.6</ele>
        <time>2020-05-14T17:21:59Z</time>
      </trkpt>
      <trkpt lat="47.18737" lon="-1.59238">
        <ele>-0.98</ele>
        <time>2020-05-14T17:22:01Z</time>
      </trkpt>
      <trkpt lat="47.18734" lon="-1.59259">
        <ele>-1.46</ele>
        <time>2020-05-14T17:22:03Z</time>
      </trkpt>
      <trkpt lat="47.18732" lon="-1.59281">
        <ele>-1.07</ele>
        <time>2020-05-14T17:22:05Z</time>
      </trkpt>
      <trkpt lat="47.18729" lon="-1.59304">
        <ele>-0.43</ele>
        <time>2020-05-14T17:22:07Z</time>
      </trkpt>
      <trkpt lat="47.18727" lon="-1.59327">
        <ele>-0.29</ele>
        <time>2020-05-14T17:22:09Z</time>
      </trkpt>
      <trkpt lat="47.18725" lon="-1.59348">
        <ele>-1.01</ele>
        <time>2020-05-14T17:22:11Z</time>
      </trkpt>
      <trkpt lat="47.18723" lon="-1.59369">
        <ele>-1.48</ele>
        <time>2020-05-14T17:22:13Z</time>
      </trkpt>
      <trkpt lat="47.18721" lon="-1.59391">
        <ele>-0.92</ele>
        <time>2020-05-14T17:22:15Z</time>
      </trkpt>
      <trkpt lat="47.18718" lon="-1.59415">
        <ele>-0.54</ele>
        <time>2020-05-14T17:22:17Z</time>
      </trkpt>
      <trkpt lat="47.18716" lon="-1.59436">
        <ele>-1.13</ele>
        <time>2020-05-14T17:22:19Z</time>
      </trkpt>
      <trkpt lat="47.18713" lon="-1.59457">
        <ele>-1.24</ele>
        <time>2020-05-14T17:22:21Z</time>
      </trkpt>
      <trkpt lat="47.18711" lon="-1.59477">
        <ele>-0.69</ele>
        <time>2020-05-14T17:22:23Z</time>
      </trkpt>
      <trkpt lat="47.18709" lon="-1.59497">
        <ele>-0.27</ele>
        <time>2020-05-14T17:22:25Z</time>
      </trkpt>
      <trkpt lat="47.18707" lon="-1.59518">
        <ele>1.26</ele>
        <time>2020-05-14T17:22:27Z</time>
      </trkpt>
      <trkpt lat="47.18705" lon="-1.59539">
        <ele>2.52</ele>
        <time>2020-05-14T17:22:29Z</time>
      </trkpt>
      <trkpt lat="47.18703" lon="-1.59561">
        <ele>3.4</ele>
        <time>2020-05-14T17:22:31Z</time>
      </trkpt>
      <trkpt lat="47.18701" lon="-1.5958">
        <ele>3.96</ele>
        <time>2020-05-14T17:22:33Z</time>
      </trkpt>
      <trkpt lat="47.18698" lon="-1.59603">
        <ele>3.46</ele>
        <time>2020-05-14T17:22:35Z</time>
      </trkpt>
      <trkpt lat="47.18695" lon="-1.59626">
        <ele>2.92</ele>
        <time>2020-05-14T17:22:37Z</time>
      </trkpt>
      <trkpt lat="47.18691" lon="-1.59647">
        <ele>1.89</ele>
        <time>2020-05-14T17:22:39Z</time>
      </trkpt>
      <trkpt lat="47.18688" lon="-1.59667">
        <ele>1.3</ele>
        <time>2020-05-14T17:22:41Z</time>
      </trkpt>
      <trkpt lat="47.18686" lon="-1.59687">
        <ele>1.58</ele>
        <time>2020-05-14T17:22:43Z</time>
      </trkpt>
      <trkpt lat="47.18684" lon="-1.59707">
        <ele>2.16</ele>
        <time>2020-05-14T17:22:45Z</time>
      </trkpt>
      <trkpt lat="47.18683" lon="-1.59728">
        <ele>2.76</ele>
        <time>2020-05-14T17:22:47Z</time>
      </trkpt>
      <trkpt lat="47.18682" lon="-1.59749">
        <ele>2.77</ele>
        <time>2020-05-14T17:22:49Z</time>
      </trkpt>
      <trkpt lat="47.18681" lon="-1.59769">
        <ele>3.02</ele>
        <time>2020-05-14T17:22:51Z</time>
      </trkpt>
      <trkpt lat="47.18687" lon="-1.59787">
        <ele>2.63</ele>
        <time>2020-05-14T17:22:53Z</time>
      </trkpt>
      <trkpt lat="47.18691" lon="-1.59805">
        <ele>1.7</ele>
        <time>2020-05-14T17:22:55Z</time>
      </trkpt>
      <trkpt lat="47.1869" lon="-1.59824">
        <ele>1.11</ele>
        <time>2020-05-14T17:22:57Z</time>
      </trkpt>
      <trkpt lat="47.18684" lon="-1.59838">
        <ele>1.35</ele>
        <time>2020-05-14T17:22:59Z</time>
      </trkpt>
      <trkpt lat="47.18673" lon="-1.59849">
        <ele>1.52</ele>
        <time>2020-05-14T17:23:01Z</time>
      </trkpt>
      <trkpt lat="47.18658" lon="-1.59856">
        <ele>1.61</ele>
        <time>2020-05-14T17:23:03Z</time>
      </trkpt>
      <trkpt lat="47.18643" lon="-1.59855">
        <ele>1.19</ele>
        <time>2020-05-14T17:23:05Z</time>
      </trkpt>
      <trkpt lat="47.18629" lon="-1.59843">
        <ele>1.25</ele>
        <time>2020-05-14T17:23:07Z</time>
      </trkpt>
      <trkpt lat="47.18618" lon="-1.59839">
        <ele>2.03</ele>
        <time>2020-05-14T17:23:09Z</time>
      </trkpt>
      <trkpt lat="47.18615" lon="-1.59853">
        <ele>2.45</ele>
        <time>2020-05-14T17:23:12Z</time>
      </trkpt>
      <trkpt lat="47.1862" lon="-1.59869">
        <ele>3.23</ele>
        <time>2020-05-14T17:23:14Z</time>
      </trkpt>
      <trkpt lat="47.1862" lon="-1.59885">
        <ele>4.12</ele>
        <time>2020-05-14T17:23:16Z</time>
      </trkpt>
      <trkpt lat="47.18618" lon="-1.599">
        <ele>4.41</ele>
        <time>2020-05-14T17:23:18Z</time>
      </trkpt>
      <trkpt lat="47.18614" lon="-1.59917">
        <ele>4.22</ele>
        <time>2020-05-14T17:23:20Z</time>
      </trkpt>
      <trkpt lat="47.18608" lon="-1.59936">
        <ele>4.24</ele>
        <time>2020-05-14T17:23:22Z</time>
      </trkpt>
      <trkpt lat="47.18604" lon="-1.59952">
        <ele>3.99</ele>
        <time>2020-05-14T17:23:24Z</time>
      </trkpt>
      <trkpt lat="47.18599" lon="-1.5997">
        <ele>4.22</ele>
        <time>2020-05-14T17:23:26Z</time>
      </trkpt>
      <trkpt lat="47.18593" lon="-1.59989">
        <ele>4.74</ele>
        <time>2020-05-14T17:23:28Z</time>
      </trkpt>
      <trkpt lat="47.18588" lon="-1.60008">
        <ele>4.79</ele>
        <time>2020-05-14T17:23:30Z</time>
      </trkpt>
      <trkpt lat="47.18583" lon="-1.60024">
        <ele>4.89</ele>
        <time>2020-05-14T17:23:32Z</time>
      </trkpt>
      <trkpt lat="47.18576" lon="-1.60042">
        <ele>4.96</ele>
        <time>2020-05-14T17:23:34Z</time>
      </trkpt>
      <trkpt lat="47.18571" lon="-1.60059">
        <ele>4.63</ele>
        <time>2020-05-14T17:23:36Z</time>
      </trkpt>
      <trkpt lat="47.18565" lon="-1.60075">
        <ele>4.64</ele>
        <time>2020-05-14T17:23:38Z</time>
      </trkpt>
      <trkpt lat="47.18558" lon="-1.60091">
        <ele>4.46</ele>
        <time>2020-05-14T17:23:41Z</time>
      </trkpt>
      <trkpt lat="47.18551" lon="-1.60109">
        <ele>4.13</ele>
        <time>2020-05-14T17:23:42Z</time>
      </trkpt>
      <trkpt lat="47.18544" lon="-1.60125">
        <ele>3.52</ele>
        <time>2020-05-14T17:23:45Z</time>
      </trkpt>
      <trkpt lat="47.18537" lon="-1.60142">
        <ele>2.67</ele>
        <time>2020-05-14T17:23:47Z</time>
      </trkpt>
      <trkpt lat="47.18529" lon="-1.60158">
        <ele>2.41</ele>
        <time>2020-05-14T17:23:49Z</time>
      </trkpt>
      <trkpt lat="47.18522" lon="-1.60173">
        <ele>1.93</ele>
        <time>2020-05-14T17:23:51Z</time>
      </trkpt>
      <trkpt lat="47.18513" lon="-1.6019">
        <ele>1.91</ele>
        <time>2020-05-14T17:23:53Z</time>
      </trkpt>
      <trkpt lat="47.18505" lon="-1.60207">
        <ele>1.87</ele>
        <time>2020-05-14T17:23:55Z</time>
      </trkpt>
      <trkpt lat="47.18496" lon="-1.60222">
        <ele>1.82</ele>
        <time>2020-05-14T17:23:57Z</time>
      </trkpt>
      <trkpt lat="47.18488" lon="-1.60237">
        <ele>1.76</ele>
        <time>2020-05-14T17:23:59Z</time>
      </trkpt>
      <trkpt lat="47.18479" lon="-1.60253">
        <ele>1.42</ele>
        <time>2020-05-14T17:24:01Z</time>
      </trkpt>
      <trkpt lat="47.18471" lon="-1.60267">
        <ele>1.59</ele>
        <time>2020-05-14T17:24:03Z</time>
      </trkpt>
      <trkpt lat="47.18463" lon="-1.60282">
        <ele>1.8</ele>
        <time>2020-05-14T17:24:05Z</time>
      </trkpt>
      <trkpt lat="47.18453" lon="-1.60298">
        <ele>2.13</ele>
        <time>2020-05-14T17:24:07Z</time>
      </trkpt>
      <trkpt lat="47.18445" lon="-1.60312">
        <ele>2.27</ele>
        <time>2020-05-14T17:24:09Z</time>
      </trkpt>
      <trkpt lat="47.18434" lon="-1.60329">
        <ele>1.82</ele>
        <time>2020-05-14T17:24:11Z</time>
      </trkpt>
      <trkpt lat="47.18425" lon="-1.60344">
        <ele>1.2</ele>
        <time>2020-05-14T17:24:13Z</time>
      </trkpt>
      <trkpt lat="47.18416" lon="-1.60358">
        <ele>1.42</ele>
        <time>2020-05-14T17:24:15Z</time>
      </trkpt>
      <trkpt lat="47.18406" lon="-1.60371">
        <ele>2.16</ele>
        <time>2020-05-14T17:24:17Z</time>
      </trkpt>
      <trkpt lat="47.18396" lon="-1.60384">
        <ele>2.96</ele>
        <time>2020-05-14T17:24:19Z</time>
      </trkpt>
      <trkpt lat="47.18385" lon="-1.60398">
        <ele>3.07</ele>
        <time>2020-05-14T17:24:21Z</time>
      </trkpt>
      <trkpt lat="47.18375" lon="-1.60411">
        <ele>3.02</ele>
        <time>2020-05-14T17:24:23Z</time>
      </trkpt>
      <trkpt lat="47.18364" lon="-1.60425">
        <ele>2.92</ele>
        <time>2020-05-14T17:24:25Z</time>
      </trkpt>
      <trkpt lat="47.18354" lon="-1.60439">
        <ele>2.31</ele>
        <time>2020-05-14T17:24:27Z</time>
      </trkpt>
      <trkpt lat="47.18343" lon="-1.60452">
        <ele>2.53</ele>
        <time>2020-05-14T17:24:29Z</time>
      </trkpt>
      <trkpt lat="47.18333" lon="-1.60465">
        <ele>2.85</ele>
        <time>2020-05-14T17:24:31Z</time>
      </trkpt>
      <trkpt lat="47.18322" lon="-1.60478">
        <ele>3.07</ele>
        <time>2020-05-14T17:24:33Z</time>
      </trkpt>
      <trkpt lat="47.18313" lon="-1.60489">
        <ele>3.41</ele>
        <time>2020-05-14T17:24:35Z</time>
      </trkpt>
      <trkpt lat="47.18302" lon="-1.60502">
        <ele>3.73</ele>
        <time>2020-05-14T17:24:37Z</time>
      </trkpt>
      <trkpt lat="47.18291" lon="-1.60513">
        <ele>3.84</ele>
        <time>2020-05-14T17:24:39Z</time>
      </trkpt>
      <trkpt lat="47.1828" lon="-1.60525">
        <ele>4.32</ele>
        <time>2020-05-14T17:24:41Z</time>
      </trkpt>
      <trkpt lat="47.18268" lon="-1.60536">
        <ele>4.47</ele>
        <time>2020-05-14T17:24:43Z</time>
      </trkpt>
      <trkpt lat="47.18257" lon="-1.60546">
        <ele>4.09</ele>
        <time>2020-05-14T17:24:45Z</time>
      </trkpt>
      <trkpt lat="47.18247" lon="-1.60555">
        <ele>4.55</ele>
        <time>2020-05-14T17:24:47Z</time>
      </trkpt>
      <trkpt lat="47.18234" lon="-1.60564">
        <ele>4.44</ele>
        <time>2020-05-14T17:24:49Z</time>
      </trkpt>
      <trkpt lat="47.18223" lon="-1.60572">
        <ele>4</ele>
        <time>2020-05-14T17:24:51Z</time>
      </trkpt>
      <trkpt lat="47.18213" lon="-1.60578">
        <ele>3.3</ele>
        <time>2020-05-14T17:24:53Z</time>
      </trkpt>
      <trkpt lat="47.18201" lon="-1.60582">
        <ele>2.39</ele>
        <time>2020-05-14T17:24:55Z</time>
      </trkpt>
      <trkpt lat="47.18193" lon="-1.60588">
        <ele>2.21</ele>
        <time>2020-05-14T17:24:57Z</time>
      </trkpt>
      <trkpt lat="47.18186" lon="-1.60604">
        <ele>2.43</ele>
        <time>2020-05-14T17:25:00Z</time>
      </trkpt>
      <trkpt lat="47.18176" lon="-1.60607">
        <ele>3.12</ele>
        <time>2020-05-14T17:25:02Z</time>
      </trkpt>
      <trkpt lat="47.18163" lon="-1.60608">
        <ele>3.08</ele>
        <time>2020-05-14T17:25:04Z</time>
      </trkpt>
      <trkpt lat="47.18149" lon="-1.60608">
        <ele>3.27</ele>
        <time>2020-05-14T17:25:06Z</time>
      </trkpt>
      <trkpt lat="47.18137" lon="-1.60607">
        <ele>1.8</ele>
        <time>2020-05-14T17:25:08Z</time>
      </trkpt>
      <trkpt lat="47.18125" lon="-1.60604">
        <ele>0.9</ele>
        <time>2020-05-14T17:25:10Z</time>
      </trkpt>
      <trkpt lat="47.18113" lon="-1.606">
        <ele>0.96</ele>
        <time>2020-05-14T17:25:12Z</time>
      </trkpt>
      <trkpt lat="47.18098" lon="-1.60595">
        <ele>1.79</ele>
        <time>2020-05-14T17:25:14Z</time>
      </trkpt>
      <trkpt lat="47.18085" lon="-1.6059">
        <ele>2.4</ele>
        <time>2020-05-14T17:25:16Z</time>
      </trkpt>
      <trkpt lat="47.18073" lon="-1.60584">
        <ele>2.86</ele>
        <time>2020-05-14T17:25:18Z</time>
      </trkpt>
      <trkpt lat="47.18062" lon="-1.60577">
        <ele>2.52</ele>
        <time>2020-05-14T17:25:20Z</time>
      </trkpt>
      <trkpt lat="47.18049" lon="-1.60569">
        <ele>2.18</ele>
        <time>2020-05-14T17:25:22Z</time>
      </trkpt>
      <trkpt lat="47.18037" lon="-1.60562">
        <ele>2.47</ele>
        <time>2020-05-14T17:25:24Z</time>
      </trkpt>
      <trkpt lat="47.18025" lon="-1.60557">
        <ele>3.53</ele>
        <time>2020-05-14T17:25:26Z</time>
      </trkpt>
      <trkpt lat="47.18013" lon="-1.60556">
        <ele>3.55</ele>
        <time>2020-05-14T17:25:28Z</time>
      </trkpt>
      <trkpt lat="47.18002" lon="-1.60556">
        <ele>3.9</ele>
        <time>2020-05-14T17:25:30Z</time>
      </trkpt>
      <trkpt lat="47.1799" lon="-1.60559">
        <ele>4.36</ele>
        <time>2020-05-14T17:25:32Z</time>
      </trkpt>
      <trkpt lat="47.17978" lon="-1.60563">
        <ele>4.85</ele>
        <time>2020-05-14T17:25:34Z</time>
      </trkpt>
      <trkpt lat="47.17967" lon="-1.60568">
        <ele>3.12</ele>
        <time>2020-05-14T17:25:36Z</time>
      </trkpt>
      <trkpt lat="47.17956" lon="-1.60574">
        <ele>1.08</ele>
        <time>2020-05-14T17:25:38Z</time>
      </trkpt>
      <trkpt lat="47.17946" lon="-1.6058">
        <ele>2.06</ele>
        <time>2020-05-14T17:25:40Z</time>
      </trkpt>
      <trkpt lat="47.17937" lon="-1.60585">
        <ele>2.97</ele>
        <time>2020-05-14T17:25:42Z</time>
      </trkpt>
      <trkpt lat="47.17927" lon="-1.60589">
        <ele>3.67</ele>
        <time>2020-05-14T17:25:44Z</time>
      </trkpt>
      <trkpt lat="47.17918" lon="-1.6059">
        <ele>3.69</ele>
        <time>2020-05-14T17:25:57Z</time>
      </trkpt>
      <trkpt lat="47.17909" lon="-1.606">
        <ele>3.01</ele>
        <time>2020-05-14T17:25:59Z</time>
      </trkpt>
      <trkpt lat="47.17905" lon="-1.60615">
        <ele>2.25</ele>
        <time>2020-05-14T17:26:01Z</time>
      </trkpt>
      <trkpt lat="47.17901" lon="-1.60633">
        <ele>1.56</ele>
        <time>2020-05-14T17:26:03Z</time>
      </trkpt>
      <trkpt lat="47.17897" lon="-1.60648">
        <ele>0.82</ele>
        <time>2020-05-14T17:26:05Z</time>
      </trkpt>
      <trkpt lat="47.17891" lon="-1.60667">
        <ele>0.41</ele>
        <time>2020-05-14T17:26:07Z</time>
      </trkpt>
      <trkpt lat="47.17885" lon="-1.60684">
        <ele>0.82</ele>
        <time>2020-05-14T17:26:09Z</time>
      </trkpt>
      <trkpt lat="47.1788" lon="-1.60702">
        <ele>0.65</ele>
        <time>2020-05-14T17:26:11Z</time>
      </trkpt>
      <trkpt lat="47.17875" lon="-1.60719">
        <ele>1.1</ele>
        <time>2020-05-14T17:26:13Z</time>
      </trkpt>
      <trkpt lat="47.1787" lon="-1.60737">
        <ele>1.47</ele>
        <time>2020-05-14T17:26:15Z</time>
      </trkpt>
      <trkpt lat="47.17865" lon="-1.60757">
        <ele>2.21</ele>
        <time>2020-05-14T17:26:17Z</time>
      </trkpt>
      <trkpt lat="47.17861" lon="-1.60778">
        <ele>2.63</ele>
        <time>2020-05-14T17:26:19Z</time>
      </trkpt>
      <trkpt lat="47.17856" lon="-1.60797">
        <ele>2.95</ele>
        <time>2020-05-14T17:26:21Z</time>
      </trkpt>
      <trkpt lat="47.17853" lon="-1.60811">
        <ele>3.36</ele>
        <time>2020-05-14T17:26:23Z</time>
      </trkpt>
      <trkpt lat="47.17849" lon="-1.60829">
        <ele>2.67</ele>
        <time>2020-05-14T17:26:25Z</time>
      </trkpt>
      <trkpt lat="47.17843" lon="-1.60847">
        <ele>2.5</ele>
        <time>2020-05-14T17:26:27Z</time>
      </trkpt>
      <trkpt lat="47.17835" lon="-1.60863">
        <ele>2.49</ele>
        <time>2020-05-14T17:26:29Z</time>
      </trkpt>
      <trkpt lat="47.17827" lon="-1.60878">
        <ele>2.07</ele>
        <time>2020-05-14T17:26:31Z</time>
      </trkpt>
      <trkpt lat="47.17818" lon="-1.60892">
        <ele>1.52</ele>
        <time>2020-05-14T17:26:33Z</time>
      </trkpt>
      <trkpt lat="47.17807" lon="-1.60904">
        <ele>1.79</ele>
        <time>2020-05-14T17:26:35Z</time>
      </trkpt>
      <trkpt lat="47.17795" lon="-1.60914">
        <ele>2.22</ele>
        <time>2020-05-14T17:26:37Z</time>
      </trkpt>
      <trkpt lat="47.17783" lon="-1.6092">
        <ele>2.72</ele>
        <time>2020-05-14T17:26:39Z</time>
      </trkpt>
      <trkpt lat="47.17772" lon="-1.60929">
        <ele>2.99</ele>
        <time>2020-05-14T17:26:41Z</time>
      </trkpt>
      <trkpt lat="47.17761" lon="-1.60937">
        <ele>2.75</ele>
        <time>2020-05-14T17:26:43Z</time>
      </trkpt>
      <trkpt lat="47.17749" lon="-1.60947">
        <ele>2.64</ele>
        <time>2020-05-14T17:26:45Z</time>
      </trkpt>
      <trkpt lat="47.17737" lon="-1.60955">
        <ele>1.86</ele>
        <time>2020-05-14T17:26:47Z</time>
      </trkpt>
      <trkpt lat="47.17725" lon="-1.60963">
        <ele>1.59</ele>
        <time>2020-05-14T17:26:49Z</time>
      </trkpt>
      <trkpt lat="47.17714" lon="-1.6097">
        <ele>2.03</ele>
        <time>2020-05-14T17:26:51Z</time>
      </trkpt>
      <trkpt lat="47.17702" lon="-1.60977">
        <ele>3.17</ele>
        <time>2020-05-14T17:26:53Z</time>
      </trkpt>
      <trkpt lat="47.1769" lon="-1.60981">
        <ele>4.35</ele>
        <time>2020-05-14T17:26:55Z</time>
      </trkpt>
      <trkpt lat="47.17674" lon="-1.60977">
        <ele>4.4</ele>
        <time>2020-05-14T17:26:57Z</time>
      </trkpt>
      <trkpt lat="47.1766" lon="-1.60977">
        <ele>3.69</ele>
        <time>2020-05-14T17:26:59Z</time>
      </trkpt>
      <trkpt lat="47.17648" lon="-1.60985">
        <ele>3.11</ele>
        <time>2020-05-14T17:27:01Z</time>
      </trkpt>
      <trkpt lat="47.17636" lon="-1.60994">
        <ele>2.47</ele>
        <time>2020-05-14T17:27:03Z</time>
      </trkpt>
      <trkpt lat="47.17625" lon="-1.61004">
        <ele>2.44</ele>
        <time>2020-05-14T17:27:05Z</time>
      </trkpt>
      <trkpt lat="47.17614" lon="-1.61014">
        <ele>2.12</ele>
        <time>2020-05-14T17:27:07Z</time>
      </trkpt>
      <trkpt lat="47.17603" lon="-1.61024">
        <ele>1.26</ele>
        <time>2020-05-14T17:27:09Z</time>
      </trkpt>
      <trkpt lat="47.17591" lon="-1.61034">
        <ele>0.67</ele>
        <time>2020-05-14T17:27:11Z</time>
      </trkpt>
      <trkpt lat="47.17581" lon="-1.61043">
        <ele>0.87</ele>
        <time>2020-05-14T17:27:13Z</time>
      </trkpt>
      <trkpt lat="47.17572" lon="-1.61052">
        <ele>1.07</ele>
        <time>2020-05-14T17:27:15Z</time>
      </trkpt>
      <trkpt lat="47.17561" lon="-1.61062">
        <ele>1.17</ele>
        <time>2020-05-14T17:27:17Z</time>
      </trkpt>
      <trkpt lat="47.1755" lon="-1.61072">
        <ele>1.87</ele>
        <time>2020-05-14T17:27:19Z</time>
      </trkpt>
      <trkpt lat="47.17538" lon="-1.61083">
        <ele>2.27</ele>
        <time>2020-05-14T17:27:21Z</time>
      </trkpt>
      <trkpt lat="47.17526" lon="-1.61093">
        <ele>1.78</ele>
        <time>2020-05-14T17:27:23Z</time>
      </trkpt>
      <trkpt lat="47.17515" lon="-1.61102">
        <ele>1.24</ele>
        <time>2020-05-14T17:27:25Z</time>
      </trkpt>
      <trkpt lat="47.17504" lon="-1.61109">
        <ele>1.63</ele>
        <time>2020-05-14T17:27:27Z</time>
      </trkpt>
      <trkpt lat="47.17495" lon="-1.61113">
        <ele>2.11</ele>
        <time>2020-05-14T17:27:29Z</time>
      </trkpt>
      <trkpt lat="47.17484" lon="-1.61113">
        <ele>2.6</ele>
        <time>2020-05-14T17:27:31Z</time>
      </trkpt>
      <trkpt lat="47.17473" lon="-1.61107">
        <ele>2.2</ele>
        <time>2020-05-14T17:27:33Z</time>
      </trkpt>
      <trkpt lat="47.17462" lon="-1.61097">
        <ele>1.5</ele>
        <time>2020-05-14T17:27:35Z</time>
      </trkpt>
      <trkpt lat="47.17452" lon="-1.61086">
        <ele>1.61</ele>
        <time>2020-05-14T17:27:37Z</time>
      </trkpt>
      <trkpt lat="47.17442" lon="-1.61075">
        <ele>1.71</ele>
        <time>2020-05-14T17:27:39Z</time>
      </trkpt>
      <trkpt lat="47.17435" lon="-1.61058">
        <ele>2.34</ele>
        <time>2020-05-14T17:27:41Z</time>
      </trkpt>
      <trkpt lat="47.1743" lon="-1.61045">
        <ele>2.86</ele>
        <time>2020-05-14T17:27:43Z</time>
      </trkpt>
      <trkpt lat="47.17426" lon="-1.61029">
        <ele>4.48</ele>
        <time>2020-05-14T17:27:46Z</time>
      </trkpt>
      <trkpt lat="47.17422" lon="-1.61043">
        <ele>5.48</ele>
        <time>2020-05-14T17:27:52Z</time>
      </trkpt>
      <trkpt lat="47.17425" lon="-1.61055">
        <ele>6.12</ele>
        <time>2020-05-14T17:27:54Z</time>
      </trkpt>
      <trkpt lat="47.17431" lon="-1.61069">
        <ele>6.85</ele>
        <time>2020-05-14T17:27:56Z</time>
      </trkpt>
      <trkpt lat="47.17435" lon="-1.61082">
        <ele>7.23</ele>
        <time>2020-05-14T17:27:58Z</time>
      </trkpt>
      <trkpt lat="47.1744" lon="-1.61095">
        <ele>7.62</ele>
        <time>2020-05-14T17:28:00Z</time>
      </trkpt>
      <trkpt lat="47.17446" lon="-1.61108">
        <ele>8.06</ele>
        <time>2020-05-14T17:28:02Z</time>
      </trkpt>
      <trkpt lat="47.17452" lon="-1.61122">
        <ele>8.21</ele>
        <time>2020-05-14T17:28:04Z</time>
      </trkpt>
      <trkpt lat="47.17459" lon="-1.6114">
        <ele>8.59</ele>
        <time>2020-05-14T17:28:07Z</time>
      </trkpt>
      <trkpt lat="47.17465" lon="-1.61153">
        <ele>9.05</ele>
        <time>2020-05-14T17:28:09Z</time>
      </trkpt>
      <trkpt lat="47.1747" lon="-1.61166">
        <ele>9.07</ele>
        <time>2020-05-14T17:28:11Z</time>
      </trkpt>
      <trkpt lat="47.17477" lon="-1.6118">
        <ele>8.92</ele>
        <time>2020-05-14T17:28:13Z</time>
      </trkpt>
      <trkpt lat="47.17483" lon="-1.61193">
        <ele>8.29</ele>
        <time>2020-05-14T17:28:15Z</time>
      </trkpt>
      <trkpt lat="47.17489" lon="-1.61207">
        <ele>6.98</ele>
        <time>2020-05-14T17:28:17Z</time>
      </trkpt>
      <trkpt lat="47.17494" lon="-1.61219">
        <ele>6.61</ele>
        <time>2020-05-14T17:28:19Z</time>
      </trkpt>
      <trkpt lat="47.17499" lon="-1.61232">
        <ele>6.57</ele>
        <time>2020-05-14T17:28:21Z</time>
      </trkpt>
      <trkpt lat="47.17504" lon="-1.61244">
        <ele>7.33</ele>
        <time>2020-05-14T17:28:23Z</time>
      </trkpt>
      <trkpt lat="47.17509" lon="-1.61256">
        <ele>7.47</ele>
        <time>2020-05-14T17:28:25Z</time>
      </trkpt>
      <trkpt lat="47.17515" lon="-1.61268">
        <ele>7.44</ele>
        <time>2020-05-14T17:28:27Z</time>
      </trkpt>
      <trkpt lat="47.17523" lon="-1.61279">
        <ele>6.84</ele>
        <time>2020-05-14T17:28:29Z</time>
      </trkpt>
      <trkpt lat="47.17533" lon="-1.61289">
        <ele>6.7</ele>
        <time>2020-05-14T17:28:31Z</time>
      </trkpt>
      <trkpt lat="47.17545" lon="-1.61293">
        <ele>7.29</ele>
        <time>2020-05-14T17:28:33Z</time>
      </trkpt>
      <trkpt lat="47.17556" lon="-1.61298">
        <ele>7.7</ele>
        <time>2020-05-14T17:28:35Z</time>
      </trkpt>
      <trkpt lat="47.17565" lon="-1.61308">
        <ele>7.87</ele>
        <time>2020-05-14T17:28:37Z</time>
      </trkpt>
      <trkpt lat="47.1757" lon="-1.61324">
        <ele>8.24</ele>
        <time>2020-05-14T17:28:39Z</time>
      </trkpt>
      <trkpt lat="47.17571" lon="-1.61339">
        <ele>8.32</ele>
        <time>2020-05-14T17:28:41Z</time>
      </trkpt>
      <trkpt lat="47.17573" lon="-1.61353">
        <ele>8.58</ele>
        <time>2020-05-14T17:28:43Z</time>
      </trkpt>
      <trkpt lat="47.1758" lon="-1.61366">
        <ele>8.9</ele>
        <time>2020-05-14T17:28:45Z</time>
      </trkpt>
      <trkpt lat="47.1759" lon="-1.61378">
        <ele>9.02</ele>
        <time>2020-05-14T17:28:47Z</time>
      </trkpt>
      <trkpt lat="47.17599" lon="-1.61388">
        <ele>8.99</ele>
        <time>2020-05-14T17:28:49Z</time>
      </trkpt>
      <trkpt lat="47.17608" lon="-1.61399">
        <ele>8.84</ele>
        <time>2020-05-14T17:28:51Z</time>
      </trkpt>
      <trkpt lat="47.17618" lon="-1.6141">
        <ele>9.46</ele>
        <time>2020-05-14T17:28:53Z</time>
      </trkpt>
      <trkpt lat="47.17627" lon="-1.61419">
        <ele>9.54</ele>
        <time>2020-05-14T17:28:55Z</time>
      </trkpt>
      <trkpt lat="47.17635" lon="-1.61428">
        <ele>10.04</ele>
        <time>2020-05-14T17:28:57Z</time>
      </trkpt>
      <trkpt lat="47.17645" lon="-1.61438">
        <ele>10.04</ele>
        <time>2020-05-14T17:28:59Z</time>
      </trkpt>
      <trkpt lat="47.17655" lon="-1.61448">
        <ele>10.07</ele>
        <time>2020-05-14T17:29:01Z</time>
      </trkpt>
      <trkpt lat="47.17665" lon="-1.61459">
        <ele>10.26</ele>
        <time>2020-05-14T17:29:03Z</time>
      </trkpt>
      <trkpt lat="47.17673" lon="-1.61474">
        <ele>10.21</ele>
        <time>2020-05-14T17:29:05Z</time>
      </trkpt>
      <trkpt lat="47.17679" lon="-1.61487">
        <ele>11.16</ele>
        <time>2020-05-14T17:29:07Z</time>
      </trkpt>
      <trkpt lat="47.17684" lon="-1.61502">
        <ele>10.81</ele>
        <time>2020-05-14T17:29:09Z</time>
      </trkpt>
      <trkpt lat="47.17689" lon="-1.61517">
        <ele>10.7</ele>
        <time>2020-05-14T17:29:11Z</time>
      </trkpt>
      <trkpt lat="47.17694" lon="-1.61533">
        <ele>10.51</ele>
        <time>2020-05-14T17:29:13Z</time>
      </trkpt>
      <trkpt lat="47.17697" lon="-1.6155">
        <ele>10.16</ele>
        <time>2020-05-14T17:29:15Z</time>
      </trkpt>
      <trkpt lat="47.17698" lon="-1.61566">
        <ele>9.91</ele>
        <time>2020-05-14T17:29:17Z</time>
      </trkpt>
      <trkpt lat="47.17699" lon="-1.61582">
        <ele>9.79</ele>
        <time>2020-05-14T17:29:19Z</time>
      </trkpt>
      <trkpt lat="47.17699" lon="-1.61599">
        <ele>9.96</ele>
        <time>2020-05-14T17:29:21Z</time>
      </trkpt>
      <trkpt lat="47.17699" lon="-1.61613">
        <ele>10.48</ele>
        <time>2020-05-14T17:29:23Z</time>
      </trkpt>
      <trkpt lat="47.17698" lon="-1.61627">
        <ele>10.64</ele>
        <time>2020-05-14T17:29:25Z</time>
      </trkpt>
      <trkpt lat="47.17698" lon="-1.61644">
        <ele>11.4</ele>
        <time>2020-05-14T17:29:27Z</time>
      </trkpt>
      <trkpt lat="47.17698" lon="-1.61659">
        <ele>11.88</ele>
        <time>2020-05-14T17:29:29Z</time>
      </trkpt>
      <trkpt lat="47.17698" lon="-1.61675">
        <ele>12.09</ele>
        <time>2020-05-14T17:29:31Z</time>
      </trkpt>
      <trkpt lat="47.17698" lon="-1.61694">
        <ele>12.45</ele>
        <time>2020-05-14T17:29:34Z</time>
      </trkpt>
      <trkpt lat="47.17699" lon="-1.61708">
        <ele>13.52</ele>
        <time>2020-05-14T17:29:36Z</time>
      </trkpt>
      <trkpt lat="47.17699" lon="-1.61722">
        <ele>14.72</ele>
        <time>2020-05-14T17:29:38Z</time>
      </trkpt>
      <trkpt lat="47.17699" lon="-1.61736">
        <ele>15.29</ele>
        <time>2020-05-14T17:29:40Z</time>
      </trkpt>
      <trkpt lat="47.17698" lon="-1.61749">
        <ele>16.65</ele>
        <time>2020-05-14T17:29:42Z</time>
      </trkpt>
      <trkpt lat="47.17696" lon="-1.61769">
        <ele>17.42</ele>
        <time>2020-05-14T17:29:45Z</time>
      </trkpt>
      <trkpt lat="47.17695" lon="-1.61785">
        <ele>17.9</ele>
        <time>2020-05-14T17:29:47Z</time>
      </trkpt>
      <trkpt lat="47.17693" lon="-1.61799">
        <ele>18.92</ele>
        <time>2020-05-14T17:29:49Z</time>
      </trkpt>
      <trkpt lat="47.17692" lon="-1.61817">
        <ele>20.49</ele>
        <time>2020-05-14T17:29:52Z</time>
      </trkpt>
      <trkpt lat="47.17691" lon="-1.61838">
        <ele>20.49</ele>
        <time>2020-05-14T17:29:55Z</time>
      </trkpt>
      <trkpt lat="47.17689" lon="-1.61853">
        <ele>20.48</ele>
        <time>2020-05-14T17:29:57Z</time>
      </trkpt>
      <trkpt lat="47.17687" lon="-1.61868">
        <ele>20.52</ele>
        <time>2020-05-14T17:29:59Z</time>
      </trkpt>
      <trkpt lat="47.17684" lon="-1.61885">
        <ele>21.23</ele>
        <time>2020-05-14T17:30:01Z</time>
      </trkpt>
      <trkpt lat="47.17679" lon="-1.61898">
        <ele>21.36</ele>
        <time>2020-05-14T17:30:03Z</time>
      </trkpt>
      <trkpt lat="47.17675" lon="-1.61913">
        <ele>21.87</ele>
        <time>2020-05-14T17:30:05Z</time>
      </trkpt>
      <trkpt lat="47.1767" lon="-1.61931">
        <ele>22.16</ele>
        <time>2020-05-14T17:30:08Z</time>
      </trkpt>
      <trkpt lat="47.17666" lon="-1.61947">
        <ele>22.42</ele>
        <time>2020-05-14T17:30:10Z</time>
      </trkpt>
      <trkpt lat="47.17663" lon="-1.6196">
        <ele>22.4</ele>
        <time>2020-05-14T17:30:12Z</time>
      </trkpt>
      <trkpt lat="47.1766" lon="-1.61975">
        <ele>23.2</ele>
        <time>2020-05-14T17:30:14Z</time>
      </trkpt>
      <trkpt lat="47.17663" lon="-1.6199">
        <ele>23.12</ele>
        <time>2020-05-14T17:30:16Z</time>
      </trkpt>
      <trkpt lat="47.1766" lon="-1.62004">
        <ele>22.67</ele>
        <time>2020-05-14T17:30:18Z</time>
      </trkpt>
      <trkpt lat="47.17652" lon="-1.62016">
        <ele>21.79</ele>
        <time>2020-05-14T17:30:20Z</time>
      </trkpt>
      <trkpt lat="47.17644" lon="-1.62027">
        <ele>20.77</ele>
        <time>2020-05-14T17:30:22Z</time>
      </trkpt>
      <trkpt lat="47.17638" lon="-1.62039">
        <ele>20.13</ele>
        <time>2020-05-14T17:30:24Z</time>
      </trkpt>
      <trkpt lat="47.17633" lon="-1.62054">
        <ele>20.39</ele>
        <time>2020-05-14T17:30:26Z</time>
      </trkpt>
      <trkpt lat="47.17627" lon="-1.62067">
        <ele>21.26</ele>
        <time>2020-05-14T17:30:28Z</time>
      </trkpt>
      <trkpt lat="47.17622" lon="-1.62083">
        <ele>21.19</ele>
        <time>2020-05-14T17:30:30Z</time>
      </trkpt>
      <trkpt lat="47.17617" lon="-1.621">
        <ele>21.49</ele>
        <time>2020-05-14T17:30:32Z</time>
      </trkpt>
      <trkpt lat="47.17611" lon="-1.62114">
        <ele>22.28</ele>
        <time>2020-05-14T17:30:34Z</time>
      </trkpt>
      <trkpt lat="47.17606" lon="-1.62129">
        <ele>22.39</ele>
        <time>2020-05-14T17:30:36Z</time>
      </trkpt>
      <trkpt lat="47.176" lon="-1.62145">
        <ele>21.76</ele>
        <time>2020-05-14T17:30:38Z</time>
      </trkpt>
      <trkpt lat="47.17594" lon="-1.62162">
        <ele>21.82</ele>
        <time>2020-05-14T17:30:40Z</time>
      </trkpt>
      <trkpt lat="47.17589" lon="-1.62179">
        <ele>22</ele>
        <time>2020-05-14T17:30:42Z</time>
      </trkpt>
      <trkpt lat="47.17583" lon="-1.62196">
        <ele>22.25</ele>
        <time>2020-05-14T17:30:44Z</time>
      </trkpt>
      <trkpt lat="47.17578" lon="-1.62211">
        <ele>22.53</ele>
        <time>2020-05-14T17:30:46Z</time>
      </trkpt>
      <trkpt lat="47.17572" lon="-1.62227">
        <ele>22.09</ele>
        <time>2020-05-14T17:30:48Z</time>
      </trkpt>
      <trkpt lat="47.17565" lon="-1.62246">
        <ele>21.18</ele>
        <time>2020-05-14T17:30:50Z</time>
      </trkpt>
      <trkpt lat="47.17558" lon="-1.62266">
        <ele>20.22</ele>
        <time>2020-05-14T17:30:52Z</time>
      </trkpt>
      <trkpt lat="47.17551" lon="-1.62285">
        <ele>18.72</ele>
        <time>2020-05-14T17:30:54Z</time>
      </trkpt>
      <trkpt lat="47.17544" lon="-1.62303">
        <ele>17.7</ele>
        <time>2020-05-14T17:30:56Z</time>
      </trkpt>
      <trkpt lat="47.17538" lon="-1.62321">
        <ele>17.22</ele>
        <time>2020-05-14T17:30:58Z</time>
      </trkpt>
      <trkpt lat="47.17531" lon="-1.62341">
        <ele>16.28</ele>
        <time>2020-05-14T17:31:00Z</time>
      </trkpt>
      <trkpt lat="47.17525" lon="-1.62359">
        <ele>16.04</ele>
        <time>2020-05-14T17:31:02Z</time>
      </trkpt>
      <trkpt lat="47.17521" lon="-1.62378">
        <ele>15.92</ele>
        <time>2020-05-14T17:31:04Z</time>
      </trkpt>
      <trkpt lat="47.1752" lon="-1.624">
        <ele>16.15</ele>
        <time>2020-05-14T17:31:06Z</time>
      </trkpt>
      <trkpt lat="47.17512" lon="-1.62414">
        <ele>15.98</ele>
        <time>2020-05-14T17:31:08Z</time>
      </trkpt>
      <trkpt lat="47.17499" lon="-1.62413">
        <ele>15.9</ele>
        <time>2020-05-14T17:31:10Z</time>
      </trkpt>
      <trkpt lat="47.1749" lon="-1.62399">
        <ele>15.8</ele>
        <time>2020-05-14T17:31:12Z</time>
      </trkpt>
      <trkpt lat="47.17479" lon="-1.62384">
        <ele>16.02</ele>
        <time>2020-05-14T17:31:14Z</time>
      </trkpt>
      <trkpt lat="47.17466" lon="-1.62378">
        <ele>15.97</ele>
        <time>2020-05-14T17:31:16Z</time>
      </trkpt>
      <trkpt lat="47.17453" lon="-1.62377">
        <ele>15.87</ele>
        <time>2020-05-14T17:31:18Z</time>
      </trkpt>
      <trkpt lat="47.17437" lon="-1.62378">
        <ele>15.65</ele>
        <time>2020-05-14T17:31:20Z</time>
      </trkpt>
      <trkpt lat="47.17422" lon="-1.6238">
        <ele>15.61</ele>
        <time>2020-05-14T17:31:22Z</time>
      </trkpt>
      <trkpt lat="47.17407" lon="-1.6238">
        <ele>14.84</ele>
        <time>2020-05-14T17:31:24Z</time>
      </trkpt>
      <trkpt lat="47.17393" lon="-1.6238">
        <ele>14.19</ele>
        <time>2020-05-14T17:31:26Z</time>
      </trkpt>
      <trkpt lat="47.17378" lon="-1.6238">
        <ele>14</ele>
        <time>2020-05-14T17:31:28Z</time>
      </trkpt>
      <trkpt lat="47.17363" lon="-1.6238">
        <ele>13.47</ele>
        <time>2020-05-14T17:31:30Z</time>
      </trkpt>
      <trkpt lat="47.17349" lon="-1.6238">
        <ele>12.73</ele>
        <time>2020-05-14T17:31:32Z</time>
      </trkpt>
      <trkpt lat="47.17337" lon="-1.62381">
        <ele>12.59</ele>
        <time>2020-05-14T17:31:34Z</time>
      </trkpt>
      <trkpt lat="47.17322" lon="-1.62383">
        <ele>12.85</ele>
        <time>2020-05-14T17:31:36Z</time>
      </trkpt>
      <trkpt lat="47.17309" lon="-1.62385">
        <ele>12.34</ele>
        <time>2020-05-14T17:31:38Z</time>
      </trkpt>
      <trkpt lat="47.17296" lon="-1.62388">
        <ele>11.57</ele>
        <time>2020-05-14T17:31:40Z</time>
      </trkpt>
      <trkpt lat="47.17283" lon="-1.62391">
        <ele>11.45</ele>
        <time>2020-05-14T17:31:42Z</time>
      </trkpt>
      <trkpt lat="47.1727" lon="-1.62394">
        <ele>11.56</ele>
        <time>2020-05-14T17:31:44Z</time>
      </trkpt>
      <trkpt lat="47.17256" lon="-1.62397">
        <ele>11.42</ele>
        <time>2020-05-14T17:31:46Z</time>
      </trkpt>
      <trkpt lat="47.1724" lon="-1.62401">
        <ele>10.45</ele>
        <time>2020-05-14T17:31:48Z</time>
      </trkpt>
      <trkpt lat="47.17226" lon="-1.62404">
        <ele>9.59</ele>
        <time>2020-05-14T17:31:50Z</time>
      </trkpt>
      <trkpt lat="47.17212" lon="-1.62407">
        <ele>9.29</ele>
        <time>2020-05-14T17:31:52Z</time>
      </trkpt>
      <trkpt lat="47.17198" lon="-1.6241">
        <ele>9.01</ele>
        <time>2020-05-14T17:31:54Z</time>
      </trkpt>
      <trkpt lat="47.17183" lon="-1.62413">
        <ele>9.85</ele>
        <time>2020-05-14T17:31:56Z</time>
      </trkpt>
      <trkpt lat="47.17171" lon="-1.62415">
        <ele>10.75</ele>
        <time>2020-05-14T17:31:58Z</time>
      </trkpt>
      <trkpt lat="47.17157" lon="-1.62417">
        <ele>11.13</ele>
        <time>2020-05-14T17:32:00Z</time>
      </trkpt>
      <trkpt lat="47.17141" lon="-1.62419">
        <ele>11.07</ele>
        <time>2020-05-14T17:32:02Z</time>
      </trkpt>
      <trkpt lat="47.17128" lon="-1.62422">
        <ele>10.6</ele>
        <time>2020-05-14T17:32:04Z</time>
      </trkpt>
      <trkpt lat="47.17113" lon="-1.62425">
        <ele>10.37</ele>
        <time>2020-05-14T17:32:06Z</time>
      </trkpt>
      <trkpt lat="47.17099" lon="-1.62429">
        <ele>9.7</ele>
        <time>2020-05-14T17:32:08Z</time>
      </trkpt>
      <trkpt lat="47.17086" lon="-1.62433">
        <ele>9.68</ele>
        <time>2020-05-14T17:32:10Z</time>
      </trkpt>
      <trkpt lat="47.17074" lon="-1.6244">
        <ele>9.69</ele>
        <time>2020-05-14T17:32:12Z</time>
      </trkpt>
      <trkpt lat="47.17061" lon="-1.62447">
        <ele>10.28</ele>
        <time>2020-05-14T17:32:14Z</time>
      </trkpt>
      <trkpt lat="47.17048" lon="-1.62455">
        <ele>11.04</ele>
        <time>2020-05-14T17:32:16Z</time>
      </trkpt>
      <trkpt lat="47.17035" lon="-1.62463">
        <ele>11.77</ele>
        <time>2020-05-14T17:32:18Z</time>
      </trkpt>
      <trkpt lat="47.17022" lon="-1.62471">
        <ele>12.71</ele>
        <time>2020-05-14T17:32:20Z</time>
      </trkpt>
      <trkpt lat="47.17009" lon="-1.6248">
        <ele>14.03</ele>
        <time>2020-05-14T17:32:22Z</time>
      </trkpt>
      <trkpt lat="47.16998" lon="-1.62486">
        <ele>14.76</ele>
        <time>2020-05-14T17:32:24Z</time>
      </trkpt>
      <trkpt lat="47.16986" lon="-1.62494">
        <ele>14.81</ele>
        <time>2020-05-14T17:32:26Z</time>
      </trkpt>
      <trkpt lat="47.16973" lon="-1.625">
        <ele>13.41</ele>
        <time>2020-05-14T17:32:28Z</time>
      </trkpt>
      <trkpt lat="47.16962" lon="-1.62505">
        <ele>12.71</ele>
        <time>2020-05-14T17:32:30Z</time>
      </trkpt>
      <trkpt lat="47.16952" lon="-1.62509">
        <ele>12.96</ele>
        <time>2020-05-14T17:32:32Z</time>
      </trkpt>
      <trkpt lat="47.1694" lon="-1.6251">
        <ele>13.51</ele>
        <time>2020-05-14T17:32:34Z</time>
      </trkpt>
      <trkpt lat="47.16927" lon="-1.62508">
        <ele>13.33</ele>
        <time>2020-05-14T17:32:36Z</time>
      </trkpt>
      <trkpt lat="47.16914" lon="-1.62508">
        <ele>13.27</ele>
        <time>2020-05-14T17:32:38Z</time>
      </trkpt>
      <trkpt lat="47.16902" lon="-1.62506">
        <ele>12.92</ele>
        <time>2020-05-14T17:32:40Z</time>
      </trkpt>
      <trkpt lat="47.16888" lon="-1.62504">
        <ele>13.53</ele>
        <time>2020-05-14T17:32:42Z</time>
      </trkpt>
      <trkpt lat="47.16875" lon="-1.625">
        <ele>13.89</ele>
        <time>2020-05-14T17:32:44Z</time>
      </trkpt>
      <trkpt lat="47.16863" lon="-1.62496">
        <ele>14.02</ele>
        <time>2020-05-14T17:32:46Z</time>
      </trkpt>
      <trkpt lat="47.1685" lon="-1.62492">
        <ele>13.64</ele>
        <time>2020-05-14T17:32:48Z</time>
      </trkpt>
      <trkpt lat="47.16838" lon="-1.62487">
        <ele>12.99</ele>
        <time>2020-05-14T17:32:50Z</time>
      </trkpt>
      <trkpt lat="47.16825" lon="-1.62483">
        <ele>12.39</ele>
        <time>2020-05-14T17:32:52Z</time>
      </trkpt>
      <trkpt lat="47.16812" lon="-1.62478">
        <ele>11.96</ele>
        <time>2020-05-14T17:32:54Z</time>
      </trkpt>
      <trkpt lat="47.168" lon="-1.62474">
        <ele>11.47</ele>
        <time>2020-05-14T17:32:56Z</time>
      </trkpt>
      <trkpt lat="47.16787" lon="-1.62469">
        <ele>11.65</ele>
        <time>2020-05-14T17:32:58Z</time>
      </trkpt>
      <trkpt lat="47.16774" lon="-1.62464">
        <ele>12.16</ele>
        <time>2020-05-14T17:32:59Z</time>
      </trkpt>
      <trkpt lat="47.16764" lon="-1.6246">
        <ele>12.75</ele>
        <time>2020-05-14T17:33:01Z</time>
      </trkpt>
      <trkpt lat="47.16754" lon="-1.62456">
        <ele>12.83</ele>
        <time>2020-05-14T17:33:03Z</time>
      </trkpt>
      <trkpt lat="47.16742" lon="-1.62453">
        <ele>13.23</ele>
        <time>2020-05-14T17:33:05Z</time>
      </trkpt>
      <trkpt lat="47.16731" lon="-1.62449">
        <ele>13.08</ele>
        <time>2020-05-14T17:33:07Z</time>
      </trkpt>
      <trkpt lat="47.16721" lon="-1.62455">
        <ele>13.44</ele>
        <time>2020-05-14T17:33:09Z</time>
      </trkpt>
      <trkpt lat="47.16717" lon="-1.62471">
        <ele>14.07</ele>
        <time>2020-05-14T17:33:11Z</time>
      </trkpt>
      <trkpt lat="47.16715" lon="-1.62488">
        <ele>14.85</ele>
        <time>2020-05-14T17:33:13Z</time>
      </trkpt>
      <trkpt lat="47.16719" lon="-1.62503">
        <ele>14.75</ele>
        <time>2020-05-14T17:33:15Z</time>
      </trkpt>
      <trkpt lat="47.1673" lon="-1.62506">
        <ele>14.84</ele>
        <time>2020-05-14T17:33:17Z</time>
      </trkpt>
      <trkpt lat="47.16741" lon="-1.6251">
        <ele>14.97</ele>
        <time>2020-05-14T17:33:19Z</time>
      </trkpt>
      <trkpt lat="47.16752" lon="-1.62514">
        <ele>15.35</ele>
        <time>2020-05-14T17:33:21Z</time>
      </trkpt>
      <trkpt lat="47.16761" lon="-1.62519">
        <ele>15.22</ele>
        <time>2020-05-14T17:33:23Z</time>
      </trkpt>
      <trkpt lat="47.1677" lon="-1.62524">
        <ele>14.41</ele>
        <time>2020-05-14T17:33:25Z</time>
      </trkpt>
      <trkpt lat="47.16781" lon="-1.62531">
        <ele>14.57</ele>
        <time>2020-05-14T17:33:27Z</time>
      </trkpt>
      <trkpt lat="47.1679" lon="-1.62538">
        <ele>15.09</ele>
        <time>2020-05-14T17:33:29Z</time>
      </trkpt>
      <trkpt lat="47.168" lon="-1.62545">
        <ele>14.77</ele>
        <time>2020-05-14T17:33:31Z</time>
      </trkpt>
      <trkpt lat="47.16809" lon="-1.62551">
        <ele>14.08</ele>
        <time>2020-05-14T17:33:33Z</time>
      </trkpt>
      <trkpt lat="47.16819" lon="-1.62559">
        <ele>13.28</ele>
        <time>2020-05-14T17:33:35Z</time>
      </trkpt>
      <trkpt lat="47.16827" lon="-1.62567">
        <ele>12.51</ele>
        <time>2020-05-14T17:33:37Z</time>
      </trkpt>
      <trkpt lat="47.16834" lon="-1.62577">
        <ele>11.2</ele>
        <time>2020-05-14T17:33:39Z</time>
      </trkpt>
      <trkpt lat="47.16832" lon="-1.62592">
        <ele>10.91</ele>
        <time>2020-05-14T17:33:41Z</time>
      </trkpt>
      <trkpt lat="47.16824" lon="-1.62607">
        <ele>10.95</ele>
        <time>2020-05-14T17:33:43Z</time>
      </trkpt>
      <trkpt lat="47.16816" lon="-1.62617">
        <ele>11.66</ele>
        <time>2020-05-14T17:33:45Z</time>
      </trkpt>
      <trkpt lat="47.16808" lon="-1.62627">
        <ele>11.95</ele>
        <time>2020-05-14T17:33:47Z</time>
      </trkpt>
      <trkpt lat="47.168" lon="-1.62638">
        <ele>12.28</ele>
        <time>2020-05-14T17:33:49Z</time>
      </trkpt>
      <trkpt lat="47.16793" lon="-1.62649">
        <ele>12.46</ele>
        <time>2020-05-14T17:33:51Z</time>
      </trkpt>
      <trkpt lat="47.16787" lon="-1.62661">
        <ele>12.76</ele>
        <time>2020-05-14T17:33:53Z</time>
      </trkpt>
      <trkpt lat="47.16778" lon="-1.62665">
        <ele>13.15</ele>
        <time>2020-05-14T17:33:59Z</time>
      </trkpt>
    </trkseg>
  </trk>
</gpx>